Погода в Асино

 Дата/время   Температура   Влажность   Давление 
 2020-09-27 19:11:30  7.6   66   763 
 2020-09-27 19:06:26  7.7   66   763 
 2020-09-27 19:01:21  7.8   65   763 
 2020-09-27 18:56:17  7.9   63   763 
 2020-09-27 18:51:13  8.0   63   763 
 2020-09-27 18:46:09  8.0   63   763 
 2020-09-27 18:41:05  7.9   61   763 
 2020-09-27 18:36:01  8.1   61   763 
 2020-09-27 18:30:57  8.1   61   763 
 2020-09-27 18:25:53  8.1   60   763 
 2020-09-27 18:20:49  8.2   60   763 
 2020-09-27 18:15:45  8.3   59   763 
 2020-09-27 18:10:41  8.4   58   763 
 2020-09-27 18:05:37  8.5   58   763 
 2020-09-27 18:00:33  8.6   56   763 
 2020-09-27 17:55:29  8.8   58   763 
 2020-09-27 17:50:25  8.9   57   763 
 2020-09-27 17:45:20  8.9   57   763 
 2020-09-27 17:40:16  9.0   55   763 
 2020-09-27 17:35:12  9.1   56   763 
 2020-09-27 17:30:08  9.3   54   763 
 2020-09-27 17:25:04  9.4   55   763 
 2020-09-27 17:20:00  9.4   53   763 
 2020-09-27 17:14:56  9.5   55   763 
 2020-09-27 17:09:52  9.6   51   763 
 2020-09-27 17:04:48  9.6   49   763 
 2020-09-27 16:59:44  9.9   52   763 
 2020-09-27 16:54:40  9.9   51   763 
 2020-09-27 16:49:35  9.9   50   763 
 2020-09-27 16:44:31  9.9   52   763 
 2020-09-27 16:39:27  9.6   53   763 
 2020-09-27 16:34:23  9.2   55   763 
 2020-09-27 16:29:19  9.2   54   763 
 2020-09-27 16:24:15  9.2   57   763 
 2020-09-27 16:19:11  9.3   57   763 
 2020-09-27 16:14:07  9.1   55   763 
 2020-09-27 16:09:03  9.2   56   763 
 2020-09-27 16:03:58  9.2   57   763 
 2020-09-27 15:58:54  9.4   59   763 
 2020-09-27 15:53:50  9.1   60   763 
 2020-09-27 15:48:46  9.4   60   763 
 2020-09-27 15:43:42  9.4   58   763 
 2020-09-27 15:38:38  9.2   61   763 
 2020-09-27 15:33:34  9.2   61   763 
 2020-09-27 15:28:30  9.1   59   763 
 2020-09-27 15:23:26  9.2   59   763 
 2020-09-27 15:18:21  9.0   59   763 
 2020-09-27 15:13:17  9.2   60   763 
 2020-09-27 15:08:13  9.3   61   763 
 2020-09-27 15:03:09  9.1   60   763 
 2020-09-27 14:58:05  9.2   57   763 
 2020-09-27 14:53:01  9.4   58   763 
 2020-09-27 14:47:57  9.4   56   763 
 2020-09-27 14:42:53  9.6   58   763 
 2020-09-27 14:37:49  9.5   56   763 
 2020-09-27 14:32:45  9.7   57   763 
 2020-09-27 14:27:41  9.6   57   763 
 2020-09-27 14:22:37  9.2   55   763 
 2020-09-27 14:17:33  9.2   58   763 
 2020-09-27 14:12:29  9.5   58   763 
 2020-09-27 14:07:25  9.2   58   763 
 2020-09-27 14:02:20  9.4   59   763 
 2020-09-27 13:57:16  9.5   60   763 
 2020-09-27 13:52:12  9.6   61   763 
 2020-09-27 13:47:08  9.3   63   763 
 2020-09-27 13:42:04  9.4   62   763 
 2020-09-27 13:37:00  9.8   60   763 
 2020-09-27 13:31:56  9.7   61   763 
 2020-09-27 13:26:52  9.5   60   763 
 2020-09-27 13:21:48  9.5   59   763 
 2020-09-27 13:16:44  9.7   63   763 
 2020-09-27 13:11:40  9.8   62   763 
 2020-09-27 13:06:35  9.8   61   763 
 2020-09-27 13:01:31  9.5   64   763 
 2020-09-27 12:56:27  9.2   63   763 
 2020-09-27 12:51:23  9.1   65   763 
 2020-09-27 12:46:19  8.9   65   763 
 2020-09-27 12:41:15  9.1   64   763 
 2020-09-27 12:36:11  9.3   65   763 
 2020-09-27 12:31:07  9.1   64   763 
 2020-09-27 12:26:03  8.5   67   763 
 2020-09-27 12:20:59  9.1   65   763 
 2020-09-27 12:15:55  8.9   68   763 
 2020-09-27 12:10:51  9.0   64   763 
 2020-09-27 12:05:47  8.9   68   763 
 2020-09-27 12:00:43  9.0   64   763 
 2020-09-27 11:55:39  9.0   64   763 
 2020-09-27 11:50:34  8.6   67   763 
 2020-09-27 11:45:30  8.5   69   763 
 2020-09-27 11:40:26  8.5   71   763 
 2020-09-27 11:35:22  8.2   69   763 
 2020-09-27 11:30:18  7.6   74   763 
 2020-09-27 11:25:14  7.2   73   763 
 2020-09-27 11:20:10  7.3   70   764 
 2020-09-27 11:15:06  7.4   73   764 
 2020-09-27 11:10:02  7.0   73   764 
 2020-09-27 11:04:58  6.9   75   764 
 2020-09-27 10:59:54  6.4   75   764 
 2020-09-27 10:54:50  6.1   75   764 
 2020-09-27 10:49:46  5.6   76   764 
 2020-09-27 10:44:42  5.6   80   764 
 2020-09-27 10:39:38  5.3   80   764 
 2020-09-27 10:34:34  5.3   82   764 
 2020-09-27 10:29:30  4.9   83   764 
 2020-09-27 10:24:26  4.8   82   764 
 2020-09-27 10:19:21  4.7   81   764 
 2020-09-27 10:14:17  4.6   83   764 
 2020-09-27 10:09:13  4.6   81   764 
 2020-09-27 10:04:09  4.6   83   764 
 2020-09-27 09:59:05  4.6   84   764 
 2020-09-27 09:54:01  4.4   84   764 
 2020-09-27 09:48:57  4.2   84   763 
 2020-09-27 09:43:53  4.2   84   763 
 2020-09-27 09:38:49  4.5   84   763 
 2020-09-27 09:33:45  4.2   85   763 
 2020-09-27 09:28:41  4.1   85   763 
 2020-09-27 09:23:36  4.4   86   763 
 2020-09-27 09:18:32  4.1   88   763 
 2020-09-27 09:13:28  4.1   89   763 
 2020-09-27 09:08:24  3.9   89   763 
 2020-09-27 09:03:20  3.9   89   763 
 2020-09-27 08:58:16  3.7   86   763 
 2020-09-27 08:53:12  3.8   88   763 
 2020-09-27 08:48:08  3.2   88   763 
 2020-09-27 08:43:03  3.0   91   763 
 2020-09-27 08:37:59  2.9   91   763 
 2020-09-27 08:32:55  2.8   92   763 
 2020-09-27 08:27:51  2.9   92   763 
 2020-09-27 08:22:47  2.7   93   763 
 2020-09-27 08:17:43  2.5   93   763 
 2020-09-27 08:12:39  2.4   93   763 
 2020-09-27 08:07:35  2.4   94   763 
 2020-09-27 08:02:30  2.2   94   763 
 2020-09-27 07:57:26  2.2   94   763 
 2020-09-27 07:52:22  2.2   94   763 
 2020-09-27 07:47:18  2.1   95   763 
 2020-09-27 07:42:14  2.1   95   763 
 2020-09-27 07:37:10  2.1   95   763 
 2020-09-27 07:32:06  2.3   94   763 
 2020-09-27 07:27:02  2.2   94   763 
 2020-09-27 07:21:58  2.5   94   763 
 2020-09-27 07:16:54  2.6   94   763 
 2020-09-27 07:11:50  2.5   94   763 
 2020-09-27 07:06:46  2.5   94   763 
 2020-09-27 07:01:42  2.5   95   763 
 2020-09-27 06:56:38  2.5   95   763 
 2020-09-27 06:51:34  2.4   95   763 
 2020-09-27 06:46:30  2.4   95   763 
 2020-09-27 06:41:26  2.5   95   763 
 2020-09-27 06:36:22  2.5   95   763 
 2020-09-27 06:31:17  2.6   95   763 
 2020-09-27 06:26:13  2.6   94   763 
 2020-09-27 06:21:09  2.7   95   762 
 2020-09-27 06:16:05  2.7   95   762 
 2020-09-27 06:11:01  2.8   95   762 
 2020-09-27 06:05:57  2.8   94   762 
 2020-09-27 06:00:53  2.9   94   762 
 2020-09-27 05:55:49  3.1   93   762 
 2020-09-27 05:50:45  3.1   93   762 
 2020-09-27 05:45:41  3.2   93   762 
 2020-09-27 05:40:37  3.2   92   762 
 2020-09-27 05:35:33  3.2   92   762 
 2020-09-27 05:30:29  3.3   92   762 
 2020-09-27 05:25:25  3.4   92   762 
 2020-09-27 05:20:21  3.4   92   762 
 2020-09-27 05:15:17  3.4   92   762 
 2020-09-27 05:10:13  3.6   91   762 
 2020-09-27 05:05:08  3.6   90   762 
 2020-09-27 05:00:04  3.7   90   762 
 2020-09-27 04:55:00  3.9   89   762 
 2020-09-27 04:49:56  3.9   89   762 
 2020-09-27 04:44:52  4.1   89   762 
 2020-09-27 04:39:48  4.1   89   762 
 2020-09-27 04:34:44  4.1   89   762 
 2020-09-27 04:29:40  4.2   88   762 
 2020-09-27 04:24:36  4.4   88   762 
 2020-09-27 04:19:32  4.5   87   762 
 2020-09-27 04:14:28  4.6   87   762 
 2020-09-27 04:09:24  4.6   87   762 
 2020-09-27 04:04:20  4.7   87   762 
 2020-09-27 03:59:16  4.8   87   762 
 2020-09-27 03:54:12  4.8   86   762 
 2020-09-27 03:49:08  4.9   87   762 
 2020-09-27 03:44:04  5.1   86   762 
 2020-09-27 03:38:59  5.0   85   762 
 2020-09-27 03:33:55  5.1   85   762 
 2020-09-27 03:28:51  5.0   85   762 
 2020-09-27 03:23:47  5.0   85   762 
 2020-09-27 03:18:43  5.1   85   762 
 2020-09-27 03:13:39  5.1   85   762 
 2020-09-27 03:08:35  5.1   85   762 
 2020-09-27 03:03:31  5.1   86   762 
 2020-09-27 02:58:27  5.1   86   762 
 2020-09-27 02:53:23  5.0   86   762 
 2020-09-27 02:48:19  5.1   85   762 
 2020-09-27 02:43:15  5.1   85   761 
 2020-09-27 02:38:11  5.0   85   761 
 2020-09-27 02:33:07  5.1   85   761 
 2020-09-27 02:28:03  5.0   85   761 
 2020-09-27 02:22:58  5.1   85   761 
 2020-09-27 02:17:54  5.0   85   761 
 2020-09-27 02:12:50  5.2   85   761 
 2020-09-27 02:07:46  5.1   85   761 
 2020-09-27 02:02:42  5.1   84   761 
 2020-09-27 01:57:38  5.1   85   761 
 2020-09-27 01:52:34  5.1   85   761 
 2020-09-27 01:47:30  5.1   84   761 
 2020-09-27 01:42:26  5.2   85   761 
 2020-09-27 01:37:22  5.2   84   761 
 2020-09-27 01:32:18  5.2   84   761 
 2020-09-27 01:27:14  5.2   84   761 
 2020-09-27 01:22:10  5.1   84   761 
 2020-09-27 01:17:06  5.1   84   761 
 2020-09-27 01:12:02  5.1   83   761 
 2020-09-27 01:06:58  5.2   84   761 
 2020-09-27 01:01:54  5.2   84   761 
 2020-09-27 00:56:50  5.2   85   761 
 2020-09-27 00:51:45  5.2   84   761 
 2020-09-27 00:46:41  5.3   84   761 
 2020-09-27 00:41:37  5.2   84   761 
 2020-09-27 00:36:33  5.2   85   761 
 2020-09-27 00:31:29  5.2   84   761 
 2020-09-27 00:26:25  5.1   85   761 
 2020-09-27 00:21:21  5.2   84   761 
 2020-09-27 00:16:17  5.2   84   761 
 2020-09-27 00:11:13  5.2   84   761 
 2020-09-27 00:06:09  5.1   84   761 
 2020-09-27 00:01:05  5.3   84   761 
 2020-09-26 23:56:01  5.2   84   761 
 2020-09-26 23:50:57  5.2   84   761 
 2020-09-26 23:45:53  5.2   84   761 
 2020-09-26 23:40:49  5.2   83   761 
 2020-09-26 23:35:45  5.3   84   761 
 2020-09-26 23:30:41  5.3   83   761 
 2020-09-26 23:25:36  5.4   84   761 
 2020-09-26 23:20:32  5.4   83   761 
 2020-09-26 23:15:28  5.3   83   761 
 2020-09-26 23:10:24  5.2   83   761 
 2020-09-26 23:05:19  5.3   84   761 
 2020-09-26 23:00:15  5.3   82   761 
 2020-09-26 22:55:11  5.4   83   761 
 2020-09-26 22:50:07  5.4   83   761 
 2020-09-26 22:45:02  5.4   82   761 
 2020-09-26 22:39:58  5.4   82   761 
 2020-09-26 22:34:54  5.4   82   761 
 2020-09-26 22:29:50  5.2   82   761 
 2020-09-26 22:24:46  5.4   81   761 
 2020-09-26 22:19:42  5.3   82   761 
 2020-09-26 22:14:38  5.6   82   761 
 2020-09-26 22:09:34  5.5   82   761 
 2020-09-26 22:04:30  5.4   81   761 
 2020-09-26 21:59:26  5.5   81   761 
 2020-09-26 21:54:19  5.5   81   761 
 2020-09-26 21:49:15  5.5   81   761 
 2020-09-26 21:44:11  5.6   81   761 
 2020-09-26 21:39:06  5.6   81   761 
 2020-09-26 21:34:02  5.6   81   761 
 2020-09-26 21:28:58  5.6   82   761 
 2020-09-26 21:23:54  5.5   81   761 
 2020-09-26 21:18:50  5.6   81   761 
 2020-09-26 21:13:45  5.6   81   761 
 2020-09-26 21:08:41  5.5   80   761 
 2020-09-26 21:03:37  5.6   81   761 
 2020-09-26 20:58:33  5.6   80   761 
 2020-09-26 20:53:29  5.6   80   761 
 2020-09-26 20:48:25  5.5   80   761 
 2020-09-26 20:43:21  5.6   80   761 
 2020-09-26 20:38:17  5.6   80   761 
 2020-09-26 20:33:13  5.6   79   761 
 2020-09-26 20:28:09  5.7   80   761 
 2020-09-26 20:23:05  5.8   79   760 
 2020-09-26 20:18:00  5.6   79   760 
 2020-09-26 20:12:56  5.7   79   760 
 2020-09-26 20:07:52  5.7   79   760 
 2020-09-26 20:02:43  5.7   78   760 
 2020-09-26 19:57:39  5.8   79   760 
 2020-09-26 19:52:34  5.8   79   760 
 2020-09-26 19:47:30  5.8   79   760 
 2020-09-26 19:42:26  5.9   79   760 
 2020-09-26 19:37:22  5.9   79   760 
 2020-09-26 19:32:18  6.1   79   760 
 2020-09-26 19:27:14  6.0   78   760 
 2020-09-26 19:22:10  6.0   78   760 
 2020-09-26 19:17:05  6.0   78   760 
 2020-09-26 19:12:01  6.0   77   760 
 2020-09-26 19:06:57  6.1   78   760 
 2020-09-26 19:01:53  6.1   78   760 
 2020-09-26 18:56:49  6.1   77   760 
 2020-09-26 18:51:45  6.1   77   760 
 2020-09-26 18:46:35  6.1   77   760 
 2020-09-26 18:41:31  6.1   76   760 
 2020-09-26 18:36:27  6.1   77   760 
 2020-09-26 18:31:23  6.1   76   760 
 2020-09-26 18:26:19  6.2   76   760 
 2020-09-26 18:21:14  6.2   76   759 
 2020-09-26 18:16:10  6.3   75   759 
 2020-09-26 18:11:06  6.3   75   759 
 2020-09-26 18:06:02  6.4   75   759 
 2020-09-26 18:00:58  6.4   75   759 
 2020-09-26 17:55:54  6.5   76   759 
 2020-09-26 17:50:50  6.5   76   759 
 2020-09-26 17:45:46  6.5   75   759 
 2020-09-26 17:40:41  6.4   75   759 
 2020-09-26 17:35:37  6.4   76   759 
 2020-09-26 17:30:33  6.5   76   759 
 2020-09-26 17:25:27  6.5   75   759 
 2020-09-26 17:20:23  6.6   75   759 
 2020-09-26 17:15:18  6.6   74   759 
 2020-09-26 17:10:14  6.6   75   759 
 2020-09-26 17:05:10  6.6   75   759 
 2020-09-26 17:00:06  6.8   73   759 
 2020-09-26 16:55:01  6.8   73   759 
 2020-09-26 16:49:57  6.9   72   759 
 2020-09-26 16:44:51  7.1   72   759 
 2020-09-26 16:39:47  6.9   72   759 
 2020-09-26 16:34:43  7.1   74   759 
 2020-09-26 16:29:37  7.0   73   759 
 2020-09-26 16:24:33  7.1   71   759 
 2020-09-26 16:19:29  7.3   72   759 
 2020-09-26 16:14:25  7.2   72   758 
 2020-09-26 16:09:21  7.2   71   758 
 2020-09-26 16:04:17  7.3   71   758 
 2020-09-26 15:59:13  7.0   72   758 
 2020-09-26 15:54:09  6.9   72   758 
 2020-09-26 15:49:05  7.0   71   758 
 2020-09-26 15:44:01  7.0   71   758 
 2020-09-26 15:38:57  7.2   72   758 
 2020-09-26 15:33:53  7.1   72   758 
 2020-09-26 15:28:49  7.3   71   758 
 2020-09-26 15:23:44  7.2   70   758 
 2020-09-26 15:18:40  7.4   73   758 
 2020-09-26 15:13:36  7.0   71   758 
 2020-09-26 15:08:32  7.2   71   758 
 2020-09-26 15:03:28  7.2   71   758 
 2020-09-26 14:58:24  7.0   71   758 
 2020-09-26 14:53:20  6.9   70   758 
 2020-09-26 14:48:16  7.0   71   758 
 2020-09-26 14:43:11  6.9   71   758 
 2020-09-26 14:38:07  6.9   70   758 
 2020-09-26 14:33:03  6.9   71   758 
 2020-09-26 14:27:59  7.3   68   758 
 2020-09-26 14:22:55  7.1   70   758 
 2020-09-26 14:17:51  7.1   71   758 
 2020-09-26 14:12:46  7.1   71   758 
 2020-09-26 14:07:42  7.2   69   758 
 2020-09-26 14:02:38  7.4   69   758 
 2020-09-26 13:57:34  7.4   71   757 
 2020-09-26 13:52:30  6.9   70   757 
 2020-09-26 13:47:26  6.9   69   757 
 2020-09-26 13:42:22  7.1   71   757 
 2020-09-26 13:37:18  6.7   71   757 
 2020-09-26 13:32:13  6.6   70   757 
 2020-09-26 13:27:09  7.0   71   757 
 2020-09-26 13:22:05  7.1   70   757 
 2020-09-26 13:17:01  6.9   72   757 
 2020-09-26 13:11:57  7.0   69   757 
 2020-09-26 13:06:50  6.6   70   757 
 2020-09-26 13:01:46  6.9   72   757 
 2020-09-26 12:56:42  6.4   72   757 
 2020-09-26 12:51:38  6.6   72   757 
 2020-09-26 12:46:33  6.4   74   757 
 2020-09-26 12:41:29  6.4   73   757 
 2020-09-26 12:36:25  6.6   74   757 
 2020-09-26 12:31:21  6.2   74   757 
 2020-09-26 12:26:15  5.9   77   757 
 2020-09-26 12:21:10  5.7   76   757 
 2020-09-26 12:16:06  5.8   76   757 
 2020-09-26 12:11:02  5.8   77   757 
 2020-09-26 12:05:58  5.8   76   757 
 2020-09-26 12:00:54  5.8   76   757 
 2020-09-26 11:55:50  5.8   76   757 
 2020-09-26 11:50:46  5.6   76   757 
 2020-09-26 11:45:42  5.6   78   757 
 2020-09-26 11:40:38  5.4   77   757 
 2020-09-26 11:35:33  5.4   77   757 
 2020-09-26 11:30:29  5.3   78   757 
 2020-09-26 11:25:25  5.6   80   757 
 2020-09-26 11:20:21  5.5   78   757 
 2020-09-26 11:15:17  5.6   78   757 
 2020-09-26 11:10:13  5.8   78   757 
 2020-09-26 11:05:09  5.4   78   757 
 2020-09-26 11:00:05  5.5   79   757 
 2020-09-26 10:55:01  5.2   79   757 
 2020-09-26 10:49:57  5.2   80   757 
 2020-09-26 10:44:53  5.2   79   757 
 2020-09-26 10:39:46  5.2   81   757 
 2020-09-26 10:34:42  5.0   81   757 
 2020-09-26 10:29:38  4.9   81   756 
 2020-09-26 10:24:34  4.9   79   756 
 2020-09-26 10:19:30  4.9   80   756 
 2020-09-26 10:14:24  4.7   80   756 
 2020-09-26 10:09:20  4.9   82   756 
 2020-09-26 10:04:16  4.6   82   756 
 2020-09-26 09:59:12  4.8   83   756 
 2020-09-26 09:54:08  4.6   82   756 
 2020-09-26 09:49:03  4.7   82   756 
 2020-09-26 09:43:59  4.7   83   756 
 2020-09-26 09:38:54  4.7   83   756 
 2020-09-26 09:33:50  4.5   83   756 
 2020-09-26 09:28:46  4.6   84   756 
 2020-09-26 09:23:40  4.5   84   756 
 2020-09-26 09:18:36  4.4   85   756 
 2020-09-26 09:13:31  4.4   86   756 
 2020-09-26 09:08:27  4.4   85   756 
 2020-09-26 09:03:23  4.4   86   756 
 2020-09-26 08:58:19  4.2   87   756 
 2020-09-26 08:53:15  4.1   87   756 
 2020-09-26 08:48:11  4.1   87   756 
 2020-09-26 08:43:07  4.1   88   756 
 2020-09-26 08:38:03  4.1   87   756 
 2020-09-26 08:32:59  4.1   87   756 
 2020-09-26 08:27:55  4.1   86   756 
 2020-09-26 08:22:48  4.1   86   756 
 2020-09-26 08:17:43  4.1   86   756 
 2020-09-26 08:12:39  4.1   86   756 
 2020-09-26 08:07:35  4.1   85   756 
 2020-09-26 08:02:31  4.2   84   756 
 2020-09-26 07:57:27  4.1   85   756 
 2020-09-26 07:52:23  4.0   84   756 
 2020-09-26 07:47:19  4.1   85   756 
 2020-09-26 07:42:14  4.1   85   756 
 2020-09-26 07:32:01  3.9   85   756 
 2020-09-26 07:26:57  4.0   86   756 
 2020-09-26 07:21:53  4.0   85   755 
 2020-09-26 07:16:48  3.9   86   755 
 2020-09-26 07:11:44  3.9   87   755 
 2020-09-26 07:06:40  3.9   86   755 
 2020-09-26 07:01:36  3.9   87   755 
 2020-09-26 06:56:32  3.9   86   755 
 2020-09-26 06:51:28  3.8   86   755 
 2020-09-26 06:46:24  3.8   86   755 
 2020-09-26 06:41:20  3.8   86   755 
 2020-09-26 06:36:15  3.8   87   755 
 2020-09-26 06:31:11  3.8   87   755 
 2020-09-26 06:26:07  3.7   87   755 
 2020-09-26 06:21:03  3.8   86   755 
 2020-09-26 06:15:59  3.8   86   755 
 2020-09-26 06:10:55  3.8   84   755 
 2020-09-26 06:05:51  3.9   84   755 
 2020-09-26 06:00:44  3.9   84   755 
 2020-09-26 05:55:40  3.8   84   755 
 2020-09-26 05:50:36  3.6   84   755 
 2020-09-26 05:45:32  3.7   85   755 
 2020-09-26 05:40:28  3.6   85   755 
 2020-09-26 05:35:21  3.7   85   755 
 2020-09-26 05:30:17  3.6   85   755 
 2020-09-26 05:25:13  3.6   86   755 
 2020-09-26 05:20:09  3.8   84   755 
 2020-09-26 05:15:04  3.9   84   755 
 2020-09-26 05:10:00  3.9   84   755 
 2020-09-26 05:04:56  4.0   83   755 
 2020-09-26 04:59:52  4.1   84   755 
 2020-09-26 04:54:48  4.2   84   754 
 2020-09-26 04:49:44  4.2   83   754 
 2020-09-26 04:44:37  4.3   85   754 
 2020-09-26 04:39:33  4.3   84   754 
 2020-09-26 04:34:29  4.4   85   754 
 2020-09-26 04:29:25  4.4   85   754 
 2020-09-26 04:24:21  4.4   85   754 
 2020-09-26 04:19:17  4.4   86   754 
 2020-09-26 04:14:13  4.5   87   754 
 2020-09-26 04:09:09  4.6   86   754 
 2020-09-26 04:04:02  4.4   87   754 
 2020-09-26 03:58:58  4.6   87   754 
 2020-09-26 03:53:51  4.7   88   754 
 2020-09-26 03:48:47  4.7   87   754 
 2020-09-26 03:43:43  4.9   88   754 
 2020-09-26 03:38:39  4.7   88   754 
 2020-09-26 03:33:35  4.8   88   754 
 2020-09-26 03:28:31  4.9   89   754 
 2020-09-26 03:18:17  4.8   88   754 
 2020-09-26 03:13:13  4.7   87   754 
 2020-09-26 03:08:09  4.8   88   754 
 2020-09-26 03:03:05  4.9   87   754 
 2020-09-26 02:58:01  4.8   88   754 
 2020-09-26 02:52:57  5.0   88   754 
 2020-09-26 02:47:52  4.9   89   754 
 2020-09-26 02:42:48  5.1   2147483647   754 
 2020-09-26 02:37:44  5.1   87   754 
 2020-09-26 02:32:40  5.2   87   754 
 2020-09-26 02:27:36  5.2   88   754 
 2020-09-26 02:22:32  5.4   87   754 
 2020-09-26 02:17:28  5.4   86   754 
 2020-09-26 02:12:24  5.7   88   754 
 2020-09-26 02:07:20  6.0   94   754 
 2020-09-26 02:02:16  6.1   95   754 
 2020-09-26 01:57:12  6.1   95   754 
 2020-09-26 01:52:08  6.1   96   754 
 2020-09-26 01:47:03  6.1   95   754 
 2020-09-26 01:41:59  6.1   95   754 
 2020-09-26 01:36:55  6.1   95   754 
 2020-09-26 01:31:51  6.0   95   754 
 2020-09-26 01:26:47  6.0   95   754 
 2020-09-26 01:21:43  5.9   95   754 
 2020-09-26 01:16:39  6.0   95   754 
 2020-09-26 01:11:35  5.9   94   754 
 2020-09-26 01:06:31  5.9   94   754 
 2020-09-26 01:01:27  5.8   94   754 
 2020-09-26 00:56:23  5.7   94   754 
 2020-09-26 00:51:19  5.6   95   754 
 2020-09-26 00:46:15  5.5   95   753 
 2020-09-26 00:41:11  5.4   95   754 
 2020-09-26 00:36:06  5.4   95   753 
 2020-09-26 00:31:02  5.4   95   753 
 2020-09-26 00:25:58  5.4   94   753 
 2020-09-26 00:20:54  5.4   95   753 
 2020-09-26 00:15:50  5.4   95   753 
 2020-09-26 00:10:46  5.4   94   753 
 2020-09-26 00:05:42  5.5   94   753 
 2020-09-26 00:00:38  5.6   94   753 
 2020-09-25 23:55:32  5.5   93   753 
 2020-09-25 23:50:26  5.4   93   753 
 2020-09-25 23:45:22  5.6   92   753 
 2020-09-25 23:40:15  5.6   91   753 
 2020-09-25 23:35:11  5.6   91   753 
 2020-09-25 23:30:07  5.8   91   753 
 2020-09-25 23:25:02  5.8   91   753 
 2020-09-25 23:19:58  5.8   90   753 
 2020-09-25 23:14:54  5.8   90   753 
 2020-09-25 23:09:50  5.9   89   753 
 2020-09-25 23:04:46  5.8   89   753 
 2020-09-25 22:59:41  5.8   88   753 
 2020-09-25 22:54:37  5.8   88   753 
 2020-09-25 22:49:33  5.9   88   753 
 2020-09-25 22:44:29  5.9   87   753 
 2020-09-25 22:39:24  5.9   87   753 
 2020-09-25 22:34:19  6.1   86   753 
 2020-09-25 22:29:15  6.1   87   753 
 2020-09-25 22:24:11  6.0   88   753 
 2020-09-25 22:19:07  6.0   89   753 
 2020-09-25 22:14:03  6.1   89   753 
 2020-09-25 22:08:59  6.1   89   753 
 2020-09-25 22:03:55  6.2   90   753 
 2020-09-25 21:58:51  6.3   91   753 
 2020-09-25 21:53:47  6.4   91   753 
 2020-09-25 21:48:42  6.5   92   753 
 2020-09-25 21:43:38  6.6   92   753 
 2020-09-25 21:38:34  6.6   92   753 
 2020-09-25 21:33:30  6.3   95   752 
 2020-09-25 21:28:26  6.2   99   752 
 2020-09-25 21:23:22  6.1   99   752 
 2020-09-25 21:18:18  6.1   99   752 
 2020-09-25 21:13:13  6.1   99   752 
 2020-09-25 21:08:09  6.1   100   752 
 2020-09-25 21:03:05  6.1   100   752 
 2020-09-25 20:58:01  5.9   100   752 
 2020-09-25 20:52:57  5.9   100   752 
 2020-09-25 20:47:53  5.9   100   752 
 2020-09-25 20:42:49  6.1   100   752 
 2020-09-25 20:37:40  6.2   100   752 
 2020-09-25 20:32:35  6.2   100   752 
 2020-09-25 20:27:31  6.4   100   752 
 2020-09-25 20:22:27  6.4   100   752 
 2020-09-25 20:17:18  6.4   100   752 
 2020-09-25 20:12:11  6.6   100   752 
 2020-09-25 20:07:07  6.6   100   752 
 2020-09-25 20:02:03  6.7   100   752 
 2020-09-25 19:56:59  6.7   100   752 
 2020-09-25 19:51:55  6.6   100   752 
 2020-09-25 19:46:51  6.6   100   752 
 2020-09-25 19:41:46  6.6   100   752 
 2020-09-25 19:36:42  6.7   100   752 
 2020-09-25 19:31:38  6.6   100   752 
 2020-09-25 19:26:34  6.4   100   752 
 2020-09-25 19:21:30  6.5   99   752 
 2020-09-25 19:16:26  6.5   99   752 
 2020-09-25 19:06:11  6.6   99   751 
 2020-09-25 19:01:06  6.8   98   751 
 2020-09-25 18:56:02  6.9   97   751 
 2020-09-25 18:50:57  7.0   96   751 
 2020-09-25 18:45:53  7.2   96   751 
 2020-09-25 18:40:48  7.2   95   751 
 2020-09-25 18:35:44  7.4   95   751 
 2020-09-25 18:30:40  7.5   95   751 
 2020-09-25 18:25:36  7.5   94   751 
 2020-09-25 18:20:32  7.7   94   751 
 2020-09-25 18:15:27  7.8   93   751 
 2020-09-25 18:10:23  7.9   93   751 
 2020-09-25 18:05:19  7.9   92   751 
 2020-09-25 18:00:15  8.0   93   751 
 2020-09-25 17:55:11  8.1   92   751 
 2020-09-25 17:50:07  8.1   92   751 
 2020-09-25 17:45:03  8.1   93   751 
 2020-09-25 17:39:58  7.9   92   751 
 2020-09-25 17:34:54  7.9   91   751 
 2020-09-25 17:29:50  7.9   93   751 
 2020-09-25 17:24:46  7.8   92   751 
 2020-09-25 17:19:42  7.9   92   751 
 2020-09-25 17:14:38  7.9   92   751 
 2020-09-25 17:09:34  7.9   92   751 
 2020-09-25 17:04:30  8.1   90   750 
 2020-09-25 16:59:26  8.0   92   750 
 2020-09-25 16:54:22  7.9   91   750 
 2020-09-25 16:49:18  8.0   91   750 
 2020-09-25 16:44:14  7.9   91   750 
 2020-09-25 16:39:10  8.0   91   750 
 2020-09-25 16:34:05  8.0   92   750 
 2020-09-25 16:29:01  7.9   92   750 
 2020-09-25 16:23:57  8.1   94   750 
 2020-09-25 16:18:53  7.8   96   750 
 2020-09-25 16:13:49  7.4   98   750 
 2020-09-25 16:08:45  7.4   98   750 
 2020-09-25 16:03:41  7.2   99   750 
 2020-09-25 15:58:37  7.2   99   750 
 2020-09-25 15:53:33  7.2   98   750 
 2020-09-25 15:48:29  7.4   97   750 
 2020-09-25 15:43:25  7.5   96   750 
 2020-09-25 15:38:20  7.5   94   750 
 2020-09-25 15:33:16  7.5   93   750 
 2020-09-25 15:28:12  7.6   92   750 
 2020-09-25 15:23:08  7.6   91   750 
 2020-09-25 15:18:04  7.6   92   750 
 2020-09-25 15:13:00  7.8   91   750 
 2020-09-25 15:07:56  7.9   93   750 
 2020-09-25 15:02:52  7.8   93   750 
 2020-09-25 14:57:48  7.6   92   750 
 2020-09-25 14:52:44  7.5   96   750 
 2020-09-25 14:47:39  7.3   96   750 
 2020-09-25 14:42:35  7.4   95   750 
 2020-09-25 14:37:31  7.3   97   750 
 2020-09-25 14:32:27  7.2   96   749 
 2020-09-25 14:27:23  7.6   95   749 
 2020-09-25 14:22:19  7.8   94   749 
 2020-09-25 14:17:14  7.6   95   749 
 2020-09-25 14:12:10  7.6   94   749 
 2020-09-25 14:07:06  7.4   94   749 
 2020-09-25 14:02:02  7.5   95   749 
 2020-09-25 13:56:58  7.6   96   749 
 2020-09-25 13:51:54  7.6   95   749 
 2020-09-25 13:46:50  7.6   96   749 
 2020-09-25 13:41:46  7.4   97   749 
 2020-09-25 13:36:42  6.9   98   749 
 2020-09-25 13:31:37  7.0   99   749 
 2020-09-25 13:26:33  6.9   98   749 
 2020-09-25 13:21:29  6.8   99   749 
 2020-09-25 13:16:25  6.6   100   749 
 2020-09-25 13:11:21  6.4   100   749 
 2020-09-25 13:06:17  6.4   100   749 
 2020-09-25 13:01:13  6.4   100   749 
 2020-09-25 12:56:08  6.2   100   749 
 2020-09-25 12:51:04  6.2   100   749 
 2020-09-25 12:46:00  6.2   100   749 
 2020-09-25 12:40:56  6.3   100   749 
 2020-09-25 12:35:52  6.1   100   749 
 2020-09-25 12:30:48  6.0   100   749 
 2020-09-25 12:25:44  5.9   100   748 
 2020-09-25 12:20:40  5.9   100   748 
 2020-09-25 12:15:35  5.9   100   749 
 2020-09-25 12:10:31  5.9   100   748 
 2020-09-25 12:05:27  5.9   100   748 
 2020-09-25 12:00:23  5.7   100   748 
 2020-09-25 11:55:19  5.6   100   748 
 2020-09-25 11:50:15  5.6   100   748 
 2020-09-25 11:45:11  5.4   100   748 
 2020-09-25 11:40:07  5.2   100   748 
 2020-09-25 11:35:02  5.2   100   748 
 2020-09-25 11:29:58  5.1   100   748 
 2020-09-25 11:24:54  5.2   100   748 
 2020-09-25 11:19:50  5.2   100   748 
 2020-09-25 11:14:46  5.4   100   748 
 2020-09-25 11:09:42  5.4   100   748 
 2020-09-25 11:04:38  5.3   99   748 
 2020-09-25 10:59:34  5.3   100   748 
 2020-09-25 10:54:30  5.3   100   748 
 2020-09-25 10:49:26  5.2   100   748 
 2020-09-25 10:44:21  5.2   99   748 
 2020-09-25 10:39:17  5.1   100   748 
 2020-09-25 10:34:13  5.1   99   748 
 2020-09-25 10:29:09  4.8   99   748 
 2020-09-25 10:24:05  4.7   100   748 
 2020-09-25 10:19:01  4.7   100   748 
 2020-09-25 10:13:57  4.8   97   748 
 2020-09-25 10:08:53  4.6   98   748 
 2020-09-25 10:03:49  4.8   98   748 
 2020-09-25 09:58:45  4.7   97   748 
 2020-09-25 09:53:40  4.6   95   748 
 2020-09-25 09:48:36  4.9   95   748 
 2020-09-25 09:43:32  4.9   96   748 
 2020-09-25 09:38:28  4.7   97   747 
 2020-09-25 09:33:24  4.5   97   747 
 2020-09-25 09:28:20  4.8   95   747 
 2020-09-25 09:23:16  4.7   95   747 
 2020-09-25 09:18:11  4.6   96   747 
 2020-09-25 09:13:07  4.4   96   747 
 2020-09-25 09:08:03  4.2   96   747 
 2020-09-25 09:02:59  4.2   96   747 
 2020-09-25 08:57:55  4.2   97   747 
 2020-09-25 08:52:51  4.2   96   747 
 2020-09-25 08:47:47  4.1   96   747 
 2020-09-25 08:42:43  3.9   96   747 
 2020-09-25 08:37:39  4.0   96   747 
 2020-09-25 08:32:35  4.1   96   747 
 2020-09-25 08:27:31  3.9   96   747 
 2020-09-25 08:22:27  3.9   96   747 
 2020-09-25 08:17:23  3.8   97   747 
 2020-09-25 08:12:19  3.6   97   747 
 2020-09-25 08:07:14  3.4   97   747 
 2020-09-25 08:02:10  3.4   98   747 
 2020-09-25 07:57:06  3.2   98   747 
 2020-09-25 07:52:02  3.2   99   747 
 2020-09-25 07:46:58  3.2   98   747 
 2020-09-25 07:41:54  3.1   98   747 
 2020-09-25 07:36:49  3.2   98   747 
 2020-09-25 07:31:45  3.1   98   747 
 2020-09-25 07:26:41  2.9   98   747 
 2020-09-25 07:21:37  2.8   98   747 
 2020-09-25 07:16:33  2.8   99   747 
 2020-09-25 07:11:28  2.8   99   747 
 2020-09-25 07:06:24  2.7   100   747 
 2020-09-25 07:01:20  2.4   100   747 
 2020-09-25 06:56:16  2.4   99   747 
 2020-09-25 06:51:12  2.4   100   747 
 2020-09-25 06:46:08  2.2   100   747 
 2020-09-25 06:41:04  2.2   100   747 
 2020-09-25 06:36:00  2.1   100   747 
 2020-09-25 06:30:55  1.8   100   747 
 2020-09-25 06:25:51  1.8   100   747 
 2020-09-25 06:20:47  1.6   100   747 
 2020-09-25 06:15:43  1.4   100   747 
 2020-09-25 06:10:39  1.3   100   747 
 2020-09-25 06:05:35  1.2   100   746 
 2020-09-25 06:00:31  1.3   100   746 
 2020-09-25 05:55:27  1.4   100   746 
 2020-09-25 05:50:22  1.6   100   746 
 2020-09-25 05:45:18  1.8   100   746 
 2020-09-25 05:40:14  1.8   100   746 
 2020-09-25 05:35:10  1.8   100   746 
 2020-09-25 05:30:06  1.6   100   746 
 2020-09-25 05:25:02  1.4   100   746 
 2020-09-25 05:19:58  1.2   100   746 
 2020-09-25 05:14:53  1.3   100   746 
 2020-09-25 05:09:49  1.4   100   746 
 2020-09-25 05:04:45  1.6   100   746 
 2020-09-25 04:59:41  1.4   100   746 
 2020-09-25 04:54:37  1.7   100   746 
 2020-09-25 04:49:33  1.6   100   746 
 2020-09-25 04:44:29  1.9   100   746 
 2020-09-25 04:39:25  1.6   100   746 
 2020-09-25 04:34:20  1.6   100   746 
 2020-09-25 04:29:16  1.8   100   746 
 2020-09-25 04:24:12  1.9   100   746 
 2020-09-25 04:19:08  1.8   100   746 
 2020-09-25 04:14:04  1.8   99   746 
 2020-09-25 04:09:00  1.9   100   746 
 2020-09-25 04:03:56  1.9   100   745 
 2020-09-25 03:58:52  1.9   100   745 
 2020-09-25 03:53:47  1.9   100   745 
 2020-09-25 03:48:43  2.2   99   745 
 2020-09-25 03:43:39  2.2   100   745 
 2020-09-25 03:38:35  2.1   100   745 
 2020-09-25 03:33:30  2.5   96   745 
 2020-09-25 03:28:26  2.6   98   745 
 2020-09-25 03:23:22  2.6   97   745 
 2020-09-25 03:18:18  2.6   99   745 
 2020-09-25 03:13:14  2.5   100   745 
 2020-09-25 03:08:10  2.2   99   745 
 2020-09-25 03:03:05  2.2   99   745 
 2020-09-25 02:58:01  2.2   100   745 
 2020-09-25 02:52:57  2.2   98   745 
 2020-09-25 02:47:53  2.2   100   745 
 2020-09-25 02:42:49  2.2   100   745 
 2020-09-25 02:37:45  2.1   100   745 
 2020-09-25 02:32:41  2.0   100   745 
 2020-09-25 02:27:37  1.8   99   745 
 2020-09-25 02:22:33  1.8   99   745 
 2020-09-25 02:17:29  1.8   99   745 
 2020-09-25 02:12:25  1.8   99   745 
 2020-09-25 02:07:20  2.0   99   745 
 2020-09-25 02:02:16  2.1   99   745 
 2020-09-25 01:57:12  2.1   99   745 
 2020-09-25 01:52:08  2.1   99   745 
 2020-09-25 01:47:04  2.3   99   745 
 2020-09-25 01:42:00  2.4   99   745 
 2020-09-25 01:36:56  2.6   99   745 
 2020-09-25 01:31:52  3.0   100   745 
 2020-09-25 01:26:48  3.1   100   745 
 2020-09-25 01:21:44  3.2   100   745 
 2020-09-25 01:16:40  3.2   100   744 
 2020-09-25 01:11:35  3.2   100   745 
 2020-09-25 01:06:31  3.4   100   745 
 2020-09-25 01:01:27  3.4   99   745 
 2020-09-25 00:56:23  3.3   99   744 
 2020-09-25 00:51:19  3.4   99   744 
 2020-09-25 00:46:15  3.4   99   744 
 2020-09-25 00:41:11  3.5   99   744 
 2020-09-25 00:36:07  3.6   99   744 
 2020-09-25 00:31:03  3.7   99   744 
 2020-09-25 00:25:59  3.8   99   744 
 2020-09-25 00:20:55  3.9   99   744 
 2020-09-25 00:15:50  4.0   98   744 
 2020-09-25 00:10:46  4.0   99   744 
 2020-09-25 00:05:42  4.0   98   744 
 2020-09-25 00:00:38  4.1   99   744 
 2020-09-24 23:55:33  4.1   99   744 
 2020-09-24 23:50:28  4.1   99   744 
 2020-09-24 23:45:24  4.2   98   744 
 2020-09-24 23:40:20  4.2   99   744 
 2020-09-24 23:35:15  4.3   99   744 
 2020-09-24 23:30:11  4.4   99   744 
 2020-09-24 23:25:06  4.4   99   744 
 2020-09-24 23:20:02  4.5   99   744 
 2020-09-24 23:14:58  4.5   99   744 
 2020-09-24 23:09:54  4.6   99   744 
 2020-09-24 23:04:50  4.7   99   744 
 2020-09-24 22:59:46  4.8   99   744 
 2020-09-24 22:54:42  4.8   99   744 
 2020-09-24 22:49:38  4.8   99   744 
 2020-09-24 22:44:34  4.9   99   744 
 2020-09-24 22:39:30  5.0   98   744 
 2020-09-24 22:34:26  5.1   98   744 
 2020-09-24 22:29:22  5.1   99   744 
 2020-09-24 22:24:18  5.2   99   744 
 2020-09-24 22:19:14  5.2   98   744 
 2020-09-24 22:14:08  5.4   98   744 
 2020-09-24 22:09:03  5.4   98   744 
 2020-09-24 22:03:59  5.6   98   744 
 2020-09-24 21:58:55  5.6   97   744 
 2020-09-24 21:53:50  5.7   98   743 
 2020-09-24 21:48:46  5.7   98   743 
 2020-09-24 21:43:42  5.9   97   743 
 2020-09-24 21:38:38  5.9   97   743 
 2020-09-24 21:33:34  6.0   97   743 
 2020-09-24 21:28:30  6.0   97   743 
 2020-09-24 21:23:26  6.2   96   743 
 2020-09-24 21:18:21  6.2   96   743 
 2020-09-24 21:13:17  6.4   96   743 
 2020-09-24 21:08:13  6.6   96   743 
 2020-09-24 21:03:06  6.6   96   743 
 2020-09-24 20:58:02  6.7   96   743 
 2020-09-24 20:52:58  6.8   96   743 
 2020-09-24 20:47:54  7.0   96   743 
 2020-09-24 20:42:49  7.1   96   743 
 2020-09-24 20:37:45  7.2   97   743 
 2020-09-24 20:32:39  7.2   97   743 
 2020-09-24 20:27:35  7.4   98   743 
 2020-09-24 20:22:30  7.6   100   743 
 2020-09-24 20:17:23  7.6   99   743 
 2020-09-24 20:12:19  7.7   98   743 
 2020-09-24 20:07:15  7.8   97   742 
 2020-09-24 20:02:11  7.8   96   742 
 2020-09-24 19:57:07  7.9   95   742 
 2020-09-24 19:52:02  8.0   94   742 
 2020-09-24 19:46:58  7.9   94   742 
 2020-09-24 19:41:53  7.9   94   742 
 2020-09-24 19:36:49  7.9   94   742 
 2020-09-24 19:31:45  7.9   94   742 
 2020-09-24 19:26:41  7.9   95   742 
 2020-09-24 19:21:37  7.8   94   742 
 2020-09-24 19:16:33  7.9   95   742 
 2020-09-24 19:11:29  7.9   94   742 
 2020-09-24 19:06:25  7.9   94   742 
 2020-09-24 19:01:20  7.9   94   742 
 2020-09-24 18:56:16  7.9   94   742 
 2020-09-24 18:51:12  7.9   94   742 
 2020-09-24 18:46:08  7.8   95   742 
 2020-09-24 18:41:04  7.9   94   742 
 2020-09-24 18:36:00  8.1   93   742 
 2020-09-24 18:30:56  8.1   91   742 
 2020-09-24 18:25:52  8.1   92   742 
 2020-09-24 18:20:47  8.2   91   742 
 2020-09-24 18:15:43  8.2   90   742 
 2020-09-24 18:10:35  8.2   91   742 
 2020-09-24 18:05:31  8.2   90   742 
 2020-09-24 18:00:27  8.2   90   742 
 2020-09-24 17:55:23  8.2   89   742 
 2020-09-24 17:50:19  8.3   89   741 
 2020-09-24 17:45:14  8.4   88   741 
 2020-09-24 17:40:10  8.4   88   741 
 2020-09-24 17:35:06  8.5   88   741 
 2020-09-24 17:30:02  8.6   87   741 
 2020-09-24 17:24:58  8.6   86   741 
 2020-09-24 17:19:54  8.6   85   741 
 2020-09-24 17:14:49  8.8   86   741 
 2020-09-24 17:09:45  8.9   84   741 
 2020-09-24 17:04:40  8.8   83   741 
 2020-09-24 16:59:35  8.9   83   741 
 2020-09-24 16:54:30  8.8   82   741 
 2020-09-24 16:49:26  8.8   82   741 
 2020-09-24 16:44:21  8.8   82   741 
 2020-09-24 16:39:17  8.8   82   741 
 2020-09-24 16:34:13  8.6   83   741 
 2020-09-24 16:29:09  8.8   82   741 
 2020-09-24 16:24:05  8.8   82   741 
 2020-09-24 16:19:01  8.8   82   741 
 2020-09-24 16:13:57  8.7   82   741 
 2020-09-24 16:08:53  8.7   84   741 
 2020-09-24 16:03:49  8.8   83   741 
 2020-09-24 15:58:44  8.9   83   741 
 2020-09-24 15:53:40  8.8   84   741 
 2020-09-24 15:48:36  8.8   84   741 
 2020-09-24 15:43:32  8.9   84   741 
 2020-09-24 15:38:28  8.9   84   741 
 2020-09-24 15:33:24  8.9   83   741 
 2020-09-24 15:28:20  8.8   84   741 
 2020-09-24 15:23:16  8.8   83   741 
 2020-09-24 15:18:12  8.9   83   741 
 2020-09-24 15:13:08  8.9   82   741 
 2020-09-24 15:08:04  9.1   81   740 
 2020-09-24 15:02:59  9.1   79   740 
 2020-09-24 14:57:55  9.2   79   740 
 2020-09-24 14:52:51  9.1   79   740 
 2020-09-24 14:47:47  9.4   79   740 
 2020-09-24 14:42:43  9.2   78   740 
 2020-09-24 14:37:39  9.4   75   740 
 2020-09-24 14:32:35  9.4   75   740 
 2020-09-24 14:27:31  9.6   74   740 
 2020-09-24 14:22:27  9.7   73   740 
 2020-09-24 14:17:23  9.8   72   740 
 2020-09-24 14:12:19  9.9   71   740 
 2020-09-24 14:07:15  10.1   69   740 
 2020-09-24 14:02:11  10.0   68   740 
 2020-09-24 13:57:07  10.1   67   740 
 2020-09-24 13:52:03  10.3   66   740 
 2020-09-24 13:46:59  10.4   67   740 
 2020-09-24 13:41:55  10.2   68   740 
 2020-09-24 13:36:50  10.1   70   740 
 2020-09-24 13:31:46  9.8   71   740 
 2020-09-24 13:26:42  9.7   71   740 
 2020-09-24 13:21:38  9.8   74   740 
 2020-09-24 13:16:34  9.8   75   740 
 2020-09-24 13:11:30  9.7   76   740 
 2020-09-24 13:06:26  9.2   76   740 
 2020-09-24 13:01:22  9.1   77   740 
 2020-09-24 12:56:18  9.1   77   740 
 2020-09-24 12:51:14  8.9   78   740 
 2020-09-24 12:46:10  9.1   79   740 
 2020-09-24 12:41:06  9.1   78   740 
 2020-09-24 12:36:02  9.2   78   741 
 2020-09-24 12:30:58  9.2   77   741 
 2020-09-24 12:25:54  9.2   76   741 
 2020-09-24 12:20:50  9.8   71   741 
 2020-09-24 12:15:46  10.1   69   741 
 2020-09-24 12:10:42  10.3   69   741 
 2020-09-24 12:05:37  10.2   70   741 
 2020-09-24 12:00:33  10.2   70   741 
 2020-09-24 11:55:29  10.1   71   741 
 2020-09-24 11:50:25  9.9   73   741 
 2020-09-24 11:45:21  9.6   74   741 
 2020-09-24 11:40:17  9.5   76   741 
 2020-09-24 11:35:13  9.3   77   741 
 2020-09-24 11:30:09  9.1   76   741 
 2020-09-24 11:25:05  9.0   78   741 
 2020-09-24 11:20:01  8.9   78   741 
 2020-09-24 11:14:57  8.8   79   741 
 2020-09-24 11:09:53  8.6   81   741 
 2020-09-24 11:04:49  8.6   81   741 
 2020-09-24 10:59:45  8.6   82   741 
 2020-09-24 10:54:41  8.4   82   741 
 2020-09-24 10:49:37  8.2   82   741 
 2020-09-24 10:44:33  8.1   82   741 
 2020-09-24 10:39:28  7.9   82   741 
 2020-09-24 10:34:24  7.8   82   741 
 2020-09-24 10:29:20  7.8   84   741 
 2020-09-24 10:24:16  7.8   83   741 
 2020-09-24 10:19:12  7.6   83   741 
 2020-09-24 10:14:08  7.5   84   741 
 2020-09-24 10:09:04  7.4   84   741 
 2020-09-24 10:04:00  7.2   85   741 
 2020-09-24 09:58:56  7.1   86   741 
 2020-09-24 09:53:52  6.9   87   741 
 2020-09-24 09:48:48  6.8   88   741 
 2020-09-24 09:43:44  6.5   90   741 
 2020-09-24 09:38:40  6.6   91   741 
 2020-09-24 09:33:36  6.4   91   741 
 2020-09-24 09:28:32  6.3   92   741 
 2020-09-24 09:23:28  6.1   92   741 
 2020-09-24 09:18:24  6.0   93   741 
 2020-09-24 09:13:19  6.0   93   742 
 2020-09-24 09:08:15  5.8   93   742 
 2020-09-24 09:03:11  5.8   93   742 
 2020-09-24 08:58:07  5.6   94   742 
 2020-09-24 08:53:03  5.5   94   742 
 2020-09-24 08:47:59  5.4   95   742 
 2020-09-24 08:42:55  5.2   95   742 
 2020-09-24 08:37:51  5.2   95   742 
 2020-09-24 08:32:47  5.2   95   742 
 2020-09-24 08:27:43  5.0   96   742 
 2020-09-24 08:22:39  5.1   96   742 
 2020-09-24 08:17:35  5.0   95   742 
 2020-09-24 08:12:31  5.0   95   742 
 2020-09-24 08:07:27  5.0   95   742 
 2020-09-24 08:02:23  5.0   95   742 
 2020-09-24 07:57:19  4.9   96   742 
 2020-09-24 07:52:15  4.8   96   742 
 2020-09-24 07:47:11  4.8   96   742 
 2020-09-24 07:42:07  4.7   95   742 
 2020-09-24 07:37:02  4.7   96   742 
 2020-09-24 07:31:58  4.7   95   742 
 2020-09-24 07:26:54  4.7   96   742 
 2020-09-24 07:21:50  4.6   95   742 
 2020-09-24 07:16:46  4.6   95   742 
 2020-09-24 07:11:42  4.6   95   742 
 2020-09-24 07:06:38  4.6   95   742 
 2020-09-24 07:01:34  4.5   95   742 
 2020-09-24 06:56:30  4.5   95   742 
 2020-09-24 06:51:26  4.4   94   742 
 2020-09-24 06:46:22  4.3   94   743 
 2020-09-24 06:41:18  4.4   94   743 
 2020-09-24 06:36:14  4.4   94   743 
 2020-09-24 06:31:09  4.3   94   743 
 2020-09-24 06:26:05  4.4   94   743 
 2020-09-24 06:21:01  4.4   94   743 
 2020-09-24 06:15:57  4.4   94   743 
 2020-09-24 06:10:53  4.4   93   743 
 2020-09-24 06:05:49  4.5   93   743 
 2020-09-24 06:00:45  4.5   93   743 
 2020-09-24 05:55:41  4.5   93   743 
 2020-09-24 05:50:37  4.4   92   743 
 2020-09-24 05:45:33  4.4   92   743 
 2020-09-24 05:40:29  4.4   92   743 
 2020-09-24 05:35:24  4.4   92   743 
 2020-09-24 05:30:20  4.4   92   743 
 2020-09-24 05:25:16  4.4   92   743 
 2020-09-24 05:20:12  4.3   92   743 
 2020-09-24 05:15:08  4.3   92   743 
 2020-09-24 05:10:04  4.3   92   743 
 2020-09-24 05:05:00  4.2   91   743 
 2020-09-24 04:59:56  4.2   91   743 
 2020-09-24 04:54:51  4.1   92   743 
 2020-09-24 04:49:47  4.1   92   743 
 2020-09-24 04:44:43  4.1   92   743 
 2020-09-24 04:39:39  3.9   92   743 
 2020-09-24 04:34:35  4.0   92   743 
 2020-09-24 04:29:31  4.1   92   743 
 2020-09-24 04:24:27  4.1   92   743 
 2020-09-24 04:19:23  3.9   92   743 
 2020-09-24 04:14:19  3.9   92   743 
 2020-09-24 04:09:15  3.9   92   743 
 2020-09-24 04:04:10  3.9   92   743 
 2020-09-24 03:59:06  3.8   92   743 
 2020-09-24 03:54:02  3.7   93   744 
 2020-09-24 03:48:58  3.6   93   744 
 2020-09-24 03:43:54  3.6   93   744 
 2020-09-24 03:38:50  3.4   93   744 
 2020-09-24 03:33:46  3.4   93   744 
 2020-09-24 03:28:42  3.4   93   744 
 2020-09-24 03:23:37  3.4   93   744 
 2020-09-24 03:18:33  3.2   93   744 
 2020-09-24 03:13:29  3.2   93   744 
 2020-09-24 03:08:25  3.1   93   744 
 2020-09-24 03:03:21  3.1   93   744 
 2020-09-24 02:58:17  3.1   93   744 
 2020-09-24 02:53:13  3.0   94   744 
 2020-09-24 02:48:09  3.1   93   744 
 2020-09-24 02:43:05  3.2   93   744 
 2020-09-24 02:38:00  3.2   93   744 
 2020-09-24 02:32:56  3.2   93   745 
 2020-09-24 02:27:52  3.3   92   745 
 2020-09-24 02:22:48  3.4   92   745 
 2020-09-24 02:17:44  3.4   92   745 
 2020-09-24 02:12:40  3.4   92   745 
 2020-09-24 02:07:36  3.4   92   745 
 2020-09-24 02:02:32  3.4   92   745 
 2020-09-24 01:57:28  3.4   92   745 
 2020-09-24 01:52:23  3.4   92   745 
 2020-09-24 01:47:19  3.5   91   745 
 2020-09-24 01:42:15  3.6   92   745 
 2020-09-24 01:37:11  3.5   91   745 
 2020-09-24 01:32:07  3.4   91   745 
 2020-09-24 01:27:03  3.5   91   745 
 2020-09-24 01:21:58  3.4   91   745 
 2020-09-24 01:16:54  3.5   91   745 
 2020-09-24 01:11:50  3.6   91   745 
 2020-09-24 01:06:46  3.4   91   745 
 2020-09-24 01:01:42  3.4   91   745 
 2020-09-24 00:56:38  3.5   90   745 
 2020-09-24 00:51:34  3.9   88   745 
 2020-09-24 00:46:30  4.1   88   745 
 2020-09-24 00:41:25  4.2   88   745 
 2020-09-24 00:36:21  4.5   87   745 
 2020-09-24 00:31:17  4.5   87   745 
 2020-09-24 00:26:13  4.6   88   745 
 2020-09-24 00:21:09  4.6   88   745 
 2020-09-24 00:16:05  4.6   88   746 
 2020-09-24 00:11:01  4.5   88   746 
 2020-09-24 00:05:57  4.5   88   746 
 2020-09-24 00:00:52  4.6   88   746 
 2020-09-23 23:55:48  4.6   88   746 
 2020-09-23 23:50:44  4.6   87   746 
 2020-09-23 23:45:40  4.6   87   746 
 2020-09-23 23:40:36  4.7   88   746 
 2020-09-23 23:35:32  4.6   88   746 
 2020-09-23 23:30:28  4.7   87   746 
 2020-09-23 23:25:24  4.7   88   746 
 2020-09-23 23:20:19  4.8   87   746 
 2020-09-23 23:15:15  4.9   87   746 
 2020-09-23 23:10:11  4.8   87   746 
 2020-09-23 23:05:07  4.9   87   746 
 2020-09-23 23:00:03  5.0   86   746 
 2020-09-23 22:54:59  5.1   87   746 
 2020-09-23 22:49:55  5.1   87   746 
 2020-09-23 22:44:51  5.1   87   746 
 2020-09-23 22:39:47  5.1   86   746 
 2020-09-23 22:34:42  5.1   87   746 
 2020-09-23 22:29:38  5.2   87   746 
 2020-09-23 22:24:34  5.3   87   746 
 2020-09-23 22:19:30  5.2   87   746 
 2020-09-23 22:14:26  5.4   86   747 
 2020-09-23 22:09:21  5.6   86   747 
 2020-09-23 22:04:17  5.6   86   747 
 2020-09-23 21:59:13  5.5   87   747 
 2020-09-23 21:54:09  5.5   87   747 
 2020-09-23 21:49:05  5.4   87   747 
 2020-09-23 21:44:01  5.4   86   747 
 2020-09-23 21:38:56  5.4   86   747 
 2020-09-23 21:33:52  5.6   86   747 
 2020-09-23 21:28:48  5.6   86   747 
 2020-09-23 21:23:44  5.7   86   747 
 2020-09-23 21:18:40  5.8   86   747 
 2020-09-23 21:13:36  6.0   85   747 
 2020-09-23 21:08:32  6.0   85   747 
 2020-09-23 21:03:28  6.1   86   747 
 2020-09-23 20:58:23  6.1   86   747 
 2020-09-23 20:53:19  5.9   86   747 
 2020-09-23 20:48:15  5.9   86   747 
 2020-09-23 20:43:11  5.8   87   747 
 2020-09-23 20:38:07  5.9   86   747 
 2020-09-23 20:33:03  5.8   85   747 
 2020-09-23 20:27:59  6.0   85   747 
 2020-09-23 20:22:55  6.2   84   747 
 2020-09-23 20:17:50  6.2   83   747 
 2020-09-23 20:12:46  6.3   83   747 
 2020-09-23 20:07:42  6.5   83   747 
 2020-09-23 20:02:38  6.6   82   747 
 2020-09-23 19:57:34  6.6   82   747 
 2020-09-23 19:52:30  6.5   82   747 
 2020-09-23 19:47:26  6.4   80   747 
 2020-09-23 19:42:22  6.4   79   747 
 2020-09-23 19:37:17  6.5   79   747 
 2020-09-23 19:32:13  6.6   78   747 
 2020-09-23 19:27:09  6.8   77   747 
 2020-09-23 19:22:05  7.0   77   747 
 2020-09-23 19:17:01  7.1   77   747 
 2020-09-23 19:11:57  7.1   77   747 
 2020-09-23 19:06:53  7.2   76   747 
 2020-09-23 19:01:49  7.2   76   747 
 2020-09-23 18:56:45  7.4   75   747 
 2020-09-23 18:51:40  7.5   76   747 
 2020-09-23 18:46:36  7.7   76   747 
 2020-09-23 18:41:32  7.8   75   747 
 2020-09-23 18:36:28  7.9   75   747 
 2020-09-23 18:31:24  7.9   75   747 
 2020-09-23 18:26:20  8.1   74   747 
 2020-09-23 18:21:16  8.1   74   747 
 2020-09-23 18:16:12  8.1   74   747 
 2020-09-23 18:11:08  8.2   73   747 
 2020-09-23 18:06:03  8.4   72   747 
 2020-09-23 18:00:59  8.6   70   746 
 2020-09-23 17:55:55  8.8   69   746 
 2020-09-23 17:50:51  8.9   70   746 
 2020-09-23 17:45:47  9.1   70   746 
 2020-09-23 17:40:43  9.0   70   746 
 2020-09-23 17:35:39  9.2   70   746 
 2020-09-23 17:30:35  9.5   70   746 
 2020-09-23 17:25:31  9.6   71   746 
 2020-09-23 17:20:26  9.2   70   746 
 2020-09-23 17:15:22  9.0   70   746 
 2020-09-23 17:10:18  8.9   71   746 
 2020-09-23 17:05:14  9.0   70   746 
 2020-09-23 17:00:10  9.1   70   746 
 2020-09-23 16:55:06  8.9   69   746 
 2020-09-23 16:50:02  8.9   69   746 
 2020-09-23 16:44:57  9.2   68   746 
 2020-09-23 16:39:53  9.2   68   746 
 2020-09-23 16:34:49  9.1   68   746 
 2020-09-23 16:29:45  9.2   69   746 
 2020-09-23 16:24:41  9.6   68   746 
 2020-09-23 16:19:37  9.7   69   746 
 2020-09-23 16:14:33  9.4   71   747 
 2020-09-23 16:09:29  9.2   71   747 
 2020-09-23 16:04:25  9.1   70   746 
 2020-09-23 15:59:20  9.1   72   746 
 2020-09-23 15:54:16  9.0   72   747 
 2020-09-23 15:49:12  9.3   71   747 
 2020-09-23 15:44:08  9.4   71   747 
 2020-09-23 15:39:04  9.5   71   747 
 2020-09-23 15:34:00  9.6   73   747 
 2020-09-23 15:28:56  9.5   73   747 
 2020-09-23 15:23:52  9.1   74   747 
 2020-09-23 15:18:48  8.8   79   747 
 2020-09-23 15:13:44  8.4   77   747 
 2020-09-23 15:08:40  8.6   77   747 
 2020-09-23 14:58:32  8.5   80   747 
 2020-09-23 14:53:27  8.3   82   747 
 2020-09-23 14:48:23  8.1   83   747 
 2020-09-23 14:43:19  7.8   83   747 
 2020-09-23 14:38:15  7.6   83   747 
 2020-09-23 14:33:11  7.5   83   747 
 2020-09-23 14:28:07  7.4   83   747 
 2020-09-23 14:23:03  7.4   81   747 
 2020-09-23 14:17:59  7.8   77   747 
 2020-09-23 14:12:55  8.1   74   747 
 2020-09-23 14:07:51  8.5   71   747 
 2020-09-23 14:02:47  8.9   65   747 
 2020-09-23 13:57:43  9.4   60   747 
 2020-09-23 13:52:39  9.8   59   747 
 2020-09-23 13:47:34  9.6   58   747 
 2020-09-23 13:42:30  9.8   58   747 
 2020-09-23 13:37:26  10.1   56   747 
 2020-09-23 13:32:22  10.2   55   747 
 2020-09-23 13:27:18  10.2   55   747 
 2020-09-23 13:22:14  10.5   55   747 
 2020-09-23 13:17:10  10.8   54   747 
 2020-09-23 13:12:06  10.9   56   747 
 2020-09-23 13:07:02  10.9   57   747 
 2020-09-23 13:01:58  10.8   56   747 
 2020-09-23 12:56:54  10.8   57   747 
 2020-09-23 12:51:50  10.6   57   747 
 2020-09-23 12:46:45  10.8   56   747 
 2020-09-23 12:41:41  10.6   57   747 
 2020-09-23 12:36:37  10.8   57   747 
 2020-09-23 12:31:33  11.0   58   747 
 2020-09-23 12:26:29  10.7   57   747 
 2020-09-23 12:21:25  10.9   56   747 
 2020-09-23 12:16:21  10.9   56   747 
 2020-09-23 12:11:17  10.9   58   747 
 2020-09-23 12:06:12  10.7   56   747 
 2020-09-23 12:01:08  10.4   58   747 
 2020-09-23 11:56:04  10.1   59   747 
 2020-09-23 11:51:00  9.9   59   747 
 2020-09-23 11:45:56  9.7   59   747 
 2020-09-23 11:40:52  9.8   59   747 
 2020-09-23 11:35:48  9.8   60   747 
 2020-09-23 11:30:44  9.6   61   747 
 2020-09-23 11:25:39  9.3   61   747 
 2020-09-23 11:20:35  9.2   61   747 
 2020-09-23 11:15:31  9.3   62   747 
 2020-09-23 11:10:27  9.0   62   747 
 2020-09-23 11:05:23  9.3   61   747 
 2020-09-23 11:00:19  9.2   63   748 
 2020-09-23 10:55:15  8.9   64   748 
 2020-09-23 10:50:11  8.9   62   748 
 2020-09-23 10:45:06  8.8   63   748 
 2020-09-23 10:40:02  8.3   64   748 
 2020-09-23 10:34:58  8.0   65   748 
 2020-09-23 10:29:54  8.1   65   748 
 2020-09-23 10:24:50  7.8   66   748 
 2020-09-23 10:19:46  7.7   67   748 
 2020-09-23 10:14:42  7.7   68   748 
 2020-09-23 10:09:38  7.2   68   748 
 2020-09-23 10:04:34  6.8   69   748 
 2020-09-23 09:59:30  6.9   70   748 
 2020-09-23 09:54:25  6.9   70   748 
 2020-09-23 09:49:21  6.8   69   748 
 2020-09-23 09:44:17  6.6   71   748 
 2020-09-23 09:39:13  6.2   71   748 
 2020-09-23 09:34:09  6.2   70   749 
 2020-09-23 09:29:05  6.2   70   749 
 2020-09-23 09:24:01  6.0   71   749 
 2020-09-23 09:18:57  6.0   71   749 
 2020-09-23 09:13:53  5.7   72   749 
 2020-09-23 09:08:48  5.7   73   749 
 2020-09-23 09:03:44  5.4   74   749 
 2020-09-23 08:58:40  5.4   74   749 
 2020-09-23 08:53:36  5.1   75   749 
 2020-09-23 08:48:32  4.9   76   749 
 2020-09-23 08:43:28  4.8   76   749 
 2020-09-23 08:38:23  4.6   77   749 
 2020-09-23 08:33:19  4.4   77   749 
 2020-09-23 08:28:15  4.4   76   749 
 2020-09-23 08:23:11  4.5   76   749 
 2020-09-23 08:18:07  4.6   76   749 
 2020-09-23 08:13:03  4.5   77   750 
 2020-09-23 08:07:59  4.2   79   750 
 2020-09-23 08:02:55  4.0   79   750 
 2020-09-23 07:57:51  3.9   79   750 
 2020-09-23 07:52:46  3.9   79   750 
 2020-09-23 07:47:42  3.9   78   749 
 2020-09-23 07:42:38  3.9   78   749 
 2020-09-23 07:37:34  3.9   78   750 
 2020-09-23 07:32:30  3.9   78   750 
 2020-09-23 07:27:26  3.9   78   750 
 2020-09-23 07:22:22  3.8   79   750 
 2020-09-23 07:17:17  3.8   78   750 
 2020-09-23 07:12:13  3.7   79   750 
 2020-09-23 07:07:09  3.6   79   750 
 2020-09-23 07:02:05  3.5   78   750 
 2020-09-23 06:57:01  3.6   78   750 
 2020-09-23 06:51:57  3.8   77   750 
 2020-09-23 06:46:53  3.8   77   750 
 2020-09-23 06:41:48  3.8   77   750 
 2020-09-23 06:36:44  3.8   77   750 
 2020-09-23 06:31:40  3.9   77   750 
 2020-09-23 06:26:36  3.8   77   750 
 2020-09-23 06:21:32  3.6   78   750 
 2020-09-23 06:16:28  3.6   78   750 
 2020-09-23 06:11:24  3.6   77   750 
 2020-09-23 06:06:19  3.6   77   750 
 2020-09-23 06:01:15  3.8   76   750 
 2020-09-23 05:56:11  3.8   76   750 
 2020-09-23 05:51:07  3.8   76   750 
 2020-09-23 05:46:03  3.9   76   750 
 2020-09-23 05:40:59  3.9   75   750 
 2020-09-23 05:35:55  4.0   74   750 
 2020-09-23 05:30:51  4.0   74   750 
 2020-09-23 05:25:46  4.1   73   750 
 2020-09-23 05:20:42  4.2   74   750 
 2020-09-23 05:15:38  4.2   74   750 
 2020-09-23 05:10:34  4.2   72   750 
 2020-09-23 05:05:30  4.3   72   750 
 2020-09-23 05:00:26  4.1   73   750 
 2020-09-23 04:55:22  4.3   73   750 
 2020-09-23 04:50:18  4.6   72   750 
 2020-09-23 04:45:13  4.8   71   750 
 2020-09-23 04:40:09  4.8   72   750 
 2020-09-23 04:35:05  4.8   71   750 
 2020-09-23 04:30:00  4.6   72   750 
 2020-09-23 04:24:56  4.8   71   750 
 2020-09-23 04:19:52  4.8   71   750 
 2020-09-23 04:14:48  4.8   71   750 
 2020-09-23 04:09:43  4.7   70   750 
 2020-09-23 04:04:39  4.7   70   750 
 2020-09-23 03:59:35  4.8   69   750 
 2020-09-23 03:54:31  4.7   69   750 
 2020-09-23 03:49:27  4.8   69   751 
 2020-09-23 03:44:23  4.9   68   751 
 2020-09-23 03:39:19  4.9   68   751 
 2020-09-23 03:34:15  4.9   67   751 
 2020-09-23 03:29:11  4.9   68   751 
 2020-09-23 03:24:07  4.9   67   751 
 2020-09-23 03:19:03  5.0   67   751 
 2020-09-23 03:13:59  4.9   68   751 
 2020-09-23 03:08:54  4.9   67   751 
 2020-09-23 03:03:50  4.9   67   751 
 2020-09-23 02:58:46  5.0   67   751 
 2020-09-23 02:53:42  5.0   66   751 
 2020-09-23 02:48:38  5.1   67   751 
 2020-09-23 02:43:34  4.9   67   751 
 2020-09-23 02:38:30  4.9   67   751 
 2020-09-23 02:33:25  4.9   67   751 
 2020-09-23 02:28:21  5.0   67   751 
 2020-09-23 02:23:17  5.0   67   751 
 2020-09-23 02:18:13  5.2   67   751 
 2020-09-23 02:13:09  5.1   66   751 
 2020-09-23 02:08:05  5.1   65   751 
 2020-09-23 02:03:01  5.2   66   752 
 2020-09-23 01:57:57  5.2   66   752 
 2020-09-23 01:52:52  5.1   66   752 
 2020-09-23 01:47:48  5.1   67   752 
 2020-09-23 01:42:44  5.0   66   752 
 2020-09-23 01:37:40  5.0   67   752 
 2020-09-23 01:32:36  5.1   67   752 
 2020-09-23 01:27:32  5.2   66   752 
 2020-09-23 01:22:28  5.2   66   752 
 2020-09-23 01:17:24  5.2   66   752 
 2020-09-23 01:12:19  5.2   66   752 
 2020-09-23 01:07:15  5.1   67   752 
 2020-09-23 01:02:11  5.1   66   752 
 2020-09-23 00:57:07  4.9   66   752 
 2020-09-23 00:52:03  5.0   66   752 
 2020-09-23 00:46:59  5.0   66   752 
 2020-09-23 00:41:55  5.1   67   752 
 2020-09-23 00:36:50  5.1   67   752 
 2020-09-23 00:31:46  5.1   67   752 
 2020-09-23 00:26:42  5.2   67   752 
 2020-09-23 00:21:38  5.2   67   752 
 2020-09-23 00:16:34  5.4   66   752 
 2020-09-23 00:11:30  5.6   66   752 
 2020-09-23 00:06:26  5.8   66   752 
 2020-09-23 00:01:22  5.8   66   752 
 2020-09-22 23:56:18  5.8   64   752 
 2020-09-22 23:51:13  5.9   63   752 
 2020-09-22 23:46:09  6.1   64   752 
 2020-09-22 23:41:05  6.1   63   752 
 2020-09-22 23:36:01  6.4   61   752 
 2020-09-22 23:30:57  6.5   60   752 
 2020-09-22 23:25:53  6.8   60   752 
 2020-09-22 23:20:49  6.9   60   752 
 2020-09-22 23:15:45  7.1   59   752 
 2020-09-22 23:10:41  7.2   59   752 
 2020-09-22 23:05:37  7.4   62   752 
 2020-09-22 23:00:33  7.7   58   752 
 2020-09-22 22:55:29  7.9   58   752 
 2020-09-22 22:50:25  8.2   57   752 
 2020-09-22 22:45:21  8.3   54   752 
 2020-09-22 22:40:17  8.5   54   752 
 2020-09-22 22:35:12  8.7   53   752 
 2020-09-22 22:30:08  8.8   53   752 
 2020-09-22 22:25:04  8.9   52   753 
 2020-09-22 22:20:00  8.9   51   753 
 2020-09-22 22:14:56  8.8   49   753 
 2020-09-22 22:09:52  8.9   50   753 
 2020-09-22 22:04:48  8.9   49   752 
 2020-09-22 21:59:43  9.1   48   752 
 2020-09-22 21:54:39  9.1   47   752 
 2020-09-22 21:49:34  8.9   49   752 
 2020-09-22 21:44:30  9.1   49   752 
 2020-09-22 21:39:26  9.1   48   752 
 2020-09-22 21:34:22  9.2   47   752 
 2020-09-22 21:29:18  9.4   49   752 
 2020-09-22 21:24:14  9.5   46   752 
 2020-09-22 21:19:10  9.7   46   752 
 2020-09-22 21:14:05  9.8   46   752 
 2020-09-22 21:09:01  9.9   45   752 
 2020-09-22 21:03:57  10.0   45   752 
 2020-09-22 20:58:53  10.1   45   752 
 2020-09-22 20:53:49  10.1   44   752 
 2020-09-22 20:48:45  10.2   44   752 
 2020-09-22 20:43:41  10.3   44   752 
 2020-09-22 20:38:37  10.3   44   752 
 2020-09-22 20:33:33  10.3   44   752 
 2020-09-22 20:28:29  10.4   44   752 
 2020-09-22 20:23:25  10.4   44   752 
 2020-09-22 20:18:21  10.5   44   752 
 2020-09-22 20:13:17  10.7   43   752 
 2020-09-22 20:08:13  10.9   42   752 
 2020-09-22 20:03:09  10.9   43   752 
 2020-09-22 19:58:04  10.8   43   752 
 2020-09-22 19:53:00  10.8   43   752 
 2020-09-22 19:47:56  10.9   42   752 
 2020-09-22 19:42:52  10.9   42   751 
 2020-09-22 19:37:48  11.0   42   751 
 2020-09-22 19:32:44  11.2   42   751 
 2020-09-22 19:27:40  11.3   41   751 
 2020-09-22 19:22:36  11.4   40   751 
 2020-09-22 19:17:32  11.6   40   751 
 2020-09-22 19:12:28  11.6   40   751 
 2020-09-22 19:07:24  11.9   40   751 
 2020-09-22 19:02:20  12.1   39   751 
 2020-09-22 18:57:16  12.2   38   751 
 2020-09-22 18:52:12  12.4   38   751 
 2020-09-22 18:47:07  12.6   37   751 
 2020-09-22 18:42:03  12.7   37   751 
 2020-09-22 18:36:59  12.9   36   751 
 2020-09-22 18:31:55  12.9   36   751 
 2020-09-22 18:26:51  13.2   35   751 
 2020-09-22 18:21:47  13.4   35   751 
 2020-09-22 18:16:43  13.3   36   751 
 2020-09-22 18:11:39  13.4   34   751 
 2020-09-22 18:06:35  13.6   34   751 
 2020-09-22 18:01:31  13.8   33   751 
 2020-09-22 17:56:26  13.8   33   751 
 2020-09-22 17:51:22  13.9   33   751 
 2020-09-22 17:46:18  13.8   32   751 
 2020-09-22 17:41:14  14.0   31   751 
 2020-09-22 17:36:10  14.1   32   751 
 2020-09-22 17:31:06  14.1   31   751 
 2020-09-22 17:26:02  14.2   31   751 
 2020-09-22 17:20:58  14.2   30   751 
 2020-09-22 17:15:54  14.4   32   750 
 2020-09-22 17:10:49  14.4   31   750 
 2020-09-22 17:05:45  14.6   31   750 
 2020-09-22 17:00:41  14.4   31   750 
 2020-09-22 16:55:37  14.3   31   750 
 2020-09-22 16:50:33  14.4   31   750 
 2020-09-22 16:45:29  14.6   31   750 
 2020-09-22 16:40:25  14.7   30   750 
 2020-09-22 16:35:21  14.9   30   750 
 2020-09-22 16:30:17  14.8   30   750 
 2020-09-22 16:25:13  14.8   29   750 
 2020-09-22 16:20:09  14.9   30   750 
 2020-09-22 16:15:04  14.9   28   750 
 2020-09-22 16:10:00  14.9   28   750 
 2020-09-22 16:04:56  15.2   27   750 
 2020-09-22 15:59:52  15.2   29   750 
 2020-09-22 15:54:48  15.6   29   750 
 2020-09-22 15:49:44  15.4   30   750 
 2020-09-22 15:44:40  15.2   31   750 
 2020-09-22 15:39:36  14.9   33   750 
 2020-09-22 15:34:32  14.8   32   750 
 2020-09-22 15:29:28  15.4   33   750 
 2020-09-22 15:24:24  15.4   35   750 
 2020-09-22 15:19:20  15.0   33   750 
 2020-09-22 15:14:13  15.4   32   750 
 2020-09-22 15:03:59  15.9   35   749 
 2020-09-22 14:58:55  15.8   35   749 
 2020-09-22 14:53:51  16.0   37   749 
 2020-09-22 14:48:47  15.6   37   749 
 2020-09-22 14:43:43  15.3   38   749 
 2020-09-22 14:38:39  15.3   37   749 
 2020-09-22 14:33:35  15.2   36   749 
 2020-09-22 14:28:31  15.9   37   749 
 2020-09-22 14:23:27  15.9   37   749 
 2020-09-22 14:18:23  15.6   38   749 
 2020-09-22 14:13:19  15.3   39   749 
 2020-09-22 14:08:15  15.1   38   749 
 2020-09-22 14:03:11  15.1   39   749 
 2020-09-22 13:58:07  15.4   40   749 
 2020-09-22 13:53:03  15.4   38   749 
 2020-09-22 13:47:59  15.6   36   749 
 2020-09-22 13:42:54  15.9   37   749 
 2020-09-22 13:37:50  15.9   37   749 
 2020-09-22 13:32:46  16.0   39   749 
 2020-09-22 13:27:42  16.1   38   749 
 2020-09-22 13:22:38  16.0   42   749 
 2020-09-22 13:17:34  15.5   44   749 
 2020-09-22 13:12:30  15.5   43   749 
 2020-09-22 13:07:26  15.6   42   749 
 2020-09-22 13:02:22  15.9   41   749 
 2020-09-22 12:57:17  15.8   41   749 
 2020-09-22 12:52:13  15.9   41   749 
 2020-09-22 12:47:09  15.8   40   749 
 2020-09-22 12:42:05  15.6   40   749 
 2020-09-22 12:37:01  15.9   40   748 
 2020-09-22 12:31:57  16.5   39   748 
 2020-09-22 12:26:53  16.1   40   748 
 2020-09-22 12:21:49  15.9   42   748 
 2020-09-22 12:16:45  16.2   42   748 
 2020-09-22 12:11:41  15.9   44   748 
 2020-09-22 12:06:37  15.9   45   748 
 2020-09-22 12:01:33  15.6   45   748 
 2020-09-22 11:56:29  15.7   45   748 
 2020-09-22 11:51:25  15.6   46   748 
 2020-09-22 11:46:20  15.6   45   748 
 2020-09-22 11:41:16  15.6   45   748 
 2020-09-22 11:36:12  15.6   45   748 
 2020-09-22 11:31:08  15.8   47   748 
 2020-09-22 11:26:04  15.5   45   748 
 2020-09-22 11:21:00  15.2   47   748 
 2020-09-22 11:15:56  15.2   47   748 
 2020-09-22 11:10:52  15.1   46   748 
 2020-09-22 11:05:48  15.2   50   748 
 2020-09-22 11:00:43  15.1   51   747 
 2020-09-22 10:55:39  15.2   54   747 
 2020-09-22 10:50:35  15.0   53   747 
 2020-09-22 10:45:31  14.8   57   747 
 2020-09-22 10:40:27  14.8   57   747 
 2020-09-22 10:35:23  14.6   57   747 
 2020-09-22 10:30:19  14.6   58   747 
 2020-09-22 10:25:15  14.5   60   747 
 2020-09-22 10:20:11  14.5   59   747 
 2020-09-22 10:15:07  14.3   61   747 
 2020-09-22 10:10:03  14.1   63   747 
 2020-09-22 10:04:59  14.1   63   747 
 2020-09-22 09:59:54  13.9   63   747 
 2020-09-22 09:54:50  13.8   65   746 
 2020-09-22 09:49:46  13.8   64   746 
 2020-09-22 09:44:42  13.6   65   746 
 2020-09-22 09:39:38  13.4   67   746 
 2020-09-22 09:34:34  12.8   69   746 
 2020-09-22 09:29:30  11.9   74   746 
 2020-09-22 09:24:26  11.4   75   746 
 2020-09-22 09:19:22  11.2   76   746 
 2020-09-22 09:14:18  11.1   78   746 
 2020-09-22 09:09:14  10.8   79   746 
 2020-09-22 09:04:10  10.5   79   746 
 2020-09-22 08:59:06  10.2   81   746 
 2020-09-22 08:54:02  10.0   83   746 
 2020-09-22 08:48:57  9.8   82   746 
 2020-09-22 08:43:53  9.6   84   746 
 2020-09-22 08:38:49  9.6   83   746 
 2020-09-22 08:33:45  9.5   83   746 
 2020-09-22 08:28:41  9.4   83   746 
 2020-09-22 08:23:37  9.1   84   746 
 2020-09-22 08:18:33  8.9   85   746 
 2020-09-22 08:13:29  8.8   85   746 
 2020-09-22 08:08:24  8.9   84   746 
 2020-09-22 08:03:20  8.9   85   746 
 2020-09-22 07:58:16  8.9   85   746 
 2020-09-22 07:53:12  8.8   85   746 
 2020-09-22 07:48:08  8.6   86   746 
 2020-09-22 07:43:04  8.5   86   746 
 2020-09-22 07:38:00  8.3   87   746 
 2020-09-22 07:32:56  8.2   87   746 
 2020-09-22 07:27:51  8.1   88   746 
 2020-09-22 07:22:47  8.1   88   746 
 2020-09-22 07:17:43  7.9   88   746 
 2020-09-22 07:12:39  7.9   89   746 
 2020-09-22 07:07:35  7.8   89   746 
 2020-09-22 07:02:31  7.7   89   746 
 2020-09-22 06:57:27  7.8   89   746 
 2020-09-22 06:52:22  7.7   89   746 
 2020-09-22 06:47:18  7.6   89   746 
 2020-09-22 06:42:14  7.6   89   746 
 2020-09-22 06:37:10  7.5   89   746 
 2020-09-22 06:32:06  7.4   89   746 
 2020-09-22 06:27:02  7.5   89   746 
 2020-09-22 06:21:58  7.5   89   746 
 2020-09-22 06:16:53  7.6   89   746 
 2020-09-22 06:11:49  7.5   89   746 
 2020-09-22 06:06:45  7.5   89   746 
 2020-09-22 06:01:41  7.4   89   746 
 2020-09-22 05:56:37  7.4   89   746 
 2020-09-22 05:51:33  7.3   89   746 
 2020-09-22 05:46:29  7.3   89   746 
 2020-09-22 05:41:25  7.3   89   746 
 2020-09-22 05:36:20  7.2   89   746 
 2020-09-22 05:31:16  7.2   89   746 
 2020-09-22 05:26:12  7.2   88   746 
 2020-09-22 05:21:08  7.3   88   746 
 2020-09-22 05:16:04  7.2   88   746 
 2020-09-22 05:11:00  7.3   2147483647   747 
 2020-09-22 05:05:56  7.3   87   747 
 2020-09-22 05:00:51  7.4   87   747 
 2020-09-22 04:55:47  7.4   87   747 
 2020-09-22 04:50:43  7.4   87   747 
 2020-09-22 04:45:39  7.5   87   747 
 2020-09-22 04:40:35  7.6   86   747 
 2020-09-22 04:35:31  7.6   86   747 
 2020-09-22 04:30:27  7.6   86   747 
 2020-09-22 04:25:22  7.7   86   747 
 2020-09-22 04:20:17  7.6   85   747 
 2020-09-22 04:15:13  7.6   85   747 
 2020-09-22 04:10:08  7.7   84   747 
 2020-09-22 04:05:04  7.6   84   747 
 2020-09-22 04:00:00  7.8   84   747 
 2020-09-22 03:54:56  7.9   84   747 
 2020-09-22 03:49:52  7.9   83   747 
 2020-09-22 03:44:48  7.9   84   747 
 2020-09-22 03:39:43  7.9   83   747 
 2020-09-22 03:34:39  7.9   84   747 
 2020-09-22 03:29:35  7.9   83   747 
 2020-09-22 03:24:31  7.8   83   747 
 2020-09-22 03:19:27  7.9   84   747 
 2020-09-22 03:14:23  7.9   84   747 
 2020-09-22 03:09:19  7.9   84   747 
 2020-09-22 03:04:15  8.0   84   747 
 2020-09-22 02:59:11  8.0   83   747 
 2020-09-22 02:54:07  8.1   83   747 
 2020-09-22 02:49:03  8.1   83   747 
 2020-09-22 02:43:59  8.1   83   747 
 2020-09-22 02:38:55  8.1   83   747 
 2020-09-22 02:33:50  8.1   83   747 
 2020-09-22 02:28:46  8.3   83   747 
 2020-09-22 02:23:42  8.4   82   747 
 2020-09-22 02:18:38  8.4   82   747 
 2020-09-22 02:13:34  8.6   81   747 
 2020-09-22 02:08:30  8.6   81   747 
 2020-09-22 02:03:26  8.8   81   747 
 2020-09-22 01:58:22  8.9   80   747 
 2020-09-22 01:53:17  9.0   80   747 
 2020-09-22 01:48:13  9.0   80   747 
 2020-09-22 01:43:09  9.1   80   747 
 2020-09-22 01:38:05  9.2   79   747 
 2020-09-22 01:33:01  9.2   80   748 
 2020-09-22 01:27:57  9.4   79   748 
 2020-09-22 01:22:53  9.4   79   748 
 2020-09-22 01:17:48  9.5   78   748 
 2020-09-22 01:12:44  9.5   78   748 
 2020-09-22 01:07:40  9.5   79   748 
 2020-09-22 01:02:36  9.4   79   748 
 2020-09-22 00:57:32  9.4   80   748 
 2020-09-22 00:52:28  9.5   79   748 
 2020-09-22 00:47:24  9.6   79   748 
 2020-09-22 00:42:19  9.6   80   748 
 2020-09-22 00:37:15  9.7   79   748 
 2020-09-22 00:32:11  9.8   78   748 
 2020-09-22 00:27:07  9.8   78   748 
 2020-09-22 00:22:03  9.9   78   748 
 2020-09-22 00:16:59  10.0   78   748 
 2020-09-22 00:11:55  9.9   79   748 
 2020-09-22 00:06:51  9.9   79   748 
 2020-09-22 00:01:46  9.9   79   748 
 2020-09-21 23:56:42  10.0   78   748 
 2020-09-21 23:51:38  9.9   78   748 
 2020-09-21 23:46:34  10.0   78   748 
 2020-09-21 23:41:30  10.1   78   748 
 2020-09-21 23:36:26  10.2   77   748 
 2020-09-21 23:31:22  10.4   76   748 
 2020-09-21 23:26:18  10.5   76   748 
 2020-09-21 23:21:14  10.5   75   748 
 2020-09-21 23:16:10  10.7   75   748 
 2020-09-21 23:11:06  10.8   74   748 
 2020-09-21 23:06:02  10.6   75   748 
 2020-09-21 23:00:58  10.7   75   748 
 2020-09-21 22:55:54  10.8   74   748 
 2020-09-21 22:50:49  10.9   74   748 
 2020-09-21 22:45:45  10.8   73   748 
 2020-09-21 22:40:41  10.9   73   748 
 2020-09-21 22:35:37  11.1   72   748 
 2020-09-21 22:30:33  11.1   71   748 
 2020-09-21 22:25:29  11.2   70   748 
 2020-09-21 22:20:25  11.2   70   748 
 2020-09-21 22:15:21  11.4   69   749 
 2020-09-21 22:10:17  11.5   69   749 
 2020-09-21 22:05:13  11.7   67   748 
 2020-09-21 22:00:09  11.8   67   748 
 2020-09-21 21:55:05  11.9   65   748 
 2020-09-21 21:50:01  12.0   65   748 
 2020-09-21 21:44:57  12.2   65   748 
 2020-09-21 21:39:50  12.1   64   749 
 2020-09-21 21:34:46  12.3   64   749 
 2020-09-21 21:29:42  12.4   64   749 
 2020-09-21 21:24:38  12.5   63   749 
 2020-09-21 21:19:34  12.6   62   749 
 2020-09-21 21:14:30  12.8   61   749 
 2020-09-21 21:09:26  13.0   61   749 
 2020-09-21 21:04:21  13.1   61   749 
 2020-09-21 20:59:17  13.2   60   749 
 2020-09-21 20:54:13  13.4   59   749 
 2020-09-21 20:49:09  13.6   58   749 
 2020-09-21 20:44:05  13.7   58   749 
 2020-09-21 20:39:01  13.9   57   749 
 2020-09-21 20:33:55  14.1   56   749 
 2020-09-21 20:28:51  14.1   56   748 
 2020-09-21 20:23:47  14.3   55   748 
 2020-09-21 20:18:42  14.4   54   749 
 2020-09-21 20:13:38  14.4   54   749 
 2020-09-21 20:08:34  14.5   54   749 
 2020-09-21 20:03:30  14.7   53   748 
 2020-09-21 19:58:26  14.8   53   749 
 2020-09-21 19:53:22  15.0   51   749 
 2020-09-21 19:48:17  15.2   50   749 
 2020-09-21 19:43:13  15.4   49   748 
 2020-09-21 19:38:09  15.6   49   748 
 2020-09-21 19:33:05  15.8   48   748 
 2020-09-21 19:28:01  15.9   48   748 
 2020-09-21 19:22:57  16.1   48   748 
 2020-09-21 19:17:53  16.3   46   748 
 2020-09-21 19:12:49  16.6   45   748 
 2020-09-21 19:07:43  16.9   44   748 
 2020-09-21 19:02:39  17.2   43   748 
 2020-09-21 18:57:35  17.2   42   748 
 2020-09-21 18:52:31  17.6   41   748 
 2020-09-21 18:47:27  17.8   40   748 
 2020-09-21 18:42:20  18.1   40   748 
 2020-09-21 18:37:16  18.2   39   748 
 2020-09-21 18:32:12  18.3   38   748 
 2020-09-21 18:27:08  18.6   38   748 
 2020-09-21 18:22:04  18.6   38   748 
 2020-09-21 18:17:00  18.8   37   748 
 2020-09-21 18:11:56  19.0   37   748 
 2020-09-21 18:06:52  19.1   36   748 
 2020-09-21 18:01:48  19.2   36   748 
 2020-09-21 17:56:44  19.4   35   748 
 2020-09-21 17:51:39  19.3   35   748 
 2020-09-21 17:46:35  19.5   35   748 
 2020-09-21 17:41:31  19.5   35   748 
 2020-09-21 17:36:27  19.6   36   748 
 2020-09-21 17:31:23  19.8   35   748 
 2020-09-21 17:26:19  19.8   34   748 
 2020-09-21 17:21:15  19.8   34   748 
 2020-09-21 17:16:11  19.9   35   748 
 2020-09-21 17:11:07  19.9   33   748 
 2020-09-21 17:06:03  20.0   34   748 
 2020-09-21 17:00:59  20.0   35   748 
 2020-09-21 16:55:54  20.1   34   748 
 2020-09-21 16:50:50  20.1   35   748 
 2020-09-21 16:45:46  20.2   33   748 
 2020-09-21 16:40:42  20.2   33   749 
 2020-09-21 16:35:38  20.4   37   749 
 2020-09-21 16:30:34  20.1   36   749 
 2020-09-21 16:25:30  20.1   37   749 
 2020-09-21 16:20:26  20.2   36   749 
 2020-09-21 16:15:21  20.2   37   749 
 2020-09-21 16:10:17  20.2   37   749 
 2020-09-21 16:05:13  20.1   37   749 
 2020-09-21 16:00:09  20.2   37   749 
 2020-09-21 15:55:05  20.2   39   749 
 2020-09-21 15:50:01  20.1   39   749 
 2020-09-21 15:44:57  20.1   38   749 
 2020-09-21 15:39:53  19.9   41   749 
 2020-09-21 15:34:49  19.6   43   749 
 2020-09-21 15:29:45  19.6   44   749 
 2020-09-21 15:24:41  19.4   44   749 
 2020-09-21 15:19:37  19.2   44   749 
 2020-09-21 15:14:33  19.2   44   749 
 2020-09-21 15:09:29  19.1   45   749 
 2020-09-21 15:04:25  19.1   44   749 
 2020-09-21 14:59:21  19.1   44   749 
 2020-09-21 14:54:16  19.0   45   749 
 2020-09-21 14:49:12  18.9   44   749 
 2020-09-21 14:44:08  18.9   43   750 
 2020-09-21 14:39:04  18.8   44   750 
 2020-09-21 14:34:00  18.8   44   750 
 2020-09-21 14:28:56  18.6   45   750 
 2020-09-21 14:23:52  18.8   44   750 
 2020-09-21 14:18:48  18.6   46   750 
 2020-09-21 14:13:44  18.5   45   750 
 2020-09-21 14:08:39  18.4   46   750 
 2020-09-21 14:03:35  18.3   48   750 
 2020-09-21 13:58:31  18.1   49   750 
 2020-09-21 13:53:27  18.0   49   750 
 2020-09-21 13:48:23  17.9   48   750 
 2020-09-21 13:43:19  18.1   48   750 
 2020-09-21 13:38:15  17.6   49   750 
 2020-09-21 13:33:11  17.7   49   750 
 2020-09-21 13:28:07  17.6   50   750 
 2020-09-21 13:23:03  17.3   52   751 
 2020-09-21 13:17:59  17.2   51   751 
 2020-09-21 13:12:55  17.2   51   751 
 2020-09-21 13:07:51  17.1   53   751 
 2020-09-21 13:02:46  16.9   54   751 
 2020-09-21 12:57:42  16.8   54   751 
 2020-09-21 12:52:38  16.6   54   751 
 2020-09-21 12:47:34  16.5   56   751 
 2020-09-21 12:42:30  16.4   59   751 
 2020-09-21 12:37:26  16.2   58   751 
 2020-09-21 12:32:21  15.9   59   751 
 2020-09-21 12:27:17  15.6   61   751 
 2020-09-21 12:22:13  15.7   61   751 
 2020-09-21 12:17:09  15.5   62   752 
 2020-09-21 12:12:05  15.5   63   752 
 2020-09-21 12:07:01  15.2   65   752 
 2020-09-21 12:01:57  15.0   65   752 
 2020-09-21 11:56:53  14.9   65   752 
 2020-09-21 11:51:48  14.6   67   752 
 2020-09-21 11:46:44  14.3   66   752 
 2020-09-21 11:41:40  14.4   67   752 
 2020-09-21 11:36:36  14.0   68   752 
 2020-09-21 11:31:32  13.8   69   752 
 2020-09-21 11:26:28  13.6   70   752 
 2020-09-21 11:21:24  13.4   70   752 
 2020-09-21 11:16:20  13.3   71   752 
 2020-09-21 11:11:16  13.1   72   752 
 2020-09-21 11:06:12  13.0   73   752 
 2020-09-21 11:01:08  12.7   74   752 
 2020-09-21 10:56:04  12.4   75   752 
 2020-09-21 10:51:00  12.1   77   753 
 2020-09-21 10:45:56  12.1   78   753 
 2020-09-21 10:40:52  11.9   77   753 
 2020-09-21 10:35:48  11.8   78   753 
 2020-09-21 10:30:44  11.4   79   753 
 2020-09-21 10:25:39  11.3   80   753 
 2020-09-21 10:15:31  10.9   81   753 
 2020-09-21 10:10:27  10.4   83   753 
 2020-09-21 10:05:23  10.1   84   753 
 2020-09-21 10:00:19  9.9   85   753 
 2020-09-21 09:55:15  9.5   86   753 
 2020-09-21 09:50:11  9.2   87   753 
 2020-09-21 09:45:07  9.0   87   753 
 2020-09-21 09:40:03  8.9   87   753 
 2020-09-21 09:34:59  8.6   88   753 
 2020-09-21 09:29:55  8.4   89   753 
 2020-09-21 09:24:51  8.2   89   753 
 2020-09-21 09:19:47  8.1   88   753 
 2020-09-21 09:14:42  8.0   89   753 
 2020-09-21 09:09:38  7.8   90   753 
 2020-09-21 09:04:34  7.5   91   753 
 2020-09-21 08:59:30  7.2   92   753 
 2020-09-21 08:54:26  7.1   92   753 
 2020-09-21 08:49:22  7.1   92   753 
 2020-09-21 08:44:18  6.8   92   753 
 2020-09-21 08:39:14  6.8   93   753 
 2020-09-21 08:34:10  6.6   94   753 
 2020-09-21 08:29:06  6.6   93   753 
 2020-09-21 08:24:01  6.4   94   753 
 2020-09-21 08:18:57  6.4   93   753 
 2020-09-21 08:13:53  6.5   94   754 
 2020-09-21 08:08:49  6.6   94   754 
 2020-09-21 08:03:45  6.4   94   754 
 2020-09-21 07:58:41  6.6   94   754 
 2020-09-21 07:53:37  6.4   95   754 
 2020-09-21 07:48:32  6.4   95   754 
 2020-09-21 07:43:28  6.3   95   754 
 2020-09-21 07:38:24  6.2   95   754 
 2020-09-21 07:33:20  6.2   96   754 
 2020-09-21 07:28:16  6.2   96   754 
 2020-09-21 07:23:12  6.1   96   754 
 2020-09-21 07:18:08  6.0   96   754 
 2020-09-21 07:13:04  6.0   96   754 
 2020-09-21 07:07:59  5.9   96   754 
 2020-09-21 07:02:55  5.9   97   754 
 2020-09-21 06:57:51  5.9   97   754 
 2020-09-21 06:52:47  5.9   97   754 
 2020-09-21 06:47:43  5.9   96   754 
 2020-09-21 06:42:39  5.9   96   754 
 2020-09-21 06:37:35  5.9   96   754 
 2020-09-21 06:32:30  5.9   96   754 
 2020-09-21 06:27:26  5.9   94   754 
 2020-09-21 06:22:22  6.0   95   754 
 2020-09-21 06:17:18  6.1   94   754 
 2020-09-21 06:12:14  6.1   94   754 
 2020-09-21 06:07:10  6.1   94   754 
 2020-09-21 06:02:06  6.2   94   754 
 2020-09-21 05:57:02  6.2   94   754 
 2020-09-21 05:51:58  6.2   95   754 
 2020-09-21 05:46:54  6.1   94   754 
 2020-09-21 05:41:50  6.2   94   754 
 2020-09-21 05:36:45  6.1   94   754 
 2020-09-21 05:31:41  6.2   94   754 
 2020-09-21 05:26:37  6.3   93   754 
 2020-09-21 05:21:33  6.4   93   754 
 2020-09-21 05:16:29  6.4   92   754 
 2020-09-21 05:11:25  6.6   92   754 
 2020-09-21 05:06:21  6.6   93   754 
 2020-09-21 05:01:16  6.6   92   754 
 2020-09-21 04:56:12  6.6   92   754 
 2020-09-21 04:51:08  6.7   92   754 
 2020-09-21 04:46:03  6.6   92   754 
 2020-09-21 04:40:59  6.6   92   754 
 2020-09-21 04:35:55  6.8   91   754 
 2020-09-21 04:30:51  6.8   91   754 
 2020-09-21 04:25:47  6.8   92   754 
 2020-09-21 04:20:42  6.8   91   754 
 2020-09-21 04:15:38  6.8   91   754 
 2020-09-21 04:10:34  6.9   91   754 
 2020-09-21 04:05:30  6.9   91   754 
 2020-09-21 04:00:26  6.9   91   754 
 2020-09-21 03:55:22  6.9   90   754 
 2020-09-21 03:50:18  6.9   90   754 
 2020-09-21 03:45:14  6.9   90   754 
 2020-09-21 03:40:09  6.9   90   754 
 2020-09-21 03:35:05  6.9   89   754 
 2020-09-21 03:30:01  7.1   89   754 
 2020-09-21 03:24:57  7.1   89   754 
 2020-09-21 03:19:53  7.1   88   754 
 2020-09-21 03:14:49  7.1   88   754 
 2020-09-21 03:09:45  7.2   88   754 
 2020-09-21 03:04:41  7.2   88   754 
 2020-09-21 02:59:37  7.2   89   755 
 2020-09-21 02:54:33  7.4   88   755 
 2020-09-21 02:49:29  7.4   87   755 
 2020-09-21 02:44:24  7.4   87   755 
 2020-09-21 02:39:20  7.6   87   755 
 2020-09-21 02:34:16  7.7   86   755 
 2020-09-21 02:29:12  7.8   86   755 
 2020-09-21 02:24:08  7.8   85   755 
 2020-09-21 02:19:04  7.9   85   755 
 2020-09-21 02:14:00  8.0   85   755 
 2020-09-21 02:08:56  8.1   85   755 
 2020-09-21 02:03:52  8.1   85   755 
 2020-09-21 01:58:48  8.1   84   755 
 2020-09-21 01:53:44  8.2   84   755 
 2020-09-21 01:48:40  8.2   84   755 
 2020-09-21 01:43:36  8.2   84   755 
 2020-09-21 01:38:32  8.4   84   755 
 2020-09-21 01:33:28  8.4   83   755 
 2020-09-21 01:28:24  8.4   83   755 
 2020-09-21 01:23:20  8.4   83   755 
 2020-09-21 01:18:16  8.4   83   755 
 2020-09-21 01:13:11  8.5   83   755 
 2020-09-21 01:08:07  8.5   83   755 
 2020-09-21 01:03:03  8.6   83   755 
 2020-09-21 00:57:59  8.6   82   755 
 2020-09-21 00:52:55  8.7   82   755 
 2020-09-21 00:47:51  8.7   82   755 
 2020-09-21 00:42:47  8.8   81   755 
 2020-09-21 00:37:43  8.9   80   755 
 2020-09-21 00:32:39  8.9   80   755 
 2020-09-21 00:27:35  9.1   80   755 
 2020-09-21 00:22:31  9.1   80   755 
 2020-09-21 00:17:27  9.2   79   755 
 2020-09-21 00:12:23  9.2   80   755 
 2020-09-21 00:07:18  9.2   80   755 
 2020-09-21 00:02:14  9.4   79   755 
 2020-09-20 23:57:10  9.3   79   755 
 2020-09-20 23:52:06  9.4   79   755 
 2020-09-20 23:47:02  9.5   79   755 
 2020-09-20 23:41:58  9.5   79   755 
 2020-09-20 23:36:54  9.5   78   755 
 2020-09-20 23:31:50  9.5   78   755 
 2020-09-20 23:26:46  9.6   78   755 
 2020-09-20 23:21:42  9.6   78   755 
 2020-09-20 23:16:38  9.6   78   755 
 2020-09-20 23:11:33  9.7   78   755 
 2020-09-20 23:06:29  9.8   78   755 
 2020-09-20 23:01:25  9.9   78   755 
 2020-09-20 22:56:21  9.9   78   755 
 2020-09-20 22:51:17  9.9   77   755 
 2020-09-20 22:46:13  10.0   77   755 
 2020-09-20 22:41:09  10.1   77   755 
 2020-09-20 22:36:05  10.1   77   755 
 2020-09-20 22:31:01  10.2   76   755 
 2020-09-20 22:25:56  10.2   76   755 
 2020-09-20 22:20:52  10.4   76   755 
 2020-09-20 22:15:48  10.5   75   755 
 2020-09-20 22:10:44  10.6   75   755 
 2020-09-20 22:05:40  10.6   75   755 
 2020-09-20 22:00:36  10.8   75   755 
 2020-09-20 21:55:32  10.9   73   755 
 2020-09-20 21:50:28  11.0   73   755 
 2020-09-20 21:45:23  11.2   72   755 
 2020-09-20 21:40:19  11.2   71   755 
 2020-09-20 21:35:15  11.5   70   755 
 2020-09-20 21:30:11  11.5   70   755 
 2020-09-20 21:25:07  11.5   70   755 
 2020-09-20 21:20:03  11.6   71   755 
 2020-09-20 21:14:59  11.9   70   755 
 2020-09-20 21:09:55  12.0   68   755 
 2020-09-20 21:04:50  11.9   69   755 
 2020-09-20 20:59:46  12.0   68   755 
 2020-09-20 20:54:42  12.2   67   755 
 2020-09-20 20:49:38  12.4   67   755 
 2020-09-20 20:44:34  12.6   66   755 
 2020-09-20 20:39:30  12.8   65   755 
 2020-09-20 20:34:26  12.8   65   754 
 2020-09-20 20:29:22  12.9   64   754 
 2020-09-20 20:24:17  12.9   64   754 
 2020-09-20 20:19:13  13.1   63   754 
 2020-09-20 20:14:08  13.3   62   754 
 2020-09-20 20:09:04  13.4   61   754 
 2020-09-20 20:04:00  13.6   60   754 
 2020-09-20 19:58:56  13.8   60   754 
 2020-09-20 19:53:52  13.9   58   754 
 2020-09-20 19:48:48  14.2   58   754 
 2020-09-20 19:43:44  14.4   56   754 
 2020-09-20 19:38:40  14.6   55   754 
 2020-09-20 19:33:35  14.9   55   754 
 2020-09-20 19:28:31  15.1   54   754 
 2020-09-20 19:23:27  15.1   55   754 
 2020-09-20 19:18:23  15.2   54   754 
 2020-09-20 19:13:19  15.4   53   754 
 2020-09-20 19:08:15  15.6   52   754 
 2020-09-20 19:03:11  15.8   52   754 
 2020-09-20 18:58:07  16.0   50   754 
 2020-09-20 18:53:03  16.2   50   754 
 2020-09-20 18:47:59  16.4   49   754 
 2020-09-20 18:42:54  16.5   49   754 
 2020-09-20 18:37:50  16.8   48   754 
 2020-09-20 18:32:46  16.9   48   754 
 2020-09-20 18:27:42  16.9   47   754 
 2020-09-20 18:22:38  17.1   46   754 
 2020-09-20 18:17:33  17.3   45   754 
 2020-09-20 18:12:29  17.3   45   754 
 2020-09-20 18:07:25  17.3   45   754 
 2020-09-20 18:02:21  17.4   45   754 
 2020-09-20 17:57:17  17.8   44   754 
 2020-09-20 17:52:13  17.8   44   754 
 2020-09-20 17:47:09  17.9   43   754 
 2020-09-20 17:42:05  17.9   43   754 
 2020-09-20 17:37:01  17.8   44   754 
 2020-09-20 17:31:56  18.1   43   754 
 2020-09-20 17:26:52  18.4   42   754 
 2020-09-20 17:21:48  18.4   41   754 
 2020-09-20 17:16:44  18.6   40   754 
 2020-09-20 17:11:40  18.7   41   754 
 2020-09-20 17:06:36  18.7   40   754 
 2020-09-20 17:01:32  18.7   41   754 
 2020-09-20 16:56:28  18.6   42   754 
 2020-09-20 16:51:24  18.3   42   754 
 2020-09-20 16:46:20  18.6   42   754 
 2020-09-20 16:41:16  18.4   43   754 
 2020-09-20 16:36:12  18.5   43   754 
 2020-09-20 16:31:08  18.2   44   754 
 2020-09-20 16:26:02  18.0   44   754 
 2020-09-20 16:20:57  18.1   43   754 
 2020-09-20 16:15:53  18.3   42   754 
 2020-09-20 16:10:48  18.6   42   754 
 2020-09-20 16:05:44  18.6   42   754 
 2020-09-20 16:00:40  18.6   41   754 
 2020-09-20 15:55:36  18.9   41   754 
 2020-09-20 15:50:32  18.8   41   754 
 2020-09-20 15:45:28  18.6   42   754 
 2020-09-20 15:40:24  18.6   42   754 
 2020-09-20 15:35:20  18.3   44   755 
 2020-09-20 15:30:15  18.4   44   755 
 2020-09-20 15:25:11  18.5   46   755 
 2020-09-20 15:20:07  18.3   45   755 
 2020-09-20 15:15:03  18.1   46   755 
 2020-09-20 15:09:58  18.2   46   755 
 2020-09-20 15:04:54  18.4   46   755 
 2020-09-20 14:59:50  18.5   46   755 
 2020-09-20 14:54:46  18.6   47   755 
 2020-09-20 14:49:42  18.1   52   755 
 2020-09-20 14:44:38  17.8   53   755 
 2020-09-20 14:39:34  17.9   53   755 
 2020-09-20 14:34:30  17.6   53   755 
 2020-09-20 14:29:25  17.4   54   755 
 2020-09-20 14:24:21  17.3   54   755 
 2020-09-20 14:19:17  17.3   56   755 
 2020-09-20 14:14:13  17.2   55   755 
 2020-09-20 14:09:09  17.2   56   755 
 2020-09-20 14:04:05  17.1   57   755 
 2020-09-20 13:59:01  17.1   57   755 
 2020-09-20 13:53:57  16.9   57   755 
 2020-09-20 13:48:53  17.0   57   755 
 2020-09-20 13:43:49  16.8   57   755 
 2020-09-20 13:38:45  16.5   58   755 
 2020-09-20 13:33:41  16.4   59   755 
 2020-09-20 13:28:37  16.4   60   755 
 2020-09-20 13:23:32  16.2   60   755 
 2020-09-20 13:18:28  16.2   61   755 
 2020-09-20 13:13:24  15.9   61   756 
 2020-09-20 13:08:20  15.8   62   756 
 2020-09-20 13:03:16  15.6   63   756 
 2020-09-20 12:58:12  15.5   63   756 
 2020-09-20 12:53:08  15.4   64   756 
 2020-09-20 12:48:04  15.2   66   756 
 2020-09-20 12:43:00  15.0   66   756 
 2020-09-20 12:37:56  14.9   66   756 
 2020-09-20 12:32:52  14.8   65   756 
 2020-09-20 12:27:48  14.6   67   756 
 2020-09-20 12:22:44  14.4   67   756 
 2020-09-20 12:17:40  14.2   67   756 
 2020-09-20 12:12:36  14.0   68   756 
 2020-09-20 12:07:31  14.0   67   756 
 2020-09-20 12:02:27  13.7   69   756 
 2020-09-20 11:57:23  13.6   70   756 
 2020-09-20 11:52:19  13.4   70   756 
 2020-09-20 11:47:15  13.2   72   756 
 2020-09-20 11:42:11  13.0   72   756 
 2020-09-20 11:37:07  12.8   73   756 
 2020-09-20 11:32:03  12.4   74   756 
 2020-09-20 11:26:59  12.5   73   756 
 2020-09-20 11:21:54  12.3   74   756 
 2020-09-20 11:16:50  12.3   75   756 
 2020-09-20 11:11:46  12.1   76   756 
 2020-09-20 11:06:42  11.9   74   756 
 2020-09-20 11:01:38  11.8   75   756 
 2020-09-20 10:56:34  12.0   75   756 
 2020-09-20 10:51:30  12.1   75   756 
 2020-09-20 10:46:26  12.0   75   756 
 2020-09-20 10:41:22  11.9   76   756 
 2020-09-20 10:36:18  12.2   74   756 
 2020-09-20 10:31:14  11.9   75   756 
 2020-09-20 10:26:10  12.2   74   756 
 2020-09-20 10:21:06  12.1   75   756 
 2020-09-20 10:16:02  11.8   76   756 
 2020-09-20 10:10:57  11.4   76   756 
 2020-09-20 10:05:53  11.3   78   756 
 2020-09-20 10:00:49  11.1   79   756 
 2020-09-20 09:55:45  11.1   79   756 
 2020-09-20 09:50:41  11.1   79   756 
 2020-09-20 09:45:37  11.0   78   756 
 2020-09-20 09:40:33  10.8   80   756 
 2020-09-20 09:35:29  10.6   80   756 
 2020-09-20 09:30:25  10.5   82   756 
 2020-09-20 09:25:21  10.2   82   756 
 2020-09-20 09:20:17  10.2   82   756 
 2020-09-20 09:15:13  10.1   83   756 
 2020-09-20 09:10:09  10.0   83   756 
 2020-09-20 09:05:04  9.9   84   756 
 2020-09-20 09:00:00  9.9   84   756 
 2020-09-20 08:54:56  9.9   84   756 
 2020-09-20 08:49:52  9.8   85   756 
 2020-09-20 08:44:48  9.6   85   756 
 2020-09-20 08:39:44  9.5   86   756 
 2020-09-20 08:34:40  9.3   86   756 
 2020-09-20 08:29:36  9.3   87   756 
 2020-09-20 08:24:32  9.1   87   756 
 2020-09-20 08:19:27  8.9   87   756 
 2020-09-20 08:14:23  8.8   88   756 
 2020-09-20 08:09:19  8.6   89   756 
 2020-09-20 08:04:15  8.4   90   756 
 2020-09-20 07:59:11  8.3   90   756 
 2020-09-20 07:54:07  8.2   90   756 
 2020-09-20 07:49:03  8.2   90   756 
 2020-09-20 07:43:59  8.2   90   756 
 2020-09-20 07:38:55  8.2   90   756 
 2020-09-20 07:33:51  8.1   90   756 
 2020-09-20 07:28:47  8.1   90   756 
 2020-09-20 07:23:42  8.1   90   756 
 2020-09-20 07:18:38  8.2   90   756 
 2020-09-20 07:13:34  8.1   90   756 
 2020-09-20 07:08:30  8.1   90   756 
 2020-09-20 07:03:26  8.2   89   756 
 2020-09-20 06:58:22  8.2   89   756 
 2020-09-20 06:53:18  8.3   88   756 
 2020-09-20 06:48:13  8.4   88   756 
 2020-09-20 06:43:09  8.4   88   756 
 2020-09-20 06:38:05  8.4   88   756 
 2020-09-20 06:33:01  8.5   87   756 
 2020-09-20 06:27:57  8.5   87   756 
 2020-09-20 06:22:53  8.6   87   756 
 2020-09-20 06:17:49  8.6   86   756 
 2020-09-20 06:12:43  8.7   86   756 
 2020-09-20 06:07:39  8.7   86   756 
 2020-09-20 06:02:35  8.8   86   756 
 2020-09-20 05:57:31  8.8   85   756 
 2020-09-20 05:52:27  8.9   85   756 
 2020-09-20 05:47:23  8.8   85   756 
 2020-09-20 05:42:19  8.9   85   756 
 2020-09-20 05:37:14  8.9   85   756 
 2020-09-20 05:32:10  8.8   85   756 
 2020-09-20 05:27:06  8.8   85   756 
 2020-09-20 05:22:02  8.8   84   756 
 2020-09-20 05:16:58  8.8   85   756 
 2020-09-20 05:11:54  8.9   85   756 
 2020-09-20 05:06:50  8.9   84   756 
 2020-09-20 05:01:46  8.9   84   756 
 2020-09-20 04:56:41  9.0   84   756 
 2020-09-20 04:51:37  9.1   84   756 
 2020-09-20 04:46:33  9.1   84   756 
 2020-09-20 04:41:29  9.2   84   756 
 2020-09-20 04:36:25  9.2   84   756 
 2020-09-20 04:31:21  9.2   84   756 
 2020-09-20 04:26:17  9.1   84   756 
 2020-09-20 04:21:13  9.1   85   755 
 2020-09-20 04:16:08  9.1   85   755 
 2020-09-20 04:11:04  9.1   85   755 
 2020-09-20 04:06:00  9.1   85   755 
 2020-09-20 04:00:56  9.0   86   755 
 2020-09-20 03:55:52  8.9   86   755 
 2020-09-20 03:50:48  8.9   87   755 
 2020-09-20 03:45:44  8.9   87   755 
 2020-09-20 03:40:39  8.8   88   755 
 2020-09-20 03:35:35  8.8   88   756 
 2020-09-20 03:30:31  8.8   89   756 
 2020-09-20 03:25:27  8.7   90   756 
 2020-09-20 03:20:23  8.6   90   755 
 2020-09-20 03:15:19  8.6   91   755 
 2020-09-20 03:10:15  8.4   91   755 
 2020-09-20 03:05:11  8.5   91   755 
 2020-09-20 03:00:06  8.6   92   755 
 2020-09-20 02:55:02  8.6   92   756 
 2020-09-20 02:49:58  8.5   92   755 
 2020-09-20 02:44:54  8.6   92   755 
 2020-09-20 02:39:50  8.6   92   756 
 2020-09-20 02:34:46  8.6   92   756 
 2020-09-20 02:29:42  8.6   92   756 
 2020-09-20 02:24:38  8.6   92   755 
 2020-09-20 02:19:34  8.6   92   756 
 2020-09-20 02:14:29  8.5   92   756 
 2020-09-20 02:09:25  8.6   92   756 
 2020-09-20 02:04:21  8.6   92   756 
 2020-09-20 01:59:17  8.6   92   756 
 2020-09-20 01:54:13  8.6   92   756 
 2020-09-20 01:49:09  8.6   92   756 
 2020-09-20 01:44:05  8.6   92   756 
 2020-09-20 01:39:01  8.5   92   755 
 2020-09-20 01:33:57  8.5   92   755 
 2020-09-20 01:28:53  8.5   93   755 
 2020-09-20 01:23:49  8.4   92   755 
 2020-09-20 01:18:44  8.5   93   755 
 2020-09-20 01:13:40  8.4   92   755 
 2020-09-20 01:08:36  8.4   93   755 
 2020-09-20 01:03:32  8.4   93   755 
 2020-09-20 00:58:28  8.4   93   755 
 2020-09-20 00:53:24  8.4   93   756 
 2020-09-20 00:48:20  8.4   93   756 
 2020-09-20 00:43:16  8.5   93   755 
 2020-09-20 00:38:11  8.4   93   755 
 2020-09-20 00:33:07  8.4   93   755 
 2020-09-20 00:28:03  8.4   93   755 
 2020-09-20 00:22:59  8.4   93   756 
 2020-09-20 00:17:55  8.4   93   756 
 2020-09-20 00:12:51  8.4   93   756 
 2020-09-20 00:07:47  8.3   93   756 
 2020-09-20 00:02:42  8.4   93   756 
 2020-09-19 23:57:38  8.3   93   756 
 2020-09-19 23:52:34  8.4   92   756 
 2020-09-19 23:47:30  8.4   92   756 
 2020-09-19 23:42:26  8.3   92   756 
 2020-09-19 23:37:22  8.2   92   756 
 2020-09-19 23:32:18  8.3   92   756 
 2020-09-19 23:27:14  8.4   91   756 
 2020-09-19 23:22:10  8.3   92   756 
 2020-09-19 23:17:06  8.2   92   756 
 2020-09-19 23:12:02  8.3   92   756 
 2020-09-19 23:06:57  8.2   92   756 
 2020-09-19 23:01:53  8.2   92   756 
 2020-09-19 22:56:49  8.2   92   756 
 2020-09-19 22:51:45  8.2   92   756 
 2020-09-19 22:46:41  8.1   92   756 
 2020-09-19 22:41:37  8.1   92   756 
 2020-09-19 22:36:33  8.1   92   756 
 2020-09-19 22:31:29  8.1   92   756 
 2020-09-19 22:26:25  8.0   92   756 
 2020-09-19 22:21:21  8.0   92   756 
 2020-09-19 22:16:17  7.9   92   756 
 2020-09-19 22:11:13  8.1   91   756 
 2020-09-19 22:06:09  8.0   91   756 
 2020-09-19 22:01:05  8.1   91   756 
 2020-09-19 21:56:01  8.1   90   756 
 2020-09-19 21:50:56  8.1   90   756 
 2020-09-19 21:45:52  8.1   90   756 
 2020-09-19 21:35:44  8.1   90   756 
 2020-09-19 21:30:40  8.0   90   756 
 2020-09-19 21:25:36  8.0   90   755 
 2020-09-19 21:15:28  7.9   89   755 
 2020-09-19 21:10:24  7.9   89   755 
 2020-09-19 21:05:20  8.0   89   755 
 2020-09-19 21:00:16  7.9   89   755 
 2020-09-19 20:55:12  7.9   88   755 
 2020-09-19 20:50:08  8.1   88   755 
 2020-09-19 20:45:03  8.0   88   755 
 2020-09-19 20:39:59  8.1   88   755 
 2020-09-19 20:34:55  7.9   88   755 
 2020-09-19 20:29:51  7.9   88   755 
 2020-09-19 20:24:47  7.9   88   755 
 2020-09-19 20:19:43  8.0   88   755 
 2020-09-19 20:14:39  7.9   87   755 
 2020-09-19 20:09:35  7.9   87   755 
 2020-09-19 20:04:30  7.8   87   755 
 2020-09-19 19:59:26  7.9   86   755 
 2020-09-19 19:54:22  8.1   84   755 
 2020-09-19 19:49:18  8.1   84   755 
 2020-09-19 19:44:14  8.0   83   755 
 2020-09-19 19:39:10  8.1   82   755 
 2020-09-19 19:34:06  8.1   82   755 
 2020-09-19 19:29:02  8.2   83   755 
 2020-09-19 19:23:58  8.3   81   755 
 2020-09-19 19:18:53  8.3   81   755 
 2020-09-19 19:13:49  8.4   81   755 
 2020-09-19 19:08:45  8.4   82   754 
 2020-09-19 19:03:41  8.5   81   754 
 2020-09-19 18:58:37  8.5   81   754 
 2020-09-19 18:53:33  8.4   82   754 
 2020-09-19 18:48:29  8.3   81   754 
 2020-09-19 18:43:25  8.5   81   754 
 2020-09-19 18:38:21  8.5   81   754 
 2020-09-19 18:33:16  8.4   81   754 
 2020-09-19 18:28:11  8.5   79   754 
 2020-09-19 18:23:07  8.6   80   754 
 2020-09-19 18:18:03  8.6   80   754 
 2020-09-19 18:12:59  8.6   79   754 
 2020-09-19 18:07:55  8.6   79   754 
 2020-09-19 18:02:51  8.6   80   754 
 2020-09-19 17:57:47  8.7   79   754 
 2020-09-19 17:52:43  8.7   80   754 
 2020-09-19 17:47:39  8.6   81   754 
 2020-09-19 17:42:35  8.7   81   754 
 2020-09-19 17:37:30  8.8   81   754 
 2020-09-19 17:32:26  8.8   80   754 
 2020-09-19 17:27:22  8.8   81   754 
 2020-09-19 17:22:18  8.8   80   754 
 2020-09-19 17:17:14  8.8   81   754 
 2020-09-19 17:12:09  8.8   79   754 
 2020-09-19 17:07:05  8.9   79   754 
 2020-09-19 17:02:00  8.9   79   754 
 2020-09-19 16:56:56  8.9   79   754 
 2020-09-19 16:51:52  8.8   79   754 
 2020-09-19 16:46:48  8.8   79   753 
 2020-09-19 16:41:44  8.9   80   753 
 2020-09-19 16:36:39  8.8   79   753 
 2020-09-19 16:31:35  9.0   82   753 
 2020-09-19 16:26:31  8.9   82   753 
 2020-09-19 16:21:27  8.9   83   753 
 2020-09-19 16:16:23  8.8   84   753 
 2020-09-19 16:11:19  8.8   84   753 
 2020-09-19 16:06:14  8.9   83   753 
 2020-09-19 16:01:10  8.8   84   753 
 2020-09-19 15:56:03  8.9   85   753 
 2020-09-19 15:50:59  8.9   84   753 
 2020-09-19 15:45:55  9.1   83   753 
 2020-09-19 15:40:51  9.1   85   753 
 2020-09-19 15:35:47  9.1   85   753 
 2020-09-19 15:30:43  9.0   85   753 
 2020-09-19 15:25:39  8.9   85   753 
 2020-09-19 15:20:34  8.9   85   753 
 2020-09-19 15:15:30  8.7   87   753 
 2020-09-19 15:10:26  8.6   87   753 
 2020-09-19 15:05:22  8.5   88   753 
 2020-09-19 15:00:18  8.6   91   753 
 2020-09-19 14:55:14  8.4   89   753 
 2020-09-19 14:50:10  8.3   91   753 
 2020-09-19 14:45:06  8.2   90   753 
 2020-09-19 14:40:02  8.1   90   752 
 2020-09-19 14:34:58  8.1   92   752 
 2020-09-19 14:29:54  8.1   92   752 
 2020-09-19 14:24:50  8.4   93   752 
 2020-09-19 14:19:45  8.3   94   752 
 2020-09-19 14:14:41  8.5   93   752 
 2020-09-19 14:09:37  8.5   93   752 
 2020-09-19 14:04:33  8.4   92   752 
 2020-09-19 13:59:29  8.4   92   752 
 2020-09-19 13:54:25  8.4   91   752 
 2020-09-19 13:49:21  8.4   90   752 
 2020-09-19 13:44:17  8.5   89   752 
 2020-09-19 13:39:11  8.8   86   752 
 2020-09-19 13:34:07  9.2   82   752 
 2020-09-19 13:29:03  9.6   78   752 
 2020-09-19 13:23:59  9.7   76   752 
 2020-09-19 13:18:54  9.8   76   752 
 2020-09-19 13:13:50  9.7   76   752 
 2020-09-19 13:08:46  9.7   76   752 
 2020-09-19 13:03:41  9.8   76   752 
 2020-09-19 12:58:37  9.8   76   752 
 2020-09-19 12:53:33  9.8   75   752 
 2020-09-19 12:48:29  9.8   76   752 
 2020-09-19 12:43:25  10.0   76   752 
 2020-09-19 12:38:21  10.0   76   752 
 2020-09-19 12:33:17  10.1   77   752 
 2020-09-19 12:28:13  10.1   76   752 
 2020-09-19 12:23:09  10.1   75   752 
 2020-09-19 12:18:05  10.4   75   752 
 2020-09-19 12:13:01  10.7   73   751 
 2020-09-19 12:07:56  10.6   73   751 
 2020-09-19 12:02:52  10.7   75   751 
 2020-09-19 11:57:48  10.5   75   751 
 2020-09-19 11:52:44  10.4   76   751 
 2020-09-19 11:47:40  10.5   75   751 
 2020-09-19 11:42:36  10.6   76   751 
 2020-09-19 11:37:32  10.4   78   751 
 2020-09-19 11:32:28  10.4   78   751 
 2020-09-19 11:27:24  10.1   80   751 
 2020-09-19 11:22:20  9.8   80   751 
 2020-09-19 11:17:16  9.9   83   751 
 2020-09-19 11:12:12  9.8   84   751 
 2020-09-19 11:07:08  9.4   84   751 
 2020-09-19 11:02:04  9.3   87   751 
 2020-09-19 10:57:00  9.1   87   751 
 2020-09-19 10:51:56  8.9   88   751 
 2020-09-19 10:46:52  9.1   88   751 
 2020-09-19 10:41:47  9.2   88   751 
 2020-09-19 10:36:43  9.1   90   751 
 2020-09-19 10:31:39  8.9   90   751 
 2020-09-19 10:26:35  8.8   91   751 
 2020-09-19 10:21:31  8.9   92   751 
 2020-09-19 10:16:27  8.8   92   751 
 2020-09-19 10:11:23  8.8   93   751 
 2020-09-19 10:06:19  8.6   94   751 
 2020-09-19 10:01:15  8.6   95   751 
 2020-09-19 09:56:11  8.2   96   751 
 2020-09-19 09:51:07  8.3   96   751 
 2020-09-19 09:46:03  8.2   96   751 
 2020-09-19 09:40:59  8.4   95   751 
 2020-09-19 09:35:54  8.4   96   751 
 2020-09-19 09:30:50  8.4   96   751 
 2020-09-19 09:25:46  8.3   97   751 
 2020-09-19 09:20:42  8.2   97   751 
 2020-09-19 09:15:38  8.2   97   751 
 2020-09-19 09:10:34  8.1   97   751 
 2020-09-19 09:05:30  7.9   97   751 
 2020-09-19 09:00:26  7.9   97   751 
 2020-09-19 08:55:19  7.8   97   751 
 2020-09-19 08:50:14  7.8   98   751 
 2020-09-19 08:45:08  7.7   97   751 
 2020-09-19 08:40:04  7.7   97   751 
 2020-09-19 08:35:00  7.6   97   751 
 2020-09-19 08:29:56  7.4   97   751 
 2020-09-19 08:24:51  7.3   97   751 
 2020-09-19 08:19:47  7.3   97   751 
 2020-09-19 08:14:43  7.4   97   751 
 2020-09-19 08:09:39  7.2   97   751 
 2020-09-19 08:04:35  7.1   97   751 
 2020-09-19 07:59:31  7.1   97   751 
 2020-09-19 07:54:27  7.1   97   751 
 2020-09-19 07:49:23  7.0   97   751 
 2020-09-19 07:44:19  7.0   97   751 
 2020-09-19 07:39:15  6.9   97   751 
 2020-09-19 07:34:10  6.8   98   751 
 2020-09-19 07:29:06  6.8   97   751 
 2020-09-19 07:24:02  6.8   97   751 
 2020-09-19 07:18:58  6.8   98   751 
 2020-09-19 07:13:54  6.6   98   751 
 2020-09-19 07:08:50  6.6   98   751 
 2020-09-19 07:03:46  6.6   98   751 
 2020-09-19 06:58:42  6.5   98   751 
 2020-09-19 06:53:38  6.5   98   751 
 2020-09-19 06:48:33  6.4   97   751 
 2020-09-19 06:43:29  6.5   96   751 
 2020-09-19 06:38:25  6.5   95   751 
 2020-09-19 06:33:21  6.4   96   751 
 2020-09-19 06:28:17  6.4   95   751 
 2020-09-19 06:23:13  6.4   96   751 
 2020-09-19 06:18:08  6.3   96   751 
 2020-09-19 06:13:04  6.2   97   751 
 2020-09-19 06:08:00  6.1   96   751 
 2020-09-19 06:02:56  6.0   97   751 
 2020-09-19 05:57:52  6.1   96   751 
 2020-09-19 05:52:48  6.2   96   751 
 2020-09-19 05:47:44  6.1   96   751 
 2020-09-19 05:42:40  6.2   96   751 
 2020-09-19 05:37:35  6.1   96   751 
 2020-09-19 05:32:31  6.2   96   751 
 2020-09-19 05:27:27  6.2   96   751 
 2020-09-19 05:22:23  6.2   96   751 
 2020-09-19 05:17:19  6.2   96   751 
 2020-09-19 05:12:15  6.1   96   751 
 2020-09-19 05:07:11  6.2   96   751 
 2020-09-19 05:02:06  6.2   96   751 
 2020-09-19 04:57:02  6.2   96   751 
 2020-09-19 04:51:58  6.1   96   751 
 2020-09-19 04:46:54  6.2   96   751 
 2020-09-19 04:41:50  6.2   96   751 
 2020-09-19 04:36:46  6.2   96   751 
 2020-09-19 04:31:42  6.2   97   751 
 2020-09-19 04:26:38  6.1   98   751 
 2020-09-19 04:21:33  6.0   97   751 
 2020-09-19 04:16:29  5.9   98   751 
 2020-09-19 04:11:25  5.8   98   751 
 2020-09-19 04:06:21  5.8   98   751 
 2020-09-19 04:01:17  5.8   98   751 
 2020-09-19 03:56:13  5.9   98   751 
 2020-09-19 03:51:09  5.9   98   751 
 2020-09-19 03:46:04  5.9   98   751 
 2020-09-19 03:41:00  5.7   98   751 
 2020-09-19 03:35:56  5.8   98   751 
 2020-09-19 03:30:52  5.9   97   751 
 2020-09-19 03:25:48  5.9   98   751 
 2020-09-19 03:20:44  5.8   97   751 
 2020-09-19 03:15:40  5.8   97   751 
 2020-09-19 03:10:35  5.9   97   751 
 2020-09-19 03:05:31  6.0   97   751 
 2020-09-19 03:00:27  6.0   97   751 
 2020-09-19 02:55:23  5.9   98   751 
 2020-09-19 02:50:19  6.0   97   751 
 2020-09-19 02:45:15  6.0   97   751 
 2020-09-19 02:40:11  6.1   98   751 
 2020-09-19 02:35:07  6.1   98   751 
 2020-09-19 02:30:02  6.1   98   751 
 2020-09-19 02:24:58  6.1   98   751 
 2020-09-19 02:19:54  6.1   98   751 
 2020-09-19 02:14:50  6.1   98   751 
 2020-09-19 02:09:46  6.0   99   751 
 2020-09-19 02:04:42  5.8   99   751 
 2020-09-19 01:59:38  5.8   98   751 
 2020-09-19 01:54:34  5.8   97   751 
 2020-09-19 01:49:30  5.8   97   751 
 2020-09-19 01:44:26  5.8   97   751 
 2020-09-19 01:39:22  5.9   97   751 
 2020-09-19 01:34:18  6.0   97   751 
 2020-09-19 01:29:14  6.0   96   751 
 2020-09-19 01:24:10  6.1   96   751 
 2020-09-19 01:19:05  6.2   96   751 
 2020-09-19 01:14:01  6.4   95   751 
 2020-09-19 01:08:57  6.5   95   751 
 2020-09-19 01:03:53  6.4   95   751 
 2020-09-19 00:58:49  6.4   96   751 
 2020-09-19 00:53:45  6.4   96   751 
 2020-09-19 00:48:41  6.4   96   751 
 2020-09-19 00:43:37  6.3   96   751 
 2020-09-19 00:38:33  6.2   96   751 
 2020-09-19 00:33:29  6.3   96   751 
 2020-09-19 00:28:25  6.4   96   751 
 2020-09-19 00:23:21  6.4   96   751 
 2020-09-19 00:18:17  6.5   96   751 
 2020-09-19 00:13:13  6.6   95   751 
 2020-09-19 00:08:09  6.6   96   751 
 2020-09-18 23:58:01  6.6   96   751 
 2020-09-18 23:52:57  6.5   96   751 
 2020-09-18 23:47:53  6.5   97   751 
 2020-09-18 23:42:48  6.4   97   751 
 2020-09-18 23:37:44  6.6   96   751 
 2020-09-18 23:32:40  6.7   95   751 
 2020-09-18 23:27:36  6.8   95   751 
 2020-09-18 23:22:32  6.9   96   751 
 2020-09-18 23:17:28  6.9   95   751 
 2020-09-18 23:12:24  7.1   95   751 
 2020-09-18 23:07:20  7.0   95   751 
 2020-09-18 23:02:16  7.1   95   751 
 2020-09-18 22:57:12  7.1   94   751 
 2020-09-18 22:52:08  7.2   94   750 
 2020-09-18 22:47:04  7.2   95   750 
 2020-09-18 22:36:51  7.4   93   750 
 2020-09-18 22:31:47  7.5   92   751 
 2020-09-18 22:26:43  7.8   92   750 
 2020-09-18 22:21:39  7.8   92   750 
 2020-09-18 22:16:35  8.0   91   750 
 2020-09-18 22:11:31  8.2   90   751 
 2020-09-18 22:06:27  8.2   90   750 
 2020-09-18 22:01:23  8.2   90   750 
 2020-09-18 21:56:18  8.1   91   750 
 2020-09-18 21:51:14  8.0   92   750 
 2020-09-18 21:46:10  7.9   92   750 
 2020-09-18 21:41:06  7.8   93   750 
 2020-09-18 21:36:02  7.8   93   750 
 2020-09-18 21:30:58  7.5   94   750 
 2020-09-18 21:25:51  7.6   94   750 
 2020-09-18 21:20:47  7.6   93   750 
 2020-09-18 21:15:40  7.6   93   750 
 2020-09-18 21:10:36  7.8   91   750 
 2020-09-18 21:05:32  7.9   91   750 
 2020-09-18 21:00:27  8.2   90   750 
 2020-09-18 20:55:23  8.2   91   750 
 2020-09-18 20:50:19  8.1   91   750 
 2020-09-18 20:45:15  8.1   91   750 
 2020-09-18 20:40:11  8.1   91   750 
 2020-09-18 20:35:07  8.0   91   750 
 2020-09-18 20:30:03  8.1   91   750 
 2020-09-18 20:24:59  8.1   91   750 
 2020-09-18 20:19:55  8.2   91   750 
 2020-09-18 20:14:46  8.2   91   750 
 2020-09-18 20:09:42  8.4   90   749 
 2020-09-18 20:04:38  8.6   90   749 
 2020-09-18 19:59:32  8.7   89   749 
 2020-09-18 19:54:28  8.8   90   749 
 2020-09-18 19:49:24  8.8   90   749 
 2020-09-18 19:44:20  8.8   89   749 
 2020-09-18 19:39:16  8.9   89   749 
 2020-09-18 19:34:12  8.9   89   749 
 2020-09-18 19:29:08  9.0   89   749 
 2020-09-18 19:24:04  8.9   88   749 
 2020-09-18 19:19:00  9.1   87   749 
 2020-09-18 19:13:56  9.2   88   749 
 2020-09-18 19:08:52  9.3   88   749 
 2020-09-18 19:03:48  9.4   87   749 
 2020-09-18 18:58:44  9.5   86   749 
 2020-09-18 18:53:39  9.6   86   749 
 2020-09-18 18:48:35  9.6   87   749 
 2020-09-18 18:43:31  9.5   88   749 
 2020-09-18 18:38:27  9.4   87   748 
 2020-09-18 18:33:23  9.5   87   748 
 2020-09-18 18:28:19  9.6   86   748 
 2020-09-18 18:23:15  9.6   85   748 
 2020-09-18 18:18:11  9.8   86   748 
 2020-09-18 18:13:07  9.9   84   748 
 2020-09-18 18:08:03  9.8   79   748 
 2020-09-18 18:02:59  9.7   79   748 
 2020-09-18 17:57:55  10.1   78   748 
 2020-09-18 17:52:51  10.6   72   748 
 2020-09-18 17:47:47  11.0   68   748 
 2020-09-18 17:42:43  11.5   63   748 
 2020-09-18 17:37:39  11.6   63   748 
 2020-09-18 17:32:32  11.6   63   748 
 2020-09-18 17:27:28  11.8   62   748 
 2020-09-18 17:22:24  11.9   64   748 
 2020-09-18 17:17:20  12.1   63   748 
 2020-09-18 17:12:16  11.9   64   748 
 2020-09-18 17:07:12  11.9   65   748 
 2020-09-18 17:02:08  12.3   63   748 
 2020-09-18 16:57:04  12.5   60   747 
 2020-09-18 16:51:59  12.5   64   747 
 2020-09-18 16:46:55  12.6   63   747 
 2020-09-18 16:41:51  12.4   60   747 
 2020-09-18 16:36:47  12.8   55   747 
 2020-09-18 16:31:43  13.0   55   747 
 2020-09-18 16:26:39  12.9   54   747 
 2020-09-18 16:21:35  13.1   55   747 
 2020-09-18 16:16:31  12.9   56   747 
 2020-09-18 16:11:27  13.2   52   747 
 2020-09-18 16:06:23  13.4   52   747 
 2020-09-18 16:01:19  13.6   52   747 
 2020-09-18 15:56:15  13.9   51   747 
 2020-09-18 15:51:11  14.2   50   747 
 2020-09-18 15:46:07  14.3   50   747 
 2020-09-18 15:41:02  14.3   50   747 
 2020-09-18 15:35:58  14.1   51   747 
 2020-09-18 15:30:54  14.1   49   747 
 2020-09-18 15:25:50  14.0   49   746 
 2020-09-18 15:20:46  14.1   49   746 
 2020-09-18 15:15:42  14.4   49   746 
 2020-09-18 15:10:38  14.2   49   746 
 2020-09-18 15:05:34  14.6   49   746 
 2020-09-18 15:00:30  14.1   49   746 
 2020-09-18 14:55:26  13.9   50   746 
 2020-09-18 14:50:21  14.1   53   746 
 2020-09-18 14:45:17  14.2   55   746 
 2020-09-18 14:40:13  14.2   57   746 
 2020-09-18 14:35:09  14.0   61   746 
 2020-09-18 14:30:05  13.0   66   746 
 2020-09-18 14:25:01  12.8   69   746 
 2020-09-18 14:19:57  12.9   71   746 
 2020-09-18 14:14:53  12.9   71   746 
 2020-09-18 14:09:48  12.6   71   746 
 2020-09-18 14:04:44  12.6   70   746 
 2020-09-18 13:59:40  12.9   69   746 
 2020-09-18 13:54:36  12.6   70   746 
 2020-09-18 13:49:32  12.3   73   746 
 2020-09-18 13:44:28  12.4   69   746 
 2020-09-18 13:39:24  13.4   64   746 
 2020-09-18 13:34:20  13.9   60   746 
 2020-09-18 13:29:16  13.9   56   746 
 2020-09-18 13:24:12  14.2   55   746 
 2020-09-18 13:19:07  14.8   57   746 
 2020-09-18 13:14:03  14.4   57   746 
 2020-09-18 13:08:59  14.3   57   746 
 2020-09-18 13:03:55  14.6   58   746 
 2020-09-18 12:58:51  14.4   58   746 
 2020-09-18 12:53:47  14.9   59   746 
 2020-09-18 12:48:43  14.4   60   746 
 2020-09-18 12:43:39  14.6   60   746 
 2020-09-18 12:38:35  14.7   60   746 
 2020-09-18 12:33:31  14.8   61   746 
 2020-09-18 12:28:27  14.7   63   746 
 2020-09-18 12:23:23  14.6   65   746 
 2020-09-18 12:18:19  14.1   68   746 
 2020-09-18 12:13:15  14.2   69   746 
 2020-09-18 12:08:10  13.8   69   746 
 2020-09-18 12:03:06  13.9   70   746 
 2020-09-18 11:58:02  13.8   71   746 
 2020-09-18 11:52:58  13.6   73   746 
 2020-09-18 11:47:54  13.2   74   746 
 2020-09-18 11:42:50  13.1   75   746 
 2020-09-18 11:37:46  13.0   75   746 
 2020-09-18 11:32:42  12.6   77   746 
 2020-09-18 11:27:38  12.4   77   746 
 2020-09-18 11:22:31  12.5   76   746 
 2020-09-18 11:17:26  12.5   76   746 
 2020-09-18 11:12:22  12.4   78   746 
 2020-09-18 11:07:18  11.9   77   746 
 2020-09-18 11:02:14  11.7   78   746 
 2020-09-18 10:57:10  11.6   77   746 
 2020-09-18 10:52:06  11.4   78   746 
 2020-09-18 10:47:02  10.9   80   746 
 2020-09-18 10:41:58  10.4   81   746 
 2020-09-18 10:36:54  10.0   82   746 
 2020-09-18 10:31:50  10.1   81   746 
 2020-09-18 10:26:46  9.9   81   747 
 2020-09-18 10:21:42  9.8   81   747 
 2020-09-18 10:16:37  9.9   80   747 
 2020-09-18 10:11:33  10.2   78   746 
 2020-09-18 10:06:29  10.4   77   746 
 2020-09-18 10:01:25  10.5   78   746 
 2020-09-18 09:56:21  10.8   77   746 
 2020-09-18 09:51:17  10.4   78   746 
 2020-09-18 09:46:13  10.3   79   746 
 2020-09-18 09:41:09  10.0   80   747 
 2020-09-18 09:36:05  10.1   81   746 
 2020-09-18 09:31:01  10.2   79   747 
 2020-09-18 09:25:57  10.4   80   747 
 2020-09-18 09:20:53  10.1   81   746 
 2020-09-18 09:15:49  9.9   81   746 
 2020-09-18 09:10:45  9.9   81   746 
 2020-09-18 09:05:41  9.8   81   747 
 2020-09-18 09:00:37  9.8   82   747 
 2020-09-18 08:55:33  9.6   83   746 
 2020-09-18 08:50:29  9.4   85   746 
 2020-09-18 08:45:24  9.0   85   746 
 2020-09-18 08:40:20  9.1   86   746 
 2020-09-18 08:35:16  8.8   87   746 
 2020-09-18 08:30:12  8.5   88   746 
 2020-09-18 08:25:08  8.3   89   746 
 2020-09-18 08:20:04  8.2   90   746 
 2020-09-18 08:15:00  8.1   90   746 
 2020-09-18 08:09:56  8.0   91   747 
 2020-09-18 08:04:52  7.9   91   747 
 2020-09-18 07:59:48  7.8   92   747 
 2020-09-18 07:54:44  7.6   92   746 
 2020-09-18 07:49:39  7.6   92   746 
 2020-09-18 07:44:35  7.6   92   746 
 2020-09-18 07:39:31  7.5   92   746 
 2020-09-18 07:34:27  7.5   93   746 
 2020-09-18 07:29:23  7.4   93   746 
 2020-09-18 07:24:19  7.4   93   746 
 2020-09-18 07:19:14  7.3   94   746 
 2020-09-18 07:14:10  7.4   93   746 
 2020-09-18 07:09:06  7.4   94   746 
 2020-09-18 07:04:02  7.4   94   746 
 2020-09-18 06:58:58  7.5   94   746 
 2020-09-18 06:53:54  7.5   94   746 
 2020-09-18 06:48:50  7.4   95   746 
 2020-09-18 06:43:45  7.4   95   746 
 2020-09-18 06:38:41  7.4   95   746 
 2020-09-18 06:33:37  7.4   95   746 
 2020-09-18 06:28:33  7.4   95   746 
 2020-09-18 06:23:29  7.4   95   746 
 2020-09-18 06:18:24  7.4   95   746 
 2020-09-18 06:13:20  7.4   95   746 
 2020-09-18 06:08:16  7.5   95   746 
 2020-09-18 06:03:12  7.5   94   746 
 2020-09-18 05:58:08  7.6   95   746 
 2020-09-18 05:53:04  7.7   94   746 
 2020-09-18 05:48:00  7.7   94   746 
 2020-09-18 05:42:55  7.8   94   746 
 2020-09-18 05:37:51  7.8   94   746 
 2020-09-18 05:32:47  7.9   94   746 
 2020-09-18 05:27:43  7.9   94   746 
 2020-09-18 05:22:39  7.9   94   746 
 2020-09-18 05:17:35  8.0   94   746 
 2020-09-18 05:12:31  8.0   94   746 
 2020-09-18 05:07:27  8.1   95   746 
 2020-09-18 05:02:22  8.1   95   746 
 2020-09-18 04:57:18  8.1   95   746 
 2020-09-18 04:52:14  8.2   95   745 
 2020-09-18 04:47:10  8.3   95   745 
 2020-09-18 04:42:06  8.2   96   745 
 2020-09-18 04:37:02  8.3   95   745 
 2020-09-18 04:31:58  8.2   96   745 
 2020-09-18 04:26:54  8.4   95   745 
 2020-09-18 04:21:50  8.4   95   745 
 2020-09-18 04:16:45  8.4   95   745 
 2020-09-18 04:11:41  8.4   95   745 
 2020-09-18 04:06:37  8.5   95   745 
 2020-09-18 04:01:33  8.5   95   745 
 2020-09-18 03:56:29  8.6   95   745 
 2020-09-18 03:51:25  8.6   95   745 
 2020-09-18 03:46:20  8.6   95   745 
 2020-09-18 03:41:16  8.6   95   745 
 2020-09-18 03:36:12  8.6   94   745 
 2020-09-18 03:31:08  8.7   94   745 
 2020-09-18 03:26:02  8.8   95   745 
 2020-09-18 03:20:58  8.7   95   745 
 2020-09-18 03:15:54  8.6   96   745 
 2020-09-18 03:10:49  8.7   96   745 
 2020-09-18 03:05:45  8.7   95   745 
 2020-09-18 03:00:41  8.7   96   745 
 2020-09-18 02:55:37  8.7   96   745 
 2020-09-18 02:50:33  8.8   96   745 
 2020-09-18 02:45:29  8.8   95   745 
 2020-09-18 02:40:25  8.8   95   745 
 2020-09-18 02:35:21  8.8   95   745 
 2020-09-18 02:30:16  9.0   94   745 
 2020-09-18 02:25:12  9.1   94   745 
 2020-09-18 02:20:08  9.2   94   745 
 2020-09-18 02:15:04  9.2   94   745 
 2020-09-18 02:10:00  9.3   93   745 
 2020-09-18 02:04:56  9.3   93   745 
 2020-09-18 01:59:52  9.4   93   745 
 2020-09-18 01:54:48  9.5   92   745 
 2020-09-18 01:49:44  9.5   91   745 
 2020-09-18 01:44:40  9.6   91   745 
 2020-09-18 01:39:36  9.6   92   745 
 2020-09-18 01:34:32  9.7   92   745 
 2020-09-18 01:29:28  9.7   91   745 
 2020-09-18 01:24:24  9.7   92   745 
 2020-09-18 01:19:19  9.7   92   745 
 2020-09-18 01:14:15  9.8   92   744 
 2020-09-18 01:09:11  10.0   92   745 
 2020-09-18 01:04:07  10.0   91   745 
 2020-09-18 00:59:03  10.0   92   745 
 2020-09-18 00:53:59  10.1   91   745 
 2020-09-18 00:48:55  9.9   91   744 
 2020-09-18 00:43:51  10.0   91   745 
 2020-09-18 00:38:47  10.1   89   744 
 2020-09-18 00:33:43  10.1   89   744 
 2020-09-18 00:28:39  10.1   89   744 
 2020-09-18 00:23:35  10.1   89   744 
 2020-09-18 00:18:31  10.0   89   744 
 2020-09-18 00:13:27  9.9   88   745 
 2020-09-18 00:08:23  9.9   88   744 
 2020-09-18 00:03:19  10.1   88   744 
 2020-09-17 23:58:15  10.1   87   745 
 2020-09-17 23:53:10  10.2   88   745 
 2020-09-17 23:48:06  10.4   87   745 
 2020-09-17 23:43:02  10.6   87   744 
 2020-09-17 23:37:58  11.2   84   744 
 2020-09-17 23:32:54  12.4   78   744 
 2020-09-17 23:27:50  13.8   74   744 
 2020-09-17 23:22:46  13.7   74   743 
 2020-09-17 23:17:42  13.7   73   743 
 2020-09-17 23:12:38  13.8   73   743 
 2020-09-17 23:07:31  13.9   72   743 
 2020-09-17 23:02:25  14.1   70   743 
 2020-09-17 22:57:21  14.4   69   743 
 2020-09-17 22:52:17  14.8   64   743 
 2020-09-17 22:47:13  14.9   62   743 
 2020-09-17 22:42:09  15.1   61   743 
 2020-09-17 22:37:04  15.0   61   743 
 2020-09-17 22:32:00  14.9   63   743 
 2020-09-17 22:26:56  14.9   62   743 
 2020-09-17 22:21:52  14.8   63   743 
 2020-09-17 22:16:48  14.7   64   743 
 2020-09-17 22:11:44  14.6   64   743 
 2020-09-17 22:06:40  14.6   66   742 
 2020-09-17 22:01:35  14.5   66   742 
 2020-09-17 21:56:31  14.5   66   742 
 2020-09-17 21:51:27  14.4   67   742 
 2020-09-17 21:46:23  14.4   67   742 
 2020-09-17 21:41:19  14.2   67   742 
 2020-09-17 21:36:15  14.1   68   742 
 2020-09-17 21:31:11  14.1   67   743 
 2020-09-17 21:26:07  14.1   68   743 
 2020-09-17 21:21:03  14.1   68   743 
 2020-09-17 21:15:59  14.1   67   743 
 2020-09-17 21:10:55  14.1   67   743 
 2020-09-17 21:05:50  14.1   68   743 
 2020-09-17 21:00:46  14.2   68   743 
 2020-09-17 20:55:42  14.2   67   743 
 2020-09-17 20:50:38  14.2   66   743 
 2020-09-17 20:45:34  14.2   67   743 
 2020-09-17 20:40:30  14.2   66   743 
 2020-09-17 20:35:26  14.1   66   743 
 2020-09-17 20:30:22  14.2   67   743 
 2020-09-17 20:25:18  14.2   66   743 
 2020-09-17 20:20:14  14.2   66   743 
 2020-09-17 20:15:10  14.2   66   743 
 2020-09-17 20:10:06  14.4   66   743 
 2020-09-17 20:05:01  14.6   65   743 
 2020-09-17 19:59:57  14.8   64   743 
 2020-09-17 19:54:53  14.8   64   743 
 2020-09-17 19:49:49  14.8   63   743 
 2020-09-17 19:44:45  14.9   63   744 
 2020-09-17 19:39:41  14.9   64   744 
 2020-09-17 19:34:37  15.0   64   744 
 2020-09-17 19:29:33  15.0   64   744 
 2020-09-17 19:24:29  14.9   64   744 
 2020-09-17 19:19:25  15.2   63   744 
 2020-09-17 19:14:21  15.1   62   744 
 2020-09-17 19:09:17  15.1   63   744 
 2020-09-17 19:04:12  15.1   62   744 
 2020-09-17 18:59:08  15.4   61   744 
 2020-09-17 18:54:04  15.5   59   744 
 2020-09-17 18:49:00  15.4   61   744 
 2020-09-17 18:43:56  15.7   60   744 
 2020-09-17 18:38:52  15.8   58   744 
 2020-09-17 18:33:48  16.1   59   744 
 2020-09-17 18:28:44  16.2   56   745 
 2020-09-17 18:23:40  16.6   54   745 
 2020-09-17 18:18:36  18.1   53   745 
 2020-09-17 18:13:32  18.2   48   745 
 2020-09-17 18:08:28  18.2   48   745 
 2020-09-17 18:03:23  18.4   48   745 
 2020-09-17 17:58:19  18.4   48   745 
 2020-09-17 17:53:15  18.2   48   745 
 2020-09-17 17:48:11  18.4   48   745 
 2020-09-17 17:43:07  18.3   48   745 
 2020-09-17 17:38:03  18.2   47   745 
 2020-09-17 17:32:59  18.2   47   745 
 2020-09-17 17:27:55  18.3   45   745 
 2020-09-17 17:22:51  18.7   42   745 
 2020-09-17 17:17:47  19.1   40   745 
 2020-09-17 17:12:43  19.1   39   745 
 2020-09-17 17:07:38  19.2   40   745 
 2020-09-17 17:02:34  19.2   40   745 
 2020-09-17 16:57:30  19.1   39   745 
 2020-09-17 16:52:26  19.1   42   745 
 2020-09-17 16:47:22  18.9   42   745 
 2020-09-17 16:42:18  18.8   42   745 
 2020-09-17 16:37:14  18.5   43   745 
 2020-09-17 16:32:10  18.5   43   745 
 2020-09-17 16:27:06  18.6   42   745 
 2020-09-17 16:22:02  18.6   42   746 
 2020-09-17 16:16:58  18.6   41   746 
 2020-09-17 16:11:54  18.6   41   746 
 2020-09-17 16:06:50  18.6   40   746 
 2020-09-17 16:01:46  18.7   39   746 
 2020-09-17 15:56:42  18.7   40   746 
 2020-09-17 15:51:38  18.9   39   746 
 2020-09-17 15:46:33  18.8   37   746 
 2020-09-17 15:41:29  19.1   37   746 
 2020-09-17 15:36:25  19.3   37   746 
 2020-09-17 15:31:21  19.1   37   746 
 2020-09-17 15:26:17  19.1   36   746 
 2020-09-17 15:21:13  18.9   37   746 
 2020-09-17 15:16:09  18.9   38   746 
 2020-09-17 15:11:05  18.9   38   746 
 2020-09-17 15:06:01  18.9   38   746 
 2020-09-17 15:00:57  19.1   40   746 
 2020-09-17 14:55:53  18.9   40   746 
 2020-09-17 14:50:49  18.7   39   746 
 2020-09-17 14:45:45  18.8   39   746 
 2020-09-17 14:40:41  18.9   40   746 
 2020-09-17 14:35:36  18.9   40   746 
 2020-09-17 14:30:32  18.6   39   746 
 2020-09-17 14:25:28  18.6   40   746 
 2020-09-17 14:20:24  18.7   40   746 
 2020-09-17 14:15:20  18.6   42   746 
 2020-09-17 14:10:16  18.7   40   746 
 2020-09-17 14:05:12  19.1   39   746 
 2020-09-17 14:00:08  19.1   41   746 
 2020-09-17 13:55:04  18.6   41   746 
 2020-09-17 13:50:00  18.3   41   746 
 2020-09-17 13:44:56  18.5   41   746 
 2020-09-17 13:39:52  18.8   40   746 
 2020-09-17 13:34:48  18.5   43   746 
 2020-09-17 13:29:44  18.1   46   746 
 2020-09-17 13:24:40  18.2   47   746 
 2020-09-17 13:19:36  18.1   48   746 
 2020-09-17 13:14:32  18.0   49   746 
 2020-09-17 13:09:27  18.1   48   746 
 2020-09-17 13:04:23  18.1   49   746 
 2020-09-17 12:59:19  18.1   50   746 
 2020-09-17 12:54:15  17.9   52   746 
 2020-09-17 12:49:11  18.1   50   746 
 2020-09-17 12:44:07  17.9   50   746 
 2020-09-17 12:39:03  17.7   53   746 
 2020-09-17 12:33:59  17.5   52   746 
 2020-09-17 12:28:55  17.6   51   746 
 2020-09-17 12:23:51  17.5   52   746 
 2020-09-17 12:18:47  17.4   53   746 
 2020-09-17 12:13:43  17.3   56   746 
 2020-09-17 12:08:39  17.2   57   746 
 2020-09-17 12:03:34  16.9   58   746 
 2020-09-17 11:58:30  16.6   58   746 
 2020-09-17 11:53:26  16.8   59   746 
 2020-09-17 11:48:22  16.7   61   746 
 2020-09-17 11:43:18  16.4   64   746 
 2020-09-17 11:38:14  16.3   64   746 
 2020-09-17 11:33:10  16.0   65   746 
 2020-09-17 11:28:06  16.0   67   746 
 2020-09-17 11:23:02  15.9   69   746 
 2020-09-17 11:17:58  15.8   70   746 
 2020-09-17 11:12:54  15.4   72   746 
 2020-09-17 11:07:50  15.4   72   746 
 2020-09-17 11:02:46  15.1   76   746 
 2020-09-17 10:57:42  14.8   77   746 
 2020-09-17 10:52:38  14.7   78   746 
 2020-09-17 10:47:33  14.4   79   746 
 2020-09-17 10:42:29  14.3   80   746 
 2020-09-17 10:37:25  14.2   81   746 
 2020-09-17 10:32:21  14.2   81   746 
 2020-09-17 10:27:17  14.4   81   746 
 2020-09-17 10:22:13  14.1   83   746 
 2020-09-17 10:17:09  13.9   85   746 
 2020-09-17 10:12:05  13.5   87   746 
 2020-09-17 10:07:01  13.1   88   746 
 2020-09-17 10:01:57  12.8   88   746 
 2020-09-17 09:56:53  12.5   90   746 
 2020-09-17 09:51:49  12.6   89   746 
 2020-09-17 09:46:45  12.6   89   746 
 2020-09-17 09:36:37  12.1   92   746 
 2020-09-17 09:31:33  11.9   93   746 
 2020-09-17 09:26:28  11.6   94   746 
 2020-09-17 09:21:24  11.4   95   746 
 2020-09-17 09:11:16  10.9   96   746 
 2020-09-17 09:06:12  10.9   96   746 
 2020-09-17 09:01:08  10.9   96   746 
 2020-09-17 08:56:04  10.8   96   746 
 2020-09-17 08:51:00  10.8   95   746 
 2020-09-17 08:45:56  11.0   94   746 
 2020-09-17 08:40:52  10.9   93   746 
 2020-09-17 08:35:48  10.8   94   746 
 2020-09-17 08:30:44  10.6   94   746 
 2020-09-17 08:25:40  10.4   94   746 
 2020-09-17 08:20:36  10.4   95   746 
 2020-09-17 08:15:32  10.3   95   746 
 2020-09-17 08:10:27  10.2   95   746 
 2020-09-17 08:05:23  10.1   96   746 
 2020-09-17 08:00:19  9.9   96   746 
 2020-09-17 07:55:15  9.8   96   746 
 2020-09-17 07:50:11  9.7   97   746 
 2020-09-17 07:45:07  9.5   97   746 
 2020-09-17 07:40:03  9.6   97   746 
 2020-09-17 07:34:59  9.4   97   746 
 2020-09-17 07:29:55  9.4   97   746 
 2020-09-17 07:24:50  9.4   96   746 
 2020-09-17 07:19:46  9.4   97   746 
 2020-09-17 07:14:42  9.5   97   746 
 2020-09-17 07:09:38  9.4   97   746 
 2020-09-17 07:04:34  9.3   96   746 
 2020-09-17 06:59:30  9.3   96   746 
 2020-09-17 06:54:26  9.2   96   746 
 2020-09-17 06:49:21  9.2   96   746 
 2020-09-17 06:44:17  9.2   96   746 
 2020-09-17 06:39:13  9.1   96   746 
 2020-09-17 06:34:09  9.0   96   746 
 2020-09-17 06:29:05  9.1   95   745 
 2020-09-17 06:24:01  9.1   95   745 
 2020-09-17 06:18:57  9.1   94   745 
 2020-09-17 06:13:52  9.1   95   745 
 2020-09-17 06:08:48  9.0   95   746 
 2020-09-17 06:03:44  9.1   95   745 
 2020-09-17 05:58:40  9.1   94   745 
 2020-09-17 05:53:36  9.1   94   745 
 2020-09-17 05:48:32  9.1   94   745 
 2020-09-17 05:43:28  9.2   93   745 
 2020-09-17 05:38:24  9.4   93   745 
 2020-09-17 05:33:19  9.6   94   745 
 2020-09-17 05:28:15  9.5   94   745 
 2020-09-17 05:23:11  9.5   95   745 
 2020-09-17 05:18:07  9.6   94   745 
 2020-09-17 05:13:03  9.5   95   745 
 2020-09-17 05:07:59  9.6   95   745 
 2020-09-17 05:02:55  9.5   95   745 
 2020-09-17 04:57:51  9.4   95   745 
 2020-09-17 04:52:46  9.4   95   745 
 2020-09-17 04:47:41  9.4   96   745 
 2020-09-17 04:42:37  9.4   95   745 
 2020-09-17 04:37:33  9.2   95   745 
 2020-09-17 04:32:29  9.3   95   745 
 2020-09-17 04:27:25  9.2   95   745 
 2020-09-17 04:22:21  9.1   95   746 
 2020-09-17 04:17:16  9.1   95   746 
 2020-09-17 04:12:12  9.1   96   746 
 2020-09-17 04:07:08  8.9   96   746 
 2020-09-17 04:02:04  8.9   96   746 
 2020-09-17 03:57:00  8.8   95   746 
 2020-09-17 03:51:56  8.8   96   746 
 2020-09-17 03:46:52  8.7   95   746 
 2020-09-17 03:41:48  8.6   95   746 
 2020-09-17 03:36:44  8.6   94   746 
 2020-09-17 03:31:40  8.6   94   746 
 2020-09-17 03:26:36  8.8   94   746 
 2020-09-17 03:21:31  8.8   94   746 
 2020-09-17 03:16:27  8.7   93   746 
 2020-09-17 03:11:23  8.7   93   745 
 2020-09-17 03:06:19  8.8   93   746 
 2020-09-17 03:01:15  8.9   93   746 
 2020-09-17 02:56:11  9.0   93   746 
 2020-09-17 02:51:07  9.1   93   746 
 2020-09-17 02:46:03  9.2   92   746 
 2020-09-17 02:40:59  9.1   92   746 
 2020-09-17 02:35:54  9.1   91   746 
 2020-09-17 02:30:50  9.2   91   746 
 2020-09-17 02:25:46  9.1   91   746 
 2020-09-17 02:20:42  9.2   91   746 
 2020-09-17 02:15:38  9.2   91   746 
 2020-09-17 02:10:34  9.4   90   746 
 2020-09-17 02:05:30  9.5   89   746 
 2020-09-17 02:00:26  9.5   89   746 
 2020-09-17 01:55:22  9.6   89   746 
 2020-09-17 01:50:17  9.6   88   745 
 2020-09-17 01:45:13  9.8   88   745 
 2020-09-17 01:40:09  9.8   88   746 
 2020-09-17 01:35:05  9.9   87   746 
 2020-09-17 01:30:01  9.9   87   746 
 2020-09-17 01:24:57  10.1   87   746 
 2020-09-17 01:19:53  10.1   86   746 
 2020-09-17 01:14:49  10.2   86   745 
 2020-09-17 01:09:45  10.2   85   745 
 2020-09-17 01:04:41  10.4   85   745 
 2020-09-17 00:59:37  10.4   86   746 
 2020-09-17 00:54:33  10.5   84   746 
 2020-09-17 00:49:29  10.6   84   746 
 2020-09-17 00:44:25  10.6   84   746 
 2020-09-17 00:39:21  10.6   84   746 
 2020-09-17 00:34:17  10.7   83   746 
 2020-09-17 00:29:13  10.8   84   746 
 2020-09-17 00:24:09  10.8   84   746 
 2020-09-17 00:19:04  10.6   84   746 
 2020-09-17 00:14:00  10.6   84   746 
 2020-09-17 00:08:56  10.5   84   746 
 2020-09-17 00:03:52  10.5   84   746 
 2020-09-16 23:58:48  10.6   83   746 
 2020-09-16 23:53:44  10.6   83   746 
 2020-09-16 23:48:40  10.8   83   746 
 2020-09-16 23:43:36  10.8   83   746 
 2020-09-16 23:38:32  10.9   83   746 
 2020-09-16 23:33:28  10.9   82   746 
 2020-09-16 23:28:23  11.0   83   746 
 2020-09-16 23:23:19  11.1   83   746 
 2020-09-16 23:18:12  11.1   83   746 
 2020-09-16 23:13:08  11.2   83   746 
 2020-09-16 23:08:04  11.2   83   746 
 2020-09-16 23:03:00  11.2   83   746 
 2020-09-16 22:57:56  11.3   83   746 
 2020-09-16 22:52:52  11.4   83   746 
 2020-09-16 22:47:48  11.4   84   746 
 2020-09-16 22:42:42  11.4   84   746 
 2020-09-16 22:37:38  11.2   85   746 
 2020-09-16 22:32:34  11.2   86   746 
 2020-09-16 22:27:30  11.3   86   746 
 2020-09-16 22:22:25  11.4   86   746 
 2020-09-16 22:17:20  11.5   85   746 
 2020-09-16 22:12:16  11.6   85   746 
 2020-09-16 22:07:12  11.6   86   746 
 2020-09-16 22:02:08  11.6   86   746 
 2020-09-16 21:57:04  11.7   86   745 
 2020-09-16 21:52:00  11.7   86   745 
 2020-09-16 21:46:56  11.8   85   745 
 2020-09-16 21:41:52  11.8   86   745 
 2020-09-16 21:36:47  11.9   85   745 
 2020-09-16 21:31:43  11.9   85   745 
 2020-09-16 21:26:39  12.2   82   745 
 2020-09-16 21:21:35  12.2   83   745 
 2020-09-16 21:16:31  12.4   83   745 
 2020-09-16 21:11:26  12.6   81   745 
 2020-09-16 21:06:22  12.9   79   745 
 2020-09-16 21:01:18  12.9   79   745 
 2020-09-16 20:56:13  13.1   78   745 
 2020-09-16 20:51:08  13.3   77   745 
 2020-09-16 20:46:04  13.4   77   745 
 2020-09-16 20:40:58  13.6   76   745 
 2020-09-16 20:35:54  13.9   75   745 
 2020-09-16 20:30:50  13.9   75   745 
 2020-09-16 20:25:43  13.9   74   745 
 2020-09-16 20:20:38  14.1   73   745 
 2020-09-16 20:15:34  14.2   72   745 
 2020-09-16 20:10:30  14.2   71   745 
 2020-09-16 20:05:26  14.2   71   745 
 2020-09-16 20:00:22  14.3   71   745 
 2020-09-16 19:55:18  14.5   71   745 
 2020-09-16 19:50:14  14.6   70   745 
 2020-09-16 19:45:10  14.8   69   745 
 2020-09-16 19:40:06  15.0   67   745 
 2020-09-16 19:35:02  15.2   66   745 
 2020-09-16 19:29:58  15.3   68   745 
 2020-09-16 19:24:54  15.4   65   745 
 2020-09-16 19:19:50  15.5   64   745 
 2020-09-16 19:14:46  15.9   63   745 
 2020-09-16 19:09:42  15.9   62   745 
 2020-09-16 19:04:38  15.9   62   745 
 2020-09-16 18:59:34  15.9   66   745 
 2020-09-16 18:54:29  15.9   66   745 
 2020-09-16 18:49:25  15.9   66   745 
 2020-09-16 18:44:21  16.0   66   745 
 2020-09-16 18:39:17  16.1   65   745 
 2020-09-16 18:34:13  16.1   64   745 
 2020-09-16 18:29:09  16.2   64   745 
 2020-09-16 18:24:05  16.4   64   745 
 2020-09-16 18:19:01  16.5   63   745 
 2020-09-16 18:13:57  16.6   63   745 
 2020-09-16 18:08:53  16.6   63   745 
 2020-09-16 18:03:49  16.6   62   745 
 2020-09-16 17:58:44  16.6   62   745 
 2020-09-16 17:53:40  16.5   62   745 
 2020-09-16 17:48:36  16.4   62   745 
 2020-09-16 17:43:31  16.4   62   745 
 2020-09-16 17:38:27  16.3   62   745 
 2020-09-16 17:33:23  16.4   62   745 
 2020-09-16 17:28:19  16.6   62   745 
 2020-09-16 17:23:15  16.7   62   745 
 2020-09-16 17:18:11  16.8   61   745 
 2020-09-16 17:13:07  17.1   60   745 
 2020-09-16 17:08:02  17.4   58   745 
 2020-09-16 17:02:58  17.5   55   745 
 2020-09-16 16:57:54  17.8   54   745 
 2020-09-16 16:52:50  17.6   54   745 
 2020-09-16 16:47:46  17.4   55   745 
 2020-09-16 16:42:42  17.4   55   744 
 2020-09-16 16:37:38  17.6   54   744 
 2020-09-16 16:32:34  17.7   56   744 
 2020-09-16 16:27:30  17.4   58   744 
 2020-09-16 16:22:26  17.6   58   744 
 2020-09-16 16:17:22  17.6   60   744 
 2020-09-16 16:12:18  17.3   59   744 
 2020-09-16 16:07:14  17.4   58   744 
 2020-09-16 16:02:09  17.4   58   744 
 2020-09-16 15:57:06  17.4   58   744 
 2020-09-16 15:52:01  17.4   58   744 
 2020-09-16 15:46:57  17.4   59   744 
 2020-09-16 15:41:53  17.2   59   744 
 2020-09-16 15:36:49  17.2   58   744 
 2020-09-16 15:31:45  17.4   57   744 
 2020-09-16 15:26:41  17.4   57   744 
 2020-09-16 15:21:37  17.6   58   744 
 2020-09-16 15:16:33  17.6   57   744 
 2020-09-16 15:11:29  17.6   58   744 
 2020-09-16 15:06:25  17.8   58   744 
 2020-09-16 15:01:21  17.5   58   744 
 2020-09-16 14:56:17  17.2   58   744 
 2020-09-16 14:51:13  17.1   59   744 
 2020-09-16 14:46:09  17.1   57   744 
 2020-09-16 14:41:05  17.3   55   744 
 2020-09-16 14:36:01  17.7   54   744 
 2020-09-16 14:30:57  17.5   55   744 
 2020-09-16 14:25:53  17.4   55   744 
 2020-09-16 14:20:49  17.2   56   744 
 2020-09-16 14:15:44  16.8   57   744 
 2020-09-16 14:10:40  16.4   58   744 
 2020-09-16 14:05:36  16.5   58   744 
 2020-09-16 14:00:32  16.6   58   744 
 2020-09-16 13:55:28  16.8   57   744 
 2020-09-16 13:50:24  16.8   57   744 
 2020-09-16 13:45:20  16.6   57   744 
 2020-09-16 13:40:16  16.7   57   744 
 2020-09-16 13:35:12  16.8   56   744 
 2020-09-16 13:30:08  16.6   56   744 
 2020-09-16 13:25:04  16.3   58   744 
 2020-09-16 13:20:00  16.1   57   744 
 2020-09-16 13:14:56  16.0   58   744 
 2020-09-16 13:09:52  15.9   58   744 
 2020-09-16 13:04:48  15.7   59   744 
 2020-09-16 12:59:44  15.5   60   744 
 2020-09-16 12:54:40  15.3   60   744 
 2020-09-16 12:49:36  15.4   61   744 
 2020-09-16 12:44:31  15.2   63   744 
 2020-09-16 12:39:27  15.0   61   744 
 2020-09-16 12:34:23  15.0   61   744 
 2020-09-16 12:29:19  14.7   62   744 
 2020-09-16 12:24:15  14.4   64   744 
 2020-09-16 12:19:11  14.4   65   744 
 2020-09-16 12:14:07  14.2   64   745 
 2020-09-16 12:09:03  14.1   64   745 
 2020-09-16 12:03:59  13.9   66   745 
 2020-09-16 11:58:55  13.7   65   745 
 2020-09-16 11:53:51  13.6   66   745 
 2020-09-16 11:48:47  13.6   65   745 
 2020-09-16 11:43:43  13.6   65   745 
 2020-09-16 11:38:38  13.5   65   745 
 2020-09-16 11:33:34  13.2   65   745 
 2020-09-16 11:28:30  13.2   66   745 
 2020-09-16 11:23:26  13.2   66   745 
 2020-09-16 11:18:22  13.0   66   745 
 2020-09-16 11:13:18  12.7   67   745 
 2020-09-16 11:08:14  12.7   69   745 
 2020-09-16 11:03:10  12.5   69   745 
 2020-09-16 10:58:06  12.2   70   745 
 2020-09-16 10:53:02  11.9   70   745 
 2020-09-16 10:47:58  11.8   70   745 
 2020-09-16 10:42:54  11.8   71   745 
 2020-09-16 10:37:50  11.6   73   745 
 2020-09-16 10:32:46  11.4   72   745 
 2020-09-16 10:27:42  11.2   73   745 
 2020-09-16 10:22:37  10.9   74   745 
 2020-09-16 10:17:33  10.4   75   745 
 2020-09-16 10:12:29  10.5   75   746 
 2020-09-16 10:07:25  10.4   75   746 
 2020-09-16 10:02:21  10.2   76   746 
 2020-09-16 09:57:17  10.2   77   746 
 2020-09-16 09:52:13  10.0   78   746 
 2020-09-16 09:47:09  10.1   77   746 
 2020-09-16 09:42:05  9.9   77   746 
 2020-09-16 09:37:01  9.8   79   746 
 2020-09-16 09:31:57  9.6   79   746 
 2020-09-16 09:26:53  9.3   79   746 
 2020-09-16 09:21:49  9.1   80   746 
 2020-09-16 09:16:45  8.7   82   746 
 2020-09-16 09:11:41  8.1   84   746 
 2020-09-16 09:06:36  8.0   84   746 
 2020-09-16 09:01:32  7.9   85   746 
 2020-09-16 08:56:28  7.6   85   746 
 2020-09-16 08:51:24  7.4   87   746 
 2020-09-16 08:46:20  7.0   87   746 
 2020-09-16 08:41:16  6.8   88   746 
 2020-09-16 08:36:12  6.6   88   746 
 2020-09-16 08:31:08  6.4   88   746 
 2020-09-16 08:26:04  6.2   88   746 
 2020-09-16 08:21:00  6.1   88   746 
 2020-09-16 08:15:56  5.9   90   746 
 2020-09-16 08:10:52  5.8   89   746 
 2020-09-16 08:05:47  5.7   90   746 
 2020-09-16 08:00:43  5.6   91   746 
 2020-09-16 07:55:39  5.4   91   746 
 2020-09-16 07:50:35  5.2   91   746 
 2020-09-16 07:45:31  5.2   92   746 
 2020-09-16 07:40:27  5.1   92   746 
 2020-09-16 07:35:23  5.1   92   746 
 2020-09-16 07:30:19  5.0   92   746 
 2020-09-16 07:25:14  4.9   92   746 
 2020-09-16 07:20:10  4.9   92   746 
 2020-09-16 07:15:06  4.8   93   746 
 2020-09-16 07:10:02  4.8   92   746 
 2020-09-16 07:04:58  4.8   92   746 
 2020-09-16 06:59:54  4.8   92   746 
 2020-09-16 06:54:50  4.7   92   746 
 2020-09-16 06:49:45  4.8   92   746 
 2020-09-16 06:44:41  4.6   91   746 
 2020-09-16 06:39:37  4.6   91   746 
 2020-09-16 06:34:33  4.9   92   746 
 2020-09-16 06:29:29  4.9   91   746 
 2020-09-16 06:24:25  4.9   92   746 
 2020-09-16 06:19:21  4.9   92   747 
 2020-09-16 06:14:16  5.0   92   747 
 2020-09-16 06:09:12  5.1   92   747 
 2020-09-16 06:04:08  5.1   92   747 
 2020-09-16 05:59:04  5.1   92   747 
 2020-09-16 05:53:58  5.1   92   747 
 2020-09-16 05:48:54  5.1   92   747 
 2020-09-16 05:43:50  5.1   92   747 
 2020-09-16 05:38:46  5.1   92   747 
 2020-09-16 05:33:41  5.1   92   747 
 2020-09-16 05:28:37  5.3   91   747 
 2020-09-16 05:23:32  5.4   90   747 
 2020-09-16 05:18:28  5.6   91   747 
 2020-09-16 05:13:24  5.6   91   747 
 2020-09-16 05:08:20  5.6   90   747 
 2020-09-16 05:03:16  5.7   90   747 
 2020-09-16 04:58:12  5.8   91   747 
 2020-09-16 04:53:07  5.9   91   747 
 2020-09-16 04:48:03  5.8   90   747 
 2020-09-16 04:42:59  5.9   91   747 
 2020-09-16 04:37:55  5.9   91   747 
 2020-09-16 04:32:51  6.1   90   747 
 2020-09-16 04:27:47  6.0   90   747 
 2020-09-16 04:22:43  6.1   89   747 
 2020-09-16 04:17:38  6.1   89   747 
 2020-09-16 04:12:34  6.2   90   747 
 2020-09-16 04:07:30  6.2   89   747 
 2020-09-16 04:02:26  6.3   89   747 
 2020-09-16 03:57:22  6.4   89   747 
 2020-09-16 03:52:18  6.4   89   747 
 2020-09-16 03:47:14  6.6   88   747 
 2020-09-16 03:42:10  6.8   88   747 
 2020-09-16 03:37:06  6.9   88   747 
 2020-09-16 03:32:01  6.9   88   747 
 2020-09-16 03:26:57  7.1   88   747 
 2020-09-16 03:21:53  7.1   87   747 
 2020-09-16 03:16:49  7.3   86   748 
 2020-09-16 03:11:45  7.4   86   747 
 2020-09-16 03:06:41  7.5   86   748 
 2020-09-16 03:01:37  7.6   86   748 
 2020-09-16 02:56:33  7.6   86   748 
 2020-09-16 02:51:29  7.8   86   748 
 2020-09-16 02:46:25  7.8   85   748 
 2020-09-16 02:41:20  7.8   85   748 
 2020-09-16 02:36:16  7.8   85   748 
 2020-09-16 02:31:12  7.8   85   748 
 2020-09-16 02:26:08  7.7   85   748 
 2020-09-16 02:21:04  7.6   85   748 
 2020-09-16 02:16:00  7.6   84   748 
 2020-09-16 02:10:56  7.7   84   748 
 2020-09-16 02:05:51  7.9   84   748 
 2020-09-16 02:00:47  7.9   83   748 
 2020-09-16 01:55:43  8.1   83   748 
 2020-09-16 01:50:39  8.1   82   748 
 2020-09-16 01:45:35  8.1   81   748 
 2020-09-16 01:40:31  8.1   82   748 
 2020-09-16 01:35:27  8.0   82   748 
 2020-09-16 01:30:22  8.0   82   748 
 2020-09-16 01:25:18  8.1   81   748 
 2020-09-16 01:20:14  8.1   82   748 
 2020-09-16 01:15:10  8.1   82   749 
 2020-09-16 01:10:06  8.1   82   749 
 2020-09-16 01:05:02  8.0   82   749 
 2020-09-16 00:59:58  8.1   82   749 
 2020-09-16 00:54:53  8.2   82   749 
 2020-09-16 00:49:49  8.2   82   749 
 2020-09-16 00:44:45  8.4   81   749 
 2020-09-16 00:39:41  8.3   81   749 
 2020-09-16 00:34:37  8.5   81   749 
 2020-09-16 00:29:33  8.6   81   749 
 2020-09-16 00:24:29  8.7   80   749 
 2020-09-16 00:19:25  8.8   81   749 
 2020-09-16 00:14:20  8.8   80   749 
 2020-09-16 00:09:16  8.9   79   749 
 2020-09-16 00:04:12  8.9   79   749 
 2020-09-15 23:59:08  9.0   80   749 
 2020-09-15 23:54:04  9.0   80   749 
 2020-09-15 23:49:00  9.1   79   749 
 2020-09-15 23:43:56  9.2   80   749 
 2020-09-15 23:38:52  9.2   79   749 
 2020-09-15 23:33:47  9.2   80   749 
 2020-09-15 23:28:43  9.2   81   749 
 2020-09-15 23:23:39  9.2   81   749 
 2020-09-15 23:18:35  9.4   80   749 
 2020-09-15 23:13:31  9.4   79   749 
 2020-09-15 23:08:27  9.4   79   750 
 2020-09-15 23:03:23  9.2   80   750 
 2020-09-15 22:58:19  9.4   79   750 
 2020-09-15 22:53:15  9.2   79   750 
 2020-09-15 22:48:11  9.4   79   750 
 2020-09-15 22:43:07  9.3   79   750 
 2020-09-15 22:38:03  9.4   79   750 
 2020-09-15 22:32:59  9.4   78   750 
 2020-09-15 22:27:55  9.4   78   750 
 2020-09-15 22:22:51  9.4   77   750 
 2020-09-15 22:17:46  9.6   77   750 
 2020-09-15 22:12:42  9.7   76   750 
 2020-09-15 22:07:38  9.7   75   750 
 2020-09-15 22:02:34  9.8   75   750 
 2020-09-15 21:57:30  9.9   74   750 
 2020-09-15 21:52:26  10.1   74   750 
 2020-09-15 21:47:22  10.2   73   750 
 2020-09-15 21:42:18  10.5   72   750 
 2020-09-15 21:37:14  10.6   72   750 
 2020-09-15 21:32:10  10.8   69   750 
 2020-09-15 21:27:06  11.0   70   750 
 2020-09-15 21:22:02  11.1   68   750 
 2020-09-15 21:11:49  11.1   68   750 
 2020-09-15 21:06:44  11.5   67   750 
 2020-09-15 21:01:40  11.6   65   750 
 2020-09-15 20:56:36  11.8   64   750 
 2020-09-15 20:51:31  11.9   63   750 
 2020-09-15 20:46:27  12.0   63   750 
 2020-09-15 20:41:23  12.1   61   750 
 2020-09-15 20:36:19  12.1   62   750 
 2020-09-15 20:31:15  12.3   61   750 
 2020-09-15 20:26:11  12.5   60   750 
 2020-09-15 20:21:07  12.7   59   750 
 2020-09-15 20:16:02  12.8   57   750 
 2020-09-15 20:10:58  12.9   57   750 
 2020-09-15 20:05:54  13.2   57   750 
 2020-09-15 20:00:50  13.4   56   750 
 2020-09-15 19:55:46  13.8   54   750 
 2020-09-15 19:50:42  14.0   53   750 
 2020-09-15 19:45:38  14.1   51   750 
 2020-09-15 19:40:34  14.0   53   750 
 2020-09-15 19:35:30  14.2   53   750 
 2020-09-15 19:30:26  14.2   52   750 
 2020-09-15 19:25:22  14.6   52   750 
 2020-09-15 19:20:18  14.8   50   750 
 2020-09-15 19:10:10  15.3   47   750 
 2020-09-15 19:05:06  15.6   46   750 
 2020-09-15 19:00:02  15.8   45   750 
 2020-09-15 18:54:57  16.0   45   750 
 2020-09-15 18:49:53  16.2   44   751 
 2020-09-15 18:44:49  16.4   43   750 
 2020-09-15 18:39:45  16.5   42   750 
 2020-09-15 18:34:41  16.7   42   750 
 2020-09-15 18:29:37  16.8   41   751 
 2020-09-15 18:24:33  16.9   41   751 
 2020-09-15 18:19:29  16.9   40   751 
 2020-09-15 18:14:25  17.1   40   751 
 2020-09-15 18:09:21  17.1   40   751 
 2020-09-15 18:04:17  17.3   39   751 
 2020-09-15 17:59:13  17.4   39   751 
 2020-09-15 17:54:09  17.6   38   751 
 2020-09-15 17:49:05  17.6   37   751 
 2020-09-15 17:44:01  17.8   37   751 
 2020-09-15 17:38:57  17.6   37   751 
 2020-09-15 17:33:53  17.6   37   751 
 2020-09-15 17:28:49  17.8   38   751 
 2020-09-15 17:23:44  17.9   38   751 
 2020-09-15 17:18:40  17.8   37   751 
 2020-09-15 17:13:36  17.9   37   751 
 2020-09-15 17:08:32  17.9   37   751 
 2020-09-15 17:03:28  17.9   38   751 
 2020-09-15 16:58:24  17.8   38   751 
 2020-09-15 16:53:20  17.8   37   751 
 2020-09-15 16:48:16  17.8   38   751 
 2020-09-15 16:43:12  17.9   38   751 
 2020-09-15 16:38:08  17.8   38   751 
 2020-09-15 16:33:04  17.9   37   751 
 2020-09-15 16:28:00  18.0   37   751 
 2020-09-15 16:22:56  18.1   37   751 
 2020-09-15 16:17:52  17.9   38   751 
 2020-09-15 16:12:48  17.8   38   751 
 2020-09-15 16:07:43  17.9   38   751 
 2020-09-15 16:02:39  17.9   37   751 
 2020-09-15 15:57:35  17.8   36   751 
 2020-09-15 15:52:31  17.9   37   751 
 2020-09-15 15:47:27  17.8   38   751 
 2020-09-15 15:42:23  17.8   37   751 
 2020-09-15 15:37:19  17.8   38   751 
 2020-09-15 15:32:15  17.8   38   751 
 2020-09-15 15:27:11  17.7   38   751 
 2020-09-15 15:22:07  17.7   38   751 
 2020-09-15 15:17:03  17.7   39   751 
 2020-09-15 15:11:59  17.6   39   751 
 2020-09-15 15:06:55  17.4   39   751 
 2020-09-15 15:01:50  17.4   39   751 
 2020-09-15 14:56:46  17.5   39   751 
 2020-09-15 14:51:42  17.4   39   751 
 2020-09-15 14:46:38  17.5   40   751 
 2020-09-15 14:41:34  17.4   39   751 
 2020-09-15 14:36:30  17.2   39   752 
 2020-09-15 14:31:26  17.1   38   752 
 2020-09-15 14:26:22  17.4   39   752 
 2020-09-15 14:21:18  17.2   41   752 
 2020-09-15 14:16:14  17.0   42   752 
 2020-09-15 14:11:10  16.9   41   752 
 2020-09-15 14:06:06  16.6   43   752 
 2020-09-15 14:01:02  16.9   43   752 
 2020-09-15 13:55:58  16.6   45   752 
 2020-09-15 13:50:53  16.4   44   752 
 2020-09-15 13:45:49  16.5   46   752 
 2020-09-15 13:40:45  16.2   45   752 
 2020-09-15 13:35:41  16.1   44   752 
 2020-09-15 13:30:37  16.1   45   752 
 2020-09-15 13:25:33  16.1   45   752 
 2020-09-15 13:20:29  15.8   46   752 
 2020-09-15 13:15:25  15.7   45   752 
 2020-09-15 13:10:21  15.6   46   752 
 2020-09-15 13:05:17  15.6   46   752 
 2020-09-15 13:00:13  15.5   49   752 
 2020-09-15 12:55:08  15.4   49   752 
 2020-09-15 12:50:04  15.2   48   752 
 2020-09-15 12:45:00  15.2   49   752 
 2020-09-15 12:39:56  14.9   49   752 
 2020-09-15 12:34:52  14.8   49   752 
 2020-09-15 12:29:48  14.7   49   752 
 2020-09-15 12:24:44  14.4   49   753 
 2020-09-15 12:19:40  14.3   49   753 
 2020-09-15 12:14:36  14.2   50   753 
 2020-09-15 12:09:32  14.1   49   753 
 2020-09-15 12:04:28  13.9   51   753 
 2020-09-15 11:59:24  13.8   51   753 
 2020-09-15 11:54:20  13.5   52   753 
 2020-09-15 11:49:16  13.7   51   753 
 2020-09-15 11:44:12  13.6   52   753 
 2020-09-15 11:39:08  13.0   53   753 
 2020-09-15 11:29:00  12.6   55   753 
 2020-09-15 11:23:55  12.3   56   753 
 2020-09-15 11:18:51  12.2   56   753 
 2020-09-15 11:13:47  11.9   57   753 
 2020-09-15 11:08:43  11.6   60   753 
 2020-09-15 11:03:39  11.2   60   753 
 2020-09-15 10:58:35  11.1   61   753 
 2020-09-15 10:53:31  11.1   61   753 
 2020-09-15 10:48:27  10.9   63   753 
 2020-09-15 10:43:23  10.7   65   753 
 2020-09-15 10:38:19  10.5   66   753 
 2020-09-15 10:33:15  10.2   68   753 
 2020-09-15 10:28:11  10.0   68   754 
 2020-09-15 10:23:07  9.8   69   754 
 2020-09-15 10:18:03  9.7   70   754 
 2020-09-15 10:12:59  9.4   73   754 
 2020-09-15 10:07:55  9.0   77   754 
 2020-09-15 10:02:51  8.8   77   754 
 2020-09-15 09:57:47  8.5   78   754 
 2020-09-15 09:52:43  8.2   78   754 
 2020-09-15 09:47:38  8.1   80   754 
 2020-09-15 09:42:34  7.6   80   754 
 2020-09-15 09:37:30  7.4   82   754 
 2020-09-15 09:32:26  7.2   81   754 
 2020-09-15 09:27:22  6.8   81   754 
 2020-09-15 09:22:18  6.5   84   754 
 2020-09-15 09:17:14  6.3   84   754 
 2020-09-15 09:12:10  6.1   84   754 
 2020-09-15 09:07:06  5.8   85   754 
 2020-09-15 09:02:02  5.5   86   754 
 2020-09-15 08:56:58  5.1   88   754 
 2020-09-15 08:51:54  4.7   89   754 
 2020-09-15 08:46:49  4.6   90   754 
 2020-09-15 08:41:45  4.2   91   754 
 2020-09-15 08:36:41  4.1   91   754 
 2020-09-15 08:31:37  3.9   92   754 
 2020-09-15 08:26:33  3.9   92   754 
 2020-09-15 08:21:29  3.8   93   754 
 2020-09-15 08:16:25  3.8   92   754 
 2020-09-15 08:11:21  3.7   92   754 
 2020-09-15 08:06:17  3.8   92   754 
 2020-09-15 08:01:13  3.6   93   755 
 2020-09-15 07:56:09  3.7   93   755 
 2020-09-15 07:51:05  3.6   94   755 
 2020-09-15 07:46:01  3.4   94   755 
 2020-09-15 07:40:57  3.4   94   755 
 2020-09-15 07:35:52  3.6   94   755 
 2020-09-15 07:30:48  3.4   94   755 
 2020-09-15 07:25:44  3.2   96   755 
 2020-09-15 07:20:40  3.1   96   755 
 2020-09-15 07:15:36  3.1   96   755 
 2020-09-15 07:10:32  3.2   96   755 
 2020-09-15 07:05:28  3.2   96   755 
 2020-09-15 07:00:24  3.1   96   755 
 2020-09-15 06:55:20  3.1   95   755 
 2020-09-15 06:50:16  3.2   97   755 
 2020-09-15 06:45:12  3.2   96   755 
 2020-09-15 06:40:07  3.3   95   755 
 2020-09-15 06:35:03  3.4   95   755 
 2020-09-15 06:29:59  3.5   95   755 
 2020-09-15 06:24:55  3.4   95   755 
 2020-09-15 06:19:51  3.5   95   755 
 2020-09-15 06:14:47  3.5   95   755 
 2020-09-15 06:09:43  3.5   95   755 
 2020-09-15 06:04:38  3.6   95   755 
 2020-09-15 05:59:34  3.6   95   755 
 2020-09-15 05:54:30  3.6   95   755 
 2020-09-15 05:49:26  3.7   95   755 
 2020-09-15 05:44:22  3.8   95   755 
 2020-09-15 05:39:18  3.9   94   755 
 2020-09-15 05:34:14  3.9   94   755 
 2020-09-15 05:29:10  3.9   95   755 
 2020-09-15 05:24:05  4.0   95   755 
 2020-09-15 05:19:01  4.1   95   755 
 2020-09-15 05:13:57  4.0   94   755 
 2020-09-15 05:08:53  4.1   95   755 
 2020-09-15 05:03:49  3.9   95   755 
 2020-09-15 04:58:45  3.9   96   755 
 2020-09-15 04:53:41  4.1   96   755 
 2020-09-15 04:48:36  4.1   95   755 
 2020-09-15 04:43:32  4.1   95   755 
 2020-09-15 04:38:28  4.1   95   755 
 2020-09-15 04:33:24  4.1   95   755 
 2020-09-15 04:28:20  4.3   95   755 
 2020-09-15 04:23:16  4.4   95   755 
 2020-09-15 04:18:12  4.3   95   755 
 2020-09-15 04:13:08  4.4   95   755 
 2020-09-15 04:08:03  4.4   95   755 
 2020-09-15 04:02:59  4.5   95   755 
 2020-09-15 03:57:55  4.5   95   755 
 2020-09-15 03:52:51  4.6   94   755 
 2020-09-15 03:47:47  4.6   95   755 
 2020-09-15 03:42:43  4.6   95   755 
 2020-09-15 03:37:39  4.6   95   755 
 2020-09-15 03:32:35  4.5   96   755 
 2020-09-15 03:27:31  4.7   95   755 
 2020-09-15 03:22:27  4.9   94   755 
 2020-09-15 03:17:23  4.9   94   755 
 2020-09-15 03:12:18  5.0   94   755 
 2020-09-15 03:07:14  5.1   94   755 
 2020-09-15 03:02:10  5.0   94   755 
 2020-09-15 02:57:06  5.0   94   755 
 2020-09-15 02:52:02  5.0   94   755 
 2020-09-15 02:46:58  5.1   95   755 
 2020-09-15 02:41:54  5.0   95   756 
 2020-09-15 02:36:50  5.2   94   756 
 2020-09-15 02:31:46  5.3   93   756 
 2020-09-15 02:26:42  5.3   93   756 
 2020-09-15 02:21:37  5.4   94   756 
 2020-09-15 02:16:33  5.4   93   756 
 2020-09-15 02:11:29  5.5   93   756 
 2020-09-15 02:06:25  5.5   93   756 
 2020-09-15 02:01:21  5.5   92   756 
 2020-09-15 01:56:17  5.8   90   756 
 2020-09-15 01:51:13  5.8   91   756 
 2020-09-15 01:46:08  5.8   92   756 
 2020-09-15 01:41:04  5.9   91   756 
 2020-09-15 01:36:00  6.1   90   756 
 2020-09-15 01:30:56  6.4   90   756 
 2020-09-15 01:25:52  6.4   90   756 
 2020-09-15 01:20:48  6.4   90   756 
 2020-09-15 01:15:44  6.5   91   756 
 2020-09-15 01:10:40  6.6   91   756 
 2020-09-15 01:05:36  6.7   90   756 
 2020-09-15 01:00:32  6.8   90   756 
 2020-09-15 00:55:28  6.8   89   756 
 2020-09-15 00:50:24  6.8   90   756 
 2020-09-15 00:45:20  6.8   90   756 
 2020-09-15 00:40:16  6.9   89   756 
 2020-09-15 00:35:12  6.8   89   756 
 2020-09-15 00:30:08  6.9   89   756 
 2020-09-15 00:25:04  6.9   88   756 
 2020-09-15 00:20:00  6.9   87   756 
 2020-09-15 00:14:55  7.2   88   756 
 2020-09-15 00:09:51  7.3   89   756 
 2020-09-15 00:04:47  7.4   88   756 
 2020-09-14 23:59:43  7.4   89   756 
 2020-09-14 23:54:39  7.5   89   756 
 2020-09-14 23:49:35  7.6   89   756 
 2020-09-14 23:44:31  7.6   88   756 
 2020-09-14 23:39:27  7.7   88   756 
 2020-09-14 23:34:23  7.8   87   756 
 2020-09-14 23:29:19  7.9   87   756 
 2020-09-14 23:24:15  7.9   86   756 
 2020-09-14 23:19:11  8.1   87   756 
 2020-09-14 23:14:07  8.1   85   756 
 2020-09-14 23:09:03  8.1   86   756 
 2020-09-14 23:03:59  8.1   86   756 
 2020-09-14 22:58:55  8.2   86   756 
 2020-09-14 22:53:51  8.3   85   756 
 2020-09-14 22:48:47  8.4   85   756 
 2020-09-14 22:43:43  8.5   84   756 
 2020-09-14 22:38:39  8.7   83   756 
 2020-09-14 22:33:34  8.8   83   756 
 2020-09-14 22:28:30  8.9   83   756 
 2020-09-14 22:23:26  9.0   81   756 
 2020-09-14 22:18:22  9.1   81   756 
 2020-09-14 22:13:18  9.1   80   756 
 2020-09-14 22:08:14  9.2   80   756 
 2020-09-14 22:03:10  9.2   80   756 
 2020-09-14 21:58:06  9.4   79   756 
 2020-09-14 21:53:02  9.4   78   756 
 2020-09-14 21:47:58  9.7   78   756 
 2020-09-14 21:42:54  9.8   77   756 
 2020-09-14 21:37:50  9.9   76   756 
 2020-09-14 21:32:46  10.1   74   756 
 2020-09-14 21:27:42  10.2   74   756 
 2020-09-14 21:22:37  10.4   73   756 
 2020-09-14 21:17:33  10.6   72   757 
 2020-09-14 21:12:29  10.7   71   757 
 2020-09-14 21:07:19  10.8   70   757 
 2020-09-14 21:02:15  10.8   71   757 
 2020-09-14 20:57:11  11.0   70   757 
 2020-09-14 20:52:07  11.1   69   757 
 2020-09-14 20:47:03  11.3   68   757 
 2020-09-14 20:41:59  11.4   68   757 
 2020-09-14 20:36:55  11.4   66   757 
 2020-09-14 20:31:51  11.6   66   757 
 2020-09-14 20:26:46  11.8   65   757 
 2020-09-14 20:21:42  11.9   63   757 
 2020-09-14 20:16:38  12.0   61   757 
 2020-09-14 20:11:34  12.2   60   757 
 2020-09-14 20:06:30  12.4   58   757 
 2020-09-14 20:01:26  12.7   57   757 
 2020-09-14 19:56:22  12.9   54   757 
 2020-09-14 19:51:18  13.1   53   757 
 2020-09-14 19:46:14  13.4   50   757 
 2020-09-14 19:41:10  13.7   50   757 
 2020-09-14 19:36:06  14.1   49   757 
 2020-09-14 19:31:02  14.2   47   757 
 2020-09-14 19:25:58  14.2   47   757 
 2020-09-14 19:20:53  14.4   48   757 
 2020-09-14 19:15:49  14.5   47   757 
 2020-09-14 19:10:45  14.7   49   757 
 2020-09-14 19:05:41  14.9   47   757 
 2020-09-14 19:00:37  15.1   45   757 
 2020-09-14 18:55:32  15.4   45   757 
 2020-09-14 18:50:28  15.6   44   757 
 2020-09-14 18:45:24  15.8   42   757 
 2020-09-14 18:40:20  15.9   41   757 
 2020-09-14 18:35:15  16.1   41   757 
 2020-09-14 18:30:11  16.1   40   757 
 2020-09-14 18:25:07  16.2   40   757 
 2020-09-14 18:20:03  16.3   40   757 
 2020-09-14 18:14:59  16.4   39   757 
 2020-09-14 18:09:55  16.5   38   757 
 2020-09-14 18:04:51  16.6   38   757 
 2020-09-14 17:59:47  16.7   38   757 
 2020-09-14 17:54:43  16.8   36   757 
 2020-09-14 17:49:39  16.9   36   757 
 2020-09-14 17:44:34  17.0   37   757 
 2020-09-14 17:39:30  17.0   36   757 
 2020-09-14 17:34:26  16.9   35   757 
 2020-09-14 17:29:22  17.0   35   757 
 2020-09-14 17:24:18  17.1   34   757 
 2020-09-14 17:19:14  17.1   34   757 
 2020-09-14 17:14:10  17.3   35   757 
 2020-09-14 17:09:06  17.3   34   757 
 2020-09-14 17:04:02  17.3   34   757 
 2020-09-14 16:58:58  17.5   34   757 
 2020-09-14 16:53:54  17.4   34   757 
 2020-09-14 16:48:50  17.4   34   757 
 2020-09-14 16:43:46  17.5   34   757 
 2020-09-14 16:38:42  17.4   35   757 
 2020-09-14 16:33:38  17.5   35   757 
 2020-09-14 16:28:34  17.4   35   757 
 2020-09-14 16:23:29  17.6   35   757 
 2020-09-14 16:18:25  17.6   36   757 
 2020-09-14 16:13:21  17.6   34   757 
 2020-09-14 16:08:17  17.8   35   757 
 2020-09-14 16:03:13  17.7   37   757 
 2020-09-14 15:58:09  17.7   35   757 
 2020-09-14 15:53:05  17.7   37   757 
 2020-09-14 15:48:01  17.4   36   757 
 2020-09-14 15:42:57  17.7   37   757 
 2020-09-14 15:37:53  17.8   37   757 
 2020-09-14 15:32:49  17.7   36   757 
 2020-09-14 15:27:45  17.7   35   757 
 2020-09-14 15:22:41  17.8   37   757 
 2020-09-14 15:17:37  17.6   37   757 
 2020-09-14 15:12:33  17.4   38   757 
 2020-09-14 15:07:29  17.2   38   757 
 2020-09-14 15:02:25  17.2   37   757 
 2020-09-14 14:57:21  17.2   38   757 
 2020-09-14 14:52:17  17.3   38   757 
 2020-09-14 14:47:13  17.2   38   757 
 2020-09-14 14:42:08  17.3   38   757 
 2020-09-14 14:37:04  17.2   36   757 
 2020-09-14 14:32:00  17.3   38   757 
 2020-09-14 14:26:56  17.3   37   757 
 2020-09-14 14:21:52  17.3   38   757 
 2020-09-14 14:16:48  17.2   38   757 
 2020-09-14 14:11:44  17.3   37   757 
 2020-09-14 14:06:40  17.0   39   757 
 2020-09-14 14:01:36  17.0   39   758 
 2020-09-14 13:56:32  17.1   40   758 
 2020-09-14 13:51:28  16.8   39   758 
 2020-09-14 13:46:24  16.6   39   758 
 2020-09-14 13:41:20  16.6   40   758 
 2020-09-14 13:36:16  16.6   41   758 
 2020-09-14 13:31:12  16.3   43   758 
 2020-09-14 13:26:08  16.1   44   758 
 2020-09-14 13:21:04  15.9   42   758 
 2020-09-14 13:16:00  15.9   44   758 
 2020-09-14 13:10:56  15.9   45   758 
 2020-09-14 13:05:52  15.9   47   758 
 2020-09-14 13:00:47  15.7   47   758 
 2020-09-14 12:55:43  15.5   47   758 
 2020-09-14 12:50:39  15.4   48   758 
 2020-09-14 12:45:35  15.1   51   758 
 2020-09-14 12:40:31  14.9   50   758 
 2020-09-14 12:35:27  14.8   49   758 
 2020-09-14 12:30:23  14.6   50   758 
 2020-09-14 12:25:19  14.5   51   758 
 2020-09-14 12:20:15  14.3   51   758 
 2020-09-14 12:15:11  14.4   50   758 
 2020-09-14 12:10:07  14.3   51   758 
 2020-09-14 12:05:03  14.2   51   758 
 2020-09-14 11:59:59  14.0   52   758 
 2020-09-14 11:54:55  13.9   53   758 
 2020-09-14 11:49:51  13.8   55   758 
 2020-09-14 11:44:47  13.4   55   758 
 2020-09-14 11:39:43  13.4   56   758 
 2020-09-14 11:34:39  13.5   55   758 
 2020-09-14 11:29:35  13.2   55   758 
 2020-09-14 11:24:31  13.2   56   758 
 2020-09-14 11:19:26  12.9   57   758 
 2020-09-14 11:14:22  12.9   58   758 
 2020-09-14 11:09:18  12.6   57   758 
 2020-09-14 11:04:14  12.1   59   759 
 2020-09-14 10:59:10  12.0   60   759 
 2020-09-14 10:54:06  11.8   62   759 
 2020-09-14 10:49:02  11.4   62   759 
 2020-09-14 10:43:58  11.3   64   759 
 2020-09-14 10:38:54  11.0   67   759 
 2020-09-14 10:33:50  10.6   66   759 
 2020-09-14 10:28:46  10.5   67   759 
 2020-09-14 10:23:42  10.2   70   759 
 2020-09-14 10:18:38  9.9   70   759 
 2020-09-14 10:13:34  9.6   72   759 
 2020-09-14 10:08:30  9.5   74   759 
 2020-09-14 10:03:26  9.2   78   759 
 2020-09-14 09:58:22  8.8   78   759 
 2020-09-14 09:53:18  8.6   80   759 
 2020-09-14 09:48:14  8.1   81   759 
 2020-09-14 09:43:09  7.9   83   759 
 2020-09-14 09:38:05  7.6   83   759 
 2020-09-14 09:33:01  7.2   83   759 
 2020-09-14 09:27:57  7.1   83   759 
 2020-09-14 09:22:53  6.8   85   759 
 2020-09-14 09:17:49  6.6   86   759 
 2020-09-14 09:12:45  6.4   87   759 
 2020-09-14 09:07:41  6.0   87   759 
 2020-09-14 09:02:36  5.7   89   759 
 2020-09-14 08:57:33  5.3   89   759 
 2020-09-14 08:52:28  5.2   89   759 
 2020-09-14 08:47:24  4.9   90   759 
 2020-09-14 08:42:20  4.6   91   759 
 2020-09-14 08:37:16  4.2   93   759 
 2020-09-14 08:32:12  3.8   94   760 
 2020-09-14 08:27:08  3.5   95   760 
 2020-09-14 08:22:04  3.6   94   760 
 2020-09-14 08:17:00  3.6   92   760 
 2020-09-14 08:11:56  3.4   93   760 
 2020-09-14 08:06:52  3.2   93   760 
 2020-09-14 08:01:48  2.9   93   760 
 2020-09-14 07:56:44  2.8   94   760 
 2020-09-14 07:51:40  2.6   94   760 
 2020-09-14 07:46:36  2.7   94   760 
 2020-09-14 07:41:32  2.5   95   760 
 2020-09-14 07:36:28  2.6   94   760 
 2020-09-14 07:31:24  2.6   95   760 
 2020-09-14 07:26:20  2.7   96   760 
 2020-09-14 07:21:15  2.5   95   760 
 2020-09-14 07:16:11  2.4   94   760 
 2020-09-14 07:11:07  2.4   95   760 
 2020-09-14 07:06:03  2.6   96   760 
 2020-09-14 07:00:59  2.4   96   760 
 2020-09-14 06:55:55  2.5   95   760 
 2020-09-14 06:50:51  2.6   97   760 
 2020-09-14 06:45:47  2.6   97   760 
 2020-09-14 06:40:43  2.4   95   760 
 2020-09-14 06:35:39  2.6   95   760 
 2020-09-14 06:30:35  2.7   94   760 
 2020-09-14 06:25:31  2.8   94   760 
 2020-09-14 06:20:27  2.8   93   760 
 2020-09-14 06:15:22  2.8   93   760 
 2020-09-14 06:10:18  2.7   93   760 
 2020-09-14 06:05:14  2.8   94   760 
 2020-09-14 06:00:10  2.8   93   760 
 2020-09-14 05:55:06  3.1   91   760 
 2020-09-14 05:50:02  3.2   92   760 
 2020-09-14 05:44:58  3.2   93   760 
 2020-09-14 05:39:53  3.2   93   760 
 2020-09-14 05:34:49  3.2   93   760 
 2020-09-14 05:29:45  3.3   93   760 
 2020-09-14 05:24:41  3.2   93   760 
 2020-09-14 05:19:37  3.1   93   760 
 2020-09-14 05:14:33  3.1   93   760 
 2020-09-14 05:09:29  3.1   93   760 
 2020-09-14 05:04:25  3.2   93   760 
 2020-09-14 04:59:20  3.4   93   760 
 2020-09-14 04:54:16  3.5   93   760 
 2020-09-14 04:49:12  3.6   93   760 
 2020-09-14 04:44:08  3.6   93   760 
 2020-09-14 04:39:04  3.6   93   760 
 2020-09-14 04:34:00  3.4   93   760 
 2020-09-14 04:28:56  3.6   93   760 
 2020-09-14 04:23:52  3.7   94   760 
 2020-09-14 04:18:47  3.8   95   760 
 2020-09-14 04:13:43  3.8   95   760 
 2020-09-14 04:08:39  3.7   96   760 
 2020-09-14 04:03:35  3.8   96   760 
 2020-09-14 03:58:31  3.7   96   760 
 2020-09-14 03:53:27  3.7   97   760 
 2020-09-14 03:48:23  3.7   96   760 
 2020-09-14 03:43:18  3.6   95   760 
 2020-09-14 03:38:14  3.9   95   760 
 2020-09-14 03:33:10  4.1   96   760 
 2020-09-14 03:28:06  4.1   95   760 
 2020-09-14 03:23:02  4.1   95   760 
 2020-09-14 03:17:58  4.2   94   760 
 2020-09-14 03:12:54  4.2   94   760 
 2020-09-14 03:07:50  4.2   93   760 
 2020-09-14 03:02:45  4.4   94   760 
 2020-09-14 02:57:41  4.5   93   760 
 2020-09-14 02:52:37  4.6   93   760 
 2020-09-14 02:47:33  4.7   93   760 
 2020-09-14 02:42:29  4.7   93   760 
 2020-09-14 02:37:25  4.8   93   760 
 2020-09-14 02:32:21  4.8   93   760 
 2020-09-14 02:27:16  4.9   92   760 
 2020-09-14 02:22:12  5.1   92   760 
 2020-09-14 02:17:08  5.2   92   760 
 2020-09-14 02:12:04  5.3   92   760 
 2020-09-14 02:07:00  5.3   93   760 
 2020-09-14 02:01:56  5.3   92   760 
 2020-09-14 01:56:52  5.4   92   760 
 2020-09-14 01:51:48  5.6   92   760 
 2020-09-14 01:46:44  5.6   92   760 
 2020-09-14 01:41:40  5.7   92   760 
 2020-09-14 01:36:36  5.7   92   760 
 2020-09-14 01:31:31  5.8   91   760 
 2020-09-14 01:26:27  5.8   92   760 
 2020-09-14 01:21:23  5.8   91   760 
 2020-09-14 01:16:19  5.9   92   760 
 2020-09-14 01:11:15  5.9   91   760 
 2020-09-14 01:06:11  5.9   92   760 
 2020-09-14 01:01:07  5.9   92   760 
 2020-09-14 00:56:03  5.9   90   760 
 2020-09-14 00:50:59  6.0   90   760 
 2020-09-14 00:45:55  5.9   90   760 
 2020-09-14 00:40:51  6.2   91   760 
 2020-09-14 00:35:47  6.3   91   760 
 2020-09-14 00:30:43  6.3   91   760 
 2020-09-14 00:25:39  6.5   90   760 
 2020-09-14 00:20:35  6.5   90   760 
 2020-09-14 00:15:31  6.5   89   760 
 2020-09-14 00:10:26  6.4   88   760 
 2020-09-14 00:05:22  6.6   89   760 
 2020-09-14 00:00:18  6.6   88   760 
 2020-09-13 23:55:14  6.6   88   760 
 2020-09-13 23:50:10  6.8   88   760 
 2020-09-13 23:45:05  6.8   88   760 
 2020-09-13 23:40:01  6.9   90   760 
 2020-09-13 23:34:57  7.0   90   760 
 2020-09-13 23:29:53  7.1   90   760 
 2020-09-13 23:24:49  7.1   90   760 
 2020-09-13 23:19:45  7.2   89   760 
 2020-09-13 23:14:41  7.4   89   760 
 2020-09-13 23:09:37  7.5   88   760 
 2020-09-13 23:04:33  7.5   87   760 
 2020-09-13 22:59:29  7.6   88   760 
 2020-09-13 22:54:24  7.7   88   760 
 2020-09-13 22:49:20  7.7   87   760 
 2020-09-13 22:44:15  7.9   87   760 
 2020-09-13 22:39:11  8.1   86   760 
 2020-09-13 22:34:07  8.1   86   760 
 2020-09-13 22:29:03  8.2   85   760 
 2020-09-13 22:23:59  8.3   86   760 
 2020-09-13 22:18:55  8.3   85   760 
 2020-09-13 22:13:51  8.4   85   760 
 2020-09-13 22:08:47  8.6   84   760 
 2020-09-13 22:03:41  8.6   83   760 
 2020-09-13 21:58:37  8.9   82   760 
 2020-09-13 21:53:33  8.9   82   760 
 2020-09-13 21:48:29  9.0   81   760 
 2020-09-13 21:43:25  9.1   81   760 
 2020-09-13 21:38:21  9.2   80   760 
 2020-09-13 21:33:17  9.4   79   760 
 2020-09-13 21:28:13  9.4   78   760 
 2020-09-13 21:23:09  9.6   77   760 
 2020-09-13 21:18:05  9.7   78   760 
 2020-09-13 21:13:01  9.8   77   760 
 2020-09-13 21:07:57  10.0   76   760 
 2020-09-13 21:02:53  10.2   75   760 
 2020-09-13 20:57:49  10.2   73   760 
 2020-09-13 20:52:45  10.4   72   760 
 2020-09-13 20:47:40  10.5   72   760 
 2020-09-13 20:42:36  10.6   70   760 
 2020-09-13 20:37:32  10.6   70   760 
 2020-09-13 20:32:28  10.8   69   760 
 2020-09-13 20:27:23  10.9   68   760 
 2020-09-13 20:22:19  11.1   67   760 
 2020-09-13 20:17:15  11.2   67   760 
 2020-09-13 20:12:11  11.4   65   760 
 2020-09-13 20:07:07  11.6   63   760 
 2020-09-13 20:02:03  11.8   61   760 
 2020-09-13 19:56:59  12.0   59   760 
 2020-09-13 19:51:55  12.2   58   760 
 2020-09-13 19:46:51  12.5   56   760 
 2020-09-13 19:41:47  12.6   56   760 
 2020-09-13 19:36:43  12.9   55   760 
 2020-09-13 19:31:39  13.2   53   760 
 2020-09-13 19:26:35  13.4   50   760 
 2020-09-13 19:21:31  13.5   52   760 
 2020-09-13 19:16:26  13.7   50   760 
 2020-09-13 19:11:22  13.9   49   760 
 2020-09-13 19:06:18  13.9   49   760 
 2020-09-13 19:01:14  14.3   48   760 
 2020-09-13 18:56:10  14.6   46   760 
 2020-09-13 18:51:06  14.8   45   760 
 2020-09-13 18:46:02  14.9   44   760 
 2020-09-13 18:40:58  15.1   44   760 
 2020-09-13 18:35:54  15.2   43   760 
 2020-09-13 18:30:50  15.4   43   760 
 2020-09-13 18:25:46  15.4   43   760 
 2020-09-13 18:20:42  15.5   43   760 
 2020-09-13 18:15:38  15.7   42   760 
 2020-09-13 18:10:34  15.6   41   760 
 2020-09-13 18:05:30  15.8   41   760 
 2020-09-13 18:00:26  15.9   40   760 
 2020-09-13 17:55:22  15.9   39   760 
 2020-09-13 17:50:18  16.1   38   760 
 2020-09-13 17:45:14  16.0   39   760 
 2020-09-13 17:40:10  16.1   38   760 
 2020-09-13 17:35:05  16.2   38   760 
 2020-09-13 17:30:01  16.2   37   760 
 2020-09-13 17:24:57  16.2   37   760 
 2020-09-13 17:19:53  16.3   36   760 
 2020-09-13 17:14:49  16.3   36   760 
 2020-09-13 17:09:45  16.3   37   760 
 2020-09-13 17:04:41  16.2   36   760 
 2020-09-13 16:59:37  16.4   36   760 
 2020-09-13 16:54:33  16.2   36   760 
 2020-09-13 16:49:29  16.2   36   760 
 2020-09-13 16:44:25  16.4   37   760 
 2020-09-13 16:39:21  16.4   37   760 
 2020-09-13 16:34:17  16.4   36   760 
 2020-09-13 16:29:13  16.3   35   761 
 2020-09-13 16:24:09  16.3   37   760 
 2020-09-13 16:19:05  16.4   36   761 
 2020-09-13 16:14:01  16.2   36   761 
 2020-09-13 16:08:57  16.2   36   760 
 2020-09-13 16:03:53  16.5   36   761 
 2020-09-13 15:58:49  16.4   37   761 
 2020-09-13 15:53:44  16.4   37   761 
 2020-09-13 15:48:40  16.2   36   761 
 2020-09-13 15:43:34  16.1   35   761 
 2020-09-13 15:38:30  16.1   36   761 
 2020-09-13 15:33:23  16.2   35   761 
 2020-09-13 15:28:19  16.2   38   761 
 2020-09-13 15:18:05  15.6   38   761 
 2020-09-13 15:13:01  15.9   40   761 
 2020-09-13 15:07:57  15.8   40   761 
 2020-09-13 15:02:53  15.8   40   761 
 2020-09-13 14:57:49  15.8   39   761 
 2020-09-13 14:52:45  15.8   40   761 
 2020-09-13 14:47:41  15.9   40   761 
 2020-09-13 14:42:37  15.6   42   761 
 2020-09-13 14:37:33  15.6   41   761 
 2020-09-13 14:32:29  15.6   40   761 
 2020-09-13 14:27:24  15.7   41   761 
 2020-09-13 14:22:20  15.8   43   761 
 2020-09-13 14:17:16  15.7   41   761 
 2020-09-13 14:12:12  15.8   40   761 
 2020-09-13 14:07:08  15.7   40   761 
 2020-09-13 14:02:04  15.9   40   761 
 2020-09-13 13:57:00  15.7   42   761 
 2020-09-13 13:51:56  15.5   41   761 
 2020-09-13 13:46:52  15.8   42   761 
 2020-09-13 13:41:48  15.6   39   761 
 2020-09-13 13:36:44  15.7   41   761 
 2020-09-13 13:31:40  15.6   42   761 
 2020-09-13 13:26:36  15.4   40   761 
 2020-09-13 13:21:31  15.5   42   761 
 2020-09-13 13:16:27  15.2   43   761 
 2020-09-13 13:11:23  15.4   42   761 
 2020-09-13 13:06:19  15.2   45   761 
 2020-09-13 13:01:15  14.9   42   761 
 2020-09-13 12:56:11  14.8   43   761 
 2020-09-13 12:51:07  14.9   45   761 
 2020-09-13 12:46:03  14.9   45   761 
 2020-09-13 12:40:59  14.4   46   762 
 2020-09-13 12:35:55  14.6   46   762 
 2020-09-13 12:30:51  14.4   46   762 
 2020-09-13 12:25:47  14.4   49   762 
 2020-09-13 12:20:43  14.2   49   762 
 2020-09-13 12:15:39  14.1   51   762 
 2020-09-13 12:10:35  13.9   52   762 
 2020-09-13 12:05:31  14.0   50   762 
 2020-09-13 12:00:27  13.8   51   762 
 2020-09-13 11:55:23  13.8   52   762 
 2020-09-13 11:50:19  13.6   54   762 
 2020-09-13 11:45:15  13.5   53   762 
 2020-09-13 11:40:10  13.5   54   762 
 2020-09-13 11:35:06  13.2   57   762 
 2020-09-13 11:30:02  13.1   57   762 
 2020-09-13 11:24:58  12.8   59   762 
 2020-09-13 11:19:54  12.6   61   762 
 2020-09-13 11:14:50  12.4   62   762 
 2020-09-13 11:09:46  12.2   65   762 
 2020-09-13 11:04:42  12.2   66   762 
 2020-09-13 10:59:38  11.9   66   762 
 2020-09-13 10:54:34  11.7   67   762 
 2020-09-13 10:49:30  11.6   69   762 
 2020-09-13 10:44:21  11.3   68   762 
 2020-09-13 10:39:17  11.1   73   762 
 2020-09-13 10:34:13  10.9   74   762 
 2020-09-13 10:29:08  10.7   75   762 
 2020-09-13 10:24:04  10.4   76   762 
 2020-09-13 10:19:00  10.0   77   762 
 2020-09-13 10:13:56  9.8   79   762 
 2020-09-13 10:08:52  9.6   80   762 
 2020-09-13 10:03:48  9.3   81   762 
 2020-09-13 09:58:44  9.2   80   762 
 2020-09-13 09:53:40  8.9   81   762 
 2020-09-13 09:48:36  8.8   81   762 
 2020-09-13 09:43:32  8.5   83   762 
 2020-09-13 09:38:27  8.2   85   762 
 2020-09-13 09:33:23  8.1   87   762 
 2020-09-13 09:28:19  7.9   87   762 
 2020-09-13 09:23:15  7.7   89   762 
 2020-09-13 09:18:11  7.4   90   762 
 2020-09-13 09:13:07  7.2   91   762 
 2020-09-13 09:08:03  7.1   91   763 
 2020-09-13 09:02:59  6.8   91   763 
 2020-09-13 08:57:55  6.5   91   763 
 2020-09-13 08:52:51  6.1   92   763 
 2020-09-13 08:47:47  6.1   92   763 
 2020-09-13 08:42:43  6.1   93   763 
 2020-09-13 08:37:39  6.0   93   763 
 2020-09-13 08:32:35  5.8   93   763 
 2020-09-13 08:27:31  5.6   94   763 
 2020-09-13 08:22:27  5.3   94   763 
 2020-09-13 08:17:23  5.2   93   763 
 2020-09-13 08:12:19  4.9   93   763 
 2020-09-13 08:07:14  4.8   93   763 
 2020-09-13 08:02:10  4.6   93   763 
 2020-09-13 07:57:06  4.4   94   763 
 2020-09-13 07:52:02  4.3   93   763 
 2020-09-13 07:46:58  4.2   93   763 
 2020-09-13 07:41:54  4.1   94   763 
 2020-09-13 07:36:50  3.9   94   763 
 2020-09-13 07:31:46  4.1   93   763 
 2020-09-13 07:26:42  4.1   94   763 
 2020-09-13 07:21:38  4.0   94   763 
 2020-09-13 07:16:34  4.0   94   763 
 2020-09-13 07:11:30  3.9   94   763 
 2020-09-13 07:06:26  3.9   94   763 
 2020-09-13 07:01:22  4.0   96   763 
 2020-09-13 06:56:18  3.9   96   763 
 2020-09-13 06:51:14  3.9   96   763 
 2020-09-13 06:46:10  3.8   97   763 
 2020-09-13 06:41:05  3.8   96   763 
 2020-09-13 06:36:01  3.6   96   763 
 2020-09-13 06:30:55  3.6   96   763 
 2020-09-13 06:25:51  3.5   96   763 
 2020-09-13 06:20:47  3.8   97   763 
 2020-09-13 06:15:43  3.7   97   763 
 2020-09-13 06:10:39  3.8   96   763 
 2020-09-13 06:05:35  4.1   96   762 
 2020-09-13 06:00:31  3.9   96   762 
 2020-09-13 05:55:27  3.9   95   762 
 2020-09-13 05:50:23  4.2   97   762 
 2020-09-13 05:45:18  4.2   97   762 
 2020-09-13 05:40:14  4.3   98   762 
 2020-09-13 05:35:10  4.2   98   762 
 2020-09-13 05:30:06  4.2   98   762 
 2020-09-13 05:25:02  4.5   96   762 
 2020-09-13 05:19:58  4.4   97   762 
 2020-09-13 05:14:54  4.4   97   762 
 2020-09-13 05:09:49  4.4   97   762 
 2020-09-13 05:04:45  4.4   98   762 
 2020-09-13 04:59:41  4.5   98   762 
 2020-09-13 04:54:37  4.5   97   762 
 2020-09-13 04:49:33  4.8   96   762 
 2020-09-13 04:44:29  5.1   97   762 
 2020-09-13 04:39:25  5.2   97   762 
 2020-09-13 04:34:20  5.2   97   762 
 2020-09-13 04:29:16  5.3   97   762 
 2020-09-13 04:24:12  5.3   96   762 
 2020-09-13 04:19:08  5.4   96   762 
 2020-09-13 04:14:04  5.4   97   762 
 2020-09-13 04:09:00  5.4   97   762 
 2020-09-13 04:03:56  5.4   97   762 
 2020-09-13 03:58:52  5.4   96   762 
 2020-09-13 03:53:47  5.5   96   762 
 2020-09-13 03:48:43  5.5   96   762 
 2020-09-13 03:43:39  5.4   95   762 
 2020-09-13 03:38:35  5.5   95   762 
 2020-09-13 03:33:31  5.5   95   762 
 2020-09-13 03:28:27  5.5   95   762 
 2020-09-13 03:23:23  5.4   95   762 
 2020-09-13 03:18:19  5.6   95   762 
 2020-09-13 03:13:14  5.6   95   762 
 2020-09-13 03:08:10  5.7   95   762 
 2020-09-13 03:03:06  5.7   95   762 
 2020-09-13 02:58:02  5.8   95   762 
 2020-09-13 02:52:58  5.9   95   762 
 2020-09-13 02:47:54  6.1   95   762 
 2020-09-13 02:42:50  6.1   96   762 
 2020-09-13 02:37:46  6.1   96   762 
 2020-09-13 02:32:42  6.2   96   762 
 2020-09-13 02:27:38  6.2   96   762 
 2020-09-13 02:22:34  6.2   96   762 
 2020-09-13 02:17:30  6.3   96   762 
 2020-09-13 02:12:26  6.4   96   762 
 2020-09-13 02:07:21  6.5   96   762 
 2020-09-13 02:02:17  6.6   96   762 
 2020-09-13 01:57:13  6.6   96   762 
 2020-09-13 01:52:09  6.8   96   762 
 2020-09-13 01:47:05  6.8   96   762 
 2020-09-13 01:42:01  6.8   95   762 
 2020-09-13 01:36:57  6.8   95   762 
 2020-09-13 01:31:53  6.9   95   762 
 2020-09-13 01:26:49  6.9   95   762 
 2020-09-13 01:21:44  6.9   95   762 
 2020-09-13 01:16:40  7.1   94   762 
 2020-09-13 01:11:36  7.1   95   762 
 2020-09-13 01:06:32  7.2   95   762 
 2020-09-13 01:01:28  7.2   95   762 
 2020-09-13 00:56:24  7.4   95   762 
 2020-09-13 00:51:20  7.3   95   762 
 2020-09-13 00:46:16  7.4   95   762 
 2020-09-13 00:41:11  7.6   95   762 
 2020-09-13 00:36:07  7.6   95   762 
 2020-09-13 00:31:03  7.6   95   762 
 2020-09-13 00:25:59  7.8   95   762 
 2020-09-13 00:20:55  7.8   95   762 
 2020-09-13 00:15:51  7.8   95   762 
 2020-09-13 00:10:47  7.8   94   762 
 2020-09-13 00:05:43  7.9   94   762 
 2020-09-13 00:00:38  7.9   95   762 
 2020-09-12 23:55:34  7.9   95   762 
 2020-09-12 23:50:30  8.1   94   762 
 2020-09-12 23:45:26  8.2   94   762 
 2020-09-12 23:40:22  8.2   94   762 
 2020-09-12 23:35:18  8.2   94   762 
 2020-09-12 23:30:14  8.3   94   762 
 2020-09-12 23:25:10  8.4   94   762 
 2020-09-12 23:20:06  8.5   94   762 
 2020-09-12 23:15:02  8.6   93   762 
 2020-09-12 23:09:58  8.6   93   762 
 2020-09-12 23:04:54  8.8   93   762 
 2020-09-12 22:59:50  8.9   92   762 
 2020-09-12 22:54:46  8.9   92   762 
 2020-09-12 22:49:42  8.9   91   762 
 2020-09-12 22:44:38  9.1   91   762 
 2020-09-12 22:39:34  9.2   91   762 
 2020-09-12 22:34:29  9.4   91   762 
 2020-09-12 22:29:25  9.4   90   762 
 2020-09-12 22:24:20  9.5   89   762 
 2020-09-12 22:19:16  9.6   89   762 
 2020-09-12 22:14:12  9.8   88   762 
 2020-09-12 22:09:08  9.9   88   762 
 2020-09-12 22:04:04  9.8   88   762 
 2020-09-12 21:59:00  9.9   87   762 
 2020-09-12 21:53:56  10.1   87   762 
 2020-09-12 21:48:52  10.2   86   762 
 2020-09-12 21:43:48  10.3   85   762 
 2020-09-12 21:38:44  10.3   85   762 
 2020-09-12 21:33:40  10.4   85   762 
 2020-09-12 21:28:36  10.5   85   762 
 2020-09-12 21:23:32  10.6   85   762 
 2020-09-12 21:18:28  10.6   85   762 
 2020-09-12 21:13:23  10.7   84   762 
 2020-09-12 21:08:19  10.8   84   762 
 2020-09-12 21:03:15  10.9   83   762 
 2020-09-12 20:58:08  11.0   83   762 
 2020-09-12 20:53:04  11.1   82   762 
 2020-09-12 20:48:00  11.2   82   762 
 2020-09-12 20:42:56  11.3   80   762 
 2020-09-12 20:37:52  11.5   80   762 
 2020-09-12 20:32:48  11.6   80   762 
 2020-09-12 20:27:44  11.8   77   762 
 2020-09-12 20:22:40  12.1   76   762 
 2020-09-12 20:17:36  12.1   77   762 
 2020-09-12 20:12:32  12.3   75   762 
 2020-09-12 20:07:28  12.6   74   762 
 2020-09-12 20:02:24  12.9   72   762 
 2020-09-12 19:57:20  13.0   71   762 
 2020-09-12 19:52:16  13.1   70   762 
 2020-09-12 19:47:12  13.4   70   762 
 2020-09-12 19:42:08  13.6   69   762 
 2020-09-12 19:37:04  13.7   68   762 
 2020-09-12 19:32:00  13.8   67   762 
 2020-09-12 19:26:56  13.9   66   762 
 2020-09-12 19:21:51  14.1   65   762 
 2020-09-12 19:16:47  14.3   64   762 
 2020-09-12 19:11:43  14.5   62   762 
 2020-09-12 19:06:39  14.8   61   762 
 2020-09-12 19:01:35  14.8   60   762 
 2020-09-12 18:56:31  14.9   60   762 
 2020-09-12 18:51:27  15.0   59   762 
 2020-09-12 18:46:23  15.2   59   762 
 2020-09-12 18:41:19  15.2   59   762 
 2020-09-12 18:36:15  15.3   58   762 
 2020-09-12 18:31:11  15.4   57   762 
 2020-09-12 18:26:07  15.5   57   762 
 2020-09-12 18:21:03  15.5   56   762 
 2020-09-12 18:15:59  15.6   56   762 
 2020-09-12 18:10:55  15.8   54   762 
 2020-09-12 18:05:51  15.9   53   762 
 2020-09-12 17:55:34  16.1   53   762 
 2020-09-12 17:50:29  16.3   53   762 
 2020-09-12 17:45:25  16.4   52   762 
 2020-09-12 17:40:21  16.7   51   762 
 2020-09-12 17:30:06  17.2   49   762 
 2020-09-12 17:25:02  17.3   52   762 
 2020-09-12 17:19:58  17.1   51   762 
 2020-09-12 17:14:54  17.0   52   762 
 2020-09-12 17:09:50  17.0   52   762 
 2020-09-12 17:04:46  16.9   54   762 
 2020-09-12 16:59:42  16.8   54   762 
 2020-09-12 16:54:38  16.9   53   762 
 2020-09-12 16:49:34  16.5   54   762 
 2020-09-12 16:44:30  16.3   56   762 
 2020-09-12 16:39:26  16.1   56   762 
 2020-09-12 16:34:22  16.0   56   762 
 2020-09-12 16:29:17  15.9   58   762 
 2020-09-12 16:24:13  15.7   58   762 
 2020-09-12 16:19:09  15.7   58   762 
 2020-09-12 16:14:05  15.8   57   762 
 2020-09-12 16:09:01  15.8   58   762 
 2020-09-12 16:03:57  15.8   58   762 
 2020-09-12 15:58:53  15.8   59   762 
 2020-09-12 15:53:49  16.0   58   762 
 2020-09-12 15:48:45  15.9   60   762 
 2020-09-12 15:43:41  15.8   60   762 
 2020-09-12 15:38:37  15.8   62   762 
 2020-09-12 15:33:33  15.6   62   762 
 2020-09-12 15:28:29  15.6   62   762 
 2020-09-12 15:23:25  15.1   63   762 
 2020-09-12 15:18:21  15.1   65   762 
 2020-09-12 15:13:17  15.4   64   762 
 2020-09-12 15:08:13  15.6   62   762 
 2020-09-12 15:03:09  16.0   62   762 
 2020-09-12 14:58:04  15.9   61   762 
 2020-09-12 14:53:00  15.6   62   762 
 2020-09-12 14:47:56  15.5   62   762 
 2020-09-12 14:42:52  15.7   62   762 
 2020-09-12 14:37:48  15.9   61   762 
 2020-09-12 14:32:44  16.2   60   762 
 2020-09-12 14:27:40  15.9   61   762 
 2020-09-12 14:22:36  15.8   61   762 
 2020-09-12 14:17:32  15.6   62   762 
 2020-09-12 14:12:28  15.6   62   762 
 2020-09-12 14:07:24  15.4   62   762 
 2020-09-12 14:02:20  15.4   63   762 
 2020-09-12 13:57:16  15.4   64   762 
 2020-09-12 13:52:11  15.1   64   762 
 2020-09-12 13:47:07  15.1   66   762 
 2020-09-12 13:42:03  14.9   67   763 
 2020-09-12 13:36:59  14.7   65   763 
 2020-09-12 13:31:55  14.6   67   763 
 2020-09-12 13:26:51  14.4   67   763 
 2020-09-12 13:21:47  14.3   67   763 
 2020-09-12 13:16:43  14.2   68   763 
 2020-09-12 13:11:39  14.1   68   763 
 2020-09-12 13:06:35  14.0   70   763 
 2020-09-12 13:01:31  14.1   68   763 
 2020-09-12 12:56:27  14.1   69   763 
 2020-09-12 12:51:23  14.0   68   763 
 2020-09-12 12:46:19  14.2   70   763 
 2020-09-12 12:41:15  14.0   71   763 
 2020-09-12 12:36:11  13.6   72   763 
 2020-09-12 12:31:07  13.4   71   763 
 2020-09-12 12:26:03  13.4   72   763 
 2020-09-12 12:20:59  13.2   74   763 
 2020-09-12 12:15:55  12.9   74   763 
 2020-09-12 12:10:50  12.7   75   763 
 2020-09-12 12:05:46  12.8   75   763 
 2020-09-12 12:00:42  12.7   75   763 
 2020-09-12 11:55:38  12.7   75   763 
 2020-09-12 11:50:34  12.5   75   763 
 2020-09-12 11:45:30  12.8   74   763 
 2020-09-12 11:40:26  12.7   75   763 
 2020-09-12 11:35:22  12.6   75   763 
 2020-09-12 11:30:18  12.6   74   763 
 2020-09-12 11:25:14  12.9   74   763 
 2020-09-12 11:20:09  13.0   73   763 
 2020-09-12 11:15:05  12.7   76   763 
 2020-09-12 11:10:01  12.3   75   763 
 2020-09-12 11:04:57  11.8   79   763 
 2020-09-12 10:59:53  11.6   79   763 
 2020-09-12 10:54:49  11.5   79   763 
 2020-09-12 10:49:45  11.3   79   763 
 2020-09-12 10:44:41  11.1   80   763 
 2020-09-12 10:39:37  11.1   80   763 
 2020-09-12 10:34:33  11.1   80   763 
 2020-09-12 10:29:29  11.0   81   763 
 2020-09-12 10:24:25  10.9   80   763 
 2020-09-12 10:19:21  10.9   81   763 
 2020-09-12 10:14:17  10.8   81   763 
 2020-09-12 10:09:13  11.0   79   763 
 2020-09-12 10:04:08  11.1   79   763 
 2020-09-12 09:59:04  10.9   80   763 
 2020-09-12 09:54:00  10.8   82   763 
 2020-09-12 09:48:56  10.6   82   763 
 2020-09-12 09:43:52  10.4   82   763 
 2020-09-12 09:38:48  10.2   82   763 
 2020-09-12 09:33:44  10.1   84   763 
 2020-09-12 09:28:40  9.7   85   763 
 2020-09-12 09:23:36  9.6   86   763 
 2020-09-12 09:18:32  9.6   86   763 
 2020-09-12 09:13:28  9.6   86   763 
 2020-09-12 09:08:24  9.4   87   763 
 2020-09-12 09:03:20  9.2   88   763 
 2020-09-12 08:58:16  8.8   88   763 
 2020-09-12 08:53:12  8.9   88   763 
 2020-09-12 08:48:08  8.9   88   763 
 2020-09-12 08:43:04  8.7   91   763 
 2020-09-12 08:38:00  8.3   92   763 
 2020-09-12 08:32:55  8.1   92   763 
 2020-09-12 08:27:51  8.0   92   763 
 2020-09-12 08:22:47  7.8   93   763 
 2020-09-12 08:17:43  7.7   93   763 
 2020-09-12 08:12:39  7.7   93   763 
 2020-09-12 08:07:35  7.6   94   763 
 2020-09-12 08:02:31  7.6   94   763 
 2020-09-12 07:57:27  7.4   94   763 
 2020-09-12 07:52:23  7.5   94   763 
 2020-09-12 07:47:19  7.4   94   763 
 2020-09-12 07:42:14  7.4   94   763 
 2020-09-12 07:37:10  7.4   94   763 
 2020-09-12 07:32:06  7.4   93   763 
 2020-09-12 07:27:02  7.4   93   763 
 2020-09-12 07:21:58  7.4   94   763 
 2020-09-12 07:16:54  7.2   94   763 
 2020-09-12 07:11:50  7.2   94   763 
 2020-09-12 07:06:46  7.2   94   763 
 2020-09-12 07:01:42  7.1   95   763 
 2020-09-12 06:56:38  7.1   95   763 
 2020-09-12 06:51:34  7.0   95   763 
 2020-09-12 06:46:29  6.9   96   763 
 2020-09-12 06:41:25  6.8   96   763 
 2020-09-12 06:36:21  6.8   97   763 
 2020-09-12 06:31:17  6.7   97   763 
 2020-09-12 06:26:13  6.6   97   763 
 2020-09-12 06:21:09  6.6   97   763 
 2020-09-12 06:16:05  6.6   97   763 
 2020-09-12 06:11:01  6.5   97   763 
 2020-09-12 06:05:57  6.6   97   763 
 2020-09-12 06:00:53  6.5   97   763 
 2020-09-12 05:55:49  6.4   97   763 
 2020-09-12 05:50:45  6.5   97   763 
 2020-09-12 05:45:41  6.6   96   763 
 2020-09-12 05:40:37  6.6   96   763 
 2020-09-12 05:35:33  6.8   96   763 
 2020-09-12 05:30:29  6.7   96   763 
 2020-09-12 05:25:25  6.8   96   763 
 2020-09-12 05:20:21  6.7   96   763 
 2020-09-12 05:15:17  6.6   96   763 
 2020-09-12 05:10:13  6.8   95   763 
 2020-09-12 05:05:09  6.8   95   763 
 2020-09-12 05:00:05  6.9   94   763 
 2020-09-12 04:55:01  6.9   95   763 
 2020-09-12 04:49:56  6.7   95   763 
 2020-09-12 04:44:52  6.7   95   763 
 2020-09-12 04:39:48  6.8   95   763 
 2020-09-12 04:34:44  6.8   95   763 
 2020-09-12 04:29:40  6.7   95   763 
 2020-09-12 04:24:36  6.8   95   763 
 2020-09-12 04:19:32  6.7   95   763 
 2020-09-12 04:14:28  6.7   95   763 
 2020-09-12 04:09:24  6.6   95   763 
 2020-09-12 04:04:20  6.6   95   763 
 2020-09-12 03:59:16  6.5   95   763 
 2020-09-12 03:54:12  6.6   96   763 
 2020-09-12 03:49:08  6.6   96   763 
 2020-09-12 03:44:04  6.6   96   763 
 2020-09-12 03:39:00  6.5   96   763 
 2020-09-12 03:33:56  6.4   96   763 
 2020-09-12 03:28:52  6.4   96   763 
 2020-09-12 03:23:48  6.4   96   763 
 2020-09-12 03:18:43  6.4   96   763 
 2020-09-12 03:13:39  6.5   95   763 
 2020-09-12 03:08:35  6.6   95   763 
 2020-09-12 03:03:31  6.6   95   763 
 2020-09-12 02:58:27  6.7   94   763 
 2020-09-12 02:53:23  6.8   94   763 
 2020-09-12 02:48:19  6.9   94   763 
 2020-09-12 02:43:15  6.9   93   763 
 2020-09-12 02:38:11  7.1   93   763 
 2020-09-12 02:33:07  7.4   92   763 
 2020-09-12 02:28:03  7.5   92   763 
 2020-09-12 02:22:59  7.5   92   763 
 2020-09-12 02:17:55  7.6   91   763 
 2020-09-12 02:12:51  7.7   90   763 
 2020-09-12 02:07:47  7.6   91   763 
 2020-09-12 02:02:43  7.6   91   763 
 2020-09-12 01:57:39  7.6   90   763 
 2020-09-12 01:52:35  7.6   91   763 
 2020-09-12 01:47:31  7.6   91   763 
 2020-09-12 01:42:26  7.5   92   763 
 2020-09-12 01:37:22  7.4   92   763 
 2020-09-12 01:32:18  7.3   92   763 
 2020-09-12 01:27:14  7.2   93   763 
 2020-09-12 01:22:10  7.1   93   763 
 2020-09-12 01:17:06  6.9   94   763 
 2020-09-12 01:12:02  7.1   94   763 
 2020-09-12 01:06:58  7.0   94   763 
 2020-09-12 01:01:54  6.9   94   763 
 2020-09-12 00:56:50  6.8   95   763 
 2020-09-12 00:51:46  6.8   94   763 
 2020-09-12 00:46:42  6.9   93   763 
 2020-09-12 00:41:38  6.9   93   762 
 2020-09-12 00:36:34  6.9   92   763 
 2020-09-12 00:31:30  6.9   93   763 
 2020-09-12 00:26:26  6.9   93   763 
 2020-09-12 00:21:22  6.9   93   763 
 2020-09-12 00:16:18  6.9   93   763 
 2020-09-12 00:11:14  6.9   93   763 
 2020-09-12 00:06:10  7.0   92   763 
 2020-09-12 00:01:05  6.9   92   763 
 2020-09-11 23:56:01  7.0   93   763 
 2020-09-11 23:50:57  6.9   93   763 
 2020-09-11 23:45:53  7.0   93   763 
 2020-09-11 23:40:49  7.1   92   763 
 2020-09-11 23:35:45  7.2   93   763 
 2020-09-11 23:30:41  7.2   92   763 
 2020-09-11 23:25:37  7.2   92   763 
 2020-09-11 23:20:33  7.2   93   763 
 2020-09-11 23:15:29  7.1   94   763 
 2020-09-11 23:10:25  7.0   93   763 
 2020-09-11 23:05:21  7.4   93   763 
 2020-09-11 23:00:17  7.4   93   763 
 2020-09-11 22:55:13  7.4   92   763 
 2020-09-11 22:50:09  7.4   93   763 
 2020-09-11 22:45:05  7.4   94   763 
 2020-09-11 22:40:01  7.3   93   763 
 2020-09-11 22:34:56  7.4   93   763 
 2020-09-11 22:29:52  7.5   93   763 
 2020-09-11 22:24:48  7.5   93   763 
 2020-09-11 22:19:43  7.5   92   763 
 2020-09-11 22:14:39  7.6   92   763 
 2020-09-11 22:09:35  7.6   92   763 
 2020-09-11 22:04:31  7.7   91   763 
 2020-09-11 21:59:27  7.8   91   763 
 2020-09-11 21:54:23  7.9   91   762 
 2020-09-11 21:49:19  7.9   90   762 
 2020-09-11 21:44:14  8.1   90   762 
 2020-09-11 21:39:10  8.2   90   762 
 2020-09-11 21:34:06  8.2   90   762 
 2020-09-11 21:29:02  8.3   89   762 
 2020-09-11 21:23:57  8.4   89   762 
 2020-09-11 21:18:53  8.5   88   762 
 2020-09-11 21:13:49  8.6   88   762 
 2020-09-11 21:08:45  8.8   87   762 
 2020-09-11 21:03:41  8.9   86   762 
 2020-09-11 20:58:37  8.9   86   762 
 2020-09-11 20:53:33  9.1   85   762 
 2020-09-11 20:48:29  9.1   85   762 
 2020-09-11 20:43:25  9.3   84   762 
 2020-09-11 20:38:21  9.4   83   762 
 2020-09-11 20:33:17  9.7   82   762 
 2020-09-11 20:28:13  9.8   79   762 
 2020-09-11 20:23:09  10.1   79   762 
 2020-09-11 20:18:04  10.2   77   762 
 2020-09-11 20:13:00  10.5   75   762 
 2020-09-11 20:07:56  10.5   74   762 
 2020-09-11 20:02:52  10.7   74   762 
 2020-09-11 19:57:48  10.8   73   762 
 2020-09-11 19:52:44  11.0   71   762 
 2020-09-11 19:47:40  11.1   71   762 
 2020-09-11 19:42:36  11.2   69   762 
 2020-09-11 19:37:32  11.4   70   762 
 2020-09-11 19:32:28  11.6   68   762 
 2020-09-11 19:27:24  11.8   68   762 
 2020-09-11 19:22:20  11.9   67   762 
 2020-09-11 19:17:16  12.1   67   762 
 2020-09-11 19:12:12  12.2   68   762 
 2020-09-11 19:07:08  12.2   65   762 
 2020-09-11 19:02:04  12.6   63   762 
 2020-09-11 18:57:00  12.9   62   762 
 2020-09-11 18:51:55  13.1   60   761 
 2020-09-11 18:46:51  13.2   59   761 
 2020-09-11 18:41:47  13.3   58   761 
 2020-09-11 18:36:43  13.4   58   761 
 2020-09-11 18:31:39  13.5   58   761 
 2020-09-11 18:26:35  13.4   58   761 
 2020-09-11 18:21:31  13.8   57   761 
 2020-09-11 18:16:27  13.9   55   761 
 2020-09-11 18:11:23  14.0   55   761 
 2020-09-11 18:06:19  14.0   54   761 
 2020-09-11 18:01:15  14.2   54   761 
 2020-09-11 17:56:11  14.1   54   761 
 2020-09-11 17:51:07  14.2   54   761 
 2020-09-11 17:46:03  14.2   54   761 
 2020-09-11 17:40:59  14.4   55   761 
 2020-09-11 17:35:55  14.5   53   761 
 2020-09-11 17:30:51  14.5   54   761 
 2020-09-11 17:25:47  14.6   54   761 
 2020-09-11 17:20:43  14.7   52   761 
 2020-09-11 17:15:39  14.8   54   761 
 2020-09-11 17:10:34  14.8   52   761 
 2020-09-11 17:05:30  15.0   52   761 
 2020-09-11 17:00:26  15.1   52   761 
 2020-09-11 16:55:22  15.0   53   761 
 2020-09-11 16:50:18  15.2   53   761 
 2020-09-11 16:45:14  15.2   52   761 
 2020-09-11 16:40:10  15.4   52   761 
 2020-09-11 16:35:06  15.4   52   761 
 2020-09-11 16:30:02  15.5   51   761 
 2020-09-11 16:24:58  15.4   52   761 
 2020-09-11 16:19:54  15.2   54   761 
 2020-09-11 16:14:50  15.2   55   761 
 2020-09-11 16:09:46  15.1   53   761 
 2020-09-11 16:04:42  14.9   55   761 
 2020-09-11 15:59:38  14.6   58   761 
 2020-09-11 15:54:34  14.3   56   761 
 2020-09-11 15:49:30  14.2   57   761 
 2020-09-11 15:44:25  14.1   59   761 
 2020-09-11 15:39:21  14.0   60   761 
 2020-09-11 15:34:17  13.8   62   761 
 2020-09-11 15:29:13  13.8   62   761 
 2020-09-11 15:24:09  13.6   63   761 
 2020-09-11 15:19:05  13.7   62   761 
 2020-09-11 15:14:01  13.9   60   761 
 2020-09-11 15:08:57  14.2   63   761 
 2020-09-11 15:03:53  14.1   62   761 
 2020-09-11 14:58:49  13.8   63   761 
 2020-09-11 14:53:45  13.6   62   761 
 2020-09-11 14:48:41  13.8   64   761 
 2020-09-11 14:43:37  13.7   64   761 
 2020-09-11 14:38:33  13.7   64   761 
 2020-09-11 14:33:28  13.8   63   761 
 2020-09-11 14:28:24  13.8   65   761 
 2020-09-11 14:23:20  13.7   63   761 
 2020-09-11 14:18:16  13.5   62   761 
 2020-09-11 14:13:12  13.6   65   761 
 2020-09-11 14:08:08  13.6   65   761 
 2020-09-11 14:03:04  13.5   67   761 
 2020-09-11 13:58:00  13.5   63   761 
 2020-09-11 13:52:56  13.6   66   761 
 2020-09-11 13:47:52  14.1   64   761 
 2020-09-11 13:42:48  14.1   63   761 
 2020-09-11 13:37:44  13.9   68   761 
 2020-09-11 13:32:40  13.4   69   761 
 2020-09-11 13:27:36  13.2   71   761 
 2020-09-11 13:22:32  12.9   73   761 
 2020-09-11 13:17:27  12.9   73   761 
 2020-09-11 13:12:23  12.9   73   761 
 2020-09-11 13:07:19  12.8   67   761 
 2020-09-11 13:02:15  12.8   65   761 
 2020-09-11 12:57:11  12.4   70   761 
 2020-09-11 12:52:07  12.1   68   761 
 2020-09-11 12:47:03  11.8   69   761 
 2020-09-11 12:41:59  11.7   72   761 
 2020-09-11 12:36:55  11.7   74   761 
 2020-09-11 12:31:51  11.8   79   761 
 2020-09-11 12:26:47  11.8   81   761 
 2020-09-11 12:21:43  11.8   79   761 
 2020-09-11 12:16:39  12.2   78   761 
 2020-09-11 12:11:35  11.9   81   761 
 2020-09-11 12:06:31  11.6   82   761 
 2020-09-11 12:01:27  11.3   83   761 
 2020-09-11 11:56:22  10.9   85   761 
 2020-09-11 11:51:18  10.8   86   761 
 2020-09-11 11:46:14  10.8   86   761 
 2020-09-11 11:41:10  10.5   87   761 
 2020-09-11 11:36:06  10.1   89   761 
 2020-09-11 11:31:02  9.6   90   761 
 2020-09-11 11:25:58  9.8   91   761 
 2020-09-11 11:20:54  9.1   91   762 
 2020-09-11 11:15:50  9.2   90   762 
 2020-09-11 11:10:46  9.0   92   762 
 2020-09-11 11:05:42  8.8   92   762 
 2020-09-11 11:00:38  8.7   93   762 
 2020-09-11 10:55:34  8.2   94   762 
 2020-09-11 10:50:30  7.8   96   762 
 2020-09-11 10:45:26  7.3   98   762 
 2020-09-11 10:40:22  7.1   97   762 
 2020-09-11 10:35:18  7.6   96   762 
 2020-09-11 10:30:14  7.2   98   762 
 2020-09-11 10:25:10  7.1   95   762 
 2020-09-11 10:20:05  7.1   94   762 
 2020-09-11 10:15:01  7.0   94   761 
 2020-09-11 10:09:57  6.8   95   761 
 2020-09-11 10:04:53  6.3   96   761 
 2020-09-11 09:59:49  6.1   95   761 
 2020-09-11 09:54:45  6.0   97   761 
 2020-09-11 09:49:41  5.6   97   761 
 2020-09-11 09:44:37  5.4   97   761 
 2020-09-11 09:39:33  5.7   93   761 
 2020-09-11 09:34:29  5.6   94   761 
 2020-09-11 09:29:25  5.6   95   761 
 2020-09-11 09:19:17  5.1   93   761 
 2020-09-11 09:14:13  4.8   94   761 
 2020-09-11 09:09:09  4.6   95   761 
 2020-09-11 09:04:04  4.4   94   761 
 2020-09-11 08:59:00  4.2   94   761 
 2020-09-11 08:53:56  4.2   93   761 
 2020-09-11 08:48:52  4.1   93   761 
 2020-09-11 08:43:48  4.2   93   761 
 2020-09-11 08:38:44  4.2   93   761 
 2020-09-11 08:33:40  4.1   91   761 
 2020-09-11 08:28:36  4.3   94   761 
 2020-09-11 08:23:32  3.5   96   761 
 2020-09-11 08:18:28  3.1   97   761 
 2020-09-11 08:13:24  2.9   97   761 
 2020-09-11 08:08:19  2.5   98   761 
 2020-09-11 08:03:15  2.2   96   761 
 2020-09-11 07:58:11  2.4   96   761 
 2020-09-11 07:53:07  2.1   97   761 
 2020-09-11 07:48:03  1.9   97   761 
 2020-09-11 07:42:59  1.9   97   761 
 2020-09-11 07:37:55  1.7   97   761 
 2020-09-11 07:32:51  1.8   96   761 
 2020-09-11 07:27:47  1.7   96   761 
 2020-09-11 07:22:42  1.8   96   761 
 2020-09-11 07:17:38  1.9   96   761 
 2020-09-11 07:12:34  1.8   96   761 
 2020-09-11 07:07:30  1.8   97   761 
 2020-09-11 07:02:26  1.8   97   761 
 2020-09-11 06:57:22  1.9   97   761 
 2020-09-11 06:52:16  1.9   98   761 
 2020-09-11 06:47:12  1.8   97   761 
 2020-09-11 06:42:08  1.8   99   761 
 2020-09-11 06:37:04  1.9   99   761 
 2020-09-11 06:31:59  1.8   99   761 
 2020-09-11 06:26:55  1.9   99   761 
 2020-09-11 06:21:51  1.9   99   760 
 2020-09-11 06:16:47  1.8   98   760 
 2020-09-11 06:11:43  1.9   98   760 
 2020-09-11 06:06:39  1.9   98   760 
 2020-09-11 06:01:35  1.9   99   760 
 2020-09-11 05:56:30  1.8   98   760 
 2020-09-11 05:51:26  1.9   99   760 
 2020-09-11 05:46:22  2.1   99   760 
 2020-09-11 05:41:18  2.2   99   760 
 2020-09-11 05:36:14  2.1   100   760 
 2020-09-11 05:31:10  2.0   100   760 
 2020-09-11 05:26:06  1.9   100   760 
 2020-09-11 05:21:02  2.1   99   760 
 2020-09-11 05:15:57  2.2   99   760 
 2020-09-11 05:10:53  2.4   99   760 
 2020-09-11 05:05:49  2.6   99   760 
 2020-09-11 05:00:45  2.6   99   760 
 2020-09-11 04:55:41  2.7   100   760 
 2020-09-11 04:50:37  2.8   100   760 
 2020-09-11 04:45:33  2.8   99   760 
 2020-09-11 04:40:28  2.8   99   760 
 2020-09-11 04:35:24  2.6   99   760 
 2020-09-11 04:30:20  2.8   99   760 
 2020-09-11 04:25:16  3.0   99   760 
 2020-09-11 04:20:12  3.0   99   760 
 2020-09-11 04:15:08  3.2   99   760 
 2020-09-11 04:10:04  3.2   99   760 
 2020-09-11 04:04:59  3.2   100   760 
 2020-09-11 03:59:55  3.2   99   760 
 2020-09-11 03:54:51  3.3   100   760 
 2020-09-11 03:49:47  3.4   100   760 
 2020-09-11 03:44:43  3.3   100   760 
 2020-09-11 03:39:39  3.4   100   760 
 2020-09-11 03:34:35  3.3   99   760 
 2020-09-11 03:29:31  3.3   99   760 
 2020-09-11 03:24:27  3.4   98   760 
 2020-09-11 03:19:22  3.4   98   759 
 2020-09-11 03:14:18  3.6   98   759 
 2020-09-11 03:09:14  3.8   99   759 
 2020-09-11 03:04:10  3.9   99   759 
 2020-09-11 02:59:06  3.9   100   759 
 2020-09-11 02:54:02  4.1   100   759 
 2020-09-11 02:48:58  4.0   100   759 
 2020-09-11 02:43:54  3.9   100   759 
 2020-09-11 02:38:49  3.9   100   759 
 2020-09-11 02:33:45  4.2   100   759 
 2020-09-11 02:28:41  4.2   100   759 
 2020-09-11 02:23:37  4.1   100   759 
 2020-09-11 02:18:33  4.2   100   759 
 2020-09-11 02:13:29  4.2   100   759 
 2020-09-11 02:08:25  4.2   100   759 
 2020-09-11 02:03:20  4.2   100   759 
 2020-09-11 01:58:16  4.3   99   759 
 2020-09-11 01:53:12  4.4   100   759 
 2020-09-11 01:48:08  4.4   100   759 
 2020-09-11 01:43:04  4.3   100   759 
 2020-09-11 01:38:00  4.3   100   759 
 2020-09-11 01:32:56  4.4   100   759 
 2020-09-11 01:27:52  4.4   100   759 
 2020-09-11 01:22:47  4.3   100   759 
 2020-09-11 01:17:43  4.5   100   759 
 2020-09-11 01:12:39  4.4   100   759 
 2020-09-11 01:07:35  4.5   100   759 
 2020-09-11 01:02:31  4.6   100   759 
 2020-09-11 00:57:27  4.7   100   759 
 2020-09-11 00:52:23  4.9   100   759 
 2020-09-11 00:47:19  4.9   100   759 
 2020-09-11 00:42:14  4.9   100   759 
 2020-09-11 00:37:10  5.0   100   759 
 2020-09-11 00:32:06  5.0   100   759 
 2020-09-11 00:27:02  5.1   100   759 
 2020-09-11 00:21:58  5.1   100   759 
 2020-09-11 00:16:54  5.1   99   759 
 2020-09-11 00:11:50  5.2   99   759 
 2020-09-11 00:06:46  5.2   100   759 
 2020-09-11 00:01:42  5.2   100   759 
 2020-09-10 23:56:38  5.2   100   759 
 2020-09-10 23:51:33  5.2   100   759 
 2020-09-10 23:46:29  5.2   100   759 
 2020-09-10 23:41:25  5.3   100   759 
 2020-09-10 23:36:21  5.4   99   759 
 2020-09-10 23:31:17  5.4   99   759 
 2020-09-10 23:26:13  5.6   99   759 
 2020-09-10 23:21:09  5.6   100   759 
 2020-09-10 23:16:05  5.8   100   759 
 2020-09-10 23:11:01  5.8   99   759 
 2020-09-10 23:05:57  5.9   99   759 
 2020-09-10 23:00:53  6.1   100   759 
 2020-09-10 22:55:49  6.1   100   759 
 2020-09-10 22:50:45  6.2   100   759 
 2020-09-10 22:45:40  6.1   100   759 
 2020-09-10 22:40:36  6.2   100   759 
 2020-09-10 22:35:32  6.2   100   759 
 2020-09-10 22:30:28  6.2   100   759 
 2020-09-10 22:25:24  6.3   100   759 
 2020-09-10 22:20:20  6.3   100   759 
 2020-09-10 22:15:16  6.4   100   759 
 2020-09-10 22:10:10  6.5   100   759 
 2020-09-10 22:05:06  6.7   99   759 
 2020-09-10 22:00:01  6.8   99   759 
 2020-09-10 21:54:57  6.7   99   759 
 2020-09-10 21:49:53  6.9   99   759 
 2020-09-10 21:44:49  6.9   99   759 
 2020-09-10 21:39:45  7.0   100   759 
 2020-09-10 21:34:41  7.0   99   759 
 2020-09-10 21:29:37  7.1   100   759 
 2020-09-10 21:24:32  7.1   100   759 
 2020-09-10 21:19:28  7.1   99   759 
 2020-09-10 21:14:24  7.2   98   759 
 2020-09-10 21:09:20  7.4   98   759 
 2020-09-10 21:04:16  7.4   98   759 
 2020-09-10 20:59:12  7.6   98   758 
 2020-09-10 20:54:08  7.8   99   758 
 2020-09-10 20:49:04  7.8   98   758 
 2020-09-10 20:44:00  7.8   98   758 
 2020-09-10 20:38:56  7.9   97   758 
 2020-09-10 20:33:52  7.9   97   758 
 2020-09-10 20:28:48  7.9   97   758 
 2020-09-10 20:23:44  8.0   97   758 
 2020-09-10 20:18:39  8.0   96   758 
 2020-09-10 20:13:35  8.1   96   758 
 2020-09-10 20:08:31  8.2   96   758 
 2020-09-10 20:03:27  8.2   96   758 
 2020-09-10 19:58:23  8.2   95   758 
 2020-09-10 19:53:19  8.2   95   758 
 2020-09-10 19:48:15  8.2   95   758 
 2020-09-10 19:43:11  8.4   95   758 
 2020-09-10 19:38:07  8.3   94   758 
 2020-09-10 19:33:03  8.4   94   758 
 2020-09-10 19:27:59  8.6   94   758 
 2020-09-10 19:22:55  8.8   93   758 
 2020-09-10 19:17:51  9.1   91   758 
 2020-09-10 19:12:47  9.2   90   758 
 2020-09-10 19:07:42  9.2   88   758 
 2020-09-10 19:02:38  9.2   88   758 
 2020-09-10 18:57:34  9.1   90   758 
 2020-09-10 18:52:30  9.1   91   758 
 2020-09-10 18:47:26  9.1   90   758 
 2020-09-10 18:42:22  9.0   89   758 
 2020-09-10 18:37:18  9.0   89   758 
 2020-09-10 18:32:14  9.1   91   758 
 2020-09-10 18:27:10  9.1   91   758 
 2020-09-10 18:22:05  9.2   91   758 
 2020-09-10 18:17:01  9.4   88   758 
 2020-09-10 18:11:56  9.9   86   758 
 2020-09-10 18:06:52  11.1   82   757 
 2020-09-10 18:01:48  12.2   67   757 
 2020-09-10 17:56:44  12.4   64   757 
 2020-09-10 17:51:40  12.7   64   757 
 2020-09-10 17:46:36  12.8   61   757 
 2020-09-10 17:41:31  12.9   61   757 
 2020-09-10 17:36:27  13.1   63   757 
 2020-09-10 17:31:23  12.9   66   757 
 2020-09-10 17:26:19  12.8   66   757 
 2020-09-10 17:21:15  12.9   67   757 
 2020-09-10 17:16:11  12.6   69   757 
 2020-09-10 17:11:07  12.4   69   757 
 2020-09-10 17:06:03  12.4   67   757 
 2020-09-10 17:00:58  12.5   69   757 
 2020-09-10 16:55:54  12.6   69   757 
 2020-09-10 16:50:50  12.4   67   757 
 2020-09-10 16:45:46  12.4   66   757 
 2020-09-10 16:40:42  12.3   66   757 
 2020-09-10 16:35:38  12.2   66   757 
 2020-09-10 16:30:34  12.2   66   757 
 2020-09-10 16:25:30  12.1   69   757 
 2020-09-10 16:20:26  12.0   70   757 
 2020-09-10 16:15:22  11.9   71   757 
 2020-09-10 16:10:17  11.8   73   757 
 2020-09-10 16:05:13  11.7   73   757 
 2020-09-10 16:00:09  11.6   74   757 
 2020-09-10 15:55:05  11.6   72   757 
 2020-09-10 15:50:01  11.9   70   757 
 2020-09-10 15:44:57  11.9   71   757 
 2020-09-10 15:39:53  12.3   70   757 
 2020-09-10 15:34:49  12.2   68   757 
 2020-09-10 15:29:45  12.7   68   757 
 2020-09-10 15:24:41  12.6   71   757 
 2020-09-10 15:19:37  12.4   70   757 
 2020-09-10 15:14:33  12.4   69   757 
 2020-09-10 15:09:29  12.4   68   757 
 2020-09-10 15:04:25  13.1   66   756 
 2020-09-10 14:59:21  13.6   65   756 
 2020-09-10 14:54:17  13.6   67   756 
 2020-09-10 14:49:13  12.8   66   757 
 2020-09-10 14:44:08  12.8   67   757 
 2020-09-10 14:39:04  12.9   67   757 
 2020-09-10 14:34:00  12.6   70   757 
 2020-09-10 14:28:56  12.4   73   757 
 2020-09-10 14:23:52  12.2   75   757 
 2020-09-10 14:18:48  12.1   73   757 
 2020-09-10 14:13:44  12.3   73   757 
 2020-09-10 14:08:40  12.0   72   757 
 2020-09-10 14:03:36  12.1   73   757 
 2020-09-10 13:58:32  12.6   71   757 
 2020-09-10 13:53:28  12.2   73   757 
 2020-09-10 13:48:24  12.2   71   757 
 2020-09-10 13:43:20  12.0   75   757 
 2020-09-10 13:38:15  12.3   72   757 
 2020-09-10 13:33:11  12.3   75   757 
 2020-09-10 13:28:07  11.8   78   757 
 2020-09-10 13:23:03  12.1   79   757 
 2020-09-10 13:17:59  11.4   77   757 
 2020-09-10 13:12:55  11.2   77   757 
 2020-09-10 13:07:51  11.7   79   757 
 2020-09-10 13:02:47  11.6   76   757 
 2020-09-10 12:57:43  11.3   80   757 
 2020-09-10 12:52:39  11.6   78   757 
 2020-09-10 12:47:35  11.4   82   757 
 2020-09-10 12:42:31  11.6   81   757 
 2020-09-10 12:37:27  11.2   82   757 
 2020-09-10 12:32:23  11.2   83   757 
 2020-09-10 12:27:19  11.3   81   757 
 2020-09-10 12:22:15  11.4   82   757 
 2020-09-10 12:17:11  11.6   78   757 
 2020-09-10 12:12:07  11.5   82   757 
 2020-09-10 12:07:03  11.3   83   757 
 2020-09-10 12:01:59  11.0   84   757 
 2020-09-10 11:56:55  11.2   80   757 
 2020-09-10 11:51:50  10.5   86   757 
 2020-09-10 11:46:46  10.7   85   757 
 2020-09-10 11:41:42  10.8   87   757 
 2020-09-10 11:36:38  10.5   86   757 
 2020-09-10 11:31:34  10.6   88   757 
 2020-09-10 11:26:30  10.2   91   757 
 2020-09-10 11:21:26  9.5   92   757 
 2020-09-10 11:16:22  9.4   91   757 
 2020-09-10 11:11:18  9.6   92   757 
 2020-09-10 11:06:14  9.5   92   757 
 2020-09-10 11:01:10  9.6   92   757 
 2020-09-10 10:56:06  9.4   93   757 
 2020-09-10 10:51:02  9.3   94   757 
 2020-09-10 10:45:58  9.1   93   757 
 2020-09-10 10:40:54  9.6   91   757 
 2020-09-10 10:35:50  9.4   90   757 
 2020-09-10 10:30:46  9.7   91   757 
 2020-09-10 10:25:42  9.8   90   757 
 2020-09-10 10:20:37  9.5   94   757 
 2020-09-10 10:15:33  9.1   95   757 
 2020-09-10 10:10:29  8.8   95   757 
 2020-09-10 10:05:25  8.8   95   757 
 2020-09-10 10:00:21  8.8   93   757 
 2020-09-10 09:55:17  8.9   93   757 
 2020-09-10 09:50:13  8.9   94   757 
 2020-09-10 09:45:09  8.7   93   757 
 2020-09-10 09:40:05  8.5   94   757 
 2020-09-10 09:35:01  8.5   93   757 
 2020-09-10 09:29:57  8.9   92   757 
 2020-09-10 09:24:53  8.8   92   757 
 2020-09-10 09:19:49  8.8   95   757 
 2020-09-10 09:14:45  8.6   94   757 
 2020-09-10 09:09:41  8.4   96   757 
 2020-09-10 09:04:37  8.4   97   757 
 2020-09-10 08:59:33  8.4   97   757 
 2020-09-10 08:54:29  8.2   97   757 
 2020-09-10 08:49:24  8.0   97   757 
 2020-09-10 08:44:20  7.9   97   757 
 2020-09-10 08:39:16  8.0   100   757 
 2020-09-10 08:34:12  7.9   100   757 
 2020-09-10 08:29:08  7.5   100   757 
 2020-09-10 08:24:04  7.5   100   757 
 2020-09-10 08:19:00  7.6   99   757 
 2020-09-10 08:13:56  7.6   100   757 
 2020-09-10 08:08:52  7.4   100   757 
 2020-09-10 08:03:48  7.5   100   756 
 2020-09-10 07:58:44  7.2   100   756 
 2020-09-10 07:53:40  7.3   100   756 
 2020-09-10 07:48:36  7.1   100   756 
 2020-09-10 07:43:32  7.1   100   756 
 2020-09-10 07:38:28  6.9   100   756 
 2020-09-10 07:33:24  6.9   100   757 
 2020-09-10 07:28:20  6.9   100   756 
 2020-09-10 07:23:15  6.9   100   756 
 2020-09-10 07:18:11  6.9   100   757 
 2020-09-10 07:13:07  6.8   100   757 
 2020-09-10 07:08:03  6.6   100   757 
 2020-09-10 07:02:59  6.6   100   757 
 2020-09-10 06:57:55  6.7   100   757 
 2020-09-10 06:52:51  6.8   100   756 
 2020-09-10 06:47:47  6.7   100   757 
 2020-09-10 06:42:43  6.7   100   757 
 2020-09-10 06:37:39  6.6   100   757 
 2020-09-10 06:32:34  6.6   100   756 
 2020-09-10 06:27:30  6.6   100   756 
 2020-09-10 06:22:26  6.8   100   756 
 2020-09-10 06:17:22  6.6   100   756 
 2020-09-10 06:12:18  6.6   100   756 
 2020-09-10 06:07:14  6.6   100   756 
 2020-09-10 06:02:10  6.4   100   756 
 2020-09-10 05:57:06  6.4   100   756 
 2020-09-10 05:52:02  6.4   100   756 
 2020-09-10 05:46:57  6.3   100   756 
 2020-09-10 05:41:53  6.4   100   756 
 2020-09-10 05:36:49  6.4   100   756 
 2020-09-10 05:31:45  6.4   100   756 
 2020-09-10 05:26:41  6.5   100   756 
 2020-09-10 05:21:37  6.6   99   756 
 2020-09-10 05:16:33  6.6   99   756 
 2020-09-10 05:11:29  6.6   99   756 
 2020-09-10 05:06:25  6.6   99   756 
 2020-09-10 05:01:20  6.5   99   756 
 2020-09-10 04:56:16  6.4   100   756 
 2020-09-10 04:51:12  6.5   99   756 
 2020-09-10 04:46:08  6.5   99   756 
 2020-09-10 04:41:04  6.5   99   756 
 2020-09-10 04:36:00  6.6   98   756 
 2020-09-10 04:30:56  6.6   98   756 
 2020-09-10 04:25:52  6.6   98   756 
 2020-09-10 04:20:47  6.4   98   756 
 2020-09-10 04:15:43  6.3   99   756 
 2020-09-10 04:10:39  6.2   99   756 
 2020-09-10 04:05:35  6.1   100   756 
 2020-09-10 04:00:31  6.1   100   756 
 2020-09-10 03:55:27  6.1   100   756 
 2020-09-10 03:50:23  6.1   100   756 
 2020-09-10 03:45:19  5.9   100   756 
 2020-09-10 03:40:14  6.1   99   756 
 2020-09-10 03:35:10  6.2   99   756 
 2020-09-10 03:30:06  6.4   98   756 
 2020-09-10 03:25:02  6.5   98   756 
 2020-09-10 03:19:58  6.5   98   756 
 2020-09-10 03:14:54  6.6   97   756 
 2020-09-10 03:09:50  6.7   97   756 
 2020-09-10 03:04:46  6.7   98   756 
 2020-09-10 02:59:41  6.7   98   756 
 2020-09-10 02:54:37  6.7   99   756 
 2020-09-10 02:49:33  6.5   99   756 
 2020-09-10 02:44:29  6.5   99   756 
 2020-09-10 02:39:25  6.5   99   756 
 2020-09-10 02:34:21  6.4   100   756 
 2020-09-10 02:29:17  6.4   99   756 
 2020-09-10 02:24:13  6.4   99   756 
 2020-09-10 02:19:09  6.4   99   756 
 2020-09-10 02:14:04  6.4   98   756 
 2020-09-10 02:09:00  6.5   97   756 
 2020-09-10 02:03:56  6.7   97   756 
 2020-09-10 01:58:52  6.6   98   756 
 2020-09-10 01:53:48  6.5   98   756 
 2020-09-10 01:48:44  6.5   98   756 
 2020-09-10 01:43:40  6.6   98   756 
 2020-09-10 01:38:36  6.6   97   756 
 2020-09-10 01:33:31  6.6   97   756 
 2020-09-10 01:28:27  6.6   97   756 
 2020-09-10 01:23:23  6.7   97   756 
 2020-09-10 01:18:19  6.7   97   756 
 2020-09-10 01:13:15  6.7   97   756 
 2020-09-10 01:08:11  6.8   96   756 
 2020-09-10 01:03:07  6.8   97   756 
 2020-09-10 00:58:02  6.8   97   756 
 2020-09-10 00:52:58  6.8   97   756 
 2020-09-10 00:47:54  6.6   97   756 
 2020-09-10 00:42:50  6.6   97   756 
 2020-09-10 00:37:46  6.6   96   756 
 2020-09-10 00:32:42  6.8   94   756 
 2020-09-10 00:27:38  6.9   94   756 
 2020-09-10 00:22:34  6.9   93   756 
 2020-09-10 00:17:29  6.9   94   756 
 2020-09-10 00:12:25  7.1   93   756 
 2020-09-10 00:07:21  7.3   93   756 
 2020-09-10 00:02:17  7.2   93   756 
 2020-09-09 23:57:13  7.2   93   756 
 2020-09-09 23:52:09  7.2   93   756 
 2020-09-09 23:47:05  7.2   93   756 
 2020-09-09 23:42:01  7.2   93   756 
 2020-09-09 23:36:57  7.2   93   756 
 2020-09-09 23:31:53  7.3   92   756 
 2020-09-09 23:26:49  7.4   92   756 
 2020-09-09 23:21:45  7.6   91   756 
 2020-09-09 23:16:40  7.8   91   756 
 2020-09-09 23:11:36  7.9   91   756 
 2020-09-09 23:06:32  7.9   90   756 
 2020-09-09 23:01:28  7.9   90   756 
 2020-09-09 22:56:24  7.9   91   756 
 2020-09-09 22:51:20  7.9   91   756 
 2020-09-09 22:46:16  7.9   90   756 
 2020-09-09 22:41:12  7.9   90   756 
 2020-09-09 22:36:07  7.8   91   756 
 2020-09-09 22:31:03  7.9   90   756 
 2020-09-09 22:25:59  7.9   90   756 
 2020-09-09 22:20:55  7.9   90   756 
 2020-09-09 22:15:51  8.1   88   756 
 2020-09-09 22:10:47  8.1   87   756 
 2020-09-09 22:05:43  8.2   87   756 
 2020-09-09 22:00:39  8.1   86   756 
 2020-09-09 21:55:33  8.2   85   756 
 2020-09-09 21:50:29  8.4   85   756 
 2020-09-09 21:45:25  8.4   84   756 
 2020-09-09 21:40:21  8.4   84   756 
 2020-09-09 21:35:16  8.5   83   756 
 2020-09-09 21:30:12  8.6   83   756 
 2020-09-09 21:25:08  8.8   80   756 
 2020-09-09 21:20:04  8.9   81   756 
 2020-09-09 21:15:00  8.8   82   756 
 2020-09-09 21:09:56  8.9   81   756 
 2020-09-09 21:04:52  8.9   82   756 
 2020-09-09 20:59:48  8.9   82   756 
 2020-09-09 20:54:44  8.9   82   756 
 2020-09-09 20:49:39  9.1   80   755 
 2020-09-09 20:44:35  9.1   79   755 
 2020-09-09 20:39:31  9.2   78   755 
 2020-09-09 20:34:26  9.1   78   755 
 2020-09-09 20:29:22  9.2   78   755 
 2020-09-09 20:24:18  9.1   78   755 
 2020-09-09 20:19:14  9.2   77   755 
 2020-09-09 20:14:10  9.2   76   755 
 2020-09-09 20:09:06  9.4   76   755 
 2020-09-09 20:04:02  9.4   75   755 
 2020-09-09 19:58:58  9.4   74   755 
 2020-09-09 19:53:54  9.4   74   755 
 2020-09-09 19:48:50  9.4   73   755 
 2020-09-09 19:43:46  9.6   72   755 
 2020-09-09 19:38:42  9.6   72   755 
 2020-09-09 19:33:38  9.7   73   755 
 2020-09-09 19:28:34  9.7   73   755 
 2020-09-09 19:23:30  9.8   71   755 
 2020-09-09 19:18:25  9.8   71   755 
 2020-09-09 19:13:21  9.9   71   755 
 2020-09-09 19:08:16  9.9   71   755 
 2020-09-09 19:03:12  9.9   68   755 
 2020-09-09 18:58:08  9.9   67   755 
 2020-09-09 18:53:04  9.7   67   755 
 2020-09-09 18:48:00  9.8   68   755 
 2020-09-09 18:42:56  9.9   69   755 
 2020-09-09 18:37:52  9.9   67   755 
 2020-09-09 18:32:48  10.1   68   755 
 2020-09-09 18:27:44  9.9   69   755 
 2020-09-09 18:22:40  10.1   66   755 
 2020-09-09 18:17:36  10.1   65   755 
 2020-09-09 18:12:31  10.1   65   755 
 2020-09-09 18:07:27  10.4   63   755 
 2020-09-09 18:02:23  10.4   63   755 
 2020-09-09 17:57:19  10.1   63   755 
 2020-09-09 17:52:15  10.6   60   754 
 2020-09-09 17:47:11  10.8   64   754 
 2020-09-09 17:42:07  10.4   65   754 
 2020-09-09 17:37:03  10.1   69   754 
 2020-09-09 17:31:59  9.6   70   754 
 2020-09-09 17:26:55  9.7   67   754 
 2020-09-09 17:21:51  9.9   67   754 
 2020-09-09 17:16:47  10.2   67   754 
 2020-09-09 17:11:43  10.4   68   754 
 2020-09-09 17:06:38  9.9   68   754 
 2020-09-09 17:01:34  9.9   69   754 
 2020-09-09 16:56:30  10.1   68   754 
 2020-09-09 16:51:26  9.9   69   754 
 2020-09-09 16:46:22  9.8   69   754 
 2020-09-09 16:41:18  10.2   67   754 
 2020-09-09 16:36:14  10.6   67   754 
 2020-09-09 16:31:10  10.8   68   754 
 2020-09-09 16:26:06  10.8   66   754 
 2020-09-09 16:21:02  11.0   64   754 
 2020-09-09 16:15:58  11.1   64   754 
 2020-09-09 16:10:54  11.1   65   754 
 2020-09-09 16:05:50  10.9   65   754 
 2020-09-09 16:00:46  11.0   65   754 
 2020-09-09 15:55:42  11.1   65   754 
 2020-09-09 15:50:38  11.2   65   754 
 2020-09-09 15:45:34  10.6   66   754 
 2020-09-09 15:40:30  10.3   66   754 
 2020-09-09 15:35:26  10.8   68   754 
 2020-09-09 15:30:22  10.3   70   754 
 2020-09-09 15:25:17  10.6   69   754 
 2020-09-09 15:20:13  10.4   68   754 
 2020-09-09 15:15:09  10.3   69   754 
 2020-09-09 15:10:05  10.3   67   754 
 2020-09-09 15:05:01  10.1   72   754 
 2020-09-09 14:59:57  9.5   71   754 
 2020-09-09 14:54:53  9.8   72   754 
 2020-09-09 14:49:49  9.6   73   754 
 2020-09-09 14:44:45  9.6   72   754 
 2020-09-09 14:39:41  9.4   74   754 
 2020-09-09 14:34:37  9.1   76   754 
 2020-09-09 14:29:33  9.2   72   754 
 2020-09-09 14:24:29  9.1   73   754 
 2020-09-09 14:19:25  9.1   74   754 
 2020-09-09 14:14:21  9.0   77   754 
 2020-09-09 14:09:17  9.3   75   754 
 2020-09-09 14:04:13  8.8   74   754 
 2020-09-09 13:59:09  8.6   75   754 
 2020-09-09 13:54:05  8.5   75   754 
 2020-09-09 13:49:00  8.6   77   754 
 2020-09-09 13:43:56  8.3   77   754 
 2020-09-09 13:38:52  8.5   80   754 
 2020-09-09 13:33:48  8.3   78   754 
 2020-09-09 13:28:44  8.6   78   754 
 2020-09-09 13:23:40  8.7   77   754 
 2020-09-09 13:18:36  8.6   77   754 
 2020-09-09 13:13:32  8.5   78   754 
 2020-09-09 13:08:28  8.4   78   754 
 2020-09-09 13:03:24  8.0   81   754 
 2020-09-09 12:58:20  8.4   80   754 
 2020-09-09 12:53:16  7.9   80   754 
 2020-09-09 12:48:12  8.0   80   754 
 2020-09-09 12:43:08  8.5   78   754 
 2020-09-09 12:38:04  8.4   78   754 
 2020-09-09 12:33:00  8.2   81   754 
 2020-09-09 12:27:56  8.4   81   754 
 2020-09-09 12:22:52  8.2   82   754 
 2020-09-09 12:17:48  7.9   83   754 
 2020-09-09 12:12:44  7.2   86   754 
 2020-09-09 12:07:39  6.7   86   754 
 2020-09-09 12:02:35  7.1   86   754 
 2020-09-09 11:57:31  7.4   85   754 
 2020-09-09 11:52:27  7.5   84   754 
 2020-09-09 11:47:23  7.9   85   754 
 2020-09-09 11:42:19  7.3   88   754 
 2020-09-09 11:37:15  7.1   87   754 
 2020-09-09 11:32:11  7.1   87   754 
 2020-09-09 11:27:07  6.8   88   754 
 2020-09-09 11:22:03  6.6   87   754 
 2020-09-09 11:16:59  7.1   87   754 
 2020-09-09 11:11:55  7.0   88   754 
 2020-09-09 11:06:51  6.9   87   754 
 2020-09-09 11:01:47  7.2   87   754 
 2020-09-09 10:56:43  7.1   87   754 
 2020-09-09 10:51:39  7.2   87   754 
 2020-09-09 10:46:35  7.0   88   754 
 2020-09-09 10:41:31  6.8   86   754 
 2020-09-09 10:36:27  7.1   90   754 
 2020-09-09 10:31:22  6.6   92   754 
 2020-09-09 10:26:18  6.3   95   754 
 2020-09-09 10:21:14  5.8   96   754 
 2020-09-09 10:16:10  5.8   94   754 
 2020-09-09 10:11:06  6.0   95   754 
 2020-09-09 10:06:02  6.3   92   754 
 2020-09-09 10:00:58  6.5   93   754 
 2020-09-09 09:55:54  6.4   93   754 
 2020-09-09 09:50:50  6.2   93   754 
 2020-09-09 09:45:46  6.1   95   754 
 2020-09-09 09:40:42  6.1   94   754 
 2020-09-09 09:35:38  6.0   96   754 
 2020-09-09 09:30:34  5.6   97   754 
 2020-09-09 09:25:30  5.1   99   754 
 2020-09-09 09:20:26  5.1   98   754 
 2020-09-09 09:15:22  5.5   97   754 
 2020-09-09 09:10:18  5.8   96   754 
 2020-09-09 09:05:14  5.6   96   754 
 2020-09-09 09:00:10  5.8   96   754 
 2020-09-09 08:55:06  5.8   96   754 
 2020-09-09 08:50:01  6.1   97   754 
 2020-09-09 08:44:57  6.2   96   754 
 2020-09-09 08:39:53  6.1   96   754 
 2020-09-09 08:34:49  6.0   97   754 
 2020-09-09 08:29:45  5.7   98   754 
 2020-09-09 08:24:41  5.6   98   754 
 2020-09-09 08:19:37  5.7   98   754 
 2020-09-09 08:14:33  5.6   98   754 
 2020-09-09 08:09:29  5.7   98   754 
 2020-09-09 08:04:25  5.8   97   754 
 2020-09-09 07:59:20  5.6   97   754 
 2020-09-09 07:54:16  5.4   98   754 
 2020-09-09 07:49:12  5.4   98   754 
 2020-09-09 07:44:08  5.4   98   754 
 2020-09-09 07:39:04  5.7   97   754 
 2020-09-09 07:34:00  5.8   97   754 
 2020-09-09 07:28:56  5.9   97   754 
 2020-09-09 07:23:52  5.8   97   754 
 2020-09-09 07:18:47  5.8   97   754 
 2020-09-09 07:13:43  5.8   97   754 
 2020-09-09 07:08:39  5.8   98   754 
 2020-09-09 07:03:35  5.7   97   754 
 2020-09-09 06:58:31  5.9   97   754 
 2020-09-09 06:53:27  5.8   98   754 
 2020-09-09 06:48:23  5.7   97   754 
 2020-09-09 06:43:19  5.8   98   754 
 2020-09-09 06:38:15  5.7   98   754 
 2020-09-09 06:33:10  6.1   98   754 
 2020-09-09 06:28:06  5.9   97   754 
 2020-09-09 06:23:02  6.1   97   753 
 2020-09-09 06:17:58  6.2   97   753 
 2020-09-09 06:12:54  6.4   96   753 
 2020-09-09 06:07:50  6.4   97   753 
 2020-09-09 06:02:46  6.3   96   753 
 2020-09-09 05:57:42  6.4   96   753 
 2020-09-09 05:52:37  6.4   97   753 
 2020-09-09 05:47:33  6.5   96   753 
 2020-09-09 05:42:29  6.6   96   753 
 2020-09-09 05:37:25  6.5   96   753 
 2020-09-09 05:32:21  6.7   96   753 
 2020-09-09 05:27:17  6.8   97   753 
 2020-09-09 05:22:13  6.7   97   753 
 2020-09-09 05:17:08  6.8   96   753 
 2020-09-09 05:12:04  6.9   96   753 
 2020-09-09 05:07:00  7.1   96   753 
 2020-09-09 05:01:56  6.9   95   753 
 2020-09-09 04:56:52  6.9   95   753 
 2020-09-09 04:51:48  7.0   96   753 
 2020-09-09 04:46:44  6.9   96   753 
 2020-09-09 04:41:40  7.0   95   753 
 2020-09-09 04:36:36  7.3   95   753 
 2020-09-09 04:31:31  7.2   95   753 
 2020-09-09 04:26:27  7.3   96   753 
 2020-09-09 04:21:23  7.1   96   753 
 2020-09-09 04:16:19  7.2   97   753 
 2020-09-09 04:11:15  7.1   96   753 
 2020-09-09 04:06:11  7.1   95   753 
 2020-09-09 04:01:07  7.2   95   753 
 2020-09-09 03:56:03  7.2   95   753 
 2020-09-09 03:50:59  7.2   96   753 
 2020-09-09 03:45:55  7.1   96   753 
 2020-09-09 03:40:51  7.1   96   753 
 2020-09-09 03:35:47  7.1   95   753 
 2020-09-09 03:30:42  7.1   95   753 
 2020-09-09 03:25:38  7.0   96   753 
 2020-09-09 03:20:34  7.0   97   753 
 2020-09-09 03:15:30  7.1   96   753 
 2020-09-09 03:10:26  7.1   96   753 
 2020-09-09 03:05:22  6.9   97   753 
 2020-09-09 03:00:18  6.9   97   753 
 2020-09-09 02:55:14  7.0   97   753 
 2020-09-09 02:50:10  7.0   98   753 
 2020-09-09 02:45:06  7.2   98   753 
 2020-09-09 02:40:02  7.2   99   753 
 2020-09-09 02:34:57  7.2   99   753 
 2020-09-09 02:29:53  7.2   99   753 
 2020-09-09 02:24:49  7.4   98   753 
 2020-09-09 02:19:45  7.6   97   753 
 2020-09-09 02:14:41  7.6   97   753 
 2020-09-09 02:09:37  7.6   97   753 
 2020-09-09 02:04:33  7.8   97   753 
 2020-09-09 01:59:29  7.8   98   753 
 2020-09-09 01:54:25  7.9   99   753 
 2020-09-09 01:49:21  8.1   99   753 
 2020-09-09 01:44:17  8.0   99   753 
 2020-09-09 01:39:13  8.1   98   753 
 2020-09-09 01:34:09  8.1   97   753 
 2020-09-09 01:29:05  8.0   98   753 
 2020-09-09 01:24:01  7.9   97   753 
 2020-09-09 01:18:57  7.9   97   753 
 2020-09-09 01:13:53  7.9   98   753 
 2020-09-09 01:08:49  7.8   99   753 
 2020-09-09 01:03:44  7.8   98   753 
 2020-09-09 00:58:40  7.8   98   753 
 2020-09-09 00:53:36  7.9   97   753 
 2020-09-09 00:48:32  7.9   98   753 
 2020-09-09 00:43:28  7.9   99   753 
 2020-09-09 00:38:24  7.9   99   753 
 2020-09-09 00:33:20  7.8   99   753 
 2020-09-09 00:28:16  7.9   98   753 
 2020-09-09 00:23:12  7.8   99   753 
 2020-09-09 00:18:08  7.8   99   753 
 2020-09-09 00:13:04  7.6   99   753 
 2020-09-09 00:08:00  7.8   99   754 
 2020-09-09 00:02:56  7.9   98   753 
 2020-09-08 23:57:52  7.9   99   754 
 2020-09-08 23:52:48  7.8   97   754 
 2020-09-08 23:47:44  7.8   96   754 
 2020-09-08 23:42:40  8.1   95   754 
 2020-09-08 23:37:36  8.2   95   754 
 2020-09-08 23:32:31  8.1   95   754 
 2020-09-08 23:27:27  8.2   95   754 
 2020-09-08 23:22:23  8.1   95   754 
 2020-09-08 23:17:19  8.2   95   754 
 2020-09-08 23:12:15  8.2   94   754 
 2020-09-08 23:07:11  8.2   94   754 
 2020-09-08 23:02:07  8.1   93   754 
 2020-09-08 22:57:03  8.2   94   754 
 2020-09-08 22:51:59  8.1   95   754 
 2020-09-08 22:46:55  8.1   95   754 
 2020-09-08 22:41:51  8.0   95   753 
 2020-09-08 22:36:47  8.0   95   753 
 2020-09-08 22:31:43  7.9   95   753 
 2020-09-08 22:26:39  7.9   94   753 
 2020-09-08 22:21:35  8.2   93   753 
 2020-09-08 22:16:31  8.2   93   753 
 2020-09-08 22:11:27  8.4   90   753 
 2020-09-08 22:06:22  8.3   90   754 
 2020-09-08 22:01:18  8.2   90   754 
 2020-09-08 21:56:14  8.2   89   754 
 2020-09-08 21:51:10  8.2   90   754 
 2020-09-08 21:46:06  8.2   90   754 
 2020-09-08 21:41:02  8.2   90   753 
 2020-09-08 21:35:58  8.2   90   753 
 2020-09-08 21:30:54  8.3   89   753 
 2020-09-08 21:25:50  8.3   89   753 
 2020-09-08 21:20:46  8.2   90   753 
 2020-09-08 21:15:42  8.3   90   754 
 2020-09-08 21:10:37  8.2   90   754 
 2020-09-08 21:05:33  8.3   90   753 
 2020-09-08 21:00:29  8.3   90   754 
 2020-09-08 20:55:25  8.3   91   754 
 2020-09-08 20:50:20  8.3   91   754 
 2020-09-08 20:45:16  8.4   91   754 
 2020-09-08 20:40:12  8.4   90   754 
 2020-09-08 20:35:07  8.5   91   754 
 2020-09-08 20:30:03  8.4   92   753 
 2020-09-08 20:24:59  8.3   92   754 
 2020-09-08 20:19:55  8.4   92   754 
 2020-09-08 20:14:51  8.6   91   754 
 2020-09-08 20:09:47  8.5   92   754 
 2020-09-08 20:04:43  8.5   90   754 
 2020-09-08 19:59:39  8.5   91   754 
 2020-09-08 19:54:34  8.6   90   754 
 2020-09-08 19:49:30  8.6   90   754 
 2020-09-08 19:44:26  8.6   90   754 
 2020-09-08 19:39:22  8.5   89   754 
 2020-09-08 19:34:18  8.4   89   754 
 2020-09-08 19:29:14  8.4   89   754 
 2020-09-08 19:24:10  8.6   88   754 
 2020-09-08 19:19:06  8.9   87   754 
 2020-09-08 19:14:00  9.2   85   754 
 2020-09-08 19:08:56  9.1   85   754 
 2020-09-08 19:03:52  8.9   85   753 
 2020-09-08 18:58:48  8.8   85   753 
 2020-09-08 18:53:44  9.2   84   754 
 2020-09-08 18:48:39  9.1   84   754 
 2020-09-08 18:43:35  8.9   85   754 
 2020-09-08 18:38:31  8.9   85   754 
 2020-09-08 18:33:27  8.9   86   754 
 2020-09-08 18:28:23  9.0   85   754 
 2020-09-08 18:23:18  9.0   85   754 
 2020-09-08 18:18:14  8.9   85   754 
 2020-09-08 18:13:09  8.9   85   754 
 2020-09-08 18:08:05  9.1   84   754 
 2020-09-08 18:03:00  9.3   81   754 
 2020-09-08 17:57:56  9.5   78   754 
 2020-09-08 17:52:51  9.8   76   754 
 2020-09-08 17:47:47  9.8   74   754 
 2020-09-08 17:42:43  10.0   72   754 
 2020-09-08 17:37:39  10.5   68   754 
 2020-09-08 17:32:35  11.8   63   754 
 2020-09-08 17:27:31  13.3   58   754 
 2020-09-08 17:22:27  13.2   58   753 
 2020-09-08 17:17:23  13.1   58   753 
 2020-09-08 17:12:19  13.0   59   753 
 2020-09-08 17:07:15  13.1   59   753 
 2020-09-08 17:02:10  13.2   58   753 
 2020-09-08 16:51:57  12.9   60   753 
 2020-09-08 16:46:53  13.4   59   753 
 2020-09-08 16:41:49  13.1   60   753 
 2020-09-08 16:36:45  13.0   60   753 
 2020-09-08 16:31:41  13.2   60   753 
 2020-09-08 16:26:37  12.9   62   753 
 2020-09-08 16:21:33  12.9   61   753 
 2020-09-08 16:16:29  13.1   61   753 
 2020-09-08 16:11:24  13.1   60   753 
 2020-09-08 16:06:20  13.1   60   753 
 2020-09-08 16:01:16  12.8   60   753 
 2020-09-08 15:56:12  12.9   61   753 
 2020-09-08 15:51:08  13.2   60   753 
 2020-09-08 15:46:04  13.4   60   753 
 2020-09-08 15:41:00  13.2   60   753 
 2020-09-08 15:35:56  13.6   59   753 
 2020-09-08 15:30:52  13.8   57   753 
 2020-09-08 15:25:48  13.7   58   753 
 2020-09-08 15:20:44  13.8   58   753 
 2020-09-08 15:15:40  13.4   59   753 
 2020-09-08 15:10:36  13.4   59   753 
 2020-09-08 15:05:31  13.2   59   753 
 2020-09-08 15:00:27  12.9   59   753 
 2020-09-08 14:55:23  13.0   58   753 
 2020-09-08 14:50:19  13.3   57   753 
 2020-09-08 14:45:15  13.6   59   753 
 2020-09-08 14:40:11  13.4   58   753 
 2020-09-08 14:35:07  13.1   59   753 
 2020-09-08 14:30:03  12.9   57   754 
 2020-09-08 14:24:59  12.7   59   754 
 2020-09-08 14:19:55  12.9   60   754 
 2020-09-08 14:14:51  12.8   61   754 
 2020-09-08 14:09:47  12.4   62   754 
 2020-09-08 14:04:43  12.5   62   754 
 2020-09-08 13:59:39  12.4   63   754 
 2020-09-08 13:54:35  12.7   63   754 
 2020-09-08 13:49:31  12.9   63   754 
 2020-09-08 13:44:27  12.5   65   754 
 2020-09-08 13:39:23  13.1   64   754 
 2020-09-08 13:34:19  12.9   63   754 
 2020-09-08 13:29:15  12.6   66   754 
 2020-09-08 13:24:10  12.5   68   754 
 2020-09-08 13:19:06  12.5   69   754 
 2020-09-08 13:14:02  13.0   69   754 
 2020-09-08 13:08:58  12.9   68   754 
 2020-09-08 13:03:54  12.5   70   754 
 2020-09-08 12:58:50  12.3   68   754 
 2020-09-08 12:53:46  12.4   68   754 
 2020-09-08 12:48:42  11.6   71   754 
 2020-09-08 12:43:38  11.2   74   754 
 2020-09-08 12:38:34  10.9   75   754 
 2020-09-08 12:33:30  11.2   76   754 
 2020-09-08 12:28:26  10.8   78   754 
 2020-09-08 12:23:22  10.2   81   754 
 2020-09-08 12:18:18  10.3   80   754 
 2020-09-08 12:13:14  10.2   81   754 
 2020-09-08 12:08:10  10.1   81   754 
 2020-09-08 12:03:06  10.6   78   754 
 2020-09-08 11:58:02  11.4   76   754 
 2020-09-08 11:52:58  11.8   78   754 
 2020-09-08 11:47:53  11.0   80   754 
 2020-09-08 11:42:49  10.4   81   754 
 2020-09-08 11:32:36  10.5   81   754 
 2020-09-08 11:27:32  10.8   81   754 
 2020-09-08 10:36:08  9.9   85   754 
 2020-09-08 10:31:04  9.2   86   754 
 2020-09-08 10:26:00  9.6   85   754 
 2020-09-08 10:00:20  7.9   91   754 
 2020-09-08 09:55:16  8.1   89   754 
 2020-09-08 09:50:12  8.5   87   754 
 2020-09-08 09:45:08  8.3   87   754 
 2020-09-08 09:40:03  8.4   87   754 
 2020-09-08 09:34:59  8.2   88   754 
 2020-09-08 09:29:55  7.9   88   754 
 2020-09-08 09:24:51  7.8   89   754 
 2020-09-08 09:19:47  7.6   89   754 
 2020-09-08 09:14:43  7.8   89   754 
 2020-09-08 09:09:39  7.8   89   754 
 2020-09-08 09:04:35  7.4   92   754 
 2020-09-08 08:59:31  6.9   94   754 
 2020-09-08 08:54:27  6.4   96   754 
 2020-09-08 08:49:23  5.9   97   754 
 2020-09-08 08:44:19  6.1   93   754 
 2020-09-08 08:39:15  6.9   90   754 
 2020-09-08 08:34:11  6.9   92   754 
 2020-09-08 08:29:07  6.6   92   754 
 2020-09-08 08:24:02  6.4   93   754 
 2020-09-08 08:18:58  6.2   94   755 
 2020-09-08 08:13:54  5.9   94   754 
 2020-09-08 08:08:50  5.9   94   754 
 2020-09-08 08:03:46  5.7   95   755 
 2020-09-08 07:58:42  5.3   96   755 
 2020-09-08 07:53:38  5.1   96   755 
 2020-09-08 07:48:34  5.0   95   755 
 2020-09-08 07:43:30  5.1   95   755 
 2020-09-08 07:38:26  5.1   96   755 
 2020-09-08 07:33:22  5.0   96   755 
 2020-09-08 07:28:18  5.4   97   755 
 2020-09-08 07:23:14  5.2   97   754 
 2020-09-08 07:18:10  5.1   97   754 
 2020-09-08 07:13:06  5.0   97   754 
 2020-09-08 07:08:01  4.8   98   754 
 2020-09-08 07:02:57  4.7   98   754 
 2020-09-08 06:57:53  4.5   98   754 
 2020-09-08 06:52:49  4.2   98   754 
 2020-09-08 06:47:45  4.1   99   755 
 2020-09-08 06:42:41  4.2   98   754 
 2020-09-08 06:37:37  4.4   98   754 
 2020-09-08 06:32:33  4.6   98   755 
 2020-09-08 06:27:29  4.5   99   755 
 2020-09-08 06:22:25  4.9   96   755 
 2020-09-08 06:17:20  4.9   96   755 
 2020-09-08 06:12:16  4.9   97   755 
 2020-09-08 06:07:12  4.8   97   755 
 2020-09-08 06:02:08  4.7   97   755 
 2020-09-08 05:57:04  4.6   98   755 
 2020-09-08 05:52:00  4.4   98   755 
 2020-09-08 05:46:56  4.7   96   755 
 2020-09-08 05:41:52  4.6   96   755 
 2020-09-08 05:36:47  4.7   96   755 
 2020-09-08 05:31:43  4.6   97   755 
 2020-09-08 05:26:39  4.6   97   755 
 2020-09-08 05:21:35  4.6   96   755 
 2020-09-08 05:16:31  4.7   95   755 
 2020-09-08 05:11:27  4.6   96   755 
 2020-09-08 05:06:23  4.6   97   755 
 2020-09-08 05:01:19  4.4   97   755 
 2020-09-08 04:56:15  4.4   98   755 
 2020-09-08 04:51:10  4.3   99   755 
 2020-09-08 04:46:06  4.1   98   755 
 2020-09-08 04:41:02  4.1   99   755 
 2020-09-08 04:35:58  4.1   98   755 
 2020-09-08 04:30:54  4.1   99   755 
 2020-09-08 04:25:50  3.9   100   755 
 2020-09-08 04:20:46  4.0   100   755 
 2020-09-08 04:15:41  4.0   100   755 
 2020-09-08 04:10:37  4.2   99   755 
 2020-09-08 04:05:33  4.6   97   755 
 2020-09-08 04:00:29  4.7   98   755 
 2020-09-08 03:55:25  4.8   98   755 
 2020-09-08 03:50:21  4.6   99   755 
 2020-09-08 03:45:17  4.6   98   755 
 2020-09-08 03:40:13  4.8   98   755 
 2020-09-08 03:35:08  4.8   97   755 
 2020-09-08 03:30:04  4.6   98   755 
 2020-09-08 03:25:00  4.6   98   755 
 2020-09-08 03:19:56  4.5   97   755 
 2020-09-08 03:14:52  4.8   96   755 
 2020-09-08 03:09:48  4.8   95   755 
 2020-09-08 03:04:44  4.8   95   755 
 2020-09-08 02:59:40  4.9   95   755 
 2020-09-08 02:54:35  5.1   95   755 
 2020-09-08 02:49:31  5.5   96   755 
 2020-09-08 02:44:27  5.6   95   755 
 2020-09-08 02:39:23  5.6   96   755 
 2020-09-08 02:34:19  5.4   96   755 
 2020-09-08 02:29:15  5.6   95   755 
 2020-09-08 02:24:10  5.6   96   755 
 2020-09-08 02:19:06  5.4   96   755 
 2020-09-08 02:14:01  5.4   95   755 
 2020-09-08 02:08:57  5.4   96   755 
 2020-09-08 02:03:53  5.4   95   755 
 2020-09-08 01:58:49  5.3   96   755 
 2020-09-08 01:53:45  5.3   96   755 
 2020-09-08 01:48:41  5.6   96   755 
 2020-09-08 01:43:37  5.9   97   755 
 2020-09-08 01:38:32  6.1   97   755 
 2020-09-08 01:33:28  6.1   97   755 
 2020-09-08 01:28:24  6.0   98   755 
 2020-09-08 01:23:20  6.0   98   755 
 2020-09-08 01:18:16  5.9   98   755 
 2020-09-08 01:13:12  5.9   98   755 
 2020-09-08 01:08:08  5.9   99   755 
 2020-09-08 01:03:03  6.3   96   755 
 2020-09-08 00:57:59  6.6   94   755 
 2020-09-08 00:52:55  6.8   94   755 
 2020-09-08 00:47:51  6.7   94   755 
 2020-09-08 00:42:47  6.6   94   755 
 2020-09-08 00:37:43  6.6   94   755 
 2020-09-08 00:32:39  6.8   93   755 
 2020-09-08 00:27:35  6.8   93   755 
 2020-09-08 00:22:31  6.8   94   755 
 2020-09-08 00:17:27  6.9   92   755 
 2020-09-08 00:12:23  6.9   93   755 
 2020-09-08 00:07:19  7.1   93   755 
 2020-09-08 00:02:15  7.1   92   755 
 2020-09-07 23:57:10  7.0   93   755 
 2020-09-07 23:52:06  7.1   93   755 
 2020-09-07 23:47:02  7.4   91   755 
 2020-09-07 23:41:58  7.7   91   755 
 2020-09-07 23:36:54  7.8   91   755 
 2020-09-07 23:31:50  7.8   91   755 
 2020-09-07 23:26:46  7.9   91   755 
 2020-09-07 23:21:42  7.8   91   755 
 2020-09-07 23:16:37  7.8   92   755 
 2020-09-07 23:11:33  7.7   92   755 
 2020-09-07 23:06:28  7.6   92   755 
 2020-09-07 23:01:24  7.7   92   755 
 2020-09-07 22:56:20  7.7   92   755 
 2020-09-07 22:51:14  7.7   92   755 
 2020-09-07 22:46:10  7.7   92   755 
 2020-09-07 22:41:06  7.6   92   755 
 2020-09-07 22:36:02  7.6   93   755 
 2020-09-07 22:30:58  7.6   92   755 
 2020-09-07 22:25:54  7.5   93   755 
 2020-09-07 22:20:50  7.8   92   755 
 2020-09-07 22:15:46  7.8   92   755 
 2020-09-07 22:10:41  7.9   92   755 
 2020-09-07 22:05:37  7.9   92   755 
 2020-09-07 22:00:33  7.9   92   755 
 2020-09-07 21:55:29  7.9   91   755 
 2020-09-07 21:50:25  8.0   91   755 
 2020-09-07 21:45:21  8.1   90   755 
 2020-09-07 21:40:17  8.2   90   755 
 2020-09-07 21:35:13  8.2   89   755 
 2020-09-07 21:30:09  8.4   89   755 
 2020-09-07 21:25:05  8.4   89   755 
 2020-09-07 21:20:01  8.7   88   755 
 2020-09-07 21:14:57  8.9   87   755 
 2020-09-07 21:09:53  9.0   86   755 
 2020-09-07 21:04:49  9.1   86   755 
 2020-09-07 20:59:44  9.0   85   755 
 2020-09-07 20:54:40  9.1   85   755 
 2020-09-07 20:49:36  9.1   85   755 
 2020-09-07 20:44:32  9.2   84   755 
 2020-09-07 20:39:28  9.2   84   755 
 2020-09-07 20:34:24  9.4   84   755 
 2020-09-07 20:29:20  9.3   84   755 
 2020-09-07 20:24:16  9.2   83   755 
 2020-09-07 20:19:12  9.3   83   755 
 2020-09-07 20:14:07  9.4   82   755 
 2020-09-07 20:09:03  9.3   81   755 
 2020-09-07 20:03:59  9.6   82   755 
 2020-09-07 19:58:55  9.7   78   755 
 2020-09-07 19:53:50  10.1   76   755 
 2020-09-07 19:48:46  10.0   76   755 
 2020-09-07 19:43:42  10.0   75   755 
 2020-09-07 19:38:38  10.1   74   755 
 2020-09-07 19:33:34  10.2   73   755 
 2020-09-07 19:28:30  10.4   72   755 
 2020-09-07 19:23:26  10.6   72   755 
 2020-09-07 19:18:22  10.7   72   755 
 2020-09-07 19:13:18  10.7   72   755 
 2020-09-07 19:08:13  10.9   73   755 
 2020-09-07 19:03:09  10.9   72   755 
 2020-09-07 18:58:05  11.0   72   755 
 2020-09-07 18:53:01  11.1   71   755 
 2020-09-07 18:47:57  11.1   70   755 
 2020-09-07 18:42:53  11.4   70   755 
 2020-09-07 18:37:49  11.6   68   754 
 2020-09-07 18:32:45  11.6   68   754 
 2020-09-07 18:27:41  11.6   68   754 
 2020-09-07 18:22:37  11.7   68   754 
 2020-09-07 18:17:33  11.7   68   754 
 2020-09-07 18:12:29  11.9   67   754 
 2020-09-07 18:07:25  11.8   69   754 
 2020-09-07 18:02:21  11.6   68   754 
 2020-09-07 17:57:16  11.6   67   754 
 2020-09-07 17:52:11  11.6   70   754 
 2020-09-07 17:47:07  11.2   68   754 
 2020-09-07 17:42:03  11.6   69   754 
 2020-09-07 17:36:59  11.5   71   754 
 2020-09-07 17:31:55  11.5   69   754 
 2020-09-07 17:26:51  11.7   69   754 
 2020-09-07 17:21:47  11.8   68   754 
 2020-09-07 17:16:43  11.9   69   754 
 2020-09-07 17:11:38  12.0   69   754 
 2020-09-07 17:06:34  11.9   68   754 
 2020-09-07 17:01:30  11.9   70   754 
 2020-09-07 16:56:26  11.7   69   754 
 2020-09-07 16:51:22  11.5   69   754 
 2020-09-07 16:46:18  11.5   68   754 
 2020-09-07 16:41:14  11.6   67   754 
 2020-09-07 16:36:10  11.4   66   754 
 2020-09-07 16:31:06  11.5   66   754 
 2020-09-07 16:26:02  11.9   65   754 
 2020-09-07 16:20:58  12.3   67   754 
 2020-09-07 16:15:54  12.1   66   754 
 2020-09-07 16:10:50  12.2   66   754 
 2020-09-07 16:05:46  12.1   67   754 
 2020-09-07 16:00:42  12.1   64   754 
 2020-09-07 15:55:37  12.0   63   754 
 2020-09-07 15:50:33  12.2   62   753 
 2020-09-07 15:45:29  12.6   61   753 
 2020-09-07 15:40:25  13.1   54   753 
 2020-09-07 15:35:21  13.1   51   753 
 2020-09-07 15:30:17  13.2   50   753 
 2020-09-07 15:25:13  13.2   52   753 
 2020-09-07 15:20:09  13.4   51   753 
 2020-09-07 15:15:05  13.5   50   753 
 2020-09-07 15:10:01  13.4   51   753 
 2020-09-07 15:04:57  13.4   51   753 
 2020-09-07 14:59:53  13.6   50   753 
 2020-09-07 14:54:49  13.9   48   753 
 2020-09-07 14:49:45  14.1   50   753 
 2020-09-07 14:44:41  14.1   51   753 
 2020-09-07 14:39:37  13.9   50   753 
 2020-09-07 14:34:33  14.2   48   753 
 2020-09-07 14:29:29  13.7   48   753 
 2020-09-07 14:24:25  14.0   49   753 
 2020-09-07 14:19:21  13.9   51   753 
 2020-09-07 14:14:16  14.1   49   753 
 2020-09-07 14:09:12  14.2   50   753 
 2020-09-07 14:04:08  14.1   49   753 
 2020-09-07 13:59:04  14.3   51   753 
 2020-09-07 13:54:00  14.4   52   753 
 2020-09-07 13:48:56  13.9   55   753 
 2020-09-07 13:43:52  13.4   56   753 
 2020-09-07 13:38:48  13.6   55   753 
 2020-09-07 13:33:44  13.6   56   753 
 2020-09-07 13:28:40  13.5   56   753 
 2020-09-07 13:23:36  13.1   59   753 
 2020-09-07 13:18:32  13.1   59   753 
 2020-09-07 13:13:28  12.9   65   753 
 2020-09-07 13:08:24  12.9   68   753 
 2020-09-07 13:03:20  12.8   67   753 
 2020-09-07 12:58:16  12.9   65   753 
 2020-09-07 12:53:12  12.8   67   754 
 2020-09-07 12:48:08  12.2   69   753 
 2020-09-07 12:43:04  12.1   65   753 
 2020-09-07 12:37:59  12.2   70   753 
 2020-09-07 12:32:55  12.4   70   754 
 2020-09-07 12:27:51  11.4   70   754 
 2020-09-07 12:22:47  11.5   72   754 
 2020-09-07 12:17:43  12.0   70   754 
 2020-09-07 12:12:39  11.8   72   754 
 2020-09-07 12:07:35  11.9   70   754 
 2020-09-07 12:02:31  11.1   74   754 
 2020-09-07 11:57:27  10.4   75   754 
 2020-09-07 11:52:23  11.5   71   754 
 2020-09-07 11:47:19  11.8   71   753 
 2020-09-07 11:42:15  11.8   70   753 
 2020-09-07 11:37:11  11.4   74   754 
 2020-09-07 11:32:07  10.3   76   754 
 2020-09-07 11:27:03  10.2   75   754 
 2020-09-07 11:21:59  11.1   72   754 
 2020-09-07 11:16:55  10.6   73   754 
 2020-09-07 11:11:51  10.7   75   754 
 2020-09-07 11:06:47  10.1   78   754 
 2020-09-07 11:01:42  9.4   81   754 
 2020-09-07 10:56:38  9.1   80   754 
 2020-09-07 10:51:34  9.1   84   754 
 2020-09-07 10:46:30  9.0   86   754 
 2020-09-07 10:41:26  8.4   88   753 
 2020-09-07 10:36:22  8.5   86   753 
 2020-09-07 10:31:18  8.9   83   753 
 2020-09-07 10:26:14  9.2   82   753 
 2020-09-07 10:21:10  9.1   83   753 
 2020-09-07 10:16:06  8.9   85   753 
 2020-09-07 10:11:02  8.6   87   753 
 2020-09-07 10:05:58  8.0   88   754 
 2020-09-07 10:00:54  7.7   90   753 
 2020-09-07 09:55:50  7.4   90   753 
 2020-09-07 09:50:46  7.4   90   753 
 2020-09-07 09:45:42  7.7   89   753 
 2020-09-07 09:40:38  7.3   90   753 
 2020-09-07 09:35:34  7.4   90   753 
 2020-09-07 09:30:30  7.5   90   753 
 2020-09-07 09:25:26  7.4   89   754 
 2020-09-07 09:20:22  7.3   90   753 
 2020-09-07 09:15:18  7.1   91   753 
 2020-09-07 09:10:13  6.9   93   753 
 2020-09-07 09:05:09  6.6   93   753 
 2020-09-07 09:00:05  6.7   93   753 
 2020-09-07 08:55:01  6.7   93   753 
 2020-09-07 08:49:57  6.5   94   753 
 2020-09-07 08:44:53  6.5   95   753 
 2020-09-07 08:39:49  6.4   95   753 
 2020-09-07 08:34:45  6.2   94   753 
 2020-09-07 08:29:41  6.0   95   753 
 2020-09-07 08:24:37  5.9   95   753 
 2020-09-07 08:19:33  6.2   94   753 
 2020-09-07 08:14:29  6.3   94   753 
 2020-09-07 08:09:24  6.3   94   753 
 2020-09-07 08:04:20  6.2   95   753 
 2020-09-07 07:59:16  6.1   96   753 
 2020-09-07 07:54:12  6.1   97   753 
 2020-09-07 07:49:08  5.7   98   753 
 2020-09-07 07:44:04  5.5   98   753 
 2020-09-07 07:39:00  5.6   98   753 
 2020-09-07 07:33:56  5.2   98   753 
 2020-09-07 07:28:52  5.1   99   753 
 2020-09-07 07:23:48  5.0   98   753 
 2020-09-07 07:18:44  5.0   98   753 
 2020-09-07 07:13:40  5.1   98   753 
 2020-09-07 07:08:36  5.1   97   753 
 2020-09-07 07:03:31  5.3   96   753 
 2020-09-07 06:58:27  5.5   95   753 
 2020-09-07 06:53:23  5.3   95   753 
 2020-09-07 06:48:19  5.3   96   753 
 2020-09-07 06:43:15  5.1   97   753 
 2020-09-07 06:38:10  5.1   96   753 
 2020-09-07 06:33:06  5.2   97   753 
 2020-09-07 06:28:02  5.1   97   753 
 2020-09-07 06:22:57  4.9   99   753 
 2020-09-07 06:17:53  4.7   99   753 
 2020-09-07 06:12:49  4.9   98   753 
 2020-09-07 06:07:45  4.8   98   753 
 2020-09-07 06:02:41  5.0   96   753 
 2020-09-07 05:57:37  5.0   96   753 
 2020-09-07 05:52:33  4.9   96   753 
 2020-09-07 05:47:28  4.9   96   753 
 2020-09-07 05:42:24  4.9   96   753 
 2020-09-07 05:37:20  5.0   97   753 
 2020-09-07 05:32:16  5.2   95   753 
 2020-09-07 05:27:12  5.2   95   753 
 2020-09-07 05:22:08  5.2   95   753 
 2020-09-07 05:17:04  5.2   95   753 
 2020-09-07 05:12:00  5.2   95   753 
 2020-09-07 05:06:55  5.2   95   753 
 2020-09-07 05:01:51  5.3   95   753 
 2020-09-07 04:56:47  5.3   94   753 
 2020-09-07 04:51:43  5.2   95   753 
 2020-09-07 04:46:39  5.2   96   753 
 2020-09-07 04:41:35  5.1   96   753 
 2020-09-07 04:36:31  5.1   97   753 
 2020-09-07 04:31:27  5.2   96   753 
 2020-09-07 04:26:22  5.2   97   753 
 2020-09-07 04:21:18  5.3   96   753 
 2020-09-07 04:16:14  5.6   96   753 
 2020-09-07 04:11:10  5.4   96   753 
 2020-09-07 04:06:06  5.5   95   753 
 2020-09-07 04:01:02  5.4   95   753 
 2020-09-07 03:55:58  5.4   95   753 
 2020-09-07 03:50:50  5.5   95   753 
 2020-09-07 03:45:46  5.4   95   753 
 2020-09-07 03:40:41  5.5   96   753 
 2020-09-07 03:35:37  5.6   96   753 
 2020-09-07 03:30:33  5.6   96   753 
 2020-09-07 03:25:29  5.7   97   753 
 2020-09-07 03:20:25  5.6   97   753 
 2020-09-07 03:15:21  5.4   97   753 
 2020-09-07 03:10:17  5.4   97   753 
 2020-09-07 03:05:13  5.5   97   753 
 2020-09-07 03:00:08  5.4   97   753 
 2020-09-07 02:55:04  5.4   97   753 
 2020-09-07 02:50:00  5.4   97   753 
 2020-09-07 02:44:56  5.5   96   753 
 2020-09-07 02:39:52  5.5   97   753 
 2020-09-07 02:34:48  5.5   97   753 
 2020-09-07 02:29:44  5.4   97   753 
 2020-09-07 02:24:40  5.6   95   753 
 2020-09-07 02:19:35  5.8   94   753 
 2020-09-07 02:14:31  6.0   94   753 
 2020-09-07 02:09:27  6.1   95   753 
 2020-09-07 02:04:23  6.1   95   753 
 2020-09-07 01:59:19  5.9   95   753 
 2020-09-07 01:54:15  5.9   95   753 
 2020-09-07 01:49:11  5.8   96   753 
 2020-09-07 01:44:06  5.8   96   753 
 2020-09-07 01:39:02  5.9   95   753 
 2020-09-07 01:33:58  5.8   95   753 
 2020-09-07 01:28:54  5.9   95   753 
 2020-09-07 01:23:50  5.9   95   753 
 2020-09-07 01:18:46  6.0   95   753 
 2020-09-07 01:13:42  6.0   95   753 
 2020-09-07 01:08:38  6.0   94   753 
 2020-09-07 01:03:34  6.1   94   753 
 2020-09-07 00:58:30  6.2   94   753 
 2020-09-07 00:53:26  6.1   94   753 
 2020-09-07 00:48:22  6.1   94   753 
 2020-09-07 00:43:18  6.2   93   753 
 2020-09-07 00:38:13  6.4   93   753 
 2020-09-07 00:33:09  6.6   92   753 
 2020-09-07 00:28:05  6.7   92   753 
 2020-09-07 00:23:01  6.9   92   753 
 2020-09-07 00:17:57  6.9   91   753 
 2020-09-07 00:12:53  6.9   92   753 
 2020-09-07 00:07:49  6.9   92   753 
 2020-09-07 00:02:45  7.1   91   752 
 2020-09-06 23:57:41  7.1   92   752 
 2020-09-06 23:52:37  7.1   92   753 
 2020-09-06 23:47:33  7.1   92   753 
 2020-09-06 23:42:29  7.1   93   752 
 2020-09-06 23:37:24  6.9   92   752 
 2020-09-06 23:32:20  7.0   91   752 
 2020-09-06 23:27:16  7.1   91   752 
 2020-09-06 23:22:12  7.1   91   752 
 2020-09-06 23:17:08  7.2   91   752 
 2020-09-06 23:12:03  7.2   91   752 
 2020-09-06 23:06:59  7.3   90   752 
 2020-09-06 23:01:55  7.3   90   752 
 2020-09-06 22:56:51  7.4   90   752 
 2020-09-06 22:51:47  7.6   90   752 
 2020-09-06 22:46:43  7.7   90   752 
 2020-09-06 22:41:39  7.8   90   752 
 2020-09-06 22:36:35  7.8   90   752 
 2020-09-06 22:31:31  7.8   89   752 
 2020-09-06 22:26:25  7.8   89   752 
 2020-09-06 22:21:21  8.1   88   752 
 2020-09-06 22:16:17  8.1   87   752 
 2020-09-06 22:11:13  8.3   87   752 
 2020-09-06 22:06:09  8.4   87   752 
 2020-09-06 22:01:05  8.4   87   752 
 2020-09-06 21:56:01  8.4   87   752 
 2020-09-06 21:50:57  8.4   87   752 
 2020-09-06 21:45:53  8.4   87   752 
 2020-09-06 21:40:49  8.4   88   752 
 2020-09-06 21:35:45  8.3   87   752 
 2020-09-06 21:30:41  8.5   87   752 
 2020-09-06 21:25:37  8.5   86   752 
 2020-09-06 21:20:32  8.5   86   752 
 2020-09-06 21:15:28  8.5   86   752 
 2020-09-06 21:10:24  8.6   86   752 
 2020-09-06 21:05:20  8.7   85   752 
 2020-09-06 21:00:16  8.8   85   752 
 2020-09-06 20:55:11  8.9   84   752 
 2020-09-06 20:50:07  8.9   84   752 
 2020-09-06 20:45:03  8.9   84   752 
 2020-09-06 20:39:59  8.9   85   752 
 2020-09-06 20:34:55  8.8   85   752 
 2020-09-06 20:29:51  8.8   85   752 
 2020-09-06 20:24:46  8.9   85   752 
 2020-09-06 20:19:42  9.0   84   752 
 2020-09-06 20:14:38  9.0   84   752 
 2020-09-06 20:09:34  9.1   83   752 
 2020-09-06 20:04:30  9.2   82   752 
 2020-09-06 19:59:26  9.2   82   752 
 2020-09-06 19:54:22  9.4   82   752 
 2020-09-06 19:49:16  9.6   82   752 
 2020-09-06 19:44:12  9.7   81   752 
 2020-09-06 19:39:08  9.8   80   752 
 2020-09-06 19:34:04  10.0   78   752 
 2020-09-06 19:29:00  10.2   77   752 
 2020-09-06 19:23:56  10.4   76   752 
 2020-09-06 19:18:52  10.6   75   752 
 2020-09-06 19:13:48  10.7   74   752 
 2020-09-06 19:08:44  10.8   74   752 
 2020-09-06 19:03:40  10.8   74   752 
 2020-09-06 18:58:36  10.9   74   752 
 2020-09-06 18:53:31  10.9   73   752 
 2020-09-06 18:48:27  10.9   75   752 
 2020-09-06 18:43:23  10.8   75   752 
 2020-09-06 18:38:18  10.8   74   752 
 2020-09-06 18:33:14  10.8   74   752 
 2020-09-06 18:28:10  10.7   75   752 
 2020-09-06 18:23:06  10.6   76   752 
 2020-09-06 18:18:02  10.6   74   752 
 2020-09-06 18:12:58  10.7   74   752 
 2020-09-06 18:07:54  10.7   75   752 
 2020-09-06 18:02:50  10.9   75   752 
 2020-09-06 17:57:45  10.8   74   752 
 2020-09-06 17:47:32  10.8   76   752 
 2020-09-06 17:42:28  10.7   76   752 
 2020-09-06 17:37:24  10.8   75   752 
 2020-09-06 17:32:20  10.9   74   752 
 2020-09-06 17:27:16  10.9   75   752 
 2020-09-06 17:22:12  11.1   76   752 
 2020-09-06 17:17:08  11.1   76   752 
 2020-09-06 17:12:04  11.0   76   752 
 2020-09-06 17:07:00  10.8   76   752 
 2020-09-06 17:01:56  10.9   76   752 
 2020-09-06 16:56:52  11.1   75   752 
 2020-09-06 16:51:48  11.1   74   752 
 2020-09-06 16:46:44  10.9   76   752 
 2020-09-06 16:41:40  11.2   77   752 
 2020-09-06 16:36:36  10.8   78   752 
 2020-09-06 16:31:32  10.5   79   752 
 2020-09-06 16:26:28  10.4   81   752 
 2020-09-06 16:21:24  10.7   80   752 
 2020-09-06 16:16:20  10.7   79   752 
 2020-09-06 16:11:15  10.5   79   751 
 2020-09-06 16:06:11  10.8   77   751 
 2020-09-06 16:01:07  10.8   77   751 
 2020-09-06 15:56:03  10.9   75   751 
 2020-09-06 15:50:59  10.8   77   751 
 2020-09-06 15:45:55  10.7   79   751 
 2020-09-06 15:40:48  10.4   78   751 
 2020-09-06 15:35:44  10.5   79   751 
 2020-09-06 15:30:40  10.3   79   751 
 2020-09-06 15:25:36  10.2   80   751 
 2020-09-06 15:20:32  10.2   78   751 
 2020-09-06 15:15:28  10.5   77   751 
 2020-09-06 15:10:24  10.5   76   751 
 2020-09-06 15:05:20  10.4   76   751 
 2020-09-06 15:00:16  10.7   71   751 
 2020-09-06 14:55:12  10.8   71   751 
 2020-09-06 14:50:08  11.1   70   751 
 2020-09-06 14:45:03  11.3   70   751 
 2020-09-06 14:39:56  11.4   69   751 
 2020-09-06 14:34:52  11.6   68   751 
 2020-09-06 14:29:48  11.4   68   751 
 2020-09-06 14:24:44  11.6   67   751 
 2020-09-06 14:19:38  11.4   68   751 
 2020-09-06 14:14:34  11.2   69   751 
 2020-09-06 14:09:30  11.5   69   751 
 2020-09-06 14:04:26  11.3   69   751 
 2020-09-06 13:59:22  11.7   69   751 
 2020-09-06 13:54:18  11.2   71   751 
 2020-09-06 13:49:14  11.3   71   751 
 2020-09-06 13:44:10  11.2   72   751 
 2020-09-06 13:39:06  11.2   71   751 
 2020-09-06 13:34:02  11.4   70   751 
 2020-09-06 13:23:49  11.1   73   751 
 2020-09-06 13:18:45  10.7   69   751 
 2020-09-06 13:08:32  11.2   67   751 
 2020-09-06 13:03:28  11.5   68   751 
 2020-09-06 12:58:24  11.5   67   751 
 2020-09-06 12:53:20  11.3   68   751 
 2020-09-06 12:48:16  10.8   71   751 
 2020-09-06 12:43:11  11.0   70   751 
 2020-09-06 12:38:07  11.0   69   751 
 2020-09-06 12:33:03  11.2   70   751 
 2020-09-06 12:27:59  11.1   70   751 
 2020-09-06 12:22:55  10.6   71   751 
 2020-09-06 12:17:51  10.6   71   751 
 2020-09-06 12:12:47  10.8   70   751 
 2020-09-06 12:07:43  10.9   72   751 
 2020-09-06 12:02:39  10.5   73   751 
 2020-09-06 11:57:35  10.7   74   751 
 2020-09-06 11:52:31  10.2   74   751 
 2020-09-06 11:47:26  10.0   76   751 
 2020-09-06 11:42:22  9.8   77   751 
 2020-09-06 11:37:18  9.6   77   751 
 2020-09-06 11:32:14  9.7   78   751 
 2020-09-06 11:27:10  9.7   77   751 
 2020-09-06 11:22:06  9.8   78   751 
 2020-09-06 11:17:02  9.6   78   751 
 2020-09-06 11:11:58  9.8   79   751 
 2020-09-06 11:06:54  9.4   80   751 
 2020-09-06 11:01:50  9.1   82   751 
 2020-09-06 10:56:46  9.1   81   751 
 2020-09-06 10:51:41  9.0   81   751 
 2020-09-06 10:46:37  9.2   81   751 
 2020-09-06 10:41:33  9.2   80   751 
 2020-09-06 10:36:29  9.1   79   751 
 2020-09-06 10:31:24  9.1   79   751 
 2020-09-06 10:26:20  9.4   79   751 
 2020-09-06 10:21:16  9.6   79   751 
 2020-09-06 10:16:12  9.8   81   751 
 2020-09-06 10:11:08  10.0   80   751 
 2020-09-06 10:06:03  9.4   82   751 
 2020-09-06 10:00:59  8.8   84   751 
 2020-09-06 09:55:55  8.8   84   751 
 2020-09-06 09:50:51  8.8   85   751 
 2020-09-06 09:45:47  8.8   85   751 
 2020-09-06 09:40:43  8.9   86   751 
 2020-09-06 09:35:39  8.7   87   751 
 2020-09-06 09:30:35  8.5   87   751 
 2020-09-06 09:25:31  8.7   88   751 
 2020-09-06 09:20:26  8.6   89   751 
 2020-09-06 09:15:22  8.7   88   751 
 2020-09-06 09:10:18  8.9   86   751 
 2020-09-06 09:05:14  8.9   87   751 
 2020-09-06 09:00:10  8.8   88   751 
 2020-09-06 08:55:06  8.7   89   751 
 2020-09-06 08:50:02  8.4   90   751 
 2020-09-06 08:44:58  8.2   91   751 
 2020-09-06 08:39:52  8.2   91   751 
 2020-09-06 08:34:48  8.1   91   751 
 2020-09-06 08:29:44  8.1   91   751 
 2020-09-06 08:24:40  8.1   92   751 
 2020-09-06 08:19:36  8.1   91   751 
 2020-09-06 08:14:32  8.1   92   751 
 2020-09-06 08:09:28  7.9   92   751 
 2020-09-06 08:04:23  7.8   93   751 
 2020-09-06 07:59:19  7.7   93   751 
 2020-09-06 07:54:15  7.6   93   751 
 2020-09-06 07:49:11  7.4   94   751 
 2020-09-06 07:44:07  7.4   94   751 
 2020-09-06 07:39:03  7.4   94   751 
 2020-09-06 07:33:59  7.4   94   751 
 2020-09-06 07:28:55  7.3   94   751 
 2020-09-06 07:23:51  7.2   94   751 
 2020-09-06 07:18:46  7.2   94   751 
 2020-09-06 07:13:42  7.2   94   751 
 2020-09-06 07:08:38  7.2   94   751 
 2020-09-06 07:03:34  7.2   95   751 
 2020-09-06 06:58:30  7.2   94   751 
 2020-09-06 06:53:26  7.2   95   751 
 2020-09-06 06:48:22  7.2   95   751 
 2020-09-06 06:43:17  7.1   95   751 
 2020-09-06 06:38:13  7.1   96   751 
 2020-09-06 06:33:09  7.1   96   751 
 2020-09-06 06:28:05  7.1   96   751 
 2020-09-06 06:23:01  7.1   96   751 
 2020-09-06 06:17:57  7.0   96   751 
 2020-09-06 06:12:53  7.1   96   751 
 2020-09-06 06:07:48  7.0   97   751 
 2020-09-06 06:02:44  7.0   97   751 
 2020-09-06 05:57:40  6.9   98   751 
 2020-09-06 05:52:36  6.9   97   751 
 2020-09-06 05:47:32  6.9   97   751 
 2020-09-06 05:42:28  6.8   97   751 
 2020-09-06 05:37:24  6.8   97   751 
 2020-09-06 05:32:20  6.8   97   751 
 2020-09-06 05:27:15  6.9   97   750 
 2020-09-06 05:22:11  6.9   97   750 
 2020-09-06 05:17:07  6.8   97   751 
 2020-09-06 05:12:03  6.8   97   750 
 2020-09-06 05:06:59  6.8   96   751 
 2020-09-06 05:01:55  6.7   96   751 
 2020-09-06 04:56:51  6.7   97   751 
 2020-09-06 04:51:47  6.6   96   750 
 2020-09-06 04:46:43  6.6   96   750 
 2020-09-06 04:41:38  6.5   96   750 
 2020-09-06 04:36:34  6.6   96   750 
 2020-09-06 04:31:30  6.4   96   750 
 2020-09-06 04:26:26  6.4   97   750 
 2020-09-06 04:21:22  6.4   96   750 
 2020-09-06 04:16:18  6.5   96   750 
 2020-09-06 04:11:14  6.4   96   750 
 2020-09-06 04:06:10  6.5   96   750 
 2020-09-06 04:01:05  6.5   96   750 
 2020-09-06 03:56:01  6.5   96   750 
 2020-09-06 03:50:57  6.6   96   750 
 2020-09-06 03:45:53  6.4   95   750 
 2020-09-06 03:40:49  6.4   95   750 
 2020-09-06 03:35:45  6.4   96   750 
 2020-09-06 03:30:41  6.4   95   750 
 2020-09-06 03:25:37  6.3   96   750 
 2020-09-06 03:20:32  6.3   95   750 
 2020-09-06 03:15:28  6.4   95   750 
 2020-09-06 03:10:24  6.3   95   750 
 2020-09-06 03:05:20  6.3   94   750 
 2020-09-06 03:00:16  6.2   94   750 
 2020-09-06 02:55:12  6.2   95   750 
 2020-09-06 02:50:08  6.1   95   750 
 2020-09-06 02:45:03  6.1   94   750 
 2020-09-06 02:39:59  6.1   95   750 
 2020-09-06 02:34:55  6.1   95   750 
 2020-09-06 02:29:51  6.1   94   750 
 2020-09-06 02:24:47  6.2   94   750 
 2020-09-06 02:19:43  6.1   95   750 
 2020-09-06 02:14:39  6.1   94   750 
 2020-09-06 02:09:35  6.1   93   750 
 2020-09-06 02:04:30  6.1   93   750 
 2020-09-06 01:59:26  6.1   93   750 
 2020-09-06 01:54:22  6.1   92   750 
 2020-09-06 01:49:18  6.2   92   750 
 2020-09-06 01:44:14  6.1   92   750 
 2020-09-06 01:39:10  6.1   92   750 
 2020-09-06 01:34:06  6.1   92   750 
 2020-09-06 01:29:02  5.8   93   750 
 2020-09-06 01:23:58  5.8   93   750 
 2020-09-06 01:18:54  5.8   93   750 
 2020-09-06 01:13:49  5.8   93   750 
 2020-09-06 01:08:45  5.8   92   750 
 2020-09-06 01:03:41  5.8   92   750 
 2020-09-06 00:58:37  5.8   93   750 
 2020-09-06 00:53:33  5.6   93   751 
 2020-09-06 00:48:29  5.6   93   750 
 2020-09-06 00:43:25  5.5   93   750 
 2020-09-06 00:38:21  5.7   93   750 
 2020-09-06 00:33:17  5.8   92   750 
 2020-09-06 00:28:13  5.8   92   750 
 2020-09-06 00:23:09  5.8   92   750 
 2020-09-06 00:18:05  5.8   92   751 
 2020-09-06 00:13:01  5.9   92   751 
 2020-09-06 00:07:56  5.9   92   751 
 2020-09-06 00:02:52  5.8   92   751 
 2020-09-05 23:57:48  5.9   92   751 
 2020-09-05 23:52:44  5.8   92   751 
 2020-09-05 23:47:40  5.9   92   751 
 2020-09-05 23:42:36  5.9   92   751 
 2020-09-05 23:37:32  6.0   91   751 
 2020-09-05 23:32:28  6.1   90   751 
 2020-09-05 23:27:24  6.2   90   751 
 2020-09-05 23:22:20  6.4   89   751 
 2020-09-05 23:17:13  6.4   89   751 
 2020-09-05 23:12:09  6.4   88   751 
 2020-09-05 23:07:05  6.4   88   751 
 2020-09-05 23:02:01  6.2   2147483647   751 
 2020-09-05 22:56:57  6.3   88   751 
 2020-09-05 22:51:52  6.3   88   751 
 2020-09-05 22:46:48  6.2   88   751 
 2020-09-05 22:41:44  6.1   88   751 
 2020-09-05 22:36:40  6.2   88   751 
 2020-09-05 22:31:36  6.2   88   751 
 2020-09-05 22:26:31  6.4   88   751 
 2020-09-05 22:21:27  6.5   88   751 
 2020-09-05 22:16:23  6.5   88   751 
 2020-09-05 22:11:19  6.6   89   751 
 2020-09-05 22:06:14  6.7   89   751 
 2020-09-05 22:01:10  6.8   89   751 
 2020-09-05 21:56:06  6.6   89   751 
 2020-09-05 21:51:02  6.6   90   751 
 2020-09-05 21:45:58  6.6   90   751 
 2020-09-05 21:40:54  6.5   90   751 
 2020-09-05 21:35:50  6.5   90   751 
 2020-09-05 21:30:46  6.5   91   751 
 2020-09-05 21:25:42  6.5   92   751 
 2020-09-05 21:20:38  6.5   92   751 
 2020-09-05 21:15:33  6.6   92   751 
 2020-09-05 21:10:29  6.7   91   751 
 2020-09-05 21:05:25  6.8   91   751 
 2020-09-05 21:00:21  6.9   90   751 
 2020-09-05 20:55:17  7.1   89   751 
 2020-09-05 20:50:13  7.1   89   751 
 2020-09-05 20:45:09  7.3   88   751 
 2020-09-05 20:40:05  7.4   88   751 
 2020-09-05 20:35:01  7.6   87   751 
 2020-09-05 20:29:56  7.8   85   751 
 2020-09-05 20:24:51  7.9   85   751 
 2020-09-05 20:19:45  8.0   84   751 
 2020-09-05 20:14:40  8.2   84   750 
 2020-09-05 20:09:36  8.2   83   751 
 2020-09-05 20:04:32  8.2   83   750 
 2020-09-05 19:59:28  8.1   83   750 
 2020-09-05 19:54:24  8.2   83   750 
 2020-09-05 19:49:20  8.4   82   750 
 2020-09-05 19:44:16  8.4   82   750 
 2020-09-05 19:39:12  8.4   83   750 
 2020-09-05 19:34:08  8.4   84   750 
 2020-09-05 19:29:04  8.4   82   750 
 2020-09-05 19:24:00  8.4   82   750 
 2020-09-05 19:18:56  8.5   82   750 
 2020-09-05 19:13:52  8.4   81   750 
 2020-09-05 19:08:48  8.4   80   750 
 2020-09-05 19:03:44  8.5   79   750 
 2020-09-05 18:58:40  8.5   78   750 
 2020-09-05 18:53:36  8.6   78   750 
 2020-09-05 18:48:32  8.7   77   750 
 2020-09-05 18:43:28  8.8   76   750 
 2020-09-05 18:38:23  8.8   75   750 
 2020-09-05 18:33:19  8.9   74   750 
 2020-09-05 18:28:15  9.2   73   750 
 2020-09-05 18:23:11  9.2   73   750 
 2020-09-05 18:18:07  9.4   72   750 
 2020-09-05 18:13:03  9.6   71   750 
 2020-09-05 18:07:59  9.4   71   750 
 2020-09-05 18:02:55  9.6   71   750 
 2020-09-05 17:57:51  9.5   71   750 
 2020-09-05 17:52:47  9.5   71   750 
 2020-09-05 17:47:43  9.6   72   750 
 2020-09-05 17:42:39  9.4   74   750 
 2020-09-05 17:37:35  9.2   74   750 
 2020-09-05 17:32:31  9.2   73   750 
 2020-09-05 17:27:27  9.1   75   750 
 2020-09-05 17:22:23  9.4   73   750 
 2020-09-05 17:17:19  9.5   73   750 
 2020-09-05 17:12:15  9.8   73   750 
 2020-09-05 17:07:11  9.8   73   750 
 2020-09-05 17:02:07  10.4   70   750 
 2020-09-05 16:57:03  10.2   69   750 
 2020-09-05 16:51:59  10.1   72   750 
 2020-09-05 16:46:54  9.4   73   750 
 2020-09-05 16:41:50  8.9   74   750 
 2020-09-05 16:36:46  9.4   72   750 
 2020-09-05 16:31:42  9.7   71   750 
 2020-09-05 16:26:38  10.1   76   750 
 2020-09-05 16:21:34  10.2   76   750 
 2020-09-05 16:16:30  10.3   73   750 
 2020-09-05 16:11:26  10.4   72   750 
 2020-09-05 16:06:22  10.2   73   750 
 2020-09-05 16:01:18  9.9   77   750 
 2020-09-05 15:56:14  9.6   78   750 
 2020-09-05 15:51:10  9.5   78   750 
 2020-09-05 15:46:06  9.6   80   750 
 2020-09-05 15:41:02  9.7   78   750 
 2020-09-05 15:35:58  9.6   83   750 
 2020-09-05 15:30:54  9.3   80   750 
 2020-09-05 15:25:50  9.3   82   750 
 2020-09-05 15:20:46  9.3   81   750 
 2020-09-05 15:15:41  8.8   84   750 
 2020-09-05 15:10:37  8.8   83   750 
 2020-09-05 15:05:33  8.6   84   750 
 2020-09-05 15:00:29  8.3   84   750 
 2020-09-05 14:55:25  8.2   85   750 
 2020-09-05 14:50:21  8.1   86   750 
 2020-09-05 14:45:17  8.1   85   750 
 2020-09-05 14:40:13  8.2   84   749 
 2020-09-05 14:35:09  8.3   85   749 
 2020-09-05 14:30:05  8.2   89   749 
 2020-09-05 14:25:01  8.4   87   749 
 2020-09-05 14:19:57  9.2   85   749 
 2020-09-05 14:14:53  8.7   85   749 
 2020-09-05 14:09:49  8.9   85   749 
 2020-09-05 14:04:45  9.1   85   749 
 2020-09-05 13:59:41  9.0   85   749 
 2020-09-05 13:54:37  9.4   86   749 
 2020-09-05 13:49:33  9.3   84   749 
 2020-09-05 13:44:29  8.8   86   749 
 2020-09-05 13:39:25  9.1   84   749 
 2020-09-05 13:34:21  9.3   86   749 
 2020-09-05 13:29:17  8.9   85   749 
 2020-09-05 13:24:12  9.0   83   749 
 2020-09-05 13:19:08  8.9   87   749 
 2020-09-05 13:14:04  8.7   87   749 
 2020-09-05 13:09:00  8.2   88   749 
 2020-09-05 13:03:56  8.1   87   749 
 2020-09-05 12:58:52  8.1   89   749 
 2020-09-05 12:53:48  8.0   90   749 
 2020-09-05 12:48:44  8.0   91   749 
 2020-09-05 12:43:40  8.1   90   749 
 2020-09-05 12:38:36  8.1   90   749 
 2020-09-05 12:33:32  7.9   91   749 
 2020-09-05 12:28:28  7.8   90   749 
 2020-09-05 12:23:24  8.1   88   749 
 2020-09-05 12:18:20  8.6   83   749 
 2020-09-05 12:13:16  8.8   84   749 
 2020-09-05 12:08:12  9.4   83   749 
 2020-09-05 12:03:08  9.4   84   749 
 2020-09-05 11:58:04  9.4   84   749 
 2020-09-05 11:53:00  9.2   81   749 
 2020-09-05 11:47:56  8.9   88   749 
 2020-09-05 11:42:52  8.3   88   749 
 2020-09-05 11:37:47  8.5   89   749 
 2020-09-05 11:32:43  7.9   90   749 
 2020-09-05 11:27:39  7.6   91   749 
 2020-09-05 11:22:35  7.5   91   749 
 2020-09-05 11:17:31  7.6   90   749 
 2020-09-05 11:12:27  7.9   91   749 
 2020-09-05 11:07:23  7.6   92   749 
 2020-09-05 11:02:18  7.4   91   749 
 2020-09-05 10:57:14  7.1   90   749 
 2020-09-05 10:52:10  7.3   92   749 
 2020-09-05 10:47:06  7.2   92   749 
 2020-09-05 10:42:01  7.1   92   749 
 2020-09-05 10:36:57  7.2   91   749 
 2020-09-05 10:31:53  7.2   90   749 
 2020-09-05 10:26:49  7.0   90   749 
 2020-09-05 10:21:45  7.2   90   749 
 2020-09-05 10:16:41  7.3   89   749 
 2020-09-05 10:11:37  7.2   88   749 
 2020-09-05 10:06:33  7.1   88   749 
 2020-09-05 10:01:29  6.9   88   749 
 2020-09-05 09:56:25  7.1   85   749 
 2020-09-05 09:51:21  7.2   85   749 
 2020-09-05 09:46:17  7.1   86   749 
 2020-09-05 09:41:13  7.1   85   749 
 2020-09-05 09:36:09  7.0   84   749 
 2020-09-05 09:31:05  7.2   84   749 
 2020-09-05 09:26:01  7.1   84   749 
 2020-09-05 09:20:57  7.1   83   749 
 2020-09-05 09:15:53  6.9   84   749 
 2020-09-05 09:10:49  6.9   85   749 
 2020-09-05 09:05:44  6.9   84   749 
 2020-09-05 09:00:40  6.8   85   749 
 2020-09-05 08:55:36  6.8   85   749 
 2020-09-05 08:50:32  6.7   85   749 
 2020-09-05 08:45:28  6.7   85   749 
 2020-09-05 08:40:24  6.8   84   749 
 2020-09-05 08:35:20  6.6   86   749 
 2020-09-05 08:30:16  6.4   86   749 
 2020-09-05 08:25:12  6.2   86   749 
 2020-09-05 08:20:08  6.1   86   749 
 2020-09-05 08:15:03  6.2   86   748 
 2020-09-05 08:09:59  5.9   86   748 
 2020-09-05 08:04:55  6.1   85   748 
 2020-09-05 07:59:51  5.8   86   748 
 2020-09-05 07:54:47  5.6   87   748 
 2020-09-05 07:49:43  5.4   87   748 
 2020-09-05 07:44:39  5.2   88   748 
 2020-09-05 07:39:34  5.1   88   748 
 2020-09-05 07:34:30  5.1   88   748 
 2020-09-05 07:29:26  5.0   89   748 
 2020-09-05 07:24:22  4.8   89   748 
 2020-09-05 07:19:18  4.7   88   748 
 2020-09-05 07:14:14  4.8   88   748 
 2020-09-05 07:09:10  4.7   90   748 
 2020-09-05 07:04:06  4.5   91   748 
 2020-09-05 06:59:02  4.5   90   748 
 2020-09-05 06:53:58  4.5   90   748 
 2020-09-05 06:48:53  4.4   91   748 
 2020-09-05 06:43:49  4.3   91   748 
 2020-09-05 06:38:44  4.2   92   748 
 2020-09-05 06:33:40  4.4   91   748 
 2020-09-05 06:28:36  4.4   90   748 
 2020-09-05 06:23:32  4.4   91   748 
 2020-09-05 06:18:28  4.3   91   748 
 2020-09-05 06:13:24  4.1   90   748 
 2020-09-05 06:08:19  4.2   90   748 
 2020-09-05 06:03:15  4.1   91   748 
 2020-09-05 05:58:11  4.1   90   748 
 2020-09-05 05:53:07  4.2   89   748 
 2020-09-05 05:48:03  4.2   89   748 
 2020-09-05 05:42:59  4.1   90   748 
 2020-09-05 05:37:55  4.2   89   748 
 2020-09-05 05:32:50  4.6   88   748 
 2020-09-05 05:27:46  4.7   88   748 
 2020-09-05 05:22:42  4.7   88   748 
 2020-09-05 05:17:38  4.7   88   748 
 2020-09-05 05:12:34  4.7   88   748 
 2020-09-05 05:07:30  4.9   87   748 
 2020-09-05 05:02:26  4.9   88   748 
 2020-09-05 04:57:22  5.1   87   748 
 2020-09-05 04:52:18  5.1   88   748 
 2020-09-05 04:47:14  4.9   88   748 
 2020-09-05 04:42:10  4.9   88   748 
 2020-09-05 04:37:06  4.9   87   748 
 2020-09-05 04:32:02  4.9   87   748 
 2020-09-05 04:26:57  4.9   88   748 
 2020-09-05 04:21:53  4.9   87   748 
 2020-09-05 04:16:49  5.2   87   748 
 2020-09-05 04:11:45  5.1   87   748 
 2020-09-05 04:06:41  4.9   87   748 
 2020-09-05 04:01:37  4.9   87   748 
 2020-09-05 03:56:33  4.9   88   748 
 2020-09-05 03:51:29  4.8   88   748 
 2020-09-05 03:46:24  4.8   88   748 
 2020-09-05 03:41:20  4.7   88   748 
 2020-09-05 03:36:16  4.6   88   748 
 2020-09-05 03:31:12  4.5   88   748 
 2020-09-05 03:26:08  4.4   88   748 
 2020-09-05 03:21:04  4.4   88   748 
 2020-09-05 03:16:00  4.5   87   748 
 2020-09-05 03:10:56  4.6   88   748 
 2020-09-05 03:05:51  4.6   88   748 
 2020-09-05 03:00:47  4.6   88   748 
 2020-09-05 02:55:43  4.6   87   748 
 2020-09-05 02:50:39  4.6   87   748 
 2020-09-05 02:45:35  4.6   87   748 
 2020-09-05 02:40:31  4.7   87   748 
 2020-09-05 02:35:27  4.7   87   748 
 2020-09-05 02:30:23  4.8   87   748 
 2020-09-05 02:25:18  4.9   87   748 
 2020-09-05 02:20:14  4.8   86   748 
 2020-09-05 02:15:10  5.0   85   748 
 2020-09-05 02:10:06  5.0   86   748 
 2020-09-05 02:05:02  5.1   85   748 
 2020-09-05 01:59:58  5.1   85   748 
 2020-09-05 01:54:54  5.1   85   748 
 2020-09-05 01:49:50  5.2   85   748 
 2020-09-05 01:44:45  5.2   86   748 
 2020-09-05 01:34:37  5.3   86   748 
 2020-09-05 01:29:33  5.4   85   748 
 2020-09-05 01:24:29  5.5   85   748 
 2020-09-05 01:19:25  5.4   85   748 
 2020-09-05 01:14:21  5.4   86   748 
 2020-09-05 01:09:17  5.4   85   748 
 2020-09-05 01:04:12  5.6   85   748 
 2020-09-05 00:59:08  5.6   86   748 
 2020-09-05 00:54:04  5.8   85   748 
 2020-09-05 00:49:00  5.8   86   748 
 2020-09-05 00:43:56  5.9   85   748 
 2020-09-05 00:38:52  5.9   85   748 
 2020-09-05 00:33:48  5.9   84   748 
 2020-09-05 00:28:43  6.0   84   748 
 2020-09-05 00:23:39  6.0   84   748 
 2020-09-05 00:18:35  6.0   84   748 
 2020-09-05 00:13:31  6.1   84   748 
 2020-09-05 00:08:27  6.1   84   748 
 2020-09-05 00:03:23  6.1   84   748 
 2020-09-04 23:58:19  6.2   84   748 
 2020-09-04 23:53:15  6.3   83   748 
 2020-09-04 23:48:10  6.3   83   748 
 2020-09-04 23:43:06  6.4   83   748 
 2020-09-04 23:38:02  6.4   83   748 
 2020-09-04 23:32:58  6.5   82   748 
 2020-09-04 23:27:54  6.6   82   748 
 2020-09-04 23:22:50  6.8   82   748 
 2020-09-04 23:17:46  6.8   82   748 
 2020-09-04 23:12:42  6.8   82   748 
 2020-09-04 23:07:35  6.7   81   748 
 2020-09-04 23:02:31  6.9   81   748 
 2020-09-04 22:57:26  6.9   81   748 
 2020-09-04 22:52:22  7.0   80   748 
 2020-09-04 22:47:18  7.1   80   748 
 2020-09-04 22:42:14  7.2   80   748 
 2020-09-04 22:37:10  7.2   80   748 
 2020-09-04 22:32:05  7.3   80   748 
 2020-09-04 22:27:01  7.3   80   747 
 2020-09-04 22:21:57  7.6   78   747 
 2020-09-04 22:16:53  7.6   79   747 
 2020-09-04 22:11:49  7.7   80   747 
 2020-09-04 22:06:44  7.8   80   747 
 2020-09-04 22:01:39  7.7   79   747 
 2020-09-04 21:56:35  7.8   79   747 
 2020-09-04 21:51:31  7.9   78   747 
 2020-09-04 21:46:27  8.1   77   747 
 2020-09-04 21:36:13  8.2   77   747 
 2020-09-04 21:31:09  8.6   76   747 
 2020-09-04 21:26:05  8.6   76   747 
 2020-09-04 21:21:01  8.8   75   747 
 2020-09-04 21:15:57  8.8   75   747 
 2020-09-04 21:10:53  8.9   74   747 
 2020-09-04 21:05:49  8.9   74   747 
 2020-09-04 21:00:44  8.8   75   747 
 2020-09-04 20:55:40  8.9   74   747 
 2020-09-04 20:50:36  8.9   74   747 
 2020-09-04 20:45:32  8.9   73   747 
 2020-09-04 20:40:28  9.1   72   747 
 2020-09-04 20:35:21  9.3   71   747 
 2020-09-04 20:30:17  9.4   71   747 
 2020-09-04 20:25:13  9.5   69   747 
 2020-09-04 20:20:09  9.6   69   747 
 2020-09-04 20:15:04  9.8   68   747 
 2020-09-04 20:10:00  9.8   67   747 
 2020-09-04 20:04:56  9.9   68   747 
 2020-09-04 19:59:52  10.1   67   747 
 2020-09-04 19:54:48  10.4   66   747 
 2020-09-04 19:49:44  10.6   64   747 
 2020-09-04 19:44:40  10.7   63   747 
 2020-09-04 19:39:36  10.9   62   747 
 2020-09-04 19:34:32  11.0   60   747 
 2020-09-04 19:29:28  11.1   60   747 
 2020-09-04 19:24:24  11.4   58   747 
 2020-09-04 19:19:20  11.6   57   747 
 2020-09-04 19:14:16  11.6   58   747 
 2020-09-04 19:09:12  11.9   57   747 
 2020-09-04 19:04:08  12.0   58   747 
 2020-09-04 18:59:04  12.0   59   747 
 2020-09-04 18:54:00  11.8   59   747 
 2020-09-04 18:43:51  11.4   58   747 
 2020-09-04 18:38:47  11.7   58   747 
 2020-09-04 18:33:43  12.0   57   747 
 2020-09-04 18:28:39  12.2   57   747 
 2020-09-04 18:23:35  12.4   56   747 
 2020-09-04 18:18:30  12.6   56   747 
 2020-09-04 18:13:26  12.4   58   747 
 2020-09-04 18:08:22  12.3   60   747 
 2020-09-04 18:03:18  12.2   59   747 
 2020-09-04 17:58:14  12.3   59   747 
 2020-09-04 17:53:10  12.2   59   747 
 2020-09-04 17:48:06  12.2   59   747 
 2020-09-04 17:43:02  12.2   57   747 
 2020-09-04 17:37:58  12.4   58   747 
 2020-09-04 17:32:54  12.4   59   747 
 2020-09-04 17:27:50  12.4   57   747 
 2020-09-04 17:22:46  12.3   58   746 
 2020-09-04 17:17:42  12.3   58   746 
 2020-09-04 17:12:37  12.4   61   746 
 2020-09-04 17:07:33  12.6   58   746 
 2020-09-04 17:02:29  12.9   58   746 
 2020-09-04 16:57:25  12.7   59   746 
 2020-09-04 16:52:21  12.6   60   746 
 2020-09-04 16:47:17  12.4   62   746 
 2020-09-04 16:42:13  12.5   64   746 
 2020-09-04 16:37:09  12.1   65   746 
 2020-09-04 16:32:05  12.0   64   746 
 2020-09-04 16:27:01  12.3   65   746 
 2020-09-04 16:21:57  12.4   62   746 
 2020-09-04 16:16:53  12.8   60   746 
 2020-09-04 16:11:49  12.8   62   746 
 2020-09-04 16:06:45  13.1   61   746 
 2020-09-04 16:01:41  12.9   62   746 
 2020-09-04 15:56:37  12.8   61   746 
 2020-09-04 15:51:33  12.4   61   746 
 2020-09-04 15:46:29  12.4   62   746 
 2020-09-04 15:41:24  12.2   62   746 
 2020-09-04 15:36:20  12.4   61   746 
 2020-09-04 15:31:16  12.6   61   746 
 2020-09-04 15:26:12  12.8   62   746 
 2020-09-04 15:21:08  12.4   64   746 
 2020-09-04 15:16:04  12.3   65   746 
 2020-09-04 15:11:00  12.1   69   746 
 2020-09-04 15:05:56  12.0   71   746 
 2020-09-04 15:00:52  11.4   72   746 
 2020-09-04 14:55:48  11.6   73   746 
 2020-09-04 14:50:44  11.4   72   746 
 2020-09-04 14:45:40  11.4   73   746 
 2020-09-04 14:40:36  11.4   72   746 
 2020-09-04 14:35:32  11.2   74   746 
 2020-09-04 14:30:28  10.9   76   746 
 2020-09-04 14:25:24  10.4   79   746 
 2020-09-04 14:20:19  10.2   80   746 
 2020-09-04 14:15:15  10.6   81   746 
 2020-09-04 14:10:11  10.4   82   746 
 2020-09-04 14:05:07  10.2   84   746 
 2020-09-04 14:00:03  10.0   84   746 
 2020-09-04 13:54:59  10.2   82   746 
 2020-09-04 13:49:55  10.4   81   746 
 2020-09-04 13:44:51  10.6   80   746 
 2020-09-04 13:39:47  10.4   81   746 
 2020-09-04 13:34:42  10.4   82   746 
 2020-09-04 13:29:38  10.7   81   746 
 2020-09-04 13:24:34  10.9   81   746 
 2020-09-04 13:19:30  11.1   80   746 
 2020-09-04 13:14:26  11.1   80   746 
 2020-09-04 13:09:22  11.3   81   746 
 2020-09-04 13:04:18  11.3   84   746 
 2020-09-04 12:59:14  11.1   86   746 
 2020-09-04 12:54:10  11.2   86   746 
 2020-09-04 12:49:06  11.2   88   746 
 2020-09-04 12:44:02  10.9   85   746 
 2020-09-04 12:38:58  11.2   85   746 
 2020-09-04 12:33:54  11.3   84   746 
 2020-09-04 12:28:50  11.5   87   746 
 2020-09-04 12:23:46  11.1   86   746 
 2020-09-04 12:18:42  11.2   87   746 
 2020-09-04 12:13:38  11.1   85   746 
 2020-09-04 12:08:33  11.3   83   746 
 2020-09-04 12:03:29  11.2   85   746 
 2020-09-04 11:58:25  11.2   83   746 
 2020-09-04 11:53:21  11.2   84   745 
 2020-09-04 11:48:17  11.0   81   745 
 2020-09-04 11:43:13  11.2   78   745 
 2020-09-04 11:38:09  11.5   79   745 
 2020-09-04 11:33:05  11.6   80   745 
 2020-09-04 11:28:01  11.6   78   745 
 2020-09-04 11:22:57  11.6   78   745 
 2020-09-04 11:17:53  11.7   80   745 
 2020-09-04 11:12:49  11.5   81   745 
 2020-09-04 11:07:45  11.2   83   745 
 2020-09-04 11:02:41  11.2   84   745 
 2020-09-04 10:57:37  10.9   84   745 
 2020-09-04 10:52:33  10.6   87   745 
 2020-09-04 10:47:29  10.1   88   745 
 2020-09-04 10:42:25  9.9   89   745 
 2020-09-04 10:37:21  9.8   88   745 
 2020-09-04 10:32:16  9.9   89   745 
 2020-09-04 10:27:12  10.2   88   745 
 2020-09-04 10:22:08  10.2   87   745 
 2020-09-04 10:17:04  10.4   86   745 
 2020-09-04 10:12:00  10.3   84   745 
 2020-09-04 10:06:56  10.4   84   745 
 2020-09-04 10:01:52  10.4   83   745 
 2020-09-04 09:56:48  10.4   84   745 
 2020-09-04 09:51:40  10.4   84   745 
 2020-09-04 09:46:35  10.7   82   745 
 2020-09-04 09:41:31  10.4   82   745 
 2020-09-04 09:36:27  10.3   81   745 
 2020-09-04 09:31:21  10.3   82   745 
 2020-09-04 09:26:17  10.6   82   745 
 2020-09-04 09:21:13  10.7   82   745 
 2020-09-04 09:16:08  10.8   81   745 
 2020-09-04 09:11:04  10.7   82   745 
 2020-09-04 09:06:00  10.6   83   745 
 2020-09-04 09:00:56  10.2   84   745 
 2020-09-04 08:55:52  10.2   84   745 
 2020-09-04 08:50:48  10.3   85   745 
 2020-09-04 08:45:44  10.6   84   745 
 2020-09-04 08:40:39  10.4   85   745 
 2020-09-04 08:35:35  10.2   85   745 
 2020-09-04 08:30:31  10.3   85   745 
 2020-09-04 08:25:27  10.5   85   744 
 2020-09-04 08:20:23  10.2   85   745 
 2020-09-04 08:15:19  9.9   85   744 
 2020-09-04 08:10:15  9.9   86   744 
 2020-09-04 08:05:11  9.9   86   744 
 2020-09-04 08:00:06  10.1   87   744 
 2020-09-04 07:55:02  10.0   88   744 
 2020-09-04 07:49:58  9.9   87   744 
 2020-09-04 07:44:54  10.0   88   744 
 2020-09-04 07:39:50  10.0   89   744 
 2020-09-04 07:34:46  10.1   89   744 
 2020-09-04 07:29:42  10.1   89   744 
 2020-09-04 07:24:37  10.1   89   744 
 2020-09-04 07:19:33  10.1   90   744 
 2020-09-04 07:14:29  10.0   89   744 
 2020-09-04 07:09:25  10.2   89   744 
 2020-09-04 07:04:21  10.1   88   744 
 2020-09-04 06:59:17  10.1   88   744 
 2020-09-04 06:54:13  10.2   87   744 
 2020-09-04 06:49:09  10.1   88   744 
 2020-09-04 06:44:04  10.2   87   744 
 2020-09-04 06:39:00  10.2   87   744 
 2020-09-04 06:33:56  10.2   88   744 
 2020-09-04 06:28:52  10.2   87   744 
 2020-09-04 06:23:48  10.2   88   744 
 2020-09-04 06:18:44  10.2   89   744 
 2020-09-04 06:13:40  10.2   89   744 
 2020-09-04 06:08:35  10.1   90   744 
 2020-09-04 06:03:31  10.2   90   744 
 2020-09-04 05:58:27  10.4   89   744 
 2020-09-04 05:53:23  10.4   88   744 
 2020-09-04 05:48:19  10.4   89   744 
 2020-09-04 05:43:15  10.2   89   744 
 2020-09-04 05:38:11  10.4   89   744 
 2020-09-04 05:33:07  10.4   89   744 
 2020-09-04 05:28:02  10.4   89   744 
 2020-09-04 05:22:58  10.5   88   744 
 2020-09-04 05:17:54  10.4   88   744 
 2020-09-04 05:12:50  10.4   88   744 
 2020-09-04 05:07:46  10.4   89   744 
 2020-09-04 05:02:42  10.6   89   744 
 2020-09-04 04:57:38  10.5   90   744 
 2020-09-04 04:52:34  10.4   91   744 
 2020-09-04 04:47:29  10.7   90   744 
 2020-09-04 04:42:25  10.8   90   744 
 2020-09-04 04:37:21  10.8   90   744 
 2020-09-04 04:32:17  10.7   89   744 
 2020-09-04 04:27:13  10.9   90   744 
 2020-09-04 04:22:09  10.9   88   744 
 2020-09-04 04:17:05  11.1   88   744 
 2020-09-04 04:12:00  11.1   88   744 
 2020-09-04 04:06:56  11.1   2147483647   744 
 2020-09-04 04:01:52  11.1   88   744 
 2020-09-04 03:56:48  11.0   88   744 
 2020-09-04 03:51:44  11.1   87   744 
 2020-09-04 03:46:40  11.1   86   744 
 2020-09-04 03:41:36  11.1   86   744 
 2020-09-04 03:36:32  11.2   86   744 
 2020-09-04 03:31:27  11.2   87   743 
 2020-09-04 03:26:23  11.1   87   743 
 2020-09-04 03:21:19  11.1   86   743 
 2020-09-04 03:16:15  11.2   86   743 
 2020-09-04 03:11:11  11.2   86   743 
 2020-09-04 03:06:07  11.4   86   743 
 2020-09-04 03:01:03  11.4   85   743 
 2020-09-04 02:55:59  11.6   87   743 
 2020-09-04 02:50:54  11.7   87   743 
 2020-09-04 02:45:50  11.6   88   743 
 2020-09-04 02:40:46  11.6   88   743 
 2020-09-04 02:35:42  11.6   88   743 
 2020-09-04 02:30:38  11.8   88   743 
 2020-09-04 02:25:34  11.9   88   743 
 2020-09-04 02:20:30  11.8   87   743 
 2020-09-04 02:15:26  12.1   88   743 
 2020-09-04 02:10:21  11.9   89   743 
 2020-09-04 02:05:17  12.1   88   743 
 2020-09-04 02:00:13  12.2   89   743 
 2020-09-04 01:55:09  12.2   88   743 
 2020-09-04 01:50:05  12.2   88   743 
 2020-09-04 01:45:01  12.2   88   743 
 2020-09-04 01:39:57  12.4   87   743 
 2020-09-04 01:34:52  12.7   86   743 
 2020-09-04 01:29:48  12.8   86   743 
 2020-09-04 01:24:44  12.8   86   743 
 2020-09-04 01:19:40  12.8   86   743 
 2020-09-04 01:14:36  13.1   84   743 
 2020-09-04 01:09:32  13.0   85   743 
 2020-09-04 01:04:28  13.2   84   743 
 2020-09-04 00:59:24  13.4   83   743 
 2020-09-04 00:54:19  13.4   83   743 
 2020-09-04 00:49:15  13.4   82   743 
 2020-09-04 00:44:11  13.4   82   743 
 2020-09-04 00:39:07  13.6   82   743 
 2020-09-04 00:34:03  13.8   81   743 
 2020-09-04 00:28:59  13.7   81   743 
 2020-09-04 00:23:55  13.6   81   743 
 2020-09-04 00:18:50  13.8   81   743 
 2020-09-04 00:13:46  13.8   81   743 
 2020-09-04 00:08:42  13.7   81   743 
 2020-09-04 00:03:38  13.7   81   742 
 2020-09-03 23:58:34  13.8   80   742 
 2020-09-03 23:53:30  13.8   80   742 
 2020-09-03 23:48:26  13.9   80   742 
 2020-09-03 23:43:22  13.9   80   742 
 2020-09-03 23:38:16  14.1   79   742 
 2020-09-03 23:33:12  14.1   79   742 
 2020-09-03 23:28:08  14.2   79   742 
 2020-09-03 23:23:01  14.3   79   742 
 2020-09-03 23:17:57  14.5   78   742 
 2020-09-03 23:12:53  14.7   78   742 
 2020-09-03 23:07:48  14.7   77   742 
 2020-09-03 23:02:44  14.8   76   742 
 2020-09-03 22:57:40  15.0   76   742 
 2020-09-03 22:52:36  15.1   77   742 
 2020-09-03 22:47:32  15.1   76   742 
 2020-09-03 22:42:28  15.3   75   742 
 2020-09-03 22:37:24  15.4   74   742 
 2020-09-03 22:32:19  15.5   75   741 
 2020-09-03 22:27:14  15.6   74   741 
 2020-09-03 22:22:10  15.8   74   741 
 2020-09-03 22:17:05  15.8   73   741 
 2020-09-03 22:12:01  15.8   74   741 
 2020-09-03 22:06:57  15.9   74   741 
 2020-09-03 21:56:44  16.2   72   741 
 2020-09-03 21:51:40  16.2   71   741 
 2020-09-03 21:41:25  16.5   71   741 
 2020-09-03 21:36:21  16.6   70   741 
 2020-09-03 21:31:17  16.8   70   741 
 2020-09-03 21:26:13  16.8   69   741 
 2020-09-03 21:21:09  17.0   68   741 
 2020-09-03 21:16:03  17.1   69   741 
 2020-09-03 21:10:59  17.2   69   741 
 2020-09-03 21:05:55  17.4   68   741 
 2020-09-03 21:00:51  17.6   68   741 
 2020-09-03 20:55:47  17.8   67   741 
 2020-09-03 20:50:43  17.8   66   740 
 2020-09-03 20:45:39  18.1   66   740 
 2020-09-03 20:40:35  18.1   65   740 
 2020-09-03 20:35:31  18.2   66   740 
 2020-09-03 20:30:26  18.4   64   740 
 2020-09-03 20:25:22  18.6   64   740 
 2020-09-03 20:20:18  18.6   64   740 
 2020-09-03 20:15:14  18.7   65   740 
 2020-09-03 20:10:10  18.6   64   740 
 2020-09-03 20:05:06  18.9   64   740 
 2020-09-03 19:59:50  19.0   63   740 
 2020-09-03 19:54:46  19.1   63   740 
 2020-09-03 19:49:41  19.2   63   740 
 2020-09-03 19:44:37  19.4   61   740 
 2020-09-03 19:39:32  19.4   62   740 
 2020-09-03 19:34:25  19.5   61   740 
 2020-09-03 19:29:21  19.6   61   740 
 2020-09-03 19:24:17  19.8   59   740 
 2020-09-03 19:19:13  19.8   60   740 
 2020-09-03 19:14:09  19.9   58   740 
 2020-09-03 19:09:05  20.0   58   740 
 2020-09-03 19:04:01  20.1   59   740 
 2020-09-03 18:58:56  20.1   58   740 
 2020-09-03 18:53:52  20.3   58   740 
 2020-09-03 18:48:48  20.5   58   740 
 2020-09-03 18:43:44  20.8   58   740 
 2020-09-03 18:38:40  20.8   60   740 
 2020-09-03 18:33:36  20.8   59   740 
 2020-09-03 18:28:32  20.6   61   740 
 2020-09-03 18:23:28  20.8   61   740 
 2020-09-03 18:18:24  20.9   61   740 
 2020-09-03 18:13:20  20.8   60   739 
 2020-09-03 18:08:16  20.9   62   739 
 2020-09-03 18:03:12  20.8   63   739 
 2020-09-03 17:58:08  20.8   65   739 
 2020-09-03 17:53:03  20.9   66   739 
 2020-09-03 17:47:59  21.2   65   739 
 2020-09-03 17:42:55  20.9   69   739 
 2020-09-03 17:37:51  20.9   67   739 
 2020-09-03 17:32:47  21.5   67   739 
 2020-09-03 17:27:43  22.0   65   739 
 2020-09-03 17:22:39  22.3   63   739 
 2020-09-03 17:17:35  22.6   60   739 
 2020-09-03 17:12:31  22.8   57   739 
 2020-09-03 17:07:27  23.2   54   738 
 2020-09-03 17:02:23  23.4   53   738 
 2020-09-03 16:57:19  23.6   52   738 
 2020-09-03 16:52:15  23.5   52   738 
 2020-09-03 16:47:11  23.4   55   738 
 2020-09-03 16:42:07  23.4   56   738 
 2020-09-03 16:37:03  22.9   64   738 
 2020-09-03 16:31:59  22.5   65   738 
 2020-09-03 16:26:55  22.0   70   738 
 2020-09-03 16:21:50  21.8   70   738 
 2020-09-03 16:16:46  21.7   71   738 
 2020-09-03 16:11:42  21.6   72   738 
 2020-09-03 16:06:38  21.4   72   739 
 2020-09-03 16:01:34  21.5   71   738 
 2020-09-03 15:56:30  21.1   65   738 
 2020-09-03 15:51:26  23.8   50   739 
 2020-09-03 15:46:22  24.1   50   738 
 2020-09-03 15:41:18  24.2   49   738 
 2020-09-03 15:36:14  24.4   48   738 
 2020-09-03 15:31:10  24.9   47   738 
 2020-09-03 15:26:06  25.2   47   738 
 2020-09-03 15:21:02  25.3   45   738 
 2020-09-03 15:15:58  24.8   47   738 
 2020-09-03 15:10:54  24.8   48   738 
 2020-09-03 15:05:50  25.0   46   738 
 2020-09-03 15:00:46  25.1   46   738 
 2020-09-03 14:55:42  25.2   46   738 
 2020-09-03 14:50:38  25.0   48   738 
 2020-09-03 14:45:33  25.1   49   738 
 2020-09-03 14:40:29  25.0   48   738 
 2020-09-03 14:35:25  24.8   49   738 
 2020-09-03 14:30:21  24.7   49   738 
 2020-09-03 14:25:17  24.6   49   738 
 2020-09-03 14:20:13  24.6   49   738 
 2020-09-03 14:15:09  24.6   48   738 
 2020-09-03 14:10:05  24.5   50   738 
 2020-09-03 14:05:01  24.4   51   738 
 2020-09-03 13:59:57  24.4   50   738 
 2020-09-03 13:54:53  24.4   52   738 
 2020-09-03 13:49:49  24.3   51   738 
 2020-09-03 13:44:45  24.1   53   738 
 2020-09-03 13:39:41  23.9   53   738 
 2020-09-03 13:34:37  23.7   54   738 
 2020-09-03 13:29:33  23.6   53   738 
 2020-09-03 13:24:29  23.4   54   738 
 2020-09-03 13:19:25  23.4   54   738 
 2020-09-03 13:14:21  23.3   58   738 
 2020-09-03 13:09:17  22.9   58   738 
 2020-09-03 13:04:12  22.7   56   738 
 2020-09-03 12:59:08  22.6   58   738 
 2020-09-03 12:54:04  22.4   58   738 
 2020-09-03 12:49:00  22.4   58   738 
 2020-09-03 12:43:56  22.3   57   738 
 2020-09-03 12:38:52  22.2   59   738 
 2020-09-03 12:33:48  22.1   59   738 
 2020-09-03 12:28:44  21.8   60   738 
 2020-09-03 12:23:40  21.5   60   738 
 2020-09-03 12:18:36  21.5   59   738 
 2020-09-03 12:13:32  21.7   59   738 
 2020-09-03 12:08:28  21.9   58   739 
 2020-09-03 12:03:24  21.9   59   739 
 2020-09-03 11:58:20  21.7   59   738 
 2020-09-03 11:53:16  21.9   58   738 
 2020-09-03 11:48:12  21.8   59   738 
 2020-09-03 11:43:08  22.0   58   738 
 2020-09-03 11:38:03  21.8   59   738 
 2020-09-03 11:32:59  21.3   61   738 
 2020-09-03 11:27:55  21.7   61   738 
 2020-09-03 11:22:51  21.9   62   739 
 2020-09-03 11:17:47  21.7   65   739 
 2020-09-03 11:12:43  21.6   65   739 
 2020-09-03 11:07:39  21.1   68   739 
 2020-09-03 11:02:35  20.9   69   739 
 2020-09-03 10:57:31  20.8   69   739 
 2020-09-03 10:52:27  20.5   72   739 
 2020-09-03 10:47:23  20.4   73   739 
 2020-09-03 10:42:19  20.1   73   739 
 2020-09-03 10:37:15  19.9   75   739 
 2020-09-03 10:32:11  19.6   75   739 
 2020-09-03 10:27:07  19.5   76   739 
 2020-09-03 10:22:03  19.4   77   739 
 2020-09-03 10:16:58  19.3   77   739 
 2020-09-03 10:11:54  19.1   78   739 
 2020-09-03 10:06:50  18.8   79   739 
 2020-09-03 10:01:46  18.6   79   739 
 2020-09-03 09:56:42  18.4   79   739 
 2020-09-03 09:51:38  18.5   80   739 
 2020-09-03 09:46:34  18.6   80   739 
 2020-09-03 09:41:30  18.4   80   739 
 2020-09-03 09:36:26  18.4   81   739 
 2020-09-03 09:31:22  18.2   83   739 
 2020-09-03 09:26:18  17.8   83   739 
 2020-09-03 09:21:14  17.5   85   739 
 2020-09-03 09:16:10  17.4   85   739 
 2020-09-03 09:11:06  17.2   85   739 
 2020-09-03 09:06:02  17.1   86   739 
 2020-09-03 09:00:58  16.9   88   739 
 2020-09-03 08:55:54  16.6   89   739 
 2020-09-03 08:50:50  16.2   90   739 
 2020-09-03 08:45:46  16.2   90   739 
 2020-09-03 08:40:42  16.1   91   739 
 2020-09-03 08:35:38  15.9   91   740 
 2020-09-03 08:30:34  15.7   92   740 
 2020-09-03 08:25:29  15.7   92   740 
 2020-09-03 08:20:25  15.4   93   740 
 2020-09-03 08:15:21  15.2   94   740 
 2020-09-03 08:10:17  14.9   96   740 
 2020-09-03 08:05:13  14.7   96   740 
 2020-09-03 08:00:09  14.6   97   740 
 2020-09-03 07:55:05  14.4   98   740 
 2020-09-03 07:50:01  14.2   99   740 
 2020-09-03 07:44:57  14.0   100   740 
 2020-09-03 07:39:53  13.7   100   740 
 2020-09-03 07:34:49  13.6   100   740 
 2020-09-03 07:29:45  13.6   100   740 
 2020-09-03 07:24:41  13.4   100   740 
 2020-09-03 07:19:37  13.4   100   740 
 2020-09-03 07:14:32  13.3   100   740 
 2020-09-03 07:09:28  13.2   100   740 
 2020-09-03 07:04:24  13.2   100   740 
 2020-09-03 06:59:20  13.1   100   740 
 2020-09-03 06:54:16  13.1   100   740 
 2020-09-03 06:49:12  13.0   100   740 
 2020-09-03 06:44:08  13.0   100   740 
 2020-09-03 06:39:04  13.0   100   740 
 2020-09-03 06:34:00  12.9   100   740 
 2020-09-03 06:28:56  13.0   100   741 
 2020-09-03 06:23:52  13.0   100   741 
 2020-09-03 06:18:48  13.1   100   741 
 2020-09-03 06:13:44  13.0   100   741 
 2020-09-03 06:08:39  13.1   100   741 
 2020-09-03 06:03:31  13.1   100   741 
 2020-09-03 05:58:27  13.1   100   741 
 2020-09-03 05:53:23  13.0   100   741 
 2020-09-03 05:48:18  13.1   100   741 
 2020-09-03 05:43:13  13.2   100   741 
 2020-09-03 05:38:09  13.2   100   741 
 2020-09-03 05:33:05  13.2   100   741 
 2020-09-03 05:28:01  13.3   100   741 
 2020-09-03 05:22:57  13.2   100   741 
 2020-09-03 05:17:53  13.2   100   741 
 2020-09-03 05:12:49  13.4   100   742 
 2020-09-03 05:07:44  13.4   100   742 
 2020-09-03 05:02:40  13.4   100   742 
 2020-09-03 04:57:36  13.5   100   742 
 2020-09-03 04:52:32  13.6   100   742 
 2020-09-03 04:47:28  13.6   100   742 
 2020-09-03 04:42:24  13.6   100   742 
 2020-09-03 04:37:20  13.7   100   742 
 2020-09-03 04:32:16  13.8   100   742 
 2020-09-03 04:27:12  13.8   100   742 
 2020-09-03 04:22:07  13.8   100   743 
 2020-09-03 04:17:03  13.8   100   742 
 2020-09-03 04:11:59  13.7   100   742 
 2020-09-03 04:06:55  13.8   100   742 
 2020-09-03 04:01:50  13.8   100   742 
 2020-09-03 03:56:46  13.8   100   742 
 2020-09-03 03:51:42  13.8   100   742 
 2020-09-03 03:46:37  13.8   100   742 
 2020-09-03 03:41:32  13.8   100   742 
 2020-09-03 03:36:27  13.8   100   743 
 2020-09-03 03:31:23  13.8   100   743 
 2020-09-03 03:26:19  13.8   100   743 
 2020-09-03 03:21:14  13.8   100   743 
 2020-09-03 03:16:10  13.8   100   743 
 2020-09-03 03:11:06  13.8   100   743 
 2020-09-03 03:06:02  13.7   100   743 
 2020-09-03 03:00:57  13.7   100   743 
 2020-09-03 02:55:53  13.6   100   743 
 2020-09-03 02:50:49  13.6   100   743 
 2020-09-03 02:45:45  13.8   100   743 
 2020-09-03 02:40:41  13.6   100   744 
 2020-09-03 02:35:37  13.6   100   744 
 2020-09-03 02:30:33  13.6   100   743 
 2020-09-03 02:25:29  13.8   100   743 
 2020-09-03 02:20:24  13.8   100   744 
 2020-09-03 02:15:20  13.7   100   744 
 2020-09-03 02:10:16  13.7   100   744 
 2020-09-03 02:05:12  13.7   100   744 
 2020-09-03 02:00:08  13.8   100   744 
 2020-09-03 01:55:03  13.7   100   744 
 2020-09-03 01:49:59  13.8   100   744 
 2020-09-03 01:44:55  13.8   100   744 
 2020-09-03 01:39:50  13.9   100   744 
 2020-09-03 01:34:46  13.8   100   744 
 2020-09-03 01:29:42  13.8   100   744 
 2020-09-03 01:24:38  13.8   100   744 
 2020-09-03 01:19:32  13.8   100   744 
 2020-09-03 01:14:28  13.9   99   745 
 2020-09-03 01:09:24  13.9   100   745 
 2020-09-03 01:04:20  13.8   100   745 
 2020-09-03 00:59:16  13.8   100   745 
 2020-09-03 00:54:11  13.9   100   745 
 2020-09-03 00:49:07  13.8   100   745 
 2020-09-03 00:44:03  13.9   100   745 
 2020-09-03 00:38:59  13.9   99   745 
 2020-09-03 00:33:55  13.9   99   745 
 2020-09-03 00:28:51  13.9   99   745 
 2020-09-03 00:23:47  13.9   100   745 
 2020-09-03 00:18:42  13.8   100   745 
 2020-09-03 00:13:38  13.8   100   745 
 2020-09-03 00:08:34  13.8   100   745 
 2020-09-03 00:03:30  13.8   100   745 
 2020-09-02 23:58:26  13.8   99   745 
 2020-09-02 23:53:22  13.8   99   745 
 2020-09-02 23:48:18  13.8   98   745 
 2020-09-02 23:43:14  13.9   98   745 
 2020-09-02 23:38:10  13.9   98   745 
 2020-09-02 23:33:05  13.9   97   745 
 2020-09-02 23:28:01  13.9   97   745 
 2020-09-02 23:22:57  13.9   97   745 
 2020-09-02 23:17:53  13.8   97   745 
 2020-09-02 23:12:49  13.8   97   745 
 2020-09-02 23:07:45  13.9   96   745 
 2020-09-02 23:02:41  13.9   96   745 
 2020-09-02 22:57:37  13.8   96   745 
 2020-09-02 22:52:33  13.8   96   745 
 2020-09-02 22:47:29  13.9   96   745 
 2020-09-02 22:42:25  13.8   96   746 
 2020-09-02 22:37:21  13.8   96   746 
 2020-09-02 22:32:17  13.8   95   746 
 2020-09-02 22:27:11  13.7   95   746 
 2020-09-02 22:22:07  13.8   95   746 
 2020-09-02 22:17:03  13.8   95   746 
 2020-09-02 22:11:59  13.8   95   746 
 2020-09-02 22:06:54  13.8   94   746 
 2020-09-02 22:01:50  13.7   94   746 
 2020-09-02 21:56:46  13.7   94   746 
 2020-09-02 21:51:42  13.6   94   746 
 2020-09-02 21:46:38  13.7   94   746 
 2020-09-02 21:41:34  13.7   94   746 
 2020-09-02 21:36:30  13.7   94   746 
 2020-09-02 21:31:25  13.7   95   746 
 2020-09-02 21:26:21  13.8   94   746 
 2020-09-02 21:21:16  13.6   95   746 
 2020-09-02 21:16:12  13.6   95   746 
 2020-09-02 21:11:08  13.6   95   746 
 2020-09-02 21:06:04  13.6   95   746 
 2020-09-02 21:00:59  13.5   95   746 
 2020-09-02 20:55:55  13.6   94   746 
 2020-09-02 20:50:51  13.5   94   746 
 2020-09-02 20:45:47  13.5   94   746 
 2020-09-02 20:40:43  13.5   94   746 
 2020-09-02 20:35:38  13.6   93   746 
 2020-09-02 20:30:33  13.6   93   746 
 2020-09-02 20:25:29  13.5   93   746 
 2020-09-02 20:20:25  13.6   93   746 
 2020-09-02 20:15:21  13.6   93   746 
 2020-09-02 20:10:17  13.6   93   746 
 2020-09-02 20:05:13  13.8   92   746 
 2020-09-02 20:00:09  13.8   92   746 
 2020-09-02 19:55:05  13.9   91   746 
 2020-09-02 19:50:01  14.0   91   746 
 2020-09-02 19:44:57  14.1   90   746 
 2020-09-02 19:39:53  14.1   91   746 
 2020-09-02 19:34:48  14.1   91   746 
 2020-09-02 19:29:44  14.1   90   746 
 2020-09-02 19:24:40  14.2   91   747 
 2020-09-02 19:19:36  14.1   92   747 
 2020-09-02 19:14:32  13.9   92   747 
 2020-09-02 19:09:28  13.9   93   747 
 2020-09-02 19:04:24  13.9   92   747 
 2020-09-02 18:59:20  13.9   93   747 
 2020-09-02 18:54:16  13.9   92   747 
 2020-09-02 18:49:12  14.0   91   747 
 2020-09-02 18:44:08  13.9   91   747 
 2020-09-02 18:39:04  14.0   91   747 
 2020-09-02 18:34:00  14.2   90   747 
 2020-09-02 18:28:56  14.3   90   747 
 2020-09-02 18:23:51  14.4   89   747 
 2020-09-02 18:18:47  14.2   90   747 
 2020-09-02 18:13:43  14.4   89   747 
 2020-09-02 18:08:39  14.3   91   747 
 2020-09-02 18:03:35  14.5   91   747 
 2020-09-02 17:58:31  14.5   91   747 
 2020-09-02 17:53:27  14.5   90   747 
 2020-09-02 17:48:21  14.6   89   747 
 2020-09-02 17:43:17  14.8   87   747 
 2020-09-02 17:38:13  15.2   84   747 
 2020-09-02 17:33:09  15.4   82   747 
 2020-09-02 17:28:05  15.5   81   747 
 2020-09-02 17:23:01  15.9   78   747 
 2020-08-26 14:21:42  19.1   46   748 
 2020-08-26 10:58:45  15.4   65   747 
 2020-08-26 10:53:39  15.4   64   747 
 2020-08-26 10:48:35  15.2   66   747 
 2020-08-26 10:43:31  15.1   67   747 
 2020-08-26 10:38:27  15.2   69   747 
 2020-08-26 10:33:23  15.1   70   747 
 2020-08-26 10:28:19  14.9   72   747 
 2020-08-26 10:23:15  15.0   72   747 
 2020-08-26 10:18:11  14.8   74   747 
 2020-08-26 10:13:07  14.4   75   747 
 2020-08-26 10:08:03  14.4   76   747 
 2020-08-26 10:02:59  14.5   75   747 
 2020-08-26 09:57:55  14.2   77   747 
 2020-08-26 09:52:51  14.2   78   747 
 2020-08-26 09:47:47  14.2   79   747 
 2020-08-26 09:42:42  13.9   80   747 
 2020-08-26 09:37:38  13.8   80   747 
 2020-08-26 09:32:34  13.7   82   747 
 2020-08-26 08:56:35  12.9   83   747 
 2020-08-26 08:51:31  12.9   82   747 
 2020-08-26 00:24:40  11.9   90   743 
 2020-08-25 23:54:41  11.9   89   743 
 2020-08-25 23:49:37  12.0   90   743 
 2020-08-25 23:39:24  12.2   89   743 
 2020-08-25 23:29:10  12.2   90   743 
 2020-08-25 23:24:06  12.2   89   743 
 2020-08-25 23:19:02  12.2   90   743 
 2020-08-25 23:13:56  12.4   89   743 
 2020-08-25 23:08:52  12.4   90   743 
 2020-08-25 23:03:48  12.4   89   743 
 2020-08-25 22:58:42  12.5   89   743 
 2020-08-25 22:53:37  12.4   90   743 
 2020-08-25 22:48:32  12.5   90   743 
 2020-08-25 22:18:45  13.1   87   743 
 2020-08-25 21:58:15  13.4   85   743 
 2020-08-25 21:53:08  13.8   85   743 
 2020-08-25 21:26:45  13.9   85   743 
 2020-08-25 18:07:17  18.6   54   742 
 2020-08-25 15:29:31  18.3   57   742 
 2020-08-25 15:24:27  18.6   56   742 
 2020-08-25 15:19:23  18.8   54   743 
 2020-08-25 15:14:18  19.0   57   742 
 2020-08-25 15:09:14  18.9   58   742 
 2020-08-25 15:04:10  18.8   55   742 
 2020-08-25 14:59:06  18.5   56   742 
 2020-08-25 14:54:02  18.5   55   742 
 2020-08-25 14:48:58  18.1   57   743 
 2020-08-25 14:43:54  17.9   58   742 
 2020-08-25 14:38:50  18.2   60   743 
 2020-08-25 14:33:45  18.3   60   743 
 2020-08-25 14:28:41  17.9   62   743 
 2020-08-25 14:23:37  17.6   60   743 
 2020-08-25 14:18:32  17.8   62   743 
 2020-08-25 14:13:28  18.2   64   743 
 2020-08-25 14:08:24  17.8   64   743 
 2020-08-25 14:03:20  17.8   63   743 
 2020-08-25 13:58:16  17.4   66   743 
 2020-08-25 13:53:12  17.2   66   743 
 2020-08-25 13:48:08  16.9   67   743 
 2020-08-25 13:42:59  17.2   68   743 
 2020-08-25 13:37:55  17.0   68   743 
 2020-08-25 13:32:51  16.7   68   743 
 2020-08-25 13:27:47  16.7   70   743 
 2020-08-25 13:22:43  17.4   68   743 
 2020-08-25 13:17:37  17.8   68   743 
 2020-08-25 13:12:33  18.4   66   743 
 2020-08-25 13:07:29  18.4   67   743 
 2020-08-25 13:02:25  18.0   67   743 
 2020-08-25 12:57:21  18.1   67   743 
 2020-08-25 12:52:17  17.8   67   743 
 2020-08-25 12:47:13  17.6   68   743 
 2020-08-25 12:42:06  18.2   68   743 
 2020-08-25 12:37:02  17.9   68   743 
 2020-08-25 12:31:55  17.6   71   743 
 2020-08-25 12:26:51  17.6   69   743 
 2020-08-25 12:21:47  17.6   69   743 
 2020-08-25 12:11:34  16.9   68   743 
 2020-08-25 12:06:30  17.0   70   743 
 2020-08-25 12:01:25  17.2   66   743 
 2020-08-25 11:56:21  17.5   65   743 
 2020-08-25 11:51:17  17.4   64   743 
 2020-08-25 11:46:13  17.2   63   743 
 2020-08-25 11:41:09  17.6   67   743 
 2020-08-25 11:36:05  17.5   67   743 
 2020-08-25 11:31:01  17.2   67   743 
 2020-08-25 11:25:57  16.9   66   743 
 2020-08-25 11:20:53  16.5   71   743 
 2020-08-25 11:15:49  16.4   68   743 
 2020-08-25 11:10:44  16.3   69   743 
 2020-08-25 11:05:40  15.9   74   743 
 2020-08-25 11:00:36  15.8   73   743 
 2020-08-25 10:55:31  15.3   78   744 
 2020-08-25 10:50:27  14.8   80   743 
 2020-08-25 10:45:23  15.0   78   744 
 2020-08-25 10:40:19  15.2   79   744 
 2020-08-25 10:35:15  15.1   79   744 
 2020-08-25 10:30:11  14.9   79   744 
 2020-08-25 10:25:07  14.8   80   744 
 2020-08-25 10:20:03  14.6   81   744 
 2020-08-25 10:14:59  14.9   80   744 
 2020-08-25 10:09:54  14.6   82   744 
 2020-08-25 10:04:50  14.4   81   744 
 2020-08-25 09:59:46  14.3   82   744 
 2020-08-25 09:54:42  14.3   81   744 
 2020-08-25 09:49:38  14.2   83   744 
 2020-08-25 09:44:34  14.2   82   744 
 2020-08-25 09:39:30  13.9   83   744 
 2020-08-25 09:34:26  14.3   81   744 
 2020-08-25 09:29:21  14.3   83   744 
 2020-08-25 09:24:17  13.9   81   744 
 2020-08-25 09:19:13  13.6   85   744 
 2020-08-25 09:14:09  13.4   85   744 
 2020-08-25 09:09:05  13.7   83   744 
 2020-08-25 09:04:01  13.2   85   744 
 2020-08-25 08:58:57  13.1   85   744 
 2020-08-25 08:53:53  13.2   84   744 
 2020-08-25 08:43:31  12.6   87   744 
 2020-08-25 08:22:57  12.2   87   744 
 2020-08-25 08:17:51  11.9   89   744 
 2020-08-25 08:12:47  11.6   90   744 
 2020-08-25 08:07:42  11.4   91   744 
 2020-08-25 08:02:38  11.0   93   744 
 2020-08-25 07:57:34  11.1   91   744 
 2020-08-25 07:52:30  10.6   93   744 
 2020-08-25 07:47:26  10.8   92   744 
 2020-08-25 07:42:22  10.6   92   744 
 2020-08-25 07:37:18  10.4   93   744 
 2020-08-25 07:32:14  10.4   93   744 
 2020-08-25 07:27:10  10.1   93   744 
 2020-08-25 07:22:05  10.3   92   744 
 2020-08-25 07:17:01  10.6   91   744 
 2020-08-25 07:11:57  10.6   93   744 
 2020-08-25 07:06:53  10.3   92   744 
 2020-08-25 07:01:49  10.2   95   744 
 2020-08-25 06:56:45  9.9   96   744 
 2020-08-25 06:51:40  9.7   96   744 
 2020-08-25 06:46:36  9.6   96   744 
 2020-08-25 06:41:28  9.6   96   744 
 2020-08-25 06:36:24  9.8   96   744 
 2020-08-25 06:31:20  9.8   96   744 
 2020-08-25 06:26:16  9.8   95   744 
 2020-08-25 06:21:11  9.8   95   744 
 2020-08-25 06:16:07  9.8   95   744 
 2020-08-25 06:11:03  9.9   95   744 
 2020-08-25 06:05:59  9.9   95   744 
 2020-08-25 06:00:55  10.1   95   744 
 2020-08-25 05:55:51  10.0   95   744 
 2020-08-25 05:50:47  10.1   95   744 
 2020-08-25 05:45:43  10.1   96   744 
 2020-08-25 05:40:38  10.1   96   744 
 2020-08-25 05:35:34  10.1   96   744 
 2020-08-25 05:30:30  10.2   96   744 
 2020-08-25 05:25:26  10.3   96   744 
 2020-08-25 05:20:22  10.4   95   744 
 2020-08-25 05:15:18  10.4   95   744 
 2020-08-25 05:10:14  10.4   95   744 
 2020-08-25 05:05:09  10.4   96   744 
 2020-08-25 05:00:05  10.4   96   744 
 2020-08-25 04:55:01  10.3   97   744 
 2020-08-25 04:49:57  10.5   97   744 
 2020-08-25 04:44:53  10.4   97   744 
 2020-08-25 04:39:49  10.4   97   744 
 2020-08-25 04:34:45  10.5   96   744 
 2020-08-25 04:29:40  10.6   97   744 
 2020-08-25 04:24:36  10.5   97   744 
 2020-08-25 04:19:32  10.7   96   744 
 2020-08-25 04:14:28  10.8   96   744 
 2020-08-25 04:09:24  10.9   95   744 
 2020-08-25 04:04:20  11.1   96   744 
 2020-08-25 03:59:16  11.1   96   744 
 2020-08-25 03:54:12  11.1   96   744 
 2020-08-25 03:49:07  11.0   96   744 
 2020-08-25 03:44:03  11.1   96   744 
 2020-08-25 03:38:59  11.2   96   744 
 2020-08-25 03:33:55  11.2   96   744 
 2020-08-25 03:28:51  11.2   96   744 
 2020-08-25 03:23:47  11.1   96   744 
 2020-08-25 03:18:43  11.1   97   744 
 2020-08-25 03:13:38  11.3   96   744 
 2020-08-25 03:08:34  11.3   95   744 
 2020-08-25 03:03:30  11.2   96   744 
 2020-08-25 02:58:26  11.2   96   744 
 2020-08-25 02:53:22  11.3   96   744 
 2020-08-25 02:48:18  11.4   95   744 
 2020-08-25 02:43:14  11.4   95   744 
 2020-08-25 02:38:09  11.4   96   744 
 2020-08-25 02:33:05  11.5   96   744 
 2020-08-25 02:28:01  11.6   96   744 
 2020-08-25 02:22:57  11.5   96   744 
 2020-08-25 02:17:53  11.4   97   744 
 2020-08-25 02:12:49  11.6   95   744 
 2020-08-25 02:07:45  11.8   94   744 
 2020-08-25 02:02:41  11.9   94   744 
 2020-08-25 01:57:37  11.9   94   744 
 2020-08-25 01:52:32  11.8   95   744 
 2020-08-25 01:47:28  11.9   95   744 
 2020-08-25 01:42:24  12.1   94   744 
 2020-08-25 01:37:20  12.2   94   744 
 2020-08-25 01:32:16  12.1   95   744 
 2020-08-25 01:27:12  12.1   95   744 
 2020-08-25 01:22:08  11.9   94   744 
 2020-08-25 01:17:04  11.8   93   744 
 2020-08-25 01:11:59  11.8   93   744 
 2020-08-25 01:06:55  12.1   90   744 
 2020-08-25 01:01:51  12.4   88   744 
 2020-08-25 00:56:47  12.4   87   744 
 2020-08-25 00:51:43  12.8   85   744 
 2020-08-25 00:46:39  12.7   83   744 
 2020-08-25 00:41:35  12.7   84   744 
 2020-08-25 00:36:30  12.6   84   744 
 2020-08-25 00:31:26  12.6   84   744 
 2020-08-25 00:26:22  12.7   84   744 
 2020-08-25 00:21:18  12.7   84   744 
 2020-08-25 00:16:14  12.6   85   744 
 2020-08-25 00:11:10  12.3   86   744 
 2020-08-25 00:06:06  12.0   89   744 
 2020-08-25 00:01:02  12.2   90   744 
 2020-08-24 23:55:58  12.2   90   744 
 2020-08-24 23:50:54  12.2   89   744 
 2020-08-24 23:45:41  12.3   89   744 
 2020-08-24 23:40:37  12.3   89   744 
 2020-08-24 23:35:33  12.2   88   744 
 2020-08-24 23:30:29  12.4   87   744 
 2020-08-24 23:25:23  12.4   86   744 
 2020-08-24 23:20:19  12.4   85   744 
 2020-08-24 23:15:15  12.4   85   744 
 2020-08-24 23:10:11  12.5   85   744 
 2020-08-24 23:05:07  12.6   85   744 
 2020-08-24 23:00:03  12.6   86   744 
 2020-08-24 22:54:58  12.6   85   744 
 2020-08-24 22:49:54  12.6   85   744 
 2020-08-24 22:44:50  12.8   88   744 
 2020-08-24 22:39:46  12.7   87   744 
 2020-08-24 22:34:42  12.8   87   744 
 2020-08-24 22:29:38  12.7   84   744 
 2020-08-24 22:24:34  12.6   83   744 
 2020-08-24 22:19:30  12.6   85   744 
 2020-08-24 22:14:23  12.7   84   744 
 2020-08-24 22:08:42  12.7   83   744 
 2020-08-24 22:03:35  12.6   85   744 
 2020-08-24 21:53:21  12.9   82   744 
 2020-08-24 21:48:17  13.2   82   744 
 2020-08-24 21:43:10  13.8   73   744 
 2020-08-24 21:38:04  14.3   69   744 
 2020-08-24 21:33:00  14.7   66   744 
 2020-08-24 21:27:56  14.9   66   744 
 2020-08-24 21:22:52  14.8   76   744 
 2020-08-24 21:17:48  15.1   74   744 
 2020-08-24 21:12:42  15.1   74   744 
 2020-08-24 21:07:37  15.1   72   744 
 2020-08-24 21:02:31  15.2   71   744 
 2020-08-24 20:52:10  15.2   69   744 
 2020-08-24 20:47:04  15.3   70   744 
 2020-08-24 20:41:56  15.2   72   744 
 2020-08-24 20:32:46  15.2   71   744 
 2020-08-24 20:27:41  15.2   73   744 
 2020-08-24 20:22:37  15.3   72   744 
 2020-08-24 20:17:32  15.3   71   744 
 2020-08-24 20:10:44  15.2   72   744 
 2020-08-24 20:05:38  15.2   72   744 
 2020-08-24 20:00:34  15.3   71   744 
 2020-08-24 19:55:30  15.4   72   744 
 2020-08-24 19:50:26  15.5   72   744 
 2020-08-24 19:45:21  15.7   71   744 
 2020-08-24 19:40:17  15.9   70   744 
 2020-08-24 19:35:13  15.9   69   744 
 2020-08-24 19:30:09  16.0   68   744 
 2020-08-24 19:25:05  16.1   65   744 
 2020-08-24 19:20:01  16.3   65   744 
 2020-08-24 19:14:57  16.6   62   744 
 2020-08-24 19:09:53  16.5   63   744 
 2020-08-24 19:04:49  16.6   63   744 
 2020-08-24 18:59:45  16.9   63   744 
 2020-08-24 18:54:41  17.1   62   744 
 2020-08-24 18:49:37  17.1   63   744 
 2020-08-24 18:44:33  17.6   59   744 
 2020-08-24 18:39:29  17.6   60   744 
 2020-08-24 18:34:25  17.8   60   744 
 2020-08-24 18:29:21  17.9   59   744 
 2020-08-24 18:24:17  17.9   57   744 
 2020-08-24 18:19:12  18.1   56   744 
 2020-08-24 18:14:08  18.6   56   744 
 2020-08-24 18:09:04  18.8   54   744 
 2020-08-24 17:54:49  19.1   53   744 
 2020-08-24 17:35:22  19.2   52   744 
 2020-08-24 17:30:18  19.0   52   744 
 2020-08-24 17:15:44  19.3   51   744 
 2020-08-24 17:09:46  19.2   53   744 
 2020-08-24 17:04:38  19.0   53   744 
 2020-08-24 16:59:33  19.1   50   744 
 2020-08-24 16:54:29  19.1   52   744 
 2020-08-24 16:49:25  19.4   49   744 
 2020-08-24 16:44:21  19.4   50   744 
 2020-08-24 16:39:17  19.5   50   744 
 2020-08-24 16:34:11  19.6   48   744 
 2020-08-24 16:29:07  19.2   49   744 
 2020-08-24 16:24:03  19.2   48   744 
 2020-08-24 16:18:59  19.5   48   744 
 2020-08-24 16:13:55  19.6   50   744 
 2020-08-24 16:03:41  19.6   49   744 
 2020-08-24 15:58:37  19.5   53   744 
 2020-08-24 15:53:33  19.2   49   744 
 2020-08-24 15:48:28  19.3   55   744 
 2020-08-24 15:43:24  18.9   54   744 
 2020-08-24 15:38:20  18.8   54   744 
 2020-08-24 15:33:16  19.2   54   744 
 2020-08-24 15:28:11  19.6   53   744 
 2020-08-24 15:23:07  19.7   56   744 
 2020-08-24 15:18:03  19.4   56   744 
 2020-08-24 15:12:59  19.4   54   744 
 2020-08-24 15:07:54  19.5   56   744 
 2020-08-24 14:54:35  19.4   58   744 
 2020-08-24 14:49:28  19.1   56   744 
 2020-08-24 14:44:24  19.4   59   744 
 2020-08-24 14:39:19  19.4   56   744 
 2020-08-24 14:34:15  19.1   59   744 
 2020-08-24 14:29:11  19.1   58   744 
 2020-08-24 14:24:07  18.8   59   744 
 2020-08-24 14:19:03  18.5   59   744 
 2020-08-24 14:13:55  18.5   64   744 
 2020-08-24 14:08:51  18.5   62   744 
 2020-08-24 14:03:47  18.4   66   744 
 2020-08-24 13:58:43  17.8   64   744 
 2020-08-24 13:53:39  17.6   64   744 
 2020-08-24 13:48:35  17.9   61   744 
 2020-08-24 13:43:31  18.1   69   744 
 2020-08-24 13:38:27  17.9   74   744 
 2020-08-24 13:33:23  17.1   77   744 
 2020-08-24 13:28:19  16.2   82   744 
 2020-08-24 13:23:15  15.9   85   744 
 2020-08-24 13:18:10  15.8   84   744 
 2020-08-24 13:13:06  16.6   79   744 
 2020-08-24 13:08:02  17.8   67   744 
 2020-08-24 13:02:58  18.2   60   744 
 2020-08-24 12:57:54  18.8   62   744 
 2020-08-24 12:52:50  19.1   61   744 
 2020-08-24 12:47:46  18.9   63   744 
 2020-08-24 12:42:42  18.5   65   744 
 2020-08-24 12:37:38  18.3   64   744 
 2020-08-24 12:32:34  18.2   64   744 
 2020-08-24 12:27:30  17.9   66   744 
 2020-08-24 12:22:26  17.8   67   744 
 2020-08-24 12:17:22  18.2   66   744 
 2020-08-24 12:12:18  17.9   69   744 
 2020-08-24 12:07:14  18.0   69   744 
 2020-08-24 12:02:09  17.7   69   744 
 2020-08-24 11:57:05  17.4   70   744 
 2020-08-24 11:52:01  17.4   70   744 
 2020-08-24 11:46:57  17.3   70   744 
 2020-08-24 11:41:53  17.2   69   744 
 2020-08-24 11:36:49  17.3   71   744 
 2020-08-24 11:31:45  17.3   70   744 
 2020-08-24 11:26:41  17.2   69   744 
 2020-08-24 11:21:37  17.3   69   744 
 2020-08-24 11:16:33  17.2   69   744 
 2020-08-24 11:11:29  17.4   68   744 
 2020-08-24 11:06:25  17.5   69   744 
 2020-08-24 11:01:21  17.2   70   744 
 2020-08-24 10:56:17  17.0   70   744 
 2020-08-24 10:51:13  17.3   68   744 
 2020-08-24 10:46:09  17.4   69   744 
 2020-08-24 10:41:05  17.6   68   744 
 2020-08-24 10:36:01  17.2   68   744 
 2020-08-24 10:30:57  17.1   69   744 
 2020-08-24 10:25:53  17.4   68   744 
 2020-08-24 10:20:48  17.3   69   744 
 2020-08-24 10:15:44  17.4   68   744 
 2020-08-24 10:10:40  16.8   70   744 
 2020-08-24 10:05:36  16.8   71   744 
 2020-08-24 10:00:32  16.8   73   744 
 2020-08-24 09:55:28  16.9   72   744 
 2020-08-24 09:50:24  16.9   71   744 
 2020-08-24 09:45:20  16.6   73   744 
 2020-08-24 09:40:16  16.3   74   744 
 2020-08-24 09:35:12  15.9   75   744 
 2020-08-24 09:30:08  15.8   76   744 
 2020-08-24 09:25:04  15.1   78   744 
 2020-08-24 09:20:00  15.6   76   744 
 2020-08-24 09:02:46  14.7   79   744 
 2020-08-24 08:57:42  14.8   79   744 
 2020-08-24 08:52:38  14.6   80   744 
 2020-08-24 08:47:33  14.0   81   744 
 2020-08-24 00:10:31  12.8   85   744 
 2020-08-24 00:05:27  12.8   86   744 
 2020-08-24 00:00:23  12.8   86   744 
 2020-08-23 23:55:18  12.8   85   744 
 2020-08-23 23:50:14  12.9   85   744 
 2020-08-23 23:45:10  12.9   85   744 
 2020-08-23 23:40:06  12.9   85   744 
 2020-08-23 23:35:02  12.9   85   744 
 2020-08-23 23:29:58  13.0   85   744 
 2020-08-23 23:24:54  13.1   84   744 
 2020-08-23 23:19:50  13.1   83   744 
 2020-08-23 23:14:46  13.2   83   744 
 2020-08-23 23:09:42  13.3   82   744 
 2020-08-23 23:04:38  13.3   82   744 
 2020-08-23 22:59:34  13.4   82   744 
 2020-08-23 22:54:30  13.5   81   744 
 2020-08-23 22:49:26  13.5   81   744 
 2020-08-23 22:44:22  13.6   81   744 
 2020-08-23 22:39:17  13.8   80   744 
 2020-08-23 22:34:13  13.8   80   744 
 2020-08-23 22:29:08  13.8   80   744 
 2020-08-23 22:24:04  13.8   81   744 
 2020-08-23 22:19:00  13.9   80   744 
 2020-08-23 22:13:56  14.0   80   744 
 2020-08-23 22:08:52  14.1   81   744 
 2020-08-23 22:03:48  14.1   81   744 
 2020-08-23 21:58:44  14.1   81   744 
 2020-08-23 21:53:40  14.2   81   744 
 2020-08-23 21:48:36  14.1   81   744 
 2020-08-23 21:43:32  14.4   81   744 
 2020-08-23 21:38:28  14.6   80   744 
 2020-08-23 21:33:24  14.7   79   744 
 2020-08-23 21:28:20  14.8   77   744 
 2020-08-23 21:23:16  14.9   77   744 
 2020-08-23 21:18:11  15.1   76   744 
 2020-08-23 21:13:07  15.2   75   744 
 2020-08-23 21:08:03  15.2   75   744 
 2020-08-23 21:02:59  15.4   74   744 
 2020-08-23 20:57:55  15.6   74   744 
 2020-08-23 20:52:51  15.6   73   744 
 2020-08-23 20:47:47  15.8   72   744 
 2020-08-23 20:42:43  15.9   71   744 
 2020-08-23 20:37:39  15.9   71   744 
 2020-08-23 20:32:35  16.1   70   744 
 2020-08-23 20:27:31  16.1   69   744 
 2020-08-23 20:22:27  16.2   68   744 
 2020-08-23 20:17:23  16.2   67   744 
 2020-08-23 20:12:18  16.2   66   744 
 2020-08-23 20:07:14  16.4   66   744 
 2020-08-23 20:02:10  16.5   65   744 
 2020-08-23 19:57:06  16.7   64   744 
 2020-08-23 19:52:02  16.8   64   744 
 2020-08-23 19:46:58  16.9   63   744 
 2020-08-23 19:41:54  17.0   62   744 
 2020-08-23 19:36:50  17.2   61   744 
 2020-08-23 19:31:46  17.3   61   744 
 2020-08-23 19:26:42  17.4   60   744 
 2020-08-23 19:21:38  17.4   60   744 
 2020-08-23 19:16:34  17.6   59   744 
 2020-08-23 19:11:30  17.6   58   744 
 2020-08-23 19:06:25  17.6   56   744 
 2020-08-23 19:01:21  17.6   56   744 
 2020-08-23 18:56:17  17.8   55   743 
 2020-08-23 18:51:13  17.8   54   743 
 2020-08-23 18:46:09  18.2   52   743 
 2020-08-23 18:41:05  18.5   50   743 
 2020-08-23 18:36:01  18.9   51   743 
 2020-08-23 18:30:57  18.9   51   743 
 2020-08-23 18:25:52  19.0   51   743 
 2020-08-23 18:20:48  19.0   49   743 
 2020-08-23 18:15:44  19.1   50   743 
 2020-08-23 18:10:40  18.9   50   743 
 2020-08-23 18:05:36  18.6   51   743 
 2020-08-23 17:50:23  19.1   50   743 
 2020-08-23 17:45:19  19.2   52   743 
 2020-08-23 17:40:15  18.9   52   743 
 2020-08-23 17:25:03  19.0   46   743 
 2020-08-23 17:19:59  19.2   50   743 
 2020-08-23 17:14:55  19.4   48   743 
 2020-08-23 17:09:51  20.1   49   743 
 2020-08-23 17:04:46  19.8   50   743 
 2020-08-23 16:59:42  20.2   52   743 
 2020-08-23 16:54:38  20.6   51   743 
 2020-08-23 16:49:34  20.4   51   743 
 2020-08-23 16:44:30  20.3   50   743 
 2020-08-23 16:39:26  20.4   51   743 
 2020-08-23 16:34:22  20.5   50   743 
 2020-08-23 16:29:18  20.5   49   743 
 2020-08-23 16:24:14  20.4   49   743 
 2020-08-23 16:19:10  20.4   51   743 
 2020-08-23 16:14:06  20.4   49   743 
 2020-08-23 16:09:02  20.4   48   743 
 2020-08-23 16:03:57  20.5   48   743 
 2020-08-23 15:58:53  20.7   51   743 
 2020-08-23 15:53:49  20.8   50   743 
 2020-08-23 15:48:45  20.6   50   743 
 2020-08-23 15:43:41  20.8   50   743 
 2020-08-23 15:38:37  21.1   49   743 
 2020-08-23 15:33:33  21.2   50   743 
 2020-08-23 15:28:29  21.2   49   743 
 2020-08-23 15:23:25  21.0   49   743 
 2020-08-23 15:18:21  21.1   50   743 
 2020-08-23 15:13:17  21.0   51   743 
 2020-08-23 15:08:13  21.1   51   743 
 2020-08-23 15:03:09  21.2   51   743 
 2020-08-23 14:58:05  21.1   52   743 
 2020-08-23 14:53:01  21.2   51   743 
 2020-08-23 14:47:57  21.1   52   743 
 2020-08-23 14:42:52  21.2   51   743 
 2020-08-23 14:37:48  21.1   50   743 
 2020-08-23 14:32:44  21.4   52   743 
 2020-08-23 14:27:40  21.0   51   743 
 2020-08-23 14:22:36  20.9   52   743 
 2020-08-23 14:17:32  20.8   50   743 
 2020-08-23 14:12:28  20.9   52   743 
 2020-08-23 14:07:24  20.6   54   743 
 2020-08-23 14:02:20  20.2   55   743 
 2020-08-23 13:57:16  19.8   52   743 
 2020-08-23 13:52:12  19.9   54   743 
 2020-08-23 13:47:08  19.7   54   743 
 2020-08-23 13:42:03  20.0   54   743 
 2020-08-23 13:36:59  20.2   54   743 
 2020-08-23 13:31:55  20.6   55   743 
 2020-08-23 13:16:43  19.9   56   744 
 2020-08-23 13:11:39  19.8   57   744 
 2020-08-23 13:06:35  19.6   57   744 
 2020-08-23 13:01:30  20.1   58   744 
 2020-08-23 12:56:26  19.8   58   744 
 2020-08-23 12:51:22  19.7   59   744 
 2020-08-23 12:46:18  19.9   59   744 
 2020-08-23 12:41:14  19.1   61   744 
 2020-08-23 12:36:10  19.3   59   744 
 2020-08-23 12:31:06  19.4   61   744 
 2020-08-23 12:26:01  19.6   61   744 
 2020-08-23 12:20:57  19.8   60   744 
 2020-08-23 12:15:53  19.9   63   744 
 2020-08-23 12:10:49  19.7   62   744 
 2020-08-23 12:05:45  19.8   63   744 
 2020-08-23 12:00:41  19.1   63   744 
 2020-08-23 11:55:37  18.6   66   744 
 2020-08-23 11:50:33  18.8   66   744 
 2020-08-23 11:45:29  18.7   69   744 
 2020-08-23 11:40:24  18.7   66   744 
 2020-08-23 11:35:20  18.8   66   744 
 2020-08-23 11:30:16  18.8   64   744 
 2020-08-23 11:25:12  18.7   64   744 
 2020-08-23 11:20:08  18.5   65   744 
 2020-08-23 11:15:04  18.1   69   744 
 2020-08-23 11:10:00  18.1   67   744 
 2020-08-23 11:04:56  18.2   68   744 
 2020-08-23 10:59:52  18.0   69   744 
 2020-08-23 10:54:48  18.1   68   744 
 2020-08-23 10:49:44  17.4   71   744 
 2020-08-23 10:44:40  17.4   70   744 
 2020-08-23 10:39:35  17.4   71   744 
 2020-08-23 10:34:31  17.4   70   744 
 2020-08-23 10:29:27  17.2   71   744 
 2020-08-23 10:24:23  17.1   71   744 
 2020-08-23 10:19:19  17.1   72   744 
 2020-08-23 10:14:15  16.8   72   744 
 2020-08-23 10:09:11  17.2   71   744 
 2020-08-23 10:04:07  16.8   73   744 
 2020-08-23 09:59:03  16.2   74   744 
 2020-08-23 09:53:59  16.2   75   744 
 2020-08-23 09:48:55  15.9   77   744 
 2020-08-23 09:43:51  15.8   79   744 
 2020-08-23 09:38:47  15.8   76   744 
 2020-08-23 09:33:42  15.4   79   744 
 2020-08-23 09:28:38  14.7   82   744 
 2020-08-23 09:23:34  14.3   83   744 
 2020-08-23 09:18:29  14.2   82   744 
 2020-08-23 09:13:25  13.9   84   744 
 2020-08-23 09:08:21  13.7   86   744 
 2020-08-23 09:03:17  13.6   85   744 
 2020-08-23 08:58:13  13.3   85   744 
 2020-08-23 08:53:08  13.2   85   744 
 2020-08-23 08:48:04  13.1   86   744 
 2020-08-23 08:43:00  13.2   85   744 
 2020-08-23 08:37:56  13.1   86   744 
 2020-08-23 08:32:52  13.1   86   744 
 2020-08-23 08:27:48  13.2   85   744 
 2020-08-23 08:22:44  13.2   86   744 
 2020-08-23 08:17:39  13.2   85   744 
 2020-08-23 08:12:35  13.4   85   744 
 2020-08-23 08:07:31  13.2   87   744 
 2020-08-23 08:02:27  12.9   87   744 
 2020-08-23 07:57:23  12.9   87   744 
 2020-08-23 07:52:19  13.5   84   744 
 2020-08-23 07:47:15  13.4   86   744 
 2020-08-23 07:42:11  12.6   89   744 
 2020-08-23 07:37:07  12.3   91   744 
 2020-08-23 07:32:03  12.1   91   744 
 2020-08-23 07:26:59  11.9   92   744 
 2020-08-23 07:21:55  11.8   92   744 
 2020-08-23 07:16:51  11.6   92   744 
 2020-08-23 07:11:46  11.3   93   744 
 2020-08-23 07:06:42  11.1   94   744 
 2020-08-23 07:01:38  11.1   94   744 
 2020-08-23 06:56:34  10.9   95   744 
 2020-08-23 06:51:30  10.8   95   744 
 2020-08-23 06:46:26  10.9   94   744 
 2020-08-23 06:41:22  10.9   94   744 
 2020-08-23 06:36:18  10.8   95   744 
 2020-08-23 06:31:14  10.8   95   744 
 2020-08-23 06:26:10  10.9   94   744 
 2020-08-23 06:21:06  10.8   95   744 
 2020-08-23 06:16:01  10.8   95   744 
 2020-08-23 06:10:57  10.7   96   744 
 2020-08-23 06:05:53  10.5   97   744 
 2020-08-23 06:00:49  10.6   96   744 
 2020-08-23 05:55:45  10.7   95   744 
 2020-08-23 05:50:41  10.8   95   744 
 2020-08-23 05:45:37  10.9   94   744 
 2020-08-23 05:40:33  10.8   94   744 
 2020-08-23 05:35:29  10.8   94   744 
 2020-08-23 05:30:25  10.8   94   744 
 2020-08-23 05:25:21  10.8   94   744 
 2020-08-23 05:20:17  10.7   94   744 
 2020-08-23 05:15:13  10.8   95   744 
 2020-08-23 05:10:08  10.7   95   745 
 2020-08-23 05:05:04  10.6   94   745 
 2020-08-23 05:00:00  10.6   95   745 
 2020-08-23 04:54:56  10.6   94   745 
 2020-08-23 04:49:52  10.6   93   745 
 2020-08-23 04:44:48  10.6   93   745 
 2020-08-23 04:39:44  10.8   93   745 
 2020-08-23 04:34:40  10.8   94   745 
 2020-08-23 04:29:36  10.8   94   745 
 2020-08-23 04:24:32  10.8   93   745 
 2020-08-23 04:19:28  10.8   94   745 
 2020-08-23 04:14:24  11.0   94   744 
 2020-08-23 04:09:20  11.0   93   744 
 2020-08-23 04:04:15  10.9   94   744 
 2020-08-23 03:59:11  11.0   94   745 
 2020-08-23 03:54:07  10.9   94   745 
 2020-08-23 03:49:03  10.9   94   745 
 2020-08-23 03:43:59  11.1   94   744 
 2020-08-23 03:38:55  10.8   94   745 
 2020-08-23 03:33:51  10.9   94   744 
 2020-08-23 03:28:47  10.8   94   745 
 2020-08-23 03:23:43  10.8   94   745 
 2020-08-23 03:18:39  10.6   95   745 
 2020-08-23 03:13:35  10.6   94   745 
 2020-08-23 03:08:31  10.6   95   745 
 2020-08-23 03:03:27  10.6   96   745 
 2020-08-23 02:58:23  10.4   95   745 
 2020-08-23 02:53:19  10.5   95   745 
 2020-08-23 02:48:15  10.5   95   745 
 2020-08-23 02:43:11  10.5   95   745 
 2020-08-23 02:38:06  10.6   95   745 
 2020-08-23 02:33:02  10.6   95   745 
 2020-08-23 02:27:58  10.5   96   745 
 2020-08-23 02:22:54  10.7   95   745 
 2020-08-23 02:17:50  10.9   94   745 
 2020-08-23 02:12:46  11.0   94   745 
 2020-08-23 02:07:42  11.1   93   745 
 2020-08-23 02:02:38  11.2   93   745 
 2020-08-23 01:57:34  11.2   93   745 
 2020-08-23 01:52:30  11.2   93   745 
 2020-08-23 01:47:26  11.2   94   745 
 2020-08-23 01:42:22  11.1   94   745 
 2020-08-23 01:37:18  11.2   94   745 
 2020-08-23 01:32:14  11.2   94   745 
 2020-08-23 01:27:10  11.1   94   745 
 2020-08-23 01:22:05  11.1   94   745 
 2020-08-23 01:17:01  11.0   95   745 
 2020-08-23 01:11:57  10.9   95   745 
 2020-08-23 01:06:53  10.9   95   745 
 2020-08-23 01:01:49  10.9   95   745 
 2020-08-23 00:56:45  10.9   94   745 
 2020-08-23 00:51:41  10.8   95   745 
 2020-08-23 00:46:37  10.7   95   745 
 2020-08-23 00:41:33  10.8   95   745 
 2020-08-23 00:36:29  10.9   95   745 
 2020-08-23 00:31:25  10.8   96   745 
 2020-08-23 00:26:21  10.8   95   745 
 2020-08-23 00:21:17  10.9   95   745 
 2020-08-23 00:16:13  10.9   95   745 
 2020-08-23 00:11:09  10.9   95   745 
 2020-08-23 00:06:04  11.0   95   745 
 2020-08-23 00:01:00  11.1   94   745 
 2020-08-22 23:55:56  11.1   95   745 
 2020-08-22 23:50:52  11.1   95   745 
 2020-08-22 23:45:48  11.1   95   745 
 2020-08-22 23:40:44  11.1   95   745 
 2020-08-22 23:35:40  11.1   95   745 
 2020-08-22 23:30:36  11.1   95   745 
 2020-08-22 23:25:32  11.1   95   745 
 2020-08-22 23:20:28  11.1   95   745 
 2020-08-22 23:15:24  11.2   95   745 
 2020-08-22 23:10:19  11.2   95   745 
 2020-08-22 23:05:15  11.2   95   745 
 2020-08-22 23:00:11  11.4   94   745 
 2020-08-22 22:55:07  11.6   94   745 
 2020-08-22 22:50:03  11.5   94   745 
 2020-08-22 22:44:58  11.6   94   745 
 2020-08-22 22:39:54  11.6   94   745 
 2020-08-22 22:34:50  11.6   94   745 
 2020-08-22 22:29:46  11.7   93   745 
 2020-08-22 22:24:41  11.8   93   745 
 2020-08-22 22:19:37  11.9   93   745 
 2020-08-22 22:14:33  12.0   93   745 
 2020-08-22 22:09:29  11.9   93   745 
 2020-08-22 22:04:25  12.1   93   745 
 2020-08-22 21:59:21  12.1   93   745 
 2020-08-22 21:54:17  12.3   93   745 
 2020-08-22 21:48:40  12.2   94   745 
 2020-08-22 21:43:36  12.3   93   745 
 2020-08-22 21:38:31  12.4   93   745 
 2020-08-22 21:33:27  12.4   93   745 
 2020-08-22 21:28:22  12.5   93   745 
 2020-08-22 21:23:17  12.6   93   745 
 2020-08-22 21:18:13  12.8   92   745 
 2020-08-22 21:13:09  12.9   92   745 
 2020-08-22 21:08:05  12.9   92   745 
 2020-08-22 21:03:01  13.1   91   745 
 2020-08-22 20:57:57  13.2   91   745 
 2020-08-22 20:52:53  13.2   91   745 
 2020-08-22 20:47:49  13.4   90   745 
 2020-08-22 20:42:43  13.5   90   745 
 2020-08-22 20:37:39  13.6   89   745 
 2020-08-22 20:32:35  13.8   89   745 
 2020-08-22 20:27:31  13.9   88   745 
 2020-08-22 20:22:27  14.1   87   745 
 2020-08-22 20:17:23  14.2   87   745 
 2020-08-22 20:12:18  14.3   86   745 
 2020-08-22 20:07:14  14.4   86   745 
 2020-08-22 20:02:10  14.6   86   745 
 2020-08-22 19:57:06  14.7   85   744 
 2020-08-22 19:52:02  14.8   85   745 
 2020-08-22 19:46:58  14.9   84   744 
 2020-08-22 19:41:54  15.0   85   744 
 2020-08-22 19:36:50  15.1   83   744 
 2020-08-22 19:31:45  15.2   84   744 
 2020-08-22 19:26:41  15.1   83   744 
 2020-08-22 19:21:37  15.0   83   744 
 2020-08-22 19:16:33  15.0   83   744 
 2020-08-22 19:11:29  15.1   82   744 
 2020-08-22 19:06:25  15.3   81   745 
 2020-08-22 19:01:20  15.7   82   745 
 2020-08-22 18:56:16  15.6   85   745 
 2020-08-22 18:51:12  15.5   83   745 
 2020-08-22 18:46:08  15.4   86   745 
 2020-08-22 18:41:04  15.4   87   745 
 2020-08-22 18:36:00  15.3   86   745 
 2020-08-22 18:30:56  15.4   85   745 
 2020-08-22 18:25:52  15.6   82   745 
 2020-08-22 18:20:48  15.6   81   745 
 2020-08-22 18:15:44  15.9   80   745 
 2020-08-22 18:10:40  16.0   80   745 
 2020-08-22 18:05:36  16.4   77   745 
 2020-08-22 18:00:32  16.6   77   745 
 2020-08-22 17:55:28  16.7   76   745 
 2020-08-22 17:50:24  16.6   77   745 
 2020-08-22 17:45:20  16.4   77   745 
 2020-08-22 17:40:15  16.4   76   745 
 2020-08-22 17:35:11  16.2   77   745 
 2020-08-22 17:30:07  16.2   76   745 
 2020-08-22 17:25:03  16.2   74   745 
 2020-08-22 17:19:59  16.1   73   745 
 2020-08-22 17:14:55  16.1   74   745 
 2020-08-22 17:09:51  16.1   77   745 
 2020-08-22 17:04:47  15.9   76   745 
 2020-08-22 16:59:43  16.1   80   745 
 2020-08-22 16:54:39  16.1   79   745 
 2020-08-22 16:49:35  16.1   79   745 
 2020-08-22 16:44:31  16.3   77   745 
 2020-08-22 16:39:27  16.5   76   745 
 2020-08-22 16:34:23  16.9   74   745 
 2020-08-22 16:29:19  16.6   77   745 
 2020-08-22 16:24:15  16.6   75   745 
 2020-08-22 16:19:11  16.2   75   745 
 2020-08-22 16:14:06  16.1   74   745 
 2020-08-22 16:09:02  16.2   74   745 
 2020-08-22 16:03:58  16.2   74   745 
 2020-08-22 15:58:54  16.1   75   745 
 2020-08-22 15:53:50  15.8   75   745 
 2020-08-22 15:48:46  15.7   73   745 
 2020-08-22 15:43:42  15.6   73   744 
 2020-08-22 15:38:38  15.7   72   744 
 2020-08-22 15:33:34  15.8   72   744 
 2020-08-22 15:28:30  16.2   69   744 
 2020-08-22 15:23:26  16.4   68   745 
 2020-08-22 15:18:22  16.9   68   745 
 2020-08-22 15:13:17  16.8   69   745 
 2020-08-22 15:08:12  16.4   69   745 
 2020-08-22 15:03:08  15.9   71   745 
 2020-08-22 14:58:04  15.9   71   745 
 2020-08-22 14:53:00  16.3   69   745 
 2020-08-22 14:47:56  16.1   68   745 
 2020-08-22 14:42:52  16.2   70   745 
 2020-08-22 14:37:48  15.8   71   745 
 2020-08-22 14:32:44  16.1   70   745 
 2020-08-22 14:27:40  15.9   69   745 
 2020-08-22 14:22:36  15.9   70   745 
 2020-08-22 14:17:32  15.5   69   745 
 2020-08-22 14:12:28  15.4   70   745 
 2020-08-22 14:07:24  15.7   71   745 
 2020-08-22 14:02:19  15.4   70   745 
 2020-08-22 13:57:15  15.3   70   745 
 2020-08-22 13:52:11  15.6   71   745 
 2020-08-22 13:47:07  15.7   71   745 
 2020-08-22 13:42:03  15.4   74   745 
 2020-08-22 13:36:59  15.2   73   745 
 2020-08-22 13:31:55  15.0   75   745 
 2020-08-22 13:26:51  14.6   77   745 
 2020-08-22 13:21:47  14.2   78   745 
 2020-08-22 13:16:43  14.3   79   745 
 2020-08-22 13:11:39  14.3   80   745 
 2020-08-22 13:06:35  14.2   81   745 
 2020-08-22 13:01:31  14.1   82   745 
 2020-08-22 12:56:27  13.9   83   745 
 2020-08-22 12:51:23  13.7   83   745 
 2020-08-22 12:46:19  13.8   83   745 
 2020-08-22 12:41:15  13.9   82   745 
 2020-08-22 12:36:11  13.9   83   745 
 2020-08-22 12:31:07  13.9   82   745 
 2020-08-22 12:26:02  13.7   84   746 
 2020-08-22 12:20:58  13.6   84   746 
 2020-08-22 12:15:54  13.5   84   746 
 2020-08-22 12:10:50  13.5   83   746 
 2020-08-22 12:05:46  13.4   83   746 
 2020-08-22 12:00:42  13.1   83   746 
 2020-08-22 11:55:38  13.1   84   746 
 2020-08-22 11:50:34  13.2   82   746 
 2020-08-22 11:45:30  13.2   83   746 
 2020-08-22 11:40:26  13.1   82   746 
 2020-08-22 11:35:22  13.0   82   746 
 2020-08-22 11:30:18  13.3   82   746 
 2020-08-22 11:25:14  13.2   81   746 
 2020-08-22 11:20:10  13.2   80   746 
 2020-08-22 11:15:06  13.4   78   746 
 2020-08-22 11:10:02  14.0   77   745 
 2020-08-22 11:04:58  14.2   75   746 
 2020-08-22 10:59:54  14.2   74   746 
 2020-08-22 10:54:50  14.3   73   745 
 2020-08-22 10:49:45  14.7   72   745 
 2020-08-22 10:44:41  14.5   73   745 
 2020-08-22 10:39:37  14.7   71   745 
 2020-08-22 10:34:33  14.8   70   745 
 2020-08-22 10:29:29  14.6   69   745 
 2020-08-22 10:24:25  14.9   70   745 
 2020-08-22 10:19:21  14.6   70   745 
 2020-08-22 10:14:17  14.5   70   745 
 2020-08-22 10:09:13  14.3   71   745 
 2020-08-22 10:04:09  14.2   70   745 
 2020-08-22 09:59:05  14.6   70   745 
 2020-08-22 09:54:01  14.8   69   745 
 2020-08-22 09:48:57  14.6   69   745 
 2020-08-22 09:43:53  14.1   71   745 
 2020-08-22 09:38:49  13.9   72   745 
 2020-08-22 09:33:44  13.8   72   745 
 2020-08-22 09:28:40  14.0   71   745 
 2020-08-22 09:23:36  14.3   70   745 
 2020-08-22 09:18:32  14.2   71   745 
 2020-08-22 09:13:28  14.4   70   745 
 2020-08-22 09:08:24  14.5   71   745 
 2020-08-22 09:03:20  14.1   72   745 
 2020-08-22 08:58:16  13.9   73   745 
 2020-08-22 08:53:12  14.0   72   745 
 2020-08-22 08:48:08  13.9   72   745 
 2020-08-22 08:43:04  13.8   73   745 
 2020-08-22 08:38:00  13.6   72   745 
 2020-08-22 08:32:56  13.6   72   745 
 2020-08-22 08:27:52  13.3   72   745 
 2020-08-22 08:22:48  13.4   73   745 
 2020-08-22 08:17:43  13.8   72   745 
 2020-08-22 08:12:39  13.2   72   745 
 2020-08-22 08:07:35  13.1   75   745 
 2020-08-22 08:02:31  12.9   76   745 
 2020-08-22 07:57:27  13.1   75   745 
 2020-08-22 07:52:23  13.2   75   745 
 2020-08-22 07:47:19  13.0   75   745 
 2020-08-22 07:42:15  12.6   78   745 
 2020-08-22 07:37:11  11.9   81   745 
 2020-08-22 07:32:07  11.9   81   745 
 2020-08-22 07:27:03  11.8   82   745 
 2020-08-22 07:21:59  11.6   82   745 
 2020-08-22 07:16:55  11.6   83   745 
 2020-08-22 07:11:51  11.6   83   745 
 2020-08-22 07:06:47  11.6   83   745 
 2020-08-22 07:01:42  11.4   83   745 
 2020-08-22 06:56:38  11.5   84   745 
 2020-08-22 06:51:34  11.4   84   744 
 2020-08-22 06:46:30  11.2   86   744 
 2020-08-22 06:41:26  11.1   86   744 
 2020-08-22 06:36:22  11.1   86   744 
 2020-08-22 06:31:18  11.1   86   744 
 2020-08-22 06:26:14  11.1   87   744 
 2020-08-22 06:21:10  11.1   88   744 
 2020-08-22 06:16:06  11.2   87   744 
 2020-08-22 06:11:02  11.2   88   744 
 2020-08-22 06:05:58  11.4   87   744 
 2020-08-22 06:00:54  11.4   87   744 
 2020-08-22 05:55:50  11.4   87   744 
 2020-08-22 05:50:46  11.4   89   744 
 2020-08-22 05:45:42  11.4   88   744 
 2020-08-22 05:40:38  11.4   88   744 
 2020-08-22 05:35:34  11.5   88   744 
 2020-08-22 05:30:30  11.5   88   744 
 2020-08-22 05:25:25  11.4   88   744 
 2020-08-22 05:20:21  11.6   88   744 
 2020-08-22 05:15:17  11.5   89   744 
 2020-08-22 05:10:13  11.5   90   744 
 2020-08-22 05:05:09  11.5   90   744 
 2020-08-22 05:00:05  11.6   91   744 
 2020-08-22 04:55:01  11.5   92   744 
 2020-08-22 04:49:57  11.4   92   744 
 2020-08-22 04:44:53  11.7   92   744 
 2020-08-22 04:39:49  11.6   92   744 
 2020-08-22 04:34:45  11.5   94   744 
 2020-08-22 04:29:41  11.6   93   744 
 2020-08-22 04:24:37  11.7   93   744 
 2020-08-22 04:19:33  11.8   93   744 
 2020-08-22 04:14:29  12.1   91   744 
 2020-08-22 04:09:25  12.1   91   744 
 2020-08-22 04:04:21  12.2   91   744 
 2020-08-22 03:59:17  12.4   88   744 
 2020-08-22 03:54:12  12.5   88   744 
 2020-08-22 03:49:08  12.6   87   744 
 2020-08-22 03:44:04  12.6   86   744 
 2020-08-22 03:39:00  12.4   86   744 
 2020-08-22 03:33:56  12.2   87   744 
 2020-08-22 03:28:52  12.2   85   744 
 2020-08-22 03:23:48  12.3   84   744 
 2020-08-22 03:18:44  12.2   85   744 
 2020-08-22 03:13:40  12.1   84   744 
 2020-08-22 03:08:36  12.1   83   744 
 2020-08-22 03:03:32  12.2   84   744 
 2020-08-22 02:58:28  12.3   81   744 
 2020-08-22 02:53:24  12.4   81   744 
 2020-08-22 02:48:20  12.4   80   744 
 2020-08-22 02:43:16  12.4   80   744 
 2020-08-22 02:38:11  12.4   79   744 
 2020-08-22 02:33:07  12.6   79   744 
 2020-08-22 02:28:03  12.8   78   744 
 2020-08-22 02:22:59  12.8   77   745 
 2020-08-22 02:17:55  12.6   77   745 
 2020-08-22 02:12:51  12.6   79   745 
 2020-08-22 02:07:47  12.9   78   745 
 2020-08-22 02:02:43  12.8   82   745 
 2020-08-22 01:57:39  13.3   79   745 
 2020-08-22 01:52:35  13.4   77   745 
 2020-08-22 01:47:31  13.2   75   745 
 2020-08-22 01:42:26  13.3   78   745 
 2020-08-22 01:37:22  13.4   77   745 
 2020-08-22 01:32:18  13.4   76   745 
 2020-08-22 01:27:14  13.7   75   745 
 2020-08-22 01:22:10  13.6   76   745 
 2020-08-22 01:17:06  13.5   75   745 
 2020-08-22 01:12:02  13.2   78   745 
 2020-08-22 01:06:58  13.0   80   745 
 2020-08-22 01:01:54  13.2   77   745 
 2020-08-22 00:56:50  13.5   77   744 
 2020-08-22 00:51:46  13.8   75   744 
 2020-08-22 00:46:42  14.0   71   744 
 2020-08-22 00:41:38  14.3   68   744 
 2020-08-22 00:36:34  14.4   65   744 
 2020-08-22 00:31:29  14.3   67   744 
 2020-08-22 00:26:25  14.9   69   744 
 2020-08-22 00:21:21  14.8   71   745 
 2020-08-22 00:16:17  14.2   82   745 
 2020-08-22 00:11:13  14.2   83   745 
 2020-08-22 00:06:09  14.1   85   744 
 2020-08-22 00:01:05  14.0   85   744 
 2020-08-21 23:56:01  13.8   86   744 
 2020-08-21 23:50:57  13.6   85   744 
 2020-08-21 23:45:53  13.9   84   744 
 2020-08-21 23:40:49  14.3   82   744 
 2020-08-21 23:35:45  14.4   81   744 
 2020-08-21 23:30:41  14.8   78   744 
 2020-08-21 23:25:36  14.9   76   744 
 2020-08-21 23:20:32  14.9   76   744 
 2020-08-21 23:15:28  14.9   76   744 
 2020-08-21 23:10:24  14.9   76   744 
 2020-08-21 23:05:20  14.9   76   744 
 2020-08-21 23:00:16  14.9   76   744 
 2020-08-21 22:55:12  14.9   76   745 
 2020-08-21 22:50:08  15.0   76   745 
 2020-08-21 22:45:04  14.9   76   745 
 2020-08-21 22:40:00  15.0   76   745 
 2020-08-21 22:34:55  14.9   76   745 
 2020-08-21 22:29:51  14.9   76   745 
 2020-08-21 22:24:47  14.9   77   745 
 2020-08-21 22:19:43  15.0   76   745 
 2020-08-21 22:14:37  14.9   76   745 
 2020-08-21 22:09:33  14.9   76   745 
 2020-08-21 22:04:29  15.1   76   745 
 2020-08-21 21:59:25  15.1   75   745 
 2020-08-21 21:54:21  15.2   74   745 
 2020-08-21 21:49:17  15.3   73   744 
 2020-08-21 21:44:13  15.2   74   744 
 2020-08-21 21:39:09  15.4   72   744 
 2020-08-21 21:34:05  15.6   71   744 
 2020-08-21 21:29:01  15.6   70   744 
 2020-08-21 21:23:56  15.8   70   744 
 2020-08-21 21:18:52  16.0   68   744 
 2020-08-21 21:13:48  16.1   68   744 
 2020-08-21 21:08:44  16.2   66   744 
 2020-08-21 21:03:40  16.3   65   744 
 2020-08-21 20:58:36  16.3   66   744 
 2020-08-21 20:53:32  16.5   65   744 
 2020-08-21 20:48:28  16.6   64   744 
 2020-08-21 20:43:24  16.8   63   744 
 2020-08-21 20:38:20  16.9   62   744 
 2020-08-21 20:33:16  17.1   61   744 
 2020-08-21 20:28:12  17.2   60   744 
 2020-08-21 20:23:08  17.4   59   744 
 2020-08-21 20:18:04  17.4   59   744 
 2020-08-21 20:13:00  17.6   57   744 
 2020-08-21 20:07:55  17.8   57   744 
 2020-08-21 20:02:51  17.8   56   744 
 2020-08-21 19:57:47  17.9   55   744 
 2020-08-21 19:52:43  17.9   55   744 
 2020-08-21 19:47:38  18.1   54   744 
 2020-08-21 19:42:34  18.1   54   744 
 2020-08-21 19:37:29  18.2   53   744 
 2020-08-21 19:32:25  18.4   52   744 
 2020-08-21 19:27:21  18.6   51   744 
 2020-08-21 19:22:17  18.8   50   744 
 2020-08-21 19:17:13  18.9   50   744 
 2020-08-21 19:12:09  19.1   48   744 
 2020-08-21 19:07:05  19.1   48   744 
 2020-08-21 19:02:01  19.4   49   744 
 2020-08-21 18:56:57  19.5   50   744 
 2020-08-21 18:51:53  19.6   49   744 
 2020-08-21 18:46:48  19.6   49   744 
 2020-08-21 18:41:44  19.7   50   744 
 2020-08-21 18:36:40  19.8   48   744 
 2020-08-21 18:31:36  20.0   48   744 
 2020-08-21 18:26:32  19.9   49   744 
 2020-08-21 18:21:28  19.8   50   744 
 2020-08-21 18:16:24  19.8   50   744 
 2020-08-21 18:11:20  19.8   50   744 
 2020-08-21 18:06:16  19.6   51   744 
 2020-08-21 18:01:12  19.4   51   744 
 2020-08-21 17:56:08  19.4   51   744 
 2020-08-21 17:51:04  19.6   51   744 
 2020-08-21 17:46:00  19.5   52   744 
 2020-08-21 17:40:55  19.2   52   744 
 2020-08-21 17:35:51  19.2   52   744 
 2020-08-21 17:30:47  19.3   51   744 
 2020-08-21 17:25:43  19.2   51   744 
 2020-08-21 17:20:39  19.3   52   744 
 2020-08-21 17:15:35  19.8   52   744 
 2020-08-21 17:10:31  20.0   53   744 
 2020-08-21 17:05:27  19.7   52   744 
 2020-08-21 17:00:23  19.7   52   744 
 2020-08-21 16:55:19  19.7   52   744 
 2020-08-21 16:50:15  19.6   53   744 
 2020-08-21 16:45:11  19.6   53   744 
 2020-08-21 16:40:06  19.7   52   744 
 2020-08-21 16:35:02  19.8   52   744 
 2020-08-21 16:29:58  20.0   49   744 
 2020-08-21 16:24:54  20.1   45   744 
 2020-08-21 16:19:50  20.1   46   744 
 2020-08-21 16:14:46  20.0   48   744 
 2020-08-21 16:09:42  20.0   51   744 
 2020-08-21 16:04:38  19.8   49   744 
 2020-08-21 15:59:34  19.9   50   744 
 2020-08-21 15:54:30  19.7   51   744 
 2020-08-21 15:49:26  19.4   53   744 
 2020-08-21 15:44:22  19.4   55   744 
 2020-08-21 15:39:18  19.1   55   744 
 2020-08-21 15:34:14  19.6   54   744 
 2020-08-21 15:29:10  19.6   52   744 
 2020-08-21 15:24:06  19.8   53   744 
 2020-08-21 15:19:01  19.5   55   744 
 2020-08-21 15:13:57  19.5   53   744 
 2020-08-21 15:08:53  19.2   55   744 
 2020-08-21 15:03:49  19.0   57   744 
 2020-08-21 14:58:45  18.8   58   744 
 2020-08-21 14:53:40  18.8   57   744 
 2020-08-21 14:48:35  18.8   57   744 
 2020-08-21 14:43:31  18.6   58   744 
 2020-08-21 14:38:27  19.1   56   744 
 2020-08-21 14:33:22  19.2   58   744 
 2020-08-21 14:28:18  19.1   58   744 
 2020-08-21 14:23:14  18.9   58   744 
 2020-08-21 14:18:10  19.1   56   744 
 2020-08-21 14:13:06  18.8   56   744 
 2020-08-21 14:08:02  19.4   56   744 
 2020-08-21 14:02:58  19.1   56   745 
 2020-08-21 13:57:53  19.2   57   745 
 2020-08-21 13:52:49  19.1   55   745 
 2020-08-21 13:47:45  18.6   60   745 
 2020-08-21 13:42:41  17.8   59   745 
 2020-08-21 13:37:37  18.7   58   745 
 2020-08-21 13:32:29  18.6   59   745 
 2020-08-21 13:27:25  18.2   60   745 
 2020-08-21 13:22:21  18.2   58   745 
 2020-08-21 13:17:17  18.1   60   745 
 2020-08-21 13:12:13  18.4   59   745 
 2020-08-21 13:07:08  18.3   58   745 
 2020-08-21 13:02:04  18.2   58   745 
 2020-08-21 12:57:00  18.0   59   745 
 2020-08-21 12:51:56  17.5   62   745 
 2020-08-21 12:46:52  17.7   60   745 
 2020-08-21 12:41:48  17.8   59   745 
 2020-08-21 12:36:44  17.6   59   745 
 2020-08-21 12:31:40  17.8   62   745 
 2020-08-21 12:26:36  17.2   60   745 
 2020-08-21 12:21:32  17.5   61   745 
 2020-08-21 12:16:28  17.2   64   745 
 2020-08-21 12:11:24  16.7   67   745 
 2020-08-21 12:06:20  16.4   66   745 
 2020-08-21 12:01:16  16.0   67   745 
 2020-08-21 11:56:12  16.1   67   745 
 2020-08-21 11:51:08  16.1   67   745 
 2020-08-21 11:46:03  16.3   66   745 
 2020-08-21 11:40:59  16.1   67   746 
 2020-08-21 11:35:55  15.9   69   746 
 2020-08-21 11:30:51  15.6   69   746 
 2020-08-21 11:25:47  15.5   68   746 
 2020-08-21 11:20:43  15.0   69   746 
 2020-08-21 11:15:39  15.1   69   746 
 2020-08-21 11:10:35  14.6   71   746 
 2020-08-21 11:05:31  14.5   72   746 
 2020-08-21 11:00:27  14.2   72   746 
 2020-08-21 10:55:23  14.4   71   746 
 2020-08-21 10:50:19  14.2   71   746 
 2020-08-21 10:45:15  13.9   72   746 
 2020-08-21 10:40:11  13.9   72   746 
 2020-08-21 10:35:06  13.8   74   746 
 2020-08-21 10:30:02  13.8   73   745 
 2020-08-21 10:24:58  13.6   74   746 
 2020-08-21 10:19:54  13.6   74   745 
 2020-08-21 10:14:50  13.6   74   745 
 2020-08-21 10:09:46  13.2   73   746 
 2020-08-21 10:04:42  13.2   72   746 
 2020-08-21 09:59:38  13.1   75   746 
 2020-08-21 09:54:34  12.9   75   746 
 2020-08-21 09:49:30  13.2   72   746 
 2020-08-21 09:44:25  13.1   74   746 
 2020-08-21 09:39:21  12.8   74   746 
 2020-08-21 09:34:17  12.4   76   746 
 2020-08-21 09:29:12  11.9   77   746 
 2020-08-21 09:24:08  11.9   78   746 
 2020-08-21 09:19:03  11.6   77   746 
 2020-08-21 09:13:59  11.5   77   746 
 2020-08-21 09:08:55  11.3   78   746 
 2020-08-21 09:03:50  11.1   77   746 
 2020-08-21 08:58:46  11.2   75   746 
 2020-08-21 08:53:41  11.4   75   746 
 2020-08-21 08:48:37  10.6   78   746 
 2020-08-21 08:43:32  10.4   79   746 
 2020-08-21 08:38:28  10.2   80   746 
 2020-08-21 08:33:24  10.2   79   746 
 2020-08-21 08:28:20  9.9   81   746 
 2020-08-21 08:23:16  9.8   83   746 
 2020-08-21 08:18:12  9.6   82   746 
 2020-08-21 08:13:07  9.4   83   746 
 2020-08-21 08:08:03  9.2   83   746 
 2020-08-21 08:02:58  9.2   83   746 
 2020-08-21 07:57:54  9.3   82   746 
 2020-08-21 07:52:50  9.6   82   746 
 2020-08-21 07:47:46  9.8   80   746 
 2020-08-21 07:42:42  9.6   83   746 
 2020-08-21 07:37:38  8.2   87   746 
 2020-08-21 07:32:34  8.1   88   746 
 2020-08-21 07:27:30  7.8   88   746 
 2020-08-21 07:22:26  7.8   88   746 
 2020-08-21 07:17:21  7.6   88   746 
 2020-08-21 07:12:17  7.9   87   746 
 2020-08-21 07:07:13  7.6   89   746 
 2020-08-21 07:02:09  7.5   88   746 
 2020-08-21 06:57:05  7.4   88   746 
 2020-08-21 06:52:01  7.2   89   746 
 2020-08-21 06:46:57  7.1   89   746 
 2020-08-21 06:41:52  6.9   90   746 
 2020-08-21 06:36:48  6.9   90   746 
 2020-08-21 06:31:44  6.9   89   746 
 2020-08-21 06:21:36  6.9   91   746 
 2020-08-21 06:16:32  6.9   92   746 
 2020-08-21 06:11:28  6.8   91   746 
 2020-08-21 06:06:24  6.8   92   746 
 2020-08-21 06:01:19  6.8   92   746 
 2020-08-21 05:56:15  6.7   92   746 
 2020-08-21 05:51:11  6.8   92   746 
 2020-08-21 05:46:07  6.6   92   746 
 2020-08-21 05:41:03  6.7   92   746 
 2020-08-21 05:35:59  6.5   92   746 
 2020-08-21 05:30:55  6.6   92   746 
 2020-08-21 05:25:51  6.6   93   746 
 2020-08-21 05:20:46  6.8   93   746 
 2020-08-21 05:15:42  6.8   92   746 
 2020-08-21 05:10:38  6.9   93   746 
 2020-08-21 05:05:34  6.8   93   746 
 2020-08-21 05:00:30  6.8   92   746 
 2020-08-21 04:55:26  6.8   92   746 
 2020-08-21 04:50:21  6.9   92   746 
 2020-08-21 04:45:17  6.8   92   746 
 2020-08-21 04:40:12  6.9   92   746 
 2020-08-21 04:35:08  6.8   92   746 
 2020-08-21 04:30:04  6.9   92   746 
 2020-08-21 04:25:00  6.9   91   746 
 2020-08-21 04:19:56  6.9   92   746 
 2020-08-21 04:14:52  6.9   92   746 
 2020-08-21 04:09:47  6.9   92   746 
 2020-08-21 04:04:43  7.0   92   746 
 2020-08-21 03:59:39  7.1   91   746 
 2020-08-21 03:54:35  7.1   92   746 
 2020-08-21 03:49:31  7.1   92   746 
 2020-08-21 03:44:27  7.1   92   746 
 2020-08-21 03:39:23  7.1   92   746 
 2020-08-21 03:34:19  7.1   92   746 
 2020-08-21 03:29:14  7.0   92   746 
 2020-08-21 03:24:10  7.1   92   746 
 2020-08-21 03:19:06  7.0   92   746 
 2020-08-21 03:14:02  7.1   92   746 
 2020-08-21 03:08:58  7.2   92   746 
 2020-08-21 03:03:54  7.2   92   746 
 2020-08-21 02:58:50  7.2   92   746 
 2020-08-21 02:53:46  7.2   92   746 
 2020-08-21 02:48:41  7.3   92   746 
 2020-08-21 02:43:37  7.5   92   746 
 2020-08-21 02:38:33  7.8   91   746 
 2020-08-21 02:33:29  7.8   91   746 
 2020-08-21 02:28:25  7.9   91   746 
 2020-08-21 02:23:21  8.2   90   746 
 2020-08-21 02:18:17  8.2   91   746 
 2020-08-21 02:13:13  8.3   92   746 
 2020-08-21 02:08:09  8.2   92   746 
 2020-08-21 02:03:04  8.2   92   746 
 2020-08-21 01:58:00  8.3   92   746 
 2020-08-21 01:52:56  8.2   92   746 
 2020-08-21 01:47:52  8.2   92   746 
 2020-08-21 01:42:48  8.3   91   746 
 2020-08-21 01:37:44  8.4   91   746 
 2020-08-21 01:32:40  8.4   91   746 
 2020-08-21 01:27:36  8.4   92   746 
 2020-08-21 01:22:31  8.4   91   746 
 2020-08-21 01:17:27  8.4   91   746 
 2020-08-21 01:12:23  8.5   91   746 
 2020-08-21 01:07:19  8.6   91   747 
 2020-08-21 01:02:15  8.5   91   747 
 2020-08-21 00:57:11  8.6   91   747 
 2020-08-21 00:52:07  8.7   90   747 
 2020-08-21 00:47:03  8.8   89   747 
 2020-08-21 00:41:58  8.8   90   747 
 2020-08-21 00:36:54  8.8   89   747 
 2020-08-21 00:31:50  8.8   90   747 
 2020-08-21 00:26:46  8.8   89   747 
 2020-08-21 00:21:41  8.9   90   747 
 2020-08-21 00:16:36  8.8   90   747 
 2020-08-21 00:11:32  9.0   89   747 
 2020-08-21 00:06:28  9.0   90   747 
 2020-08-21 00:01:24  8.9   89   747 
 2020-08-20 23:56:20  9.1   88   747 
 2020-08-20 23:51:15  9.1   88   747 
 2020-08-20 23:46:11  9.3   88   746 
 2020-08-20 23:41:04  9.5   87   746 
 2020-08-20 23:25:42  9.6   86   746 
 2020-08-20 23:20:34  9.6   86   746 
 2020-08-20 23:15:30  9.6   86   746 
 2020-08-20 23:10:26  9.8   86   746 
 2020-08-20 23:05:21  9.8   87   746 
 2020-08-20 23:00:17  9.9   86   746 
 2020-08-20 22:55:13  10.1   86   746 
 2020-08-20 22:50:09  10.4   86   746 
 2020-08-20 22:45:03  10.4   85   746 
 2020-08-20 22:39:59  10.5   83   746 
 2020-08-20 22:34:54  10.6   84   746 
 2020-08-20 22:29:49  10.7   84   746 
 2020-08-20 22:24:45  10.8   83   746 
 2020-08-20 22:19:41  10.7   82   746 
 2020-08-20 22:14:37  10.9   81   746 
 2020-08-20 22:09:32  11.1   81   746 
 2020-08-20 22:04:28  11.1   81   746 
 2020-08-20 21:59:24  11.1   81   746 
 2020-08-20 21:54:20  11.2   81   746 
 2020-08-20 21:49:16  11.3   79   746 
 2020-08-20 21:44:10  11.6   78   746 
 2020-08-20 21:39:06  11.6   79   746 
 2020-08-20 21:34:02  11.7   77   746 
 2020-08-20 21:28:58  11.8   76   746 
 2020-08-20 21:23:53  12.0   76   746 
 2020-08-20 21:18:49  12.1   76   746 
 2020-08-20 21:13:45  12.1   75   746 
 2020-08-20 21:08:41  12.2   76   746 
 2020-08-20 21:03:37  12.1   75   746 
 2020-08-20 20:58:33  11.9   76   746 
 2020-08-20 20:53:29  12.0   73   746 
 2020-08-20 20:48:25  12.1   73   746 
 2020-08-20 20:43:21  12.2   71   746 
 2020-08-20 20:38:15  12.3   70   746 
 2020-08-20 20:33:11  12.4   69   746 
 2020-08-20 20:28:07  12.4   69   746 
 2020-08-20 20:23:03  12.6   68   746 
 2020-08-20 20:17:59  12.8   67   746 
 2020-08-20 20:12:53  13.0   67   745 
 2020-08-20 20:07:49  13.3   67   746 
 2020-08-20 20:02:44  14.1   70   746 
 2020-08-20 19:57:39  14.9   83   745 
 2020-08-20 19:52:35  14.9   84   745 
 2020-08-20 19:47:31  15.2   83   744 
 2020-08-20 19:42:25  15.1   82   744 
 2020-08-20 19:37:21  15.1   82   744 
 2020-08-20 19:32:17  15.2   83   744 
 2020-08-20 19:27:13  15.3   82   744 
 2020-08-20 19:22:07  15.4   81   744 
 2020-08-20 19:17:03  15.4   82   744 
 2020-08-20 19:11:59  15.4   83   744 
 2020-08-20 19:06:55  15.4   81   744 
 2020-08-20 19:01:51  15.6   81   744 
 2020-08-20 18:56:47  16.1   79   744 
 2020-08-20 18:51:43  17.0   77   744 
 2020-08-20 18:46:39  17.3   71   744 
 2020-08-20 18:36:30  17.5   69   744 
 2020-08-20 18:31:26  17.5   72   744 
 2020-08-20 18:26:22  17.6   68   744 
 2020-08-20 18:21:18  17.8   66   744 
 2020-08-20 18:16:14  18.0   62   744 
 2020-08-20 18:11:10  18.1   61   743 
 2020-08-20 18:06:06  18.1   61   743 
 2020-08-20 18:01:02  18.3   62   743 
 2020-08-20 17:55:58  18.5   61   743 
 2020-08-20 17:50:54  18.2   64   743 
 2020-08-20 17:45:50  18.8   63   743 
 2020-08-20 17:40:45  19.1   59   743 
 2020-08-20 17:35:41  19.4   58   743 
 2020-08-20 17:30:37  19.4   58   743 
 2020-08-20 17:25:33  19.5   58   743 
 2020-08-20 17:20:29  19.7   57   743 
 2020-08-20 17:15:25  19.9   57   743 
 2020-08-20 17:10:21  19.9   55   743 
 2020-08-20 17:05:17  20.1   56   743 
 2020-08-20 17:00:12  20.3   59   743 
 2020-08-20 16:55:08  20.1   59   743 
 2020-08-20 16:50:04  19.5   64   743 
 2020-08-20 16:45:00  19.3   63   743 
 2020-08-20 16:39:56  19.6   62   743 
 2020-08-20 16:34:52  19.4   61   743 
 2020-08-20 16:29:48  19.2   57   743 
 2020-08-20 16:24:44  19.3   55   743 
 2020-08-20 16:19:39  19.6   55   743 
 2020-08-20 16:14:35  19.6   55   743 
 2020-08-20 16:09:31  19.9   54   743 
 2020-08-20 16:04:27  19.8   54   743 
 2020-08-20 15:59:22  19.6   56   743 
 2020-08-20 15:54:18  19.6   55   743 
 2020-08-20 15:49:14  19.8   54   743 
 2020-08-20 15:44:10  20.1   54   743 
 2020-08-20 15:39:06  20.0   53   743 
 2020-08-20 15:34:02  19.9   55   743 
 2020-08-20 15:28:58  19.6   54   743 
 2020-08-20 15:23:54  19.9   54   743 
 2020-08-20 15:18:50  19.8   54   743 
 2020-08-20 15:13:45  19.1   54   743 
 2020-08-20 15:08:41  18.8   56   743 
 2020-08-20 15:03:37  18.9   57   743 
 2020-08-20 14:58:33  18.9   64   743 
 2020-08-20 14:53:29  18.2   66   743 
 2020-08-20 14:48:25  18.3   66   743 
 2020-08-20 14:43:21  18.0   66   743 
 2020-08-20 14:38:17  18.4   63   743 
 2020-08-20 14:33:13  18.7   58   743 
 2020-08-20 14:28:09  19.7   54   743 
 2020-08-20 14:23:05  20.0   50   743 
 2020-08-20 14:18:01  19.9   53   743 
 2020-08-20 14:12:57  19.8   54   743 
 2020-08-20 14:07:53  20.2   52   743 
 2020-08-20 14:02:48  20.1   53   743 
 2020-08-20 13:57:44  19.3   55   743 
 2020-08-20 13:52:40  19.9   54   743 
 2020-08-20 13:47:36  19.4   56   743 
 2020-08-20 13:42:32  19.0   57   743 
 2020-08-20 13:37:28  19.9   55   743 
 2020-08-20 13:32:24  19.7   57   743 
 2020-08-20 13:27:20  19.6   56   743 
 2020-08-20 13:22:16  19.5   59   743 
 2020-08-20 13:17:12  19.1   58   743 
 2020-08-20 13:12:08  18.2   59   743 
 2020-08-20 13:07:04  18.7   60   743 
 2020-08-20 13:02:00  18.9   63   743 
 2020-08-20 12:56:56  18.6   62   743 
 2020-08-20 12:51:52  18.6   61   743 
 2020-08-20 12:46:48  18.5   61   743 
 2020-08-20 12:41:43  18.2   65   743 
 2020-08-20 12:36:39  18.6   64   743 
 2020-08-20 12:31:35  17.6   67   743 
 2020-08-20 12:26:31  17.4   69   743 
 2020-08-20 12:21:27  17.3   71   743 
 2020-08-20 12:16:23  16.6   70   743 
 2020-08-20 12:11:19  16.7   70   743 
 2020-08-20 12:06:15  16.8   70   743 
 2020-08-20 12:01:11  17.0   70   743 
 2020-08-20 11:56:07  16.9   69   743 
 2020-08-20 11:51:03  17.1   70   743 
 2020-08-20 11:45:59  16.7   72   743 
 2020-08-20 11:40:55  16.1   73   743 
 2020-08-20 11:35:50  15.9   73   743 
 2020-08-20 11:30:46  16.3   72   743 
 2020-08-20 11:25:42  16.0   74   743 
 2020-08-20 11:20:38  16.1   75   743 
 2020-08-20 11:15:34  15.5   75   743 
 2020-08-20 11:10:30  15.4   76   743 
 2020-08-20 11:05:26  15.2   78   743 
 2020-08-20 11:00:22  15.1   77   743 
 2020-08-20 10:55:18  15.2   77   743 
 2020-08-20 10:50:14  15.4   75   742 
 2020-08-20 10:45:10  15.1   76   742 
 2020-08-20 10:40:06  15.0   76   742 
 2020-08-20 10:35:01  15.1   76   742 
 2020-08-20 10:29:57  14.9   77   742 
 2020-08-20 10:24:53  15.1   77   742 
 2020-08-20 10:19:49  15.1   75   742 
 2020-08-20 10:14:45  15.1   76   742 
 2020-08-20 10:09:41  15.5   74   742 
 2020-08-20 10:04:37  15.6   74   742 
 2020-08-20 09:59:33  15.4   75   742 
 2020-08-20 09:54:29  15.2   77   742 
 2020-08-20 09:49:25  14.8   78   742 
 2020-08-20 09:44:21  14.9   77   742 
 2020-08-20 09:39:17  14.9   76   742 
 2020-08-20 09:34:13  15.2   76   742 
 2020-08-20 09:29:09  15.5   75   742 
 2020-08-20 09:24:05  15.4   77   742 
 2020-08-20 09:19:00  15.1   78   742 
 2020-08-20 09:13:56  14.7   80   742 
 2020-08-20 09:08:52  14.5   82   742 
 2020-08-20 09:03:48  14.4   82   742 
 2020-08-20 08:58:44  15.1   79   742 
 2020-08-20 08:53:40  15.1   79   742 
 2020-08-20 08:48:36  13.7   85   742 
 2020-08-20 08:43:32  14.1   84   742 
 2020-08-20 08:38:27  13.8   86   742 
 2020-08-20 08:33:23  13.5   88   742 
 2020-08-20 08:28:19  13.2   89   742 
 2020-08-20 08:23:15  12.7   91   742 
 2020-08-20 08:18:11  12.5   91   742 
 2020-08-20 08:13:07  12.2   92   742 
 2020-08-20 08:08:03  12.2   93   742 
 2020-08-20 08:02:59  12.2   91   742 
 2020-08-20 07:57:55  12.4   89   742 
 2020-08-20 07:52:51  12.5   88   742 
 2020-08-20 07:47:47  12.2   86   742 
 2020-08-20 07:42:42  12.1   87   742 
 2020-08-20 07:37:38  11.9   87   742 
 2020-08-20 07:32:34  11.8   88   742 
 2020-08-20 07:27:30  11.9   88   742 
 2020-08-20 07:22:26  11.9   87   742 
 2020-08-20 07:17:22  11.9   87   742 
 2020-08-20 07:12:18  11.8   87   742 
 2020-08-20 07:07:14  11.8   88   742 
 2020-08-20 07:02:10  11.7   88   742 
 2020-08-20 06:57:05  11.6   88   742 
 2020-08-20 06:52:01  11.6   88   742 
 2020-08-20 06:46:56  11.5   89   742 
 2020-08-20 06:41:52  11.4   89   742 
 2020-08-20 06:36:48  11.4   89   742 
 2020-08-20 06:31:44  11.3   89   742 
 2020-08-20 06:26:40  11.4   89   742 
 2020-08-20 06:21:36  11.4   88   742 
 2020-08-20 06:16:31  11.5   87   742 
 2020-08-20 06:11:27  11.6   87   742 
 2020-08-20 06:06:23  11.6   87   742 
 2020-08-20 06:01:19  11.6   87   742 
 2020-08-20 05:56:15  11.6   87   742 
 2020-08-20 05:51:11  11.4   87   742 
 2020-08-20 05:46:06  11.6   87   742 
 2020-08-20 05:41:02  11.6   87   742 
 2020-08-20 05:35:58  11.6   87   742 
 2020-08-20 05:30:54  11.6   87   742 
 2020-08-20 05:25:50  11.5   86   742 
 2020-08-20 05:20:46  11.6   86   742 
 2020-08-20 05:15:42  11.7   85   742 
 2020-08-20 05:10:38  11.9   85   742 
 2020-08-20 05:05:33  12.1   84   742 
 2020-08-20 05:00:29  12.1   85   743 
 2020-08-20 04:55:25  12.1   85   743 
 2020-08-20 04:50:21  12.0   86   743 
 2020-08-20 04:45:17  12.1   85   743 
 2020-08-20 04:40:13  12.1   85   743 
 2020-08-20 04:35:09  12.1   85   743 
 2020-08-20 04:30:05  12.1   84   743 
 2020-08-20 04:25:00  12.4   84   743 
 2020-08-20 04:19:56  12.4   83   743 
 2020-08-20 04:14:52  12.3   83   743 
 2020-08-20 04:09:48  12.5   83   743 
 2020-08-20 04:04:44  12.5   83   743 
 2020-08-20 03:59:40  12.4   83   743 
 2020-08-20 03:54:36  12.6   82   743 
 2020-08-20 03:49:32  12.6   83   743 
 2020-08-20 03:44:27  12.6   83   743 
 2020-08-20 03:39:23  12.6   83   743 
 2020-08-20 03:34:19  12.6   82   743 
 2020-08-20 03:29:15  12.4   83   743 
 2020-08-20 03:24:11  12.5   82   743 
 2020-08-20 03:19:07  12.6   82   743 
 2020-08-20 03:14:03  12.7   80   743 
 2020-08-20 03:08:59  12.8&nb